GFSGBSN_prec_precacc24_024.txt.gz
Total_Precipitation_Accumulation
0.09 0.07 0.08 0.09 0.08 0.08 0.08 0.08 0.09 0.08 0.07 0.08 0.10 0.09 0.08 0.08 0.08 0.12 0.13 0.10 0.11 0.08 0.01 0.00 0.00 0.01 0.01 0.07 0.04 0.00 0.00 0.00 0.07 0.27 0.04 0.01 0.00 0.00 0.00 0.00 0.00 0.00 0.00 0.00 0.00 0.00 0.00
0.05 0.05 0.04 0.06 0.07 0.07 0.09 0.10 0.10 0.10 0.09 0.09 0.10 0.11 0.11 0.11 0.09 0.09 0.10 0.08 0.07 0.09 0.04 0.01 0.00 0.01 0.01 0.01 0.00 0.00 0.00 0.00 0.01 0.15 0.08 0.02 0.01 0.00 0.00 0.00 0.01 0.00 0.00 0.00 0.00 0.00 0.00
0.03 0.04 0.05 0.07 0.08 0.09 0.11 0.12 0.12 0.12 0.12 0.12 0.13 0.13 0.10 0.10 0.13 0.12 0.12 0.11 0.09 0.11 0.04 0.00 0.01 0.00 0.00 0.00 0.00 0.00 0.00 0.00 0.01 0.14 0.13 0.06 0.03 0.04 0.04 0.01 0.00 0.01 0.04 0.01 0.00 0.00 0.00
0.04 0.05 0.06 0.07 0.09 0.09 0.11 0.11 0.11 0.12 0.14 0.14 0.15 0.16 0.15 0.14 0.14 0.14 0.14 0.14 0.14 0.16 0.13 0.03 0.03 0.01 0.01 0.00 0.00 0.00 0.00 0.00 0.00 0.08 0.20 0.12 0.02 0.04 0.04 0.02 0.00 0.02 0.03 0.01 0.00 0.00 0.00
0.05 0.06 0.06 0.07 0.07 0.08 0.09 0.09 0.11 0.10 0.12 0.15 0.16 0.14 0.15 0.16 0.19 0.17 0.18 0.22 0.23 0.25 0.29 0.16 0.03 0.01 0.00 0.00 0.00 0.00 0.00 0.00 0.01 0.03 0.08 0.05 0.02 0.00 0.02 0.04 0.02 0.02 0.01 0.01 0.00 0.00 0.00
0.04 0.05 0.05 0.06 0.06 0.08 0.10 0.12 0.13 0.12 0.14 0.17 0.16 0.16 0.18 0.20 0.26 0.28 0.33 0.44 0.47 0.38 0.42 0.24 0.05 0.03 0.00 0.00 0.00 0.00 0.00 0.00 0.00 0.00 0.02 0.03 0.00 0.00 0.00 0.03 0.02 0.01 0.02 0.01 0.00 0.00 0.01
0.03 0.04 0.06 0.07 0.10 0.13 0.16 0.16 0.14 0.14 0.18 0.19 0.21 0.22 0.27 0.33 0.30 0.43 0.65 0.87 0.86 0.74 0.43 0.16 0.03 0.00 0.00 0.00 0.00 0.00 0.00 0.00 0.00 0.00 0.00 0.00 0.01 0.01 0.00 0.00 0.00 0.00 0.00 0.01 0.00 0.01 0.04
0.03 0.03 0.06 0.10 0.16 0.17 0.17 0.16 0.16 0.16 0.16 0.21 0.26 0.32 0.31 0.26 0.29 0.62 0.91 0.88 0.48 0.39 0.26 0.05 0.00 0.00 0.00 0.00 0.00 0.00 0.00 0.00 0.00 0.01 0.00 0.00 0.01 0.00 0.00 0.00 0.00 0.00 0.01 0.01 0.01 0.01 0.07
0.03 0.04 0.09 0.18 0.19 0.19 0.19 0.22 0.22 0.26 0.30 0.33 0.35 0.31 0.30 0.28 0.42 0.82 0.70 0.48 0.31 0.44 0.31 0.10 0.00 0.00 0.00 0.00 0.00 0.00 0.00 0.00 0.00 0.00 0.01 0.01 0.00 0.00 0.00 0.00 0.00 0.00 0.00 0.00 0.01 0.04 0.06
0.03 0.05 0.08 0.09 0.18 0.23 0.26 0.31 0.40 0.46 0.47 0.57 0.43 0.38 0.36 0.49 0.98 0.64 0.56 0.30 0.61 0.57 0.25 0.11 0.02 0.01 0.00 0.01 0.02 0.00 0.00 0.00 0.01 0.01 0.01 0.02 0.00 0.00 0.00 0.00 0.00 0.00 0.00 0.00 0.01 0.06 0.03
0.04 0.06 0.08 0.10 0.11 0.18 0.26 0.34 0.44 0.54 0.59 0.53 0.57 0.52 0.56 0.92 1.12 0.68 0.47 0.42 0.93 0.79 0.31 0.07 0.01 0.01 0.01 0.01 0.01 0.00 0.00 0.04 0.02 0.00 0.03 0.04 0.00 0.00 0.00 0.00 0.00 0.00 0.00 0.00 0.04 0.29 0.26
0.05 0.10 0.12 0.13 0.17 0.25 0.27 0.29 0.35 0.37 0.45 0.62 0.81 0.83 1.02 0.88 0.85 0.56 0.52 0.66 1.21 0.96 0.36 0.07 0.02 0.05 0.05 0.03 0.02 0.01 0.02 0.08 0.08 0.17 0.16 0.02 0.00 0.01 0.00 0.00 0.00 0.01 0.03 0.03 0.16 0.29 0.57
0.06 0.12 0.16 0.16 0.21 0.26 0.37 0.38 0.32 0.36 0.54 0.78 0.92 1.06 1.06 0.91 0.76 0.66 0.96 1.15 1.15 0.61 0.11 0.02 0.02 0.05 0.02 0.03 0.04 0.05 0.12 0.17 0.31 0.31 0.31 0.16 0.03 0.02 0.04 0.02 0.01 0.03 0.12 0.24 0.34 0.62 0.36
0.08 0.15 0.18 0.20 0.26 0.39 0.46 0.42 0.51 0.62 0.66 0.65 1.09 1.00 1.02 0.81 0.75 1.15 1.40 1.04 0.46 0.12 0.02 0.00 0.01 0.03 0.03 0.02 0.05 0.05 0.21 0.15 0.11 0.21 0.27 0.16 0.07 0.02 0.01 0.01 0.03 0.03 0.06 0.22 0.17 0.18 0.15
0.10 0.16 0.22 0.24 0.35 0.37 0.38 0.39 0.36 0.49 0.69 0.96 1.23 1.28 1.25 1.09 0.96 1.20 1.26 0.74 0.35 0.04 0.01 0.01 0.05 0.11 0.07 0.03 0.06 0.07 0.10 0.10 0.02 0.03 0.13 0.12 0.07 0.03 0.00 0.00 0.10 0.19 0.22 0.14 0.43 0.17 0.26
0.11 0.18 0.22 0.21 0.23 0.35 0.38 0.36 0.46 0.74 0.97 1.06 1.35 1.73 1.22 0.86 1.07 1.32 0.91 0.45 0.20 0.01 0.01 0.03 0.08 0.05 0.01 0.01 0.04 0.04 0.04 0.00 0.00 0.00 0.01 0.03 0.17 0.10 0.07 0.09 0.09 0.17 0.10 0.36 1.00 0.62 0.17
0.12 0.19 0.19 0.23 0.28 0.43 0.51 0.51 0.64 0.85 0.96 1.72 1.24 1.86 1.22 0.88 1.40 1.39 0.83 0.43 0.05 0.00 0.02 0.05 0.05 0.04 0.00 0.00 0.00 0.00 0.00 0.00 0.00 0.00 0.01 0.01 0.09 0.12 0.29 0.14 0.07 0.23 0.31 0.29 0.49 0.45 0.32
0.12 0.16 0.17 0.25 0.34 0.45 0.67 0.63 0.68 1.03 1.38 2.19 1.95 1.45 1.14 1.12 1.66 0.99 0.44 0.20 0.02 0.01 0.03 0.10 0.10 0.04 0.00 0.00 0.00 0.00 0.00 0.00 0.00 0.00 0.01 0.01 0.17 0.22 0.16 0.06 0.06 0.11 0.17 0.16 0.49 0.45 0.32
0.12 0.14 0.15 0.23 0.36 0.44 0.61 0.53 0.54 1.01 1.64 1.95 1.80 1.42 1.50 0.78 0.62 0.33 0.27 0.05 0.02 0.04 0.07 0.12 0.08 0.04 0.01 0.00 0.00 0.00 0.00 0.00 0.00 0.00 0.00 0.05 0.29 0.36 0.29 0.31 0.33 0.28 0.22 0.33 0.37 0.74 0.65
0.11 0.11 0.13 0.17 0.30 0.36 0.44 0.36 0.46 1.03 1.40 1.83 1.56 1.88 2.17 1.45 0.29 0.07 0.15 0.07 0.05 0.04 0.05 0.11 0.13 0.08 0.04 0.02 0.00 0.00 0.00 0.00 0.00 0.00 0.01 0.20 0.40 0.59 0.58 0.51 0.71 0.51 0.27 0.48 0.89 1.03 0.34
0.11 0.10 0.12 0.16 0.18 0.23 0.27 0.31 0.72 1.28 1.44 1.47 1.15 0.78 0.57 0.74 0.28 0.05 0.08 0.06 0.04 0.08 0.09 0.14 0.11 0.09 0.05 0.03 0.01 0.00 0.00 0.00 0.00 0.02 0.13 0.45 0.81 0.91 0.42 0.32 0.62 0.60 0.30 0.42 0.94 0.51 0.36
0.09 0.08 0.11 0.13 0.10 0.14 0.18 0.24 0.61 1.39 1.67 1.16 0.90 0.42 0.06 0.04 0.03 0.01 0.03 0.05 0.04 0.09 0.14 0.13 0.07 0.04 0.05 0.04 0.01 0.00 0.00 0.00 0.00 0.02 0.11 0.33 0.74 0.74 0.46 0.33 0.34 0.33 0.13 0.24 0.54 0.38 0.24
0.09 0.08 0.12 0.10 0.07 0.11 0.11 0.27 0.58 1.40 1.82 1.28 0.74 0.39 0.07 0.04 0.03 0.02 0.01 0.00 0.01 0.09 0.07 0.04 0.05 0.08 0.05 0.04 0.03 0.02 0.01 0.02 0.01 0.02 0.11 0.33 0.50 0.79 0.66 0.40 0.38 0.32 0.08 0.17 0.38 0.32 0.16
0.09 0.09 0.11 0.08 0.05 0.08 0.09 0.32 0.62 1.16 1.51 1.27 0.73 0.45 0.18 0.09 0.03 0.01 0.01 0.01 0.01 0.06 0.08 0.06 0.03 0.07 0.04 0.04 0.05 0.06 0.02 0.02 0.02 0.01 0.03 0.16 0.37 0.72 0.93 0.76 0.75 0.44 0.13 0.16 0.17 0.16 0.10
0.09 0.10 0.08 0.05 0.04 0.05 0.08 0.32 0.48 0.62 0.68 0.76 0.57 0.41 0.18 0.08 0.03 0.03 0.03 0.02 0.03 0.05 0.08 0.10 0.05 0.02 0.05 0.09 0.17 0.19 0.19 0.05 0.00 0.01 0.01 0.04 0.19 0.34 0.40 0.34 0.17 0.11 0.13 0.11 0.08 0.10 0.03
0.08 0.09 0.07 0.03 0.03 0.04 0.06 0.20 0.34 0.46 0.51 0.65 0.66 0.63 0.20 0.07 0.04 0.02 0.03 0.02 0.07 0.13 0.12 0.11 0.09 0.06 0.13 0.22 0.34 0.23 0.09 0.03 0.00 0.00 0.00 0.01 0.04 0.15 0.10 0.15 0.08 0.03 0.02 0.02 0.02 0.01 0.00
0.08 0.08 0.04 0.03 0.03 0.04 0.04 0.10 0.33 0.32 0.39 0.53 0.63 0.50 0.19 0.07 0.01 0.01 0.02 0.01 0.04 0.13 0.19 0.20 0.16 0.19 0.20 0.33 0.33 0.14 0.02 0.00 0.00 0.00 0.00 0.01 0.02 0.04 0.04 0.05 0.01 0.00 0.00 0.00 0.01 0.02 0.00
0.09 0.06 0.03 0.02 0.02 0.03 0.03 0.09 0.30 0.25 0.34 0.44 0.40 0.41 0.24 0.05 0.01 0.01 0.00 0.01 0.06 0.12 0.22 0.24 0.29 0.30 0.27 0.34 0.29 0.13 0.02 0.01 0.00 0.00 0.00 0.00 0.01 0.01 0.01 0.00 0.00 0.00 0.00 0.00 0.00 0.00 0.00
0.08 0.04 0.03 0.02 0.02 0.03 0.03 0.05 0.28 0.24 0.26 0.38 0.31 0.31 0.22 0.07 0.02 0.00 0.00 0.00 0.03 0.09 0.22 0.24 0.28 0.21 0.25 0.22 0.14 0.10 0.04 0.01 0.00 0.01 0.00 0.00 0.00 0.00 0.00 0.00 0.00 0.00 0.00 0.00 0.00 0.00 0.00

GFSGBSN_prec_precacc24_027.txt.gz
Total_Precipitation_Accumulation
0.09 0.07 0.09 0.09 0.08 0.07 0.07 0.08 0.09 0.08 0.08 0.09 0.11 0.10 0.09 0.08 0.09 0.12 0.13 0.10 0.12 0.12 0.09 0.03 0.00 0.00 0.01 0.06 0.04 0.00 0.00 0.04 0.13 0.30 0.04 0.01 0.00 0.00 0.00 0.00 0.00 0.00 0.00 0.00 0.00 0.00 0.00
0.06 0.06 0.05 0.06 0.06 0.08 0.10 0.11 0.11 0.11 0.11 0.11 0.11 0.11 0.12 0.12 0.10 0.09 0.11 0.08 0.08 0.12 0.15 0.09 0.00 0.01 0.00 0.01 0.00 0.00 0.00 0.00 0.03 0.20 0.09 0.02 0.01 0.00 0.00 0.00 0.00 0.00 0.00 0.00 0.00 0.00 0.00
0.03 0.03 0.05 0.07 0.09 0.10 0.11 0.13 0.14 0.14 0.15 0.14 0.14 0.13 0.11 0.11 0.13 0.12 0.13 0.11 0.09 0.12 0.13 0.14 0.02 0.00 0.00 0.00 0.00 0.00 0.00 0.00 0.01 0.16 0.15 0.06 0.02 0.03 0.03 0.01 0.00 0.00 0.00 0.00 0.00 0.00 0.00
0.02 0.02 0.04 0.07 0.09 0.10 0.12 0.13 0.12 0.15 0.16 0.16 0.18 0.17 0.15 0.15 0.14 0.15 0.14 0.15 0.14 0.17 0.23 0.22 0.06 0.01 0.00 0.00 0.00 0.00 0.00 0.00 0.00 0.09 0.26 0.18 0.03 0.04 0.04 0.02 0.00 0.01 0.01 0.00 0.00 0.00 0.00
0.02 0.03 0.02 0.05 0.07 0.08 0.10 0.11 0.13 0.12 0.13 0.18 0.19 0.15 0.15 0.17 0.19 0.17 0.18 0.23 0.24 0.27 0.39 0.40 0.11 0.01 0.00 0.00 0.00 0.00 0.00 0.00 0.01 0.05 0.24 0.14 0.06 0.01 0.01 0.03 0.02 0.01 0.00 0.00 0.00 0.00 0.00
0.03 0.02 0.02 0.04 0.06 0.10 0.11 0.13 0.14 0.12 0.15 0.20 0.19 0.19 0.19 0.22 0.28 0.32 0.38 0.44 0.47 0.38 0.65 0.72 0.14 0.02 0.00 0.00 0.00 0.00 0.00 0.00 0.00 0.02 0.13 0.15 0.09 0.03 0.01 0.02 0.01 0.01 0.01 0.00 0.00 0.00 0.00
0.02 0.02 0.03 0.05 0.07 0.12 0.17 0.17 0.16 0.15 0.18 0.20 0.22 0.24 0.28 0.36 0.34 0.44 0.66 0.87 0.87 0.79 0.67 0.45 0.15 0.00 0.00 0.00 0.00 0.00 0.00 0.00 0.00 0.02 0.01 0.06 0.10 0.05 0.00 0.00 0.00 0.00 0.00 0.00 0.00 0.00 0.01
0.03 0.03 0.05 0.07 0.08 0.11 0.16 0.16 0.17 0.16 0.18 0.23 0.26 0.32 0.33 0.30 0.31 0.62 0.92 0.88 0.49 0.55 0.47 0.18 0.05 0.01 0.00 0.00 0.00 0.00 0.00 0.00 0.01 0.01 0.00 0.00 0.01 0.01 0.00 0.00 0.00 0.00 0.01 0.00 0.00 0.00 0.02
0.03 0.04 0.08 0.08 0.08 0.10 0.12 0.19 0.21 0.26 0.29 0.31 0.33 0.32 0.34 0.32 0.44 0.82 0.70 0.48 0.33 0.57 0.48 0.26 0.11 0.02 0.00 0.00 0.00 0.00 0.00 0.00 0.00 0.00 0.00 0.01 0.00 0.00 0.00 0.00 0.00 0.00 0.00 0.00 0.00 0.00 0.00
0.03 0.04 0.09 0.08 0.09 0.10 0.12 0.21 0.37 0.43 0.43 0.53 0.40 0.40 0.42 0.60 1.06 0.68 0.57 0.31 0.65 0.77 0.43 0.31 0.15 0.03 0.00 0.01 0.01 0.00 0.00 0.00 0.01 0.01 0.00 0.02 0.00 0.00 0.00 0.00 0.00 0.00 0.00 0.00 0.00 0.01 0.00
0.03 0.06 0.09 0.10 0.11 0.14 0.17 0.23 0.39 0.49 0.52 0.49 0.55 0.53 0.60 1.01 1.20 0.70 0.49 0.45 1.03 1.05 0.46 0.23 0.09 0.01 0.01 0.01 0.00 0.00 0.00 0.01 0.01 0.00 0.01 0.02 0.00 0.00 0.00 0.00 0.00 0.00 0.00 0.00 0.00 0.02 0.06
0.04 0.08 0.10 0.12 0.15 0.20 0.21 0.24 0.27 0.30 0.35 0.57 0.81 0.83 1.06 0.92 0.88 0.57 0.55 0.79 1.39 1.22 0.59 0.29 0.07 0.05 0.05 0.04 0.01 0.01 0.02 0.05 0.04 0.11 0.11 0.01 0.00 0.00 0.00 0.00 0.00 0.01 0.03 0.02 0.03 0.10 0.13
0.05 0.10 0.13 0.15 0.18 0.20 0.25 0.24 0.18 0.24 0.42 0.72 0.91 1.07 1.11 0.97 0.78 0.66 0.98 1.25 1.27 0.79 0.28 0.09 0.03 0.05 0.02 0.03 0.03 0.02 0.06 0.13 0.23 0.23 0.27 0.14 0.02 0.00 0.00 0.00 0.00 0.02 0.09 0.19 0.17 0.17 0.05
0.06 0.12 0.15 0.17 0.19 0.28 0.31 0.25 0.30 0.38 0.50 0.53 1.07 1.01 1.04 0.85 0.76 1.16 1.40 1.04 0.52 0.25 0.11 0.02 0.02 0.03 0.02 0.02 0.04 0.03 0.06 0.09 0.08 0.18 0.24 0.14 0.07 0.01 0.00 0.00 0.00 0.01 0.03 0.12 0.07 0.02 0.01
0.08 0.14 0.17 0.17 0.19 0.21 0.18 0.19 0.21 0.29 0.54 0.83 1.13 1.25 1.30 1.12 0.99 1.20 1.27 0.75 0.53 0.14 0.02 0.02 0.04 0.06 0.05 0.02 0.03 0.05 0.05 0.03 0.02 0.03 0.10 0.07 0.01 0.00 0.00 0.00 0.04 0.13 0.18 0.04 0.15 0.12 0.21
0.09 0.15 0.17 0.17 0.16 0.14 0.19 0.17 0.24 0.53 0.82 0.92 1.21 1.63 1.22 0.89 1.06 1.31 0.92 0.50 0.40 0.05 0.00 0.00 0.05 0.04 0.01 0.01 0.03 0.03 0.02 0.00 0.00 0.00 0.00 0.01 0.03 0.01 0.04 0.05 0.03 0.06 0.07 0.23 0.55 0.28 0.13
0.10 0.16 0.16 0.16 0.15 0.15 0.22 0.30 0.41 0.59 0.79 1.40 1.18 1.75 1.16 0.82 1.23 1.31 0.85 0.61 0.19 0.01 0.00 0.00 0.01 0.03 0.00 0.00 0.00 0.00 0.00 0.00 0.00 0.00 0.00 0.01 0.04 0.03 0.19 0.08 0.02 0.03 0.15 0.15 0.21 0.18 0.22
0.12 0.15 0.13 0.15 0.13 0.17 0.30 0.37 0.51 0.60 0.84 1.70 1.81 1.37 1.10 1.04 1.48 0.94 0.50 0.47 0.17 0.03 0.01 0.01 0.05 0.04 0.00 0.00 0.00 0.00 0.00 0.00 0.00 0.00 0.01 0.00 0.10 0.13 0.07 0.03 0.05 0.06 0.04 0.06 0.23 0.07 0.20
0.13 0.13 0.11 0.14 0.12 0.15 0.27 0.32 0.45 0.52 1.00 1.61 1.69 1.32 1.33 0.74 0.59 0.42 0.39 0.13 0.08 0.04 0.03 0.03 0.04 0.03 0.00 0.00 0.00 0.00 0.00 0.00 0.00 0.00 0.00 0.01 0.17 0.27 0.20 0.19 0.21 0.14 0.05 0.07 0.15 0.45 0.55
0.11 0.11 0.12 0.12 0.10 0.12 0.21 0.21 0.34 0.51 1.09 1.66 1.45 1.78 1.90 1.27 0.30 0.17 0.21 0.11 0.05 0.03 0.01 0.08 0.11 0.07 0.04 0.02 0.00 0.00 0.00 0.00 0.00 0.00 0.01 0.07 0.21 0.26 0.32 0.37 0.64 0.40 0.13 0.17 0.55 0.95 0.35
0.11 0.10 0.11 0.13 0.09 0.07 0.08 0.13 0.26 0.55 1.21 1.43 1.09 0.72 0.53 0.69 0.29 0.08 0.13 0.08 0.03 0.02 0.02 0.13 0.11 0.09 0.05 0.03 0.01 0.00 0.00 0.00 0.00 0.02 0.12 0.28 0.33 0.29 0.22 0.26 0.61 0.59 0.22 0.25 0.77 0.49 0.42
0.09 0.08 0.11 0.11 0.06 0.04 0.05 0.08 0.17 0.75 1.35 1.09 0.86 0.39 0.04 0.03 0.03 0.01 0.02 0.04 0.02 0.01 0.05 0.10 0.07 0.04 0.04 0.04 0.01 0.00 0.00 0.00 0.00 0.02 0.11 0.29 0.51 0.56 0.41 0.32 0.31 0.32 0.12 0.23 0.53 0.37 0.24
0.09 0.08 0.11 0.09 0.03 0.04 0.05 0.09 0.20 0.73 1.41 1.15 0.70 0.35 0.06 0.03 0.02 0.01 0.00 0.00 0.01 0.03 0.02 0.02 0.05 0.08 0.04 0.03 0.02 0.02 0.01 0.02 0.01 0.02 0.11 0.31 0.46 0.77 0.64 0.40 0.37 0.32 0.08 0.17 0.38 0.32 0.16
0.09 0.09 0.11 0.08 0.03 0.03 0.04 0.09 0.24 0.60 0.97 1.16 0.72 0.41 0.16 0.06 0.01 0.00 0.00 0.00 0.00 0.01 0.01 0.01 0.02 0.06 0.03 0.02 0.03 0.05 0.01 0.02 0.02 0.01 0.03 0.16 0.37 0.73 0.93 0.76 0.75 0.44 0.13 0.16 0.17 0.16 0.10
0.09 0.11 0.09 0.05 0.03 0.02 0.04 0.06 0.19 0.50 0.51 0.70 0.55 0.39 0.15 0.04 0.01 0.02 0.02 0.01 0.02 0.02 0.01 0.01 0.02 0.01 0.03 0.08 0.11 0.14 0.14 0.04 0.00 0.01 0.01 0.04 0.19 0.37 0.41 0.34 0.17 0.11 0.13 0.11 0.08 0.10 0.03
0.08 0.09 0.07 0.03 0.02 0.03 0.03 0.04 0.15 0.39 0.40 0.56 0.66 0.62 0.17 0.05 0.01 0.00 0.02 0.02 0.06 0.06 0.02 0.03 0.03 0.04 0.09 0.20 0.26 0.19 0.06 0.01 0.01 0.00 0.00 0.01 0.05 0.17 0.12 0.16 0.08 0.03 0.02 0.02 0.02 0.01 0.00
0.08 0.08 0.04 0.03 0.02 0.02 0.02 0.03 0.16 0.27 0.32 0.47 0.62 0.50 0.16 0.04 0.01 0.00 0.01 0.01 0.00 0.01 0.05 0.08 0.11 0.16 0.18 0.26 0.26 0.13 0.02 0.00 0.00 0.00 0.00 0.01 0.03 0.05 0.07 0.07 0.01 0.00 0.00 0.00 0.01 0.02 0.00
0.08 0.06 0.03 0.03 0.02 0.01 0.02 0.02 0.11 0.17 0.25 0.36 0.40 0.41 0.23 0.04 0.01 0.00 0.00 0.00 0.00 0.01 0.06 0.11 0.20 0.24 0.24 0.29 0.21 0.11 0.02 0.01 0.00 0.00 0.00 0.00 0.01 0.01 0.01 0.01 0.00 0.00 0.00 0.00 0.00 0.00 0.00
0.06 0.05 0.03 0.02 0.02 0.01 0.01 0.02 0.06 0.13 0.17 0.29 0.30 0.31 0.21 0.05 0.01 0.00 0.00 0.00 0.00 0.01 0.07 0.09 0.18 0.19 0.24 0.21 0.14 0.10 0.04 0.01 0.00 0.01 0.00 0.00 0.00 0.00 0.00 0.00 0.00 0.00 0.00 0.00 0.00 0.00 0.00

GFSGBSN_prec_precacc24_030.txt.gz
Total_Precipitation_Accumulation
0.01 0.02 0.05 0.09 0.08 0.08 0.07 0.08 0.09 0.10 0.10 0.11 0.14 0.13 0.11 0.09 0.09 0.12 0.13 0.10 0.12 0.12 0.10 0.12 0.21 0.02 0.01 0.07 0.05 0.00 0.00 0.04 0.15 0.31 0.04 0.01 0.00 0.00 0.00 0.00 0.00 0.00 0.00 0.00 0.00 0.00 0.00
0.01 0.02 0.02 0.02 0.05 0.08 0.10 0.11 0.12 0.13 0.12 0.13 0.14 0.15 0.14 0.13 0.11 0.10 0.11 0.08 0.08 0.12 0.16 0.14 0.31 0.12 0.01 0.02 0.00 0.00 0.01 0.02 0.08 0.21 0.09 0.02 0.01 0.00 0.00 0.00 0.00 0.00 0.00 0.00 0.00 0.00 0.00
0.02 0.02 0.02 0.01 0.02 0.07 0.11 0.14 0.15 0.15 0.16 0.15 0.17 0.15 0.11 0.12 0.16 0.15 0.13 0.11 0.09 0.12 0.13 0.21 0.33 0.11 0.00 0.00 0.00 0.00 0.01 0.03 0.05 0.18 0.16 0.06 0.02 0.01 0.02 0.01 0.00 0.00 0.00 0.00 0.00 0.00 0.00
0.02 0.03 0.02 0.02 0.03 0.04 0.10 0.13 0.13 0.15 0.16 0.17 0.21 0.17 0.15 0.17 0.15 0.16 0.14 0.15 0.14 0.16 0.24 0.27 0.44 0.17 0.01 0.00 0.00 0.00 0.00 0.00 0.00 0.10 0.27 0.20 0.03 0.03 0.03 0.01 0.00 0.01 0.00 0.00 0.00 0.00 0.00
0.03 0.03 0.02 0.03 0.05 0.06 0.08 0.09 0.12 0.12 0.14 0.20 0.21 0.16 0.16 0.19 0.19 0.19 0.19 0.23 0.24 0.27 0.39 0.47 0.51 0.12 0.00 0.00 0.00 0.00 0.00 0.00 0.01 0.09 0.38 0.20 0.09 0.02 0.01 0.02 0.01 0.01 0.00 0.00 0.00 0.00 0.00
0.03 0.02 0.02 0.05 0.07 0.09 0.09 0.10 0.11 0.11 0.15 0.19 0.20 0.20 0.22 0.24 0.28 0.34 0.39 0.44 0.47 0.37 0.66 0.92 0.59 0.12 0.00 0.00 0.00 0.00 0.00 0.00 0.01 0.10 0.24 0.22 0.18 0.08 0.02 0.01 0.00 0.00 0.00 0.00 0.00 0.00 0.00
0.03 0.03 0.03 0.07 0.08 0.09 0.11 0.11 0.11 0.13 0.17 0.19 0.20 0.22 0.29 0.38 0.34 0.45 0.68 0.87 0.87 0.80 0.72 0.75 0.42 0.05 0.00 0.00 0.00 0.00 0.00 0.00 0.03 0.08 0.08 0.16 0.19 0.14 0.06 0.00 0.00 0.00 0.00 0.00 0.00 0.00 0.00
0.03 0.03 0.05 0.08 0.09 0.09 0.11 0.11 0.12 0.14 0.16 0.20 0.22 0.29 0.34 0.32 0.33 0.62 0.93 0.88 0.50 0.56 0.55 0.37 0.18 0.02 0.00 0.00 0.00 0.00 0.00 0.01 0.03 0.02 0.02 0.05 0.09 0.05 0.04 0.00 0.00 0.00 0.00 0.00 0.00 0.00 0.00
0.03 0.04 0.08 0.09 0.10 0.10 0.11 0.12 0.13 0.19 0.26 0.28 0.29 0.30 0.35 0.37 0.49 0.85 0.70 0.48 0.34 0.57 0.61 0.42 0.30 0.06 0.00 0.00 0.00 0.00 0.00 0.00 0.00 0.00 0.01 0.01 0.02 0.01 0.00 0.00 0.00 0.00 0.00 0.00 0.00 0.00 0.00
0.03 0.04 0.09 0.09 0.10 0.10 0.12 0.13 0.19 0.25 0.34 0.47 0.32 0.33 0.43 0.66 1.11 0.70 0.57 0.31 0.65 0.81 0.57 0.47 0.40 0.11 0.00 0.00 0.00 0.00 0.00 0.00 0.00 0.01 0.01 0.01 0.00 0.00 0.00 0.00 0.00 0.00 0.00 0.00 0.00 0.00 0.00
0.04 0.06 0.10 0.11 0.10 0.13 0.16 0.19 0.26 0.27 0.27 0.36 0.47 0.45 0.61 1.09 1.28 0.74 0.49 0.46 1.03 1.12 0.59 0.36 0.31 0.06 0.01 0.00 0.00 0.01 0.00 0.00 0.00 0.00 0.01 0.01 0.00 0.00 0.00 0.00 0.00 0.00 0.00 0.00 0.00 0.01 0.02
0.04 0.08 0.12 0.11 0.13 0.17 0.20 0.22 0.23 0.14 0.10 0.31 0.65 0.79 1.10 0.99 0.92 0.58 0.57 0.82 1.39 1.29 0.73 0.54 0.21 0.06 0.06 0.03 0.01 0.01 0.02 0.02 0.01 0.02 0.02 0.00 0.00 0.00 0.00 0.00 0.00 0.00 0.02 0.01 0.02 0.06 0.08
0.05 0.10 0.12 0.13 0.14 0.18 0.20 0.19 0.14 0.15 0.27 0.43 0.63 1.02 1.15 1.03 0.80 0.67 0.99 1.27 1.28 0.85 0.45 0.25 0.09 0.05 0.03 0.03 0.03 0.02 0.04 0.05 0.06 0.10 0.12 0.06 0.01 0.00 0.00 0.00 0.00 0.01 0.06 0.14 0.15 0.16 0.04
0.06 0.12 0.14 0.15 0.15 0.18 0.18 0.17 0.22 0.30 0.35 0.28 0.63 0.88 1.04 0.88 0.77 1.16 1.40 1.04 0.57 0.41 0.22 0.06 0.02 0.03 0.03 0.02 0.03 0.03 0.04 0.04 0.03 0.10 0.15 0.09 0.04 0.01 0.00 0.00 0.00 0.01 0.03 0.09 0.06 0.02 0.00
0.08 0.14 0.17 0.16 0.15 0.16 0.13 0.13 0.14 0.18 0.28 0.57 0.53 1.04 1.22 1.13 1.00 1.20 1.29 0.78 0.70 0.28 0.07 0.04 0.06 0.04 0.05 0.01 0.02 0.04 0.03 0.01 0.00 0.01 0.06 0.05 0.01 0.00 0.00 0.00 0.03 0.12 0.16 0.04 0.13 0.10 0.19
0.09 0.15 0.17 0.16 0.15 0.12 0.07 0.07 0.14 0.37 0.47 0.48 0.36 1.15 1.18 0.90 1.06 1.34 0.96 0.63 0.54 0.10 0.00 0.00 0.06 0.02 0.01 0.02 0.02 0.02 0.02 0.00 0.00 0.00 0.00 0.01 0.02 0.00 0.00 0.01 0.00 0.04 0.05 0.21 0.50 0.24 0.11
0.10 0.16 0.16 0.16 0.12 0.07 0.05 0.08 0.25 0.29 0.37 0.53 0.72 1.19 1.10 0.78 1.11 1.26 0.93 0.75 0.27 0.03 0.00 0.00 0.00 0.00 0.00 0.01 0.00 0.00 0.00 0.00 0.00 0.00 0.00 0.01 0.03 0.01 0.01 0.02 0.01 0.02 0.08 0.13 0.19 0.14 0.09
0.12 0.14 0.13 0.14 0.11 0.04 0.06 0.12 0.19 0.31 0.51 0.64 0.96 1.16 1.01 0.95 1.22 0.83 0.57 0.60 0.29 0.05 0.01 0.00 0.00 0.00 0.00 0.00 0.00 0.00 0.00 0.00 0.00 0.00 0.00 0.00 0.07 0.06 0.00 0.00 0.01 0.03 0.00 0.03 0.22 0.05 0.12
0.12 0.13 0.11 0.13 0.10 0.05 0.05 0.08 0.21 0.35 0.69 0.88 0.83 1.16 1.16 0.69 0.53 0.44 0.52 0.26 0.15 0.06 0.02 0.01 0.01 0.00 0.00 0.00 0.00 0.00 0.00 0.00 0.00 0.00 0.00 0.00 0.10 0.12 0.09 0.10 0.10 0.09 0.02 0.04 0.14 0.40 0.32
0.11 0.11 0.12 0.12 0.10 0.04 0.04 0.04 0.16 0.29 0.64 1.03 0.86 1.54 1.60 0.90 0.28 0.17 0.21 0.11 0.05 0.03 0.01 0.03 0.04 0.05 0.03 0.01 0.00 0.00 0.00 0.00 0.00 0.00 0.00 0.06 0.13 0.11 0.13 0.24 0.40 0.35 0.11 0.12 0.46 0.74 0.15
0.10 0.09 0.11 0.13 0.09 0.04 0.02 0.02 0.10 0.24 0.41 0.66 0.70 0.61 0.46 0.55 0.24 0.08 0.13 0.08 0.02 0.02 0.02 0.05 0.05 0.06 0.05 0.03 0.01 0.00 0.00 0.00 0.00 0.01 0.11 0.25 0.22 0.11 0.12 0.20 0.48 0.46 0.20 0.16 0.44 0.21 0.30
0.08 0.08 0.10 0.11 0.05 0.02 0.01 0.02 0.07 0.40 0.57 0.51 0.65 0.33 0.04 0.02 0.03 0.00 0.01 0.03 0.01 0.01 0.04 0.07 0.03 0.03 0.04 0.04 0.01 0.00 0.00 0.00 0.00 0.01 0.09 0.22 0.31 0.29 0.29 0.31 0.31 0.30 0.06 0.10 0.15 0.07 0.06
0.07 0.07 0.11 0.09 0.04 0.03 0.01 0.02 0.09 0.46 0.66 0.59 0.61 0.34 0.05 0.03 0.02 0.01 0.00 0.00 0.00 0.03 0.02 0.01 0.02 0.06 0.03 0.03 0.01 0.01 0.01 0.02 0.01 0.01 0.11 0.31 0.35 0.51 0.40 0.30 0.30 0.24 0.05 0.05 0.07 0.07 0.04
0.07 0.08 0.10 0.08 0.03 0.02 0.01 0.03 0.07 0.27 0.51 0.67 0.63 0.39 0.13 0.05 0.01 0.00 0.00 0.00 0.00 0.01 0.01 0.00 0.01 0.04 0.03 0.02 0.01 0.01 0.01 0.02 0.02 0.01 0.03 0.16 0.36 0.67 0.79 0.64 0.69 0.42 0.13 0.14 0.14 0.11 0.07
0.07 0.10 0.08 0.05 0.03 0.02 0.02 0.02 0.05 0.13 0.24 0.40 0.45 0.39 0.12 0.03 0.01 0.00 0.00 0.01 0.02 0.02 0.00 0.00 0.00 0.01 0.02 0.05 0.08 0.08 0.06 0.03 0.00 0.00 0.01 0.04 0.19 0.37 0.42 0.35 0.17 0.11 0.13 0.11 0.08 0.09 0.03
0.07 0.08 0.07 0.02 0.02 0.02 0.02 0.01 0.03 0.08 0.09 0.37 0.59 0.60 0.15 0.03 0.01 0.00 0.02 0.02 0.06 0.06 0.01 0.00 0.00 0.02 0.06 0.11 0.18 0.14 0.03 0.01 0.00 0.00 0.00 0.01 0.05 0.20 0.13 0.17 0.08 0.03 0.02 0.02 0.02 0.01 0.00
0.07 0.06 0.05 0.03 0.02 0.02 0.02 0.01 0.04 0.09 0.12 0.29 0.58 0.48 0.14 0.03 0.01 0.00 0.01 0.01 0.00 0.01 0.02 0.01 0.03 0.07 0.12 0.16 0.21 0.09 0.02 0.00 0.00 0.00 0.00 0.02 0.04 0.08 0.08 0.08 0.01 0.00 0.00 0.00 0.01 0.02 0.00
0.06 0.04 0.04 0.02 0.02 0.02 0.02 0.01 0.04 0.08 0.14 0.21 0.35 0.40 0.23 0.04 0.01 0.00 0.00 0.00 0.00 0.00 0.01 0.02 0.06 0.11 0.19 0.21 0.18 0.07 0.02 0.01 0.00 0.00 0.00 0.00 0.00 0.01 0.02 0.02 0.00 0.00 0.00 0.00 0.00 0.00 0.00
0.05 0.04 0.04 0.02 0.01 0.01 0.01 0.01 0.02 0.04 0.11 0.22 0.27 0.30 0.19 0.05 0.01 0.00 0.00 0.00 0.00 0.00 0.01 0.01 0.08 0.14 0.22 0.19 0.13 0.09 0.04 0.01 0.00 0.01 0.00 0.00 0.00 0.00 0.00 0.00 0.00 0.00 0.00 0.00 0.00 0.00 0.00

GFSGBSN_prec_precacc24_033.txt.gz
Total_Precipitation_Accumulation
0.01 0.02 0.02 0.02 0.01 0.01 0.05 0.09 0.10 0.11 0.11 0.10 0.14 0.17 0.14 0.11 0.12 0.15 0.15 0.12 0.12 0.12 0.10 0.12 0.23 0.31 0.20 0.06 0.05 0.00 0.01 0.04 0.16 0.31 0.04 0.00 0.00 0.00 0.00 0.00 0.00 0.00 0.00 0.00 0.00 0.00 0.00
0.02 0.03 0.02 0.01 0.01 0.03 0.05 0.06 0.11 0.13 0.12 0.13 0.14 0.16 0.16 0.14 0.16 0.13 0.12 0.10 0.08 0.12 0.16 0.14 0.32 0.52 0.23 0.02 0.00 0.00 0.05 0.04 0.09 0.22 0.09 0.02 0.00 0.00 0.00 0.00 0.00 0.00 0.00 0.00 0.00 0.00 0.00
0.03 0.02 0.02 0.01 0.03 0.05 0.04 0.06 0.08 0.13 0.16 0.16 0.19 0.16 0.13 0.13 0.19 0.18 0.14 0.11 0.09 0.12 0.13 0.21 0.35 0.49 0.15 0.01 0.00 0.00 0.04 0.12 0.09 0.20 0.16 0.06 0.02 0.00 0.01 0.00 0.00 0.00 0.00 0.00 0.00 0.00 0.00
0.03 0.03 0.02 0.02 0.05 0.05 0.06 0.07 0.07 0.12 0.16 0.17 0.21 0.16 0.16 0.18 0.18 0.20 0.15 0.15 0.14 0.16 0.24 0.27 0.46 0.47 0.13 0.01 0.00 0.00 0.01 0.08 0.08 0.19 0.28 0.21 0.04 0.01 0.01 0.00 0.00 0.00 0.00 0.00 0.00 0.00 0.00
0.03 0.03 0.02 0.03 0.06 0.07 0.09 0.09 0.10 0.08 0.10 0.18 0.20 0.16 0.16 0.20 0.21 0.21 0.19 0.22 0.23 0.27 0.39 0.46 0.54 0.32 0.09 0.01 0.00 0.00 0.00 0.02 0.05 0.18 0.46 0.21 0.12 0.03 0.01 0.01 0.00 0.00 0.00 0.00 0.00 0.00 0.00
0.03 0.03 0.02 0.06 0.08 0.10 0.11 0.11 0.10 0.09 0.11 0.16 0.17 0.16 0.18 0.24 0.30 0.36 0.39 0.43 0.46 0.36 0.64 0.92 0.65 0.41 0.04 0.00 0.00 0.00 0.00 0.01 0.07 0.20 0.35 0.31 0.23 0.10 0.02 0.01 0.00 0.00 0.00 0.00 0.00 0.00 0.00
0.03 0.04 0.03 0.08 0.10 0.11 0.13 0.12 0.11 0.12 0.14 0.15 0.14 0.16 0.23 0.35 0.38 0.61 0.70 0.87 0.88 0.80 0.72 0.77 0.49 0.16 0.00 0.00 0.00 0.01 0.00 0.01 0.11 0.19 0.17 0.25 0.24 0.16 0.06 0.00 0.00 0.00 0.00 0.00 0.00 0.00 0.00
0.03 0.04 0.05 0.10 0.12 0.12 0.13 0.12 0.13 0.13 0.14 0.16 0.16 0.22 0.28 0.31 0.41 0.78 0.94 0.88 0.50 0.57 0.55 0.39 0.26 0.08 0.00 0.00 0.00 0.01 0.00 0.03 0.08 0.05 0.11 0.15 0.18 0.09 0.07 0.02 0.00 0.00 0.00 0.00 0.00 0.00 0.00
0.04 0.04 0.08 0.11 0.12 0.12 0.12 0.12 0.13 0.16 0.20 0.20 0.21 0.21 0.28 0.35 0.54 0.86 0.71 0.48 0.34 0.57 0.61 0.46 0.47 0.18 0.00 0.00 0.00 0.00 0.00 0.01 0.04 0.02 0.04 0.09 0.07 0.04 0.09 0.05 0.01 0.00 0.00 0.00 0.00 0.00 0.00
0.04 0.04 0.09 0.11 0.12 0.11 0.13 0.13 0.17 0.25 0.22 0.23 0.16 0.21 0.33 0.62 1.11 0.72 0.56 0.32 0.65 0.81 0.61 0.60 0.64 0.22 0.01 0.00 0.00 0.00 0.00 0.01 0.02 0.02 0.03 0.05 0.01 0.05 0.03 0.06 0.00 0.00 0.00 0.00 0.00 0.00 0.00
0.04 0.06 0.10 0.12 0.11 0.13 0.14 0.16 0.25 0.27 0.18 0.09 0.15 0.30 0.56 1.17 1.37 0.77 0.50 0.46 1.03 1.12 0.68 0.47 0.49 0.18 0.01 0.00 0.00 0.02 0.02 0.00 0.00 0.00 0.01 0.01 0.00 0.02 0.03 0.00 0.00 0.00 0.00 0.00 0.00 0.01 0.02
0.04 0.08 0.11 0.12 0.12 0.15 0.16 0.17 0.21 0.15 0.09 0.17 0.26 0.50 0.81 0.93 0.94 0.59 0.57 0.83 1.39 1.32 0.88 0.76 0.42 0.13 0.07 0.03 0.01 0.02 0.02 0.02 0.01 0.01 0.01 0.00 0.00 0.00 0.00 0.00 0.00 0.00 0.01 0.01 0.01 0.04 0.07
0.04 0.09 0.12 0.13 0.14 0.16 0.15 0.16 0.13 0.15 0.27 0.36 0.29 0.47 0.72 0.95 0.80 0.67 1.00 1.27 1.30 0.94 0.59 0.41 0.22 0.08 0.03 0.03 0.03 0.03 0.04 0.03 0.02 0.03 0.06 0.02 0.00 0.00 0.00 0.00 0.00 0.01 0.05 0.10 0.11 0.13 0.03
0.05 0.10 0.14 0.15 0.15 0.16 0.12 0.09 0.16 0.26 0.31 0.23 0.40 0.31 0.46 0.77 0.75 1.15 1.40 1.06 0.64 0.51 0.37 0.18 0.04 0.04 0.03 0.02 0.04 0.03 0.02 0.04 0.01 0.02 0.04 0.04 0.01 0.00 0.00 0.00 0.00 0.00 0.02 0.07 0.03 0.01 0.00
0.07 0.11 0.15 0.15 0.15 0.14 0.10 0.07 0.06 0.11 0.23 0.51 0.35 0.22 0.55 0.92 0.99 1.20 1.30 0.80 0.81 0.46 0.22 0.07 0.07 0.04 0.05 0.01 0.03 0.04 0.02 0.01 0.00 0.01 0.03 0.03 0.00 0.00 0.00 0.00 0.01 0.08 0.09 0.03 0.09 0.05 0.14
0.08 0.12 0.15 0.15 0.14 0.12 0.05 0.04 0.04 0.16 0.35 0.37 0.16 0.22 0.47 0.77 1.05 1.33 0.95 0.69 0.59 0.13 0.01 0.00 0.07 0.03 0.02 0.02 0.02 0.02 0.02 0.00 0.00 0.00 0.00 0.00 0.02 0.00 0.00 0.00 0.00 0.03 0.03 0.18 0.39 0.14 0.08
0.09 0.13 0.13 0.14 0.12 0.07 0.04 0.02 0.04 0.15 0.24 0.31 0.40 0.47 0.47 0.61 1.09 1.24 0.91 0.78 0.30 0.03 0.00 0.00 0.00 0.00 0.00 0.01 0.00 0.00 0.00 0.00 0.00 0.00 0.00 0.00 0.03 0.01 0.01 0.01 0.00 0.01 0.05 0.10 0.18 0.14 0.08
0.10 0.12 0.11 0.12 0.10 0.05 0.05 0.02 0.03 0.14 0.33 0.48 0.57 0.67 0.47 0.75 1.10 0.78 0.57 0.61 0.29 0.05 0.01 0.00 0.00 0.00 0.00 0.00 0.00 0.00 0.00 0.00 0.00 0.00 0.00 0.00 0.05 0.03 0.00 0.00 0.00 0.00 0.00 0.03 0.20 0.05 0.12
0.10 0.10 0.10 0.12 0.10 0.05 0.04 0.02 0.03 0.12 0.47 0.57 0.46 0.67 0.74 0.60 0.47 0.42 0.54 0.26 0.15 0.06 0.02 0.00 0.00 0.00 0.00 0.00 0.00 0.00 0.00 0.00 0.00 0.00 0.00 0.00 0.05 0.05 0.02 0.05 0.07 0.07 0.02 0.04 0.14 0.39 0.32
0.09 0.08 0.10 0.11 0.10 0.04 0.03 0.02 0.03 0.11 0.33 0.51 0.48 1.02 0.97 0.61 0.25 0.17 0.21 0.11 0.05 0.02 0.01 0.00 0.01 0.02 0.02 0.01 0.00 0.00 0.00 0.00 0.00 0.00 0.00 0.01 0.04 0.04 0.05 0.11 0.31 0.33 0.11 0.12 0.46 0.74 0.15
0.08 0.06 0.08 0.11 0.09 0.04 0.01 0.01 0.04 0.13 0.20 0.27 0.32 0.39 0.26 0.32 0.19 0.08 0.13 0.08 0.02 0.00 0.00 0.01 0.01 0.03 0.03 0.02 0.01 0.00 0.00 0.00 0.00 0.00 0.02 0.08 0.09 0.03 0.05 0.10 0.33 0.36 0.19 0.16 0.41 0.21 0.29
0.06 0.05 0.07 0.09 0.05 0.02 0.01 0.01 0.03 0.26 0.35 0.28 0.38 0.27 0.03 0.02 0.03 0.00 0.01 0.03 0.01 0.00 0.01 0.01 0.01 0.02 0.02 0.02 0.01 0.00 0.00 0.00 0.00 0.00 0.02 0.09 0.17 0.14 0.16 0.20 0.24 0.24 0.05 0.10 0.10 0.04 0.05
0.06 0.04 0.06 0.07 0.03 0.03 0.01 0.01 0.05 0.28 0.39 0.29 0.37 0.31 0.05 0.03 0.01 0.00 0.00 0.00 0.00 0.00 0.00 0.01 0.01 0.05 0.02 0.02 0.01 0.01 0.01 0.01 0.01 0.01 0.06 0.20 0.22 0.30 0.15 0.20 0.28 0.20 0.04 0.04 0.02 0.01 0.01
0.05 0.06 0.05 0.05 0.03 0.02 0.01 0.01 0.03 0.15 0.32 0.42 0.35 0.20 0.09 0.03 0.01 0.00 0.00 0.00 0.00 0.00 0.01 0.00 0.01 0.03 0.03 0.01 0.00 0.00 0.00 0.00 0.01 0.01 0.02 0.12 0.28 0.50 0.33 0.34 0.55 0.32 0.05 0.02 0.01 0.00 0.00
0.05 0.07 0.05 0.03 0.03 0.02 0.02 0.01 0.02 0.06 0.14 0.22 0.27 0.20 0.09 0.02 0.01 0.00 0.00 0.00 0.01 0.01 0.00 0.00 0.00 0.01 0.01 0.04 0.05 0.04 0.03 0.02 0.00 0.00 0.01 0.04 0.19 0.34 0.37 0.34 0.16 0.10 0.09 0.05 0.01 0.00 0.00
0.04 0.06 0.05 0.02 0.02 0.02 0.02 0.01 0.01 0.03 0.04 0.17 0.45 0.52 0.14 0.02 0.01 0.00 0.01 0.00 0.04 0.05 0.01 0.00 0.00 0.00 0.02 0.07 0.11 0.12 0.03 0.01 0.01 0.00 0.00 0.01 0.05 0.22 0.16 0.17 0.08 0.03 0.02 0.02 0.02 0.01 0.00
0.04 0.04 0.04 0.03 0.02 0.02 0.02 0.01 0.01 0.02 0.02 0.14 0.35 0.44 0.13 0.03 0.01 0.00 0.01 0.01 0.00 0.01 0.02 0.01 0.00 0.01 0.04 0.12 0.12 0.07 0.02 0.00 0.00 0.00 0.01 0.03 0.05 0.09 0.10 0.10 0.01 0.00 0.00 0.00 0.01 0.02 0.00
0.04 0.03 0.03 0.03 0.02 0.02 0.02 0.01 0.01 0.01 0.02 0.06 0.21 0.29 0.22 0.04 0.01 0.00 0.00 0.00 0.00 0.00 0.01 0.01 0.02 0.02 0.08 0.14 0.11 0.06 0.02 0.01 0.00 0.00 0.00 0.00 0.01 0.02 0.02 0.02 0.00 0.00 0.00 0.00 0.00 0.00 0.00
0.03 0.03 0.03 0.03 0.03 0.02 0.01 0.01 0.02 0.01 0.02 0.05 0.12 0.19 0.18 0.05 0.01 0.00 0.00 0.00 0.00 0.00 0.01 0.00 0.05 0.07 0.12 0.14 0.11 0.09 0.04 0.01 0.00 0.01 0.00 0.00 0.00 0.00 0.00 0.00 0.00 0.00 0.00 0.00 0.00 0.00 0.00

GFSGBSN_prec_precacc24_036.txt.gz
Total_Precipitation_Accumulation
0.01 0.03 0.02 0.02 0.01 0.02 0.05 0.05 0.04 0.07 0.09 0.11 0.13 0.14 0.14 0.14 0.16 0.18 0.16 0.14 0.14 0.13 0.10 0.12 0.23 0.31 0.50 0.32 0.07 0.01 0.01 0.05 0.16 0.31 0.03 0.01 0.00 0.00 0.00 0.00 0.00 0.00 0.00 0.00 0.00 0.00 0.00
0.03 0.03 0.02 0.02 0.02 0.04 0.06 0.06 0.06 0.07 0.07 0.12 0.13 0.14 0.14 0.13 0.21 0.16 0.12 0.12 0.10 0.13 0.15 0.14 0.32 0.53 0.37 0.17 0.02 0.00 0.06 0.06 0.10 0.24 0.08 0.01 0.00 0.00 0.00 0.00 0.00 0.00 0.00 0.00 0.00 0.00 0.00
0.04 0.03 0.03 0.02 0.03 0.07 0.06 0.07 0.08 0.07 0.09 0.10 0.17 0.14 0.10 0.11 0.23 0.23 0.16 0.13 0.10 0.12 0.14 0.21 0.36 0.52 0.25 0.06 0.01 0.00 0.05 0.20 0.13 0.21 0.16 0.06 0.02 0.00 0.00 0.00 0.00 0.00 0.00 0.00 0.00 0.00 0.00
0.03 0.04 0.03 0.02 0.05 0.08 0.08 0.09 0.09 0.10 0.09 0.10 0.16 0.14 0.11 0.13 0.17 0.23 0.15 0.16 0.14 0.16 0.22 0.28 0.47 0.54 0.20 0.03 0.01 0.00 0.03 0.16 0.23 0.30 0.31 0.21 0.04 0.01 0.00 0.00 0.00 0.00 0.00 0.00 0.00 0.00 0.00
0.04 0.04 0.03 0.03 0.08 0.10 0.11 0.11 0.11 0.10 0.09 0.14 0.14 0.12 0.11 0.14 0.18 0.23 0.21 0.25 0.24 0.29 0.38 0.46 0.54 0.38 0.13 0.08 0.03 0.00 0.03 0.11 0.15 0.31 0.54 0.24 0.14 0.04 0.01 0.00 0.00 0.00 0.00 0.00 0.00 0.00 0.00
0.04 0.03 0.03 0.06 0.11 0.13 0.13 0.13 0.12 0.10 0.11 0.16 0.14 0.10 0.14 0.15 0.27 0.41 0.43 0.40 0.44 0.35 0.63 0.92 0.66 0.49 0.09 0.02 0.05 0.01 0.02 0.13 0.21 0.31 0.49 0.33 0.26 0.11 0.02 0.01 0.00 0.00 0.00 0.00 0.00 0.00 0.00
0.04 0.04 0.04 0.09 0.13 0.14 0.15 0.14 0.12 0.12 0.14 0.17 0.12 0.11 0.19 0.29 0.36 0.65 0.75 0.86 0.88 0.81 0.73 0.77 0.49 0.19 0.01 0.02 0.06 0.03 0.02 0.06 0.30 0.42 0.53 0.28 0.26 0.16 0.06 0.00 0.00 0.00 0.00 0.00 0.00 0.00 0.00
0.04 0.04 0.05 0.10 0.14 0.14 0.14 0.13 0.12 0.13 0.16 0.17 0.14 0.16 0.21 0.24 0.40 0.84 0.96 0.88 0.50 0.57 0.55 0.39 0.28 0.12 0.01 0.02 0.05 0.05 0.03 0.08 0.15 0.17 0.46 0.21 0.19 0.10 0.07 0.02 0.00 0.00 0.00 0.00 0.00 0.00 0.00
0.04 0.03 0.07 0.10 0.15 0.13 0.12 0.11 0.12 0.15 0.20 0.20 0.19 0.16 0.18 0.25 0.46 0.80 0.70 0.48 0.34 0.57 0.61 0.47 0.52 0.23 0.02 0.04 0.01 0.02 0.02 0.04 0.08 0.07 0.13 0.19 0.11 0.06 0.11 0.06 0.02 0.00 0.00 0.00 0.00 0.00 0.00
0.03 0.04 0.08 0.11 0.13 0.12 0.13 0.11 0.15 0.23 0.21 0.26 0.19 0.18 0.24 0.46 0.87 0.79 0.55 0.32 0.65 0.81 0.62 0.68 0.68 0.32 0.05 0.04 0.01 0.01 0.02 0.04 0.04 0.07 0.08 0.22 0.06 0.09 0.08 0.10 0.02 0.00 0.00 0.00 0.00 0.00 0.00
0.03 0.06 0.09 0.12 0.12 0.13 0.14 0.13 0.19 0.23 0.17 0.12 0.15 0.24 0.37 0.73 0.98 0.70 0.50 0.46 1.03 1.13 0.73 0.56 0.63 0.33 0.06 0.01 0.00 0.03 0.04 0.02 0.02 0.01 0.02 0.04 0.06 0.05 0.08 0.06 0.04 0.01 0.00 0.00 0.00 0.00 0.01
0.03 0.07 0.10 0.12 0.12 0.15 0.12 0.12 0.15 0.13 0.09 0.16 0.25 0.32 0.46 0.39 0.57 0.53 0.56 0.83 1.40 1.34 0.97 0.90 0.62 0.25 0.06 0.03 0.01 0.02 0.04 0.03 0.02 0.03 0.01 0.00 0.03 0.03 0.03 0.03 0.02 0.00 0.00 0.00 0.01 0.04 0.05
0.03 0.07 0.10 0.12 0.13 0.14 0.11 0.10 0.08 0.08 0.17 0.30 0.26 0.29 0.36 0.37 0.46 0.60 0.95 1.26 1.32 0.96 0.68 0.53 0.38 0.09 0.03 0.04 0.04 0.03 0.06 0.03 0.03 0.04 0.07 0.02 0.00 0.00 0.00 0.00 0.00 0.01 0.04 0.06 0.06 0.10 0.02
0.04 0.08 0.11 0.14 0.13 0.14 0.11 0.08 0.05 0.08 0.20 0.19 0.36 0.20 0.22 0.18 0.36 1.11 1.39 1.06 0.66 0.56 0.47 0.30 0.07 0.04 0.03 0.03 0.05 0.04 0.04 0.03 0.01 0.01 0.01 0.01 0.00 0.00 0.00 0.00 0.00 0.00 0.02 0.05 0.01 0.00 0.00
0.05 0.09 0.12 0.13 0.12 0.12 0.09 0.06 0.03 0.07 0.14 0.36 0.29 0.14 0.38 0.30 0.40 1.08 1.30 0.81 0.89 0.58 0.35 0.13 0.07 0.04 0.06 0.02 0.04 0.05 0.02 0.01 0.00 0.00 0.00 0.00 0.00 0.00 0.00 0.00 0.00 0.02 0.04 0.02 0.08 0.03 0.06
0.05 0.09 0.12 0.12 0.11 0.10 0.06 0.04 0.02 0.07 0.19 0.24 0.12 0.16 0.33 0.26 0.40 1.13 0.95 0.71 0.61 0.14 0.01 0.00 0.08 0.03 0.02 0.02 0.02 0.02 0.02 0.00 0.00 0.00 0.00 0.00 0.01 0.00 0.00 0.00 0.00 0.00 0.01 0.08 0.18 0.09 0.03
0.06 0.09 0.10 0.10 0.09 0.07 0.04 0.02 0.02 0.06 0.16 0.24 0.27 0.39 0.37 0.12 0.52 0.94 0.88 0.78 0.30 0.03 0.00 0.00 0.00 0.00 0.00 0.01 0.00 0.00 0.00 0.00 0.00 0.00 0.00 0.00 0.01 0.00 0.01 0.01 0.00 0.01 0.04 0.07 0.12 0.10 0.07
0.06 0.08 0.09 0.08 0.09 0.04 0.04 0.01 0.02 0.07 0.20 0.37 0.48 0.64 0.30 0.19 0.60 0.61 0.56 0.61 0.29 0.05 0.01 0.00 0.00 0.00 0.00 0.00 0.00 0.00 0.00 0.00 0.00 0.00 0.00 0.00 0.03 0.02 0.00 0.00 0.00 0.00 0.00 0.02 0.17 0.05 0.12
0.06 0.07 0.08 0.08 0.08 0.04 0.04 0.01 0.01 0.06 0.28 0.33 0.38 0.56 0.51 0.26 0.27 0.35 0.53 0.26 0.15 0.06 0.02 0.00 0.00 0.00 0.00 0.00 0.00 0.00 0.00 0.00 0.00 0.00 0.00 0.00 0.03 0.02 0.00 0.01 0.02 0.03 0.01 0.04 0.14 0.37 0.31
0.05 0.06 0.07 0.07 0.07 0.03 0.03 0.01 0.01 0.05 0.22 0.31 0.37 0.66 0.45 0.21 0.13 0.16 0.21 0.10 0.04 0.02 0.01 0.00 0.00 0.00 0.00 0.00 0.00 0.00 0.00 0.00 0.00 0.00 0.00 0.00 0.01 0.00 0.01 0.02 0.12 0.21 0.07 0.11 0.46 0.73 0.14
0.04 0.05 0.05 0.06 0.06 0.03 0.01 0.00 0.01 0.05 0.12 0.20 0.29 0.27 0.08 0.11 0.10 0.08 0.13 0.07 0.02 0.00 0.00 0.00 0.00 0.00 0.00 0.01 0.00 0.00 0.00 0.00 0.00 0.00 0.00 0.02 0.03 0.01 0.01 0.04 0.19 0.24 0.13 0.15 0.40 0.21 0.29
0.03 0.04 0.05 0.05 0.04 0.02 0.01 0.00 0.01 0.10 0.22 0.26 0.26 0.18 0.03 0.01 0.02 0.00 0.01 0.02 0.01 0.00 0.00 0.00 0.00 0.00 0.00 0.01 0.01 0.00 0.00 0.00 0.00 0.00 0.00 0.02 0.06 0.04 0.05 0.07 0.14 0.18 0.04 0.09 0.10 0.04 0.05
0.03 0.03 0.05 0.05 0.03 0.03 0.01 0.00 0.01 0.12 0.25 0.17 0.12 0.17 0.05 0.02 0.01 0.00 0.00 0.00 0.00 0.00 0.00 0.00 0.00 0.00 0.02 0.01 0.01 0.01 0.01 0.00 0.00 0.00 0.02 0.08 0.09 0.17 0.08 0.08 0.19 0.14 0.04 0.04 0.02 0.01 0.01
0.03 0.03 0.03 0.04 0.02 0.02 0.01 0.01 0.01 0.04 0.15 0.16 0.13 0.12 0.05 0.02 0.00 0.00 0.00 0.00 0.00 0.00 0.01 0.00 0.00 0.01 0.02 0.01 0.00 0.00 0.00 0.00 0.01 0.01 0.00 0.02 0.11 0.32 0.20 0.14 0.29 0.19 0.04 0.02 0.01 0.00 0.00
0.03 0.04 0.03 0.03 0.03 0.02 0.02 0.01 0.01 0.02 0.05 0.09 0.12 0.13 0.06 0.02 0.00 0.00 0.00 0.00 0.00 0.00 0.00 0.00 0.00 0.00 0.01 0.03 0.02 0.03 0.03 0.01 0.00 0.00 0.01 0.01 0.07 0.25 0.28 0.26 0.12 0.08 0.03 0.03 0.00 0.00 0.00
0.02 0.04 0.03 0.03 0.02 0.02 0.02 0.01 0.00 0.01 0.02 0.13 0.33 0.36 0.12 0.02 0.00 0.00 0.00 0.00 0.00 0.00 0.00 0.00 0.00 0.00 0.00 0.03 0.05 0.07 0.02 0.01 0.01 0.00 0.00 0.01 0.05 0.21 0.16 0.17 0.08 0.03 0.01 0.00 0.00 0.00 0.00
0.02 0.03 0.03 0.03 0.03 0.02 0.02 0.01 0.01 0.01 0.01 0.12 0.26 0.24 0.10 0.02 0.00 0.00 0.00 0.00 0.00 0.00 0.02 0.01 0.00 0.01 0.02 0.05 0.07 0.03 0.01 0.00 0.00 0.01 0.01 0.03 0.05 0.10 0.11 0.12 0.01 0.00 0.00 0.00 0.01 0.02 0.00
0.02 0.02 0.03 0.02 0.03 0.03 0.02 0.01 0.01 0.00 0.01 0.04 0.10 0.16 0.17 0.03 0.00 0.00 0.00 0.00 0.00 0.00 0.01 0.01 0.01 0.01 0.03 0.06 0.07 0.03 0.02 0.01 0.00 0.00 0.00 0.01 0.01 0.02 0.03 0.03 0.00 0.00 0.00 0.00 0.00 0.00 0.00
0.02 0.03 0.02 0.02 0.03 0.04 0.03 0.02 0.01 0.01 0.01 0.02 0.06 0.07 0.12 0.05 0.01 0.00 0.00 0.00 0.00 0.00 0.01 0.00 0.02 0.01 0.03 0.06 0.10 0.07 0.04 0.01 0.00 0.01 0.00 0.00 0.00 0.00 0.00 0.00 0.00 0.00 0.00 0.00 0.00 0.00 0.00

GFSGBSN_prec_precacc24_039.txt.gz
Total_Precipitation_Accumulation
0.02 0.03 0.02 0.03 0.03 0.02 0.06 0.08 0.06 0.06 0.07 0.09 0.12 0.14 0.11 0.11 0.16 0.20 0.16 0.15 0.16 0.15 0.11 0.15 0.24 0.31 0.51 0.36 0.10 0.04 0.03 0.06 0.16 0.27 0.03 0.02 0.00 0.00 0.00 0.00 0.00 0.00 0.00 0.00 0.00 0.00 0.00
0.03 0.03 0.03 0.03 0.03 0.05 0.09 0.09 0.08 0.07 0.08 0.11 0.10 0.12 0.11 0.08 0.17 0.16 0.13 0.14 0.13 0.15 0.17 0.16 0.33 0.53 0.39 0.21 0.03 0.04 0.07 0.09 0.10 0.25 0.08 0.02 0.00 0.00 0.00 0.00 0.00 0.00 0.00 0.00 0.00 0.00 0.00
0.04 0.03 0.04 0.03 0.04 0.08 0.10 0.10 0.09 0.08 0.12 0.10 0.14 0.11 0.08 0.08 0.16 0.21 0.17 0.15 0.12 0.14 0.16 0.23 0.36 0.53 0.28 0.09 0.01 0.08 0.06 0.28 0.14 0.22 0.16 0.05 0.01 0.00 0.00 0.00 0.00 0.00 0.00 0.00 0.00 0.00 0.00
0.03 0.04 0.04 0.03 0.06 0.10 0.11 0.11 0.10 0.12 0.12 0.13 0.17 0.11 0.10 0.10 0.11 0.18 0.15 0.18 0.16 0.15 0.21 0.30 0.48 0.57 0.23 0.03 0.01 0.05 0.05 0.29 0.27 0.36 0.31 0.23 0.03 0.01 0.00 0.00 0.00 0.00 0.00 0.00 0.00 0.00 0.00
0.04 0.04 0.03 0.04 0.08 0.13 0.14 0.13 0.13 0.12 0.11 0.16 0.17 0.11 0.08 0.08 0.12 0.21 0.21 0.28 0.24 0.28 0.37 0.43 0.55 0.40 0.17 0.08 0.03 0.01 0.05 0.25 0.27 0.45 0.68 0.35 0.18 0.05 0.00 0.00 0.00 0.00 0.00 0.00 0.00 0.00 0.00
0.05 0.04 0.03 0.06 0.11 0.16 0.15 0.14 0.13 0.10 0.12 0.17 0.17 0.11 0.08 0.09 0.22 0.40 0.42 0.39 0.43 0.34 0.62 0.92 0.67 0.50 0.10 0.02 0.05 0.01 0.03 0.27 0.36 0.40 0.64 0.45 0.31 0.12 0.02 0.01 0.00 0.00 0.00 0.00 0.00 0.00 0.00
0.04 0.04 0.04 0.09 0.13 0.16 0.16 0.15 0.13 0.13 0.16 0.20 0.15 0.11 0.15 0.20 0.30 0.58 0.69 0.85 0.87 0.80 0.72 0.77 0.49 0.21 0.02 0.02 0.08 0.05 0.05 0.21 0.52 0.54 0.56 0.29 0.28 0.16 0.06 0.00 0.00 0.00 0.00 0.00 0.00 0.00 0.00
0.03 0.03 0.05 0.09 0.15 0.14 0.14 0.13 0.13 0.15 0.21 0.21 0.16 0.19 0.27 0.20 0.28 0.61 0.88 0.88 0.50 0.57 0.55 0.39 0.28 0.15 0.03 0.03 0.11 0.08 0.06 0.22 0.51 0.49 0.60 0.24 0.21 0.10 0.07 0.02 0.00 0.00 0.00 0.00 0.00 0.00 0.00
0.03 0.03 0.06 0.10 0.14 0.13 0.13 0.12 0.13 0.17 0.22 0.20 0.20 0.21 0.24 0.26 0.34 0.41 0.58 0.48 0.34 0.57 0.61 0.47 0.56 0.27 0.06 0.06 0.10 0.04 0.05 0.22 0.48 0.49 0.40 0.26 0.13 0.07 0.11 0.07 0.02 0.00 0.00 0.00 0.00 0.00 0.00
0.03 0.03 0.07 0.10 0.13 0.13 0.13 0.11 0.14 0.20 0.17 0.17 0.16 0.20 0.29 0.47 0.59 0.42 0.36 0.30 0.65 0.81 0.62 0.71 0.80 0.44 0.09 0.09 0.11 0.02 0.06 0.10 0.25 0.32 0.36 0.37 0.10 0.14 0.10 0.11 0.02 0.00 0.00 0.00 0.00 0.00 0.00
0.02 0.05 0.08 0.12 0.11 0.13 0.13 0.11 0.16 0.17 0.14 0.09 0.15 0.26 0.38 0.64 0.58 0.20 0.29 0.43 1.03 1.13 0.76 0.62 0.73 0.40 0.10 0.09 0.08 0.07 0.07 0.05 0.07 0.06 0.12 0.15 0.09 0.16 0.15 0.10 0.05 0.01 0.00 0.00 0.00 0.00 0.01
0.02 0.06 0.09 0.11 0.11 0.13 0.11 0.10 0.12 0.11 0.08 0.10 0.18 0.29 0.44 0.32 0.22 0.12 0.38 0.76 1.39 1.34 1.00 0.98 0.74 0.32 0.06 0.05 0.03 0.10 0.07 0.03 0.04 0.07 0.06 0.03 0.09 0.10 0.09 0.11 0.05 0.01 0.00 0.00 0.01 0.02 0.03
0.02 0.06 0.08 0.11 0.11 0.11 0.09 0.09 0.07 0.07 0.08 0.10 0.16 0.25 0.31 0.29 0.12 0.10 0.63 1.13 1.31 0.98 0.78 0.67 0.51 0.10 0.03 0.05 0.06 0.10 0.08 0.04 0.04 0.07 0.10 0.05 0.12 0.05 0.07 0.10 0.08 0.03 0.02 0.01 0.03 0.05 0.01
0.03 0.07 0.09 0.12 0.10 0.10 0.09 0.08 0.05 0.04 0.06 0.09 0.23 0.14 0.17 0.15 0.15 0.32 0.94 0.94 0.68 0.61 0.55 0.37 0.09 0.04 0.03 0.04 0.06 0.06 0.06 0.03 0.01 0.01 0.03 0.02 0.01 0.00 0.00 0.01 0.01 0.01 0.01 0.01 0.00 0.00 0.00
0.04 0.07 0.09 0.10 0.08 0.09 0.08 0.06 0.03 0.04 0.07 0.10 0.11 0.08 0.34 0.27 0.17 0.32 0.90 0.70 0.92 0.62 0.39 0.16 0.07 0.04 0.06 0.02 0.05 0.06 0.05 0.01 0.00 0.00 0.00 0.00 0.00 0.00 0.00 0.00 0.00 0.01 0.01 0.01 0.04 0.01 0.03
0.05 0.07 0.09 0.08 0.07 0.07 0.05 0.04 0.02 0.05 0.10 0.14 0.09 0.10 0.32 0.23 0.13 0.40 0.60 0.65 0.61 0.14 0.01 0.00 0.08 0.03 0.02 0.02 0.02 0.02 0.02 0.00 0.00 0.00 0.00 0.00 0.00 0.00 0.00 0.00 0.00 0.00 0.00 0.04 0.09 0.03 0.02
0.05 0.06 0.07 0.07 0.06 0.05 0.03 0.02 0.01 0.03 0.09 0.17 0.19 0.31 0.33 0.07 0.15 0.33 0.54 0.74 0.30 0.03 0.00 0.00 0.00 0.00 0.00 0.01 0.00 0.00 0.00 0.00 0.00 0.00 0.00 0.00 0.00 0.00 0.00 0.00 0.00 0.01 0.02 0.04 0.07 0.03 0.02
0.05 0.05 0.05 0.05 0.05 0.03 0.03 0.01 0.00 0.04 0.12 0.21 0.22 0.56 0.21 0.05 0.18 0.28 0.47 0.60 0.29 0.05 0.01 0.00 0.00 0.00 0.00 0.00 0.00 0.00 0.00 0.00 0.00 0.00 0.00 0.00 0.01 0.01 0.00 0.00 0.00 0.00 0.00 0.01 0.15 0.05 0.12
0.05 0.04 0.05 0.05 0.04 0.03 0.03 0.01 0.00 0.03 0.14 0.21 0.22 0.41 0.35 0.15 0.13 0.27 0.51 0.26 0.15 0.06 0.02 0.00 0.00 0.00 0.00 0.00 0.00 0.00 0.00 0.00 0.00 0.00 0.00 0.00 0.01 0.00 0.00 0.01 0.01 0.00 0.00 0.02 0.12 0.33 0.30
0.04 0.04 0.04 0.04 0.03 0.02 0.02 0.01 0.00 0.01 0.14 0.23 0.21 0.39 0.20 0.08 0.07 0.15 0.21 0.10 0.04 0.02 0.01 0.00 0.00 0.00 0.00 0.00 0.00 0.00 0.00 0.00 0.00 0.00 0.00 0.00 0.00 0.00 0.00 0.00 0.04 0.09 0.02 0.05 0.33 0.60 0.13
0.03 0.04 0.04 0.04 0.04 0.01 0.01 0.00 0.00 0.01 0.07 0.15 0.19 0.13 0.03 0.04 0.04 0.08 0.13 0.07 0.02 0.00 0.00 0.00 0.00 0.00 0.00 0.00 0.00 0.00 0.00 0.00 0.00 0.00 0.00 0.00 0.01 0.00 0.00 0.00 0.02 0.06 0.05 0.08 0.31 0.17 0.28
0.02 0.03 0.03 0.03 0.02 0.01 0.01 0.00 0.00 0.00 0.07 0.08 0.15 0.09 0.02 0.01 0.01 0.00 0.01 0.02 0.01 0.00 0.00 0.00 0.00 0.00 0.00 0.00 0.00 0.00 0.00 0.00 0.00 0.00 0.00 0.00 0.01 0.01 0.01 0.01 0.02 0.07 0.01 0.07 0.08 0.04 0.05
0.01 0.02 0.03 0.03 0.02 0.01 0.01 0.00 0.00 0.00 0.06 0.07 0.08 0.07 0.04 0.02 0.01 0.00 0.00 0.00 0.00 0.00 0.00 0.00 0.00 0.00 0.01 0.01 0.00 0.00 0.00 0.00 0.00 0.00 0.00 0.01 0.02 0.06 0.04 0.00 0.04 0.08 0.02 0.02 0.02 0.01 0.01
0.02 0.02 0.02 0.03 0.02 0.01 0.01 0.01 0.00 0.00 0.05 0.08 0.07 0.05 0.03 0.02 0.00 0.00 0.00 0.00 0.00 0.00 0.01 0.00 0.00 0.01 0.02 0.01 0.00 0.00 0.00 0.00 0.01 0.01 0.00 0.01 0.03 0.17 0.12 0.06 0.11 0.12 0.04 0.01 0.01 0.00 0.00
0.02 0.02 0.02 0.03 0.03 0.01 0.01 0.01 0.00 0.00 0.01 0.03 0.06 0.07 0.04 0.02 0.00 0.00 0.00 0.00 0.00 0.00 0.00 0.00 0.00 0.00 0.00 0.02 0.01 0.01 0.02 0.01 0.00 0.00 0.01 0.01 0.03 0.16 0.19 0.16 0.06 0.03 0.02 0.03 0.00 0.00 0.00
0.02 0.03 0.02 0.03 0.03 0.02 0.01 0.01 0.00 0.00 0.00 0.03 0.16 0.18 0.07 0.02 0.00 0.00 0.00 0.00 0.00 0.00 0.00 0.00 0.00 0.00 0.00 0.02 0.02 0.01 0.01 0.01 0.01 0.00 0.00 0.01 0.05 0.18 0.15 0.16 0.07 0.03 0.00 0.00 0.00 0.01 0.00
0.02 0.02 0.02 0.03 0.03 0.04 0.02 0.01 0.01 0.00 0.00 0.03 0.11 0.12 0.05 0.02 0.00 0.00 0.00 0.00 0.00 0.00 0.01 0.01 0.00 0.01 0.01 0.03 0.03 0.01 0.01 0.00 0.00 0.01 0.01 0.03 0.07 0.11 0.11 0.11 0.01 0.00 0.00 0.01 0.03 0.02 0.00
0.02 0.02 0.02 0.02 0.02 0.03 0.04 0.02 0.01 0.00 0.00 0.01 0.03 0.06 0.06 0.01 0.00 0.00 0.00 0.00 0.00 0.00 0.01 0.01 0.01 0.01 0.01 0.02 0.01 0.01 0.02 0.01 0.00 0.00 0.00 0.01 0.01 0.03 0.03 0.04 0.00 0.00 0.00 0.02 0.01 0.00 0.00
0.02 0.02 0.02 0.02 0.03 0.04 0.04 0.07 0.03 0.01 0.01 0.00 0.01 0.01 0.04 0.03 0.00 0.00 0.00 0.00 0.00 0.00 0.01 0.00 0.02 0.01 0.01 0.02 0.03 0.05 0.03 0.01 0.00 0.01 0.00 0.00 0.00 0.00 0.00 0.00 0.00 0.00 0.00 0.00 0.00 0.00 0.00

GFSGBSN_prec_precacc24_042.txt.gz
Total_Precipitation_Accumulation
0.02 0.04 0.03 0.04 0.03 0.03 0.07 0.11 0.07 0.07 0.08 0.11 0.14 0.16 0.13 0.09 0.12 0.12 0.14 0.16 0.17 0.16 0.12 0.19 0.28 0.32 0.51 0.36 0.11 0.06 0.04 0.06 0.16 0.21 0.04 0.03 0.01 0.01 0.00 0.00 0.00 0.00 0.00 0.00 0.00 0.00 0.00
0.04 0.03 0.04 0.04 0.04 0.05 0.11 0.11 0.09 0.08 0.10 0.15 0.15 0.16 0.12 0.08 0.16 0.11 0.09 0.13 0.14 0.16 0.17 0.24 0.37 0.54 0.39 0.22 0.03 0.05 0.07 0.11 0.11 0.22 0.09 0.04 0.00 0.00 0.00 0.00 0.00 0.00 0.00 0.00 0.00 0.00 0.00
0.04 0.04 0.04 0.04 0.04 0.08 0.12 0.11 0.11 0.10 0.14 0.13 0.18 0.14 0.08 0.15 0.20 0.15 0.10 0.15 0.13 0.15 0.16 0.29 0.41 0.55 0.28 0.09 0.01 0.08 0.06 0.29 0.16 0.20 0.15 0.07 0.01 0.00 0.00 0.00 0.00 0.00 0.00 0.00 0.00 0.00 0.00
0.04 0.05 0.04 0.04 0.06 0.11 0.12 0.12 0.11 0.13 0.14 0.14 0.20 0.14 0.11 0.17 0.08 0.11 0.07 0.17 0.17 0.16 0.21 0.30 0.50 0.60 0.24 0.03 0.01 0.06 0.06 0.32 0.29 0.38 0.34 0.25 0.04 0.01 0.00 0.00 0.00 0.00 0.00 0.00 0.00 0.00 0.00
0.05 0.04 0.03 0.04 0.08 0.14 0.15 0.14 0.14 0.13 0.14 0.21 0.22 0.18 0.14 0.09 0.06 0.13 0.13 0.24 0.24 0.29 0.38 0.41 0.56 0.43 0.18 0.11 0.03 0.02 0.06 0.32 0.31 0.51 0.81 0.52 0.24 0.06 0.00 0.00 0.00 0.00 0.00 0.00 0.00 0.00 0.00
0.04 0.03 0.03 0.07 0.11 0.16 0.17 0.15 0.14 0.13 0.17 0.24 0.23 0.18 0.12 0.08 0.15 0.27 0.27 0.23 0.38 0.33 0.63 0.91 0.68 0.53 0.10 0.04 0.05 0.01 0.04 0.45 0.43 0.50 0.83 0.67 0.44 0.17 0.03 0.01 0.00 0.00 0.00 0.00 0.00 0.00 0.00
0.03 0.03 0.04 0.08 0.11 0.15 0.16 0.15 0.14 0.15 0.22 0.25 0.20 0.15 0.18 0.25 0.26 0.38 0.26 0.52 0.81 0.79 0.72 0.76 0.49 0.23 0.06 0.07 0.08 0.05 0.08 0.65 0.71 0.66 0.64 0.38 0.32 0.18 0.07 0.00 0.00 0.00 0.00 0.00 0.00 0.00 0.00
0.02 0.03 0.05 0.08 0.13 0.14 0.14 0.13 0.13 0.17 0.23 0.21 0.15 0.18 0.28 0.28 0.32 0.44 0.21 0.63 0.49 0.57 0.55 0.39 0.28 0.16 0.04 0.06 0.11 0.09 0.15 0.65 0.81 0.60 0.66 0.28 0.23 0.10 0.09 0.02 0.00 0.00 0.00 0.00 0.00 0.00 0.00
0.02 0.02 0.06 0.08 0.13 0.13 0.12 0.12 0.13 0.17 0.21 0.16 0.14 0.18 0.22 0.29 0.36 0.31 0.09 0.27 0.32 0.57 0.61 0.48 0.58 0.30 0.11 0.09 0.11 0.05 0.21 0.73 0.68 0.60 0.44 0.27 0.14 0.07 0.11 0.07 0.02 0.00 0.00 0.00 0.00 0.00 0.00
0.01 0.02 0.06 0.09 0.12 0.11 0.11 0.10 0.14 0.19 0.14 0.14 0.14 0.20 0.28 0.45 0.57 0.34 0.08 0.12 0.55 0.80 0.63 0.78 0.89 0.62 0.13 0.10 0.12 0.03 0.33 0.55 0.57 0.58 0.48 0.42 0.14 0.14 0.10 0.11 0.02 0.00 0.00 0.00 0.00 0.00 0.00
0.01 0.04 0.06 0.10 0.09 0.10 0.10 0.10 0.15 0.16 0.12 0.08 0.13 0.25 0.36 0.58 0.54 0.14 0.15 0.23 0.85 1.10 0.84 0.78 0.91 0.46 0.11 0.10 0.10 0.10 0.39 0.23 0.30 0.31 0.35 0.32 0.20 0.19 0.16 0.10 0.05 0.01 0.00 0.00 0.00 0.00 0.00
0.01 0.05 0.07 0.08 0.08 0.09 0.08 0.09 0.11 0.11 0.07 0.07 0.10 0.20 0.35 0.28 0.18 0.05 0.19 0.46 1.06 1.25 1.06 1.05 0.79 0.33 0.06 0.09 0.03 0.13 0.16 0.08 0.14 0.24 0.22 0.20 0.21 0.26 0.14 0.14 0.05 0.01 0.00 0.00 0.00 0.01 0.01
0.01 0.06 0.06 0.08 0.07 0.08 0.07 0.08 0.07 0.07 0.07 0.06 0.07 0.15 0.26 0.25 0.10 0.04 0.28 0.57 0.89 0.92 0.79 0.69 0.56 0.09 0.03 0.07 0.09 0.16 0.10 0.06 0.07 0.20 0.20 0.19 0.20 0.15 0.14 0.21 0.13 0.03 0.01 0.00 0.01 0.02 0.00
0.02 0.05 0.06 0.08 0.06 0.07 0.06 0.07 0.05 0.04 0.05 0.04 0.05 0.07 0.13 0.13 0.12 0.14 0.26 0.49 0.54 0.64 0.58 0.39 0.09 0.04 0.03 0.05 0.12 0.15 0.07 0.03 0.00 0.01 0.04 0.09 0.13 0.06 0.09 0.08 0.10 0.01 0.01 0.00 0.00 0.00 0.00
0.03 0.05 0.06 0.07 0.06 0.05 0.05 0.06 0.03 0.04 0.05 0.05 0.05 0.04 0.27 0.21 0.13 0.07 0.19 0.41 0.91 0.64 0.40 0.16 0.07 0.04 0.05 0.02 0.06 0.06 0.06 0.01 0.00 0.00 0.00 0.00 0.01 0.01 0.01 0.00 0.02 0.01 0.00 0.00 0.01 0.00 0.00
0.03 0.05 0.06 0.06 0.06 0.04 0.04 0.03 0.02 0.05 0.08 0.08 0.05 0.05 0.24 0.20 0.05 0.07 0.18 0.50 0.61 0.14 0.01 0.00 0.08 0.03 0.02 0.02 0.02 0.02 0.02 0.00 0.00 0.00 0.00 0.00 0.00 0.00 0.00 0.00 0.00 0.00 0.00 0.01 0.03 0.01 0.00
0.03 0.05 0.05 0.05 0.04 0.03 0.03 0.02 0.01 0.03 0.07 0.07 0.04 0.23 0.24 0.06 0.03 0.07 0.30 0.63 0.30 0.03 0.00 0.00 0.00 0.00 0.00 0.01 0.00 0.00 0.00 0.00 0.00 0.00 0.00 0.00 0.00 0.00 0.00 0.00 0.00 0.00 0.01 0.01 0.02 0.01 0.01
0.03 0.04 0.04 0.03 0.04 0.02 0.03 0.01 0.00 0.04 0.09 0.07 0.10 0.31 0.16 0.03 0.05 0.10 0.36 0.59 0.29 0.05 0.01 0.00 0.00 0.00 0.00 0.00 0.00 0.00 0.00 0.00 0.00 0.00 0.00 0.00 0.00 0.00 0.00 0.00 0.00 0.00 0.00 0.00 0.06 0.02 0.07
0.03 0.03 0.04 0.03 0.03 0.01 0.02 0.01 0.00 0.02 0.10 0.07 0.07 0.19 0.22 0.11 0.08 0.21 0.47 0.26 0.15 0.06 0.02 0.00 0.00 0.00 0.00 0.00 0.00 0.00 0.00 0.00 0.00 0.00 0.00 0.00 0.01 0.00 0.00 0.01 0.01 0.00 0.00 0.00 0.03 0.18 0.16
0.02 0.02 0.03 0.03 0.02 0.01 0.01 0.01 0.00 0.00 0.11 0.09 0.06 0.13 0.08 0.02 0.06 0.15 0.20 0.10 0.04 0.02 0.01 0.00 0.00 0.00 0.00 0.00 0.00 0.00 0.00 0.00 0.00 0.00 0.00 0.00 0.00 0.00 0.00 0.00 0.02 0.03 0.00 0.01 0.16 0.36 0.08
0.02 0.02 0.02 0.02 0.03 0.01 0.01 0.00 0.00 0.00 0.03 0.05 0.04 0.03 0.02 0.02 0.03 0.08 0.13 0.07 0.02 0.00 0.00 0.00 0.00 0.00 0.00 0.00 0.00 0.00 0.00 0.00 0.00 0.00 0.00 0.00 0.01 0.00 0.00 0.00 0.00 0.00 0.00 0.01 0.17 0.13 0.23
0.01 0.01 0.02 0.02 0.02 0.01 0.01 0.00 0.00 0.00 0.00 0.00 0.02 0.03 0.01 0.01 0.00 0.00 0.01 0.02 0.01 0.00 0.00 0.00 0.00 0.00 0.00 0.00 0.00 0.00 0.00 0.00 0.00 0.00 0.00 0.00 0.01 0.01 0.00 0.00 0.00 0.00 0.00 0.02 0.02 0.02 0.04
0.01 0.01 0.02 0.02 0.02 0.01 0.01 0.00 0.00 0.00 0.00 0.01 0.02 0.02 0.03 0.01 0.00 0.00 0.00 0.00 0.00 0.00 0.00 0.00 0.00 0.00 0.01 0.00 0.00 0.00 0.00 0.00 0.00 0.00 0.00 0.01 0.00 0.03 0.02 0.00 0.00 0.02 0.01 0.01 0.01 0.00 0.01
0.01 0.01 0.01 0.02 0.02 0.01 0.01 0.01 0.00 0.00 0.01 0.01 0.02 0.02 0.01 0.01 0.00 0.00 0.00 0.00 0.00 0.00 0.00 0.00 0.00 0.00 0.01 0.00 0.00 0.00 0.00 0.00 0.00 0.00 0.00 0.00 0.01 0.10 0.05 0.01 0.02 0.02 0.00 0.01 0.00 0.00 0.00
0.01 0.02 0.02 0.02 0.02 0.02 0.02 0.00 0.01 0.00 0.00 0.01 0.01 0.01 0.02 0.01 0.00 0.00 0.00 0.00 0.00 0.00 0.00 0.00 0.00 0.00 0.00 0.00 0.00 0.01 0.02 0.01 0.00 0.00 0.01 0.01 0.02 0.11 0.10 0.05 0.02 0.01 0.00 0.02 0.00 0.00 0.00
0.02 0.02 0.02 0.02 0.02 0.03 0.03 0.01 0.00 0.00 0.00 0.00 0.02 0.01 0.01 0.01 0.00 0.00 0.00 0.00 0.00 0.00 0.00 0.00 0.00 0.00 0.00 0.01 0.01 0.01 0.00 0.01 0.01 0.00 0.00 0.01 0.03 0.15 0.13 0.11 0.02 0.01 0.00 0.00 0.00 0.02 0.00
0.02 0.02 0.02 0.02 0.03 0.03 0.03 0.04 0.02 0.00 0.00 0.00 0.02 0.01 0.00 0.01 0.00 0.00 0.00 0.00 0.00 0.00 0.00 0.00 0.00 0.00 0.01 0.02 0.03 0.01 0.00 0.00 0.00 0.01 0.01 0.03 0.06 0.10 0.11 0.11 0.00 0.00 0.00 0.01 0.06 0.04 0.00
0.02 0.02 0.02 0.02 0.02 0.03 0.05 0.04 0.05 0.01 0.00 0.00 0.00 0.01 0.01 0.01 0.00 0.00 0.00 0.00 0.00 0.00 0.01 0.01 0.01 0.01 0.01 0.02 0.01 0.00 0.01 0.01 0.00 0.00 0.00 0.01 0.02 0.04 0.04 0.04 0.00 0.00 0.00 0.02 0.02 0.00 0.00
0.04 0.03 0.02 0.02 0.03 0.04 0.04 0.07 0.07 0.04 0.02 0.00 0.00 0.00 0.01 0.02 0.00 0.00 0.00 0.00 0.00 0.00 0.01 0.00 0.02 0.01 0.00 0.01 0.01 0.03 0.02 0.01 0.00 0.01 0.00 0.00 0.00 0.00 0.00 0.00 0.00 0.00 0.00 0.00 0.00 0.00 0.00

GFSGBSN_prec_precacc24_045.txt.gz
Total_Precipitation_Accumulation
0.02 0.04 0.03 0.05 0.04 0.03 0.08 0.13 0.08 0.08 0.09 0.13 0.16 0.18 0.15 0.11 0.13 0.11 0.05 0.09 0.16 0.16 0.12 0.21 0.31 0.35 0.51 0.34 0.09 0.11 0.05 0.09 0.18 0.13 0.04 0.03 0.01 0.01 0.00 0.00 0.00 0.00 0.00 0.00 0.00 0.00 0.00
0.04 0.04 0.04 0.05 0.04 0.05 0.13 0.12 0.10 0.09 0.11 0.17 0.18 0.20 0.15 0.09 0.21 0.14 0.04 0.07 0.13 0.16 0.18 0.27 0.40 0.58 0.40 0.22 0.03 0.07 0.09 0.11 0.14 0.17 0.06 0.04 0.00 0.00 0.00 0.00 0.00 0.00 0.00 0.00 0.00 0.00 0.00
0.04 0.04 0.05 0.04 0.05 0.09 0.14 0.12 0.11 0.10 0.16 0.17 0.24 0.20 0.12 0.18 0.25 0.15 0.06 0.07 0.12 0.18 0.17 0.31 0.46 0.57 0.30 0.09 0.02 0.10 0.08 0.29 0.19 0.15 0.09 0.06 0.01 0.01 0.00 0.00 0.00 0.00 0.00 0.00 0.00 0.00 0.00
0.04 0.04 0.03 0.04 0.07 0.11 0.13 0.12 0.11 0.14 0.18 0.20 0.27 0.20 0.16 0.23 0.12 0.10 0.03 0.08 0.09 0.15 0.23 0.32 0.54 0.62 0.24 0.03 0.02 0.07 0.08 0.32 0.33 0.39 0.28 0.22 0.03 0.01 0.00 0.00 0.00 0.00 0.00 0.00 0.00 0.00 0.00
0.04 0.03 0.03 0.04 0.08 0.13 0.15 0.14 0.15 0.15 0.18 0.26 0.27 0.22 0.19 0.12 0.07 0.12 0.07 0.10 0.04 0.22 0.37 0.41 0.57 0.45 0.19 0.11 0.03 0.03 0.06 0.33 0.34 0.53 0.84 0.56 0.28 0.08 0.00 0.00 0.00 0.00 0.00 0.00 0.00 0.00 0.00
0.04 0.03 0.03 0.06 0.09 0.15 0.16 0.15 0.14 0.14 0.20 0.26 0.27 0.21 0.15 0.08 0.14 0.26 0.18 0.02 0.01 0.20 0.58 0.88 0.69 0.56 0.11 0.05 0.07 0.03 0.04 0.51 0.47 0.53 0.92 0.79 0.57 0.24 0.04 0.01 0.00 0.00 0.00 0.00 0.00 0.00 0.00
0.03 0.02 0.03 0.07 0.10 0.14 0.14 0.13 0.13 0.15 0.21 0.24 0.21 0.13 0.18 0.24 0.24 0.37 0.16 0.01 0.17 0.52 0.68 0.76 0.49 0.25 0.12 0.14 0.13 0.08 0.09 0.75 0.81 0.71 0.68 0.49 0.45 0.22 0.07 0.00 0.00 0.00 0.00 0.00 0.00 0.00 0.00
0.02 0.02 0.04 0.07 0.11 0.11 0.11 0.12 0.13 0.16 0.21 0.20 0.14 0.12 0.24 0.28 0.32 0.43 0.08 0.03 0.18 0.53 0.55 0.39 0.28 0.16 0.04 0.10 0.19 0.14 0.23 1.06 0.90 0.63 0.70 0.36 0.31 0.11 0.09 0.02 0.00 0.00 0.00 0.00 0.00 0.00 0.00
0.02 0.01 0.05 0.07 0.11 0.09 0.10 0.10 0.12 0.15 0.18 0.14 0.11 0.15 0.21 0.27 0.37 0.32 0.04 0.01 0.17 0.47 0.61 0.49 0.58 0.31 0.14 0.17 0.16 0.09 0.41 1.25 0.75 0.62 0.48 0.30 0.15 0.09 0.13 0.08 0.02 0.00 0.00 0.00 0.00 0.00 0.00
0.01 0.02 0.06 0.08 0.09 0.08 0.09 0.08 0.11 0.16 0.11 0.09 0.10 0.17 0.27 0.45 0.55 0.32 0.04 0.05 0.26 0.59 0.69 0.84 0.95 0.70 0.19 0.17 0.18 0.11 0.55 0.98 0.76 0.66 0.58 0.49 0.16 0.16 0.13 0.13 0.02 0.01 0.00 0.00 0.00 0.00 0.00
0.01 0.03 0.06 0.08 0.07 0.07 0.07 0.07 0.12 0.14 0.09 0.06 0.10 0.20 0.31 0.52 0.46 0.12 0.10 0.10 0.45 0.73 0.88 1.01 1.12 0.50 0.21 0.15 0.13 0.14 0.59 0.55 0.39 0.39 0.56 0.43 0.24 0.20 0.17 0.11 0.05 0.01 0.00 0.00 0.00 0.00 0.00
0.01 0.03 0.05 0.07 0.06 0.06 0.06 0.06 0.09 0.09 0.07 0.06 0.07 0.13 0.25 0.23 0.15 0.04 0.12 0.27 0.50 0.78 1.10 1.13 0.82 0.34 0.07 0.10 0.06 0.21 0.52 0.30 0.29 0.37 0.31 0.24 0.24 0.31 0.16 0.14 0.06 0.01 0.00 0.00 0.00 0.00 0.00
0.00 0.03 0.04 0.06 0.04 0.05 0.04 0.06 0.06 0.07 0.07 0.05 0.05 0.10 0.19 0.21 0.08 0.03 0.10 0.30 0.45 0.67 0.79 0.70 0.56 0.09 0.03 0.09 0.12 0.22 0.28 0.18 0.18 0.41 0.46 0.38 0.33 0.29 0.16 0.21 0.13 0.02 0.01 0.01 0.01 0.01 0.00
0.01 0.03 0.05 0.06 0.04 0.05 0.03 0.05 0.04 0.04 0.04 0.04 0.04 0.06 0.08 0.11 0.10 0.07 0.06 0.18 0.37 0.62 0.59 0.40 0.10 0.04 0.03 0.06 0.13 0.16 0.08 0.05 0.04 0.08 0.16 0.26 0.31 0.30 0.21 0.11 0.11 0.01 0.01 0.01 0.00 0.00 0.00
0.01 0.04 0.05 0.05 0.04 0.03 0.02 0.04 0.03 0.04 0.04 0.03 0.04 0.04 0.16 0.12 0.11 0.03 0.08 0.15 0.82 0.64 0.41 0.16 0.06 0.04 0.04 0.02 0.07 0.06 0.05 0.01 0.00 0.01 0.03 0.03 0.05 0.10 0.12 0.06 0.09 0.04 0.00 0.00 0.00 0.00 0.00
0.02 0.03 0.05 0.04 0.04 0.02 0.02 0.03 0.02 0.04 0.06 0.05 0.04 0.03 0.14 0.15 0.04 0.05 0.10 0.36 0.59 0.14 0.01 0.00 0.07 0.03 0.02 0.01 0.02 0.01 0.02 0.00 0.00 0.00 0.00 0.00 0.01 0.02 0.02 0.02 0.06 0.04 0.00 0.00 0.00 0.00 0.00
0.02 0.03 0.04 0.03 0.02 0.02 0.01 0.01 0.01 0.03 0.06 0.06 0.02 0.09 0.08 0.04 0.02 0.06 0.17 0.53 0.30 0.03 0.00 0.00 0.00 0.00 0.00 0.01 0.00 0.00 0.00 0.00 0.00 0.00 0.00 0.00 0.00 0.00 0.00 0.00 0.00 0.01 0.00 0.00 0.00 0.00 0.00
0.02 0.02 0.03 0.02 0.02 0.01 0.01 0.01 0.00 0.04 0.08 0.05 0.01 0.11 0.04 0.02 0.02 0.08 0.25 0.55 0.29 0.05 0.01 0.00 0.00 0.00 0.00 0.00 0.00 0.00 0.00 0.00 0.00 0.00 0.00 0.00 0.00 0.00 0.00 0.00 0.00 0.00 0.00 0.00 0.01 0.00 0.00
0.02 0.01 0.03 0.02 0.02 0.01 0.01 0.00 0.00 0.02 0.08 0.02 0.00 0.03 0.13 0.08 0.02 0.18 0.39 0.25 0.15 0.05 0.02 0.00 0.00 0.00 0.00 0.00 0.00 0.00 0.00 0.00 0.00 0.00 0.00 0.00 0.00 0.00 0.00 0.00 0.00 0.00 0.00 0.00 0.00 0.06 0.06
0.01 0.01 0.02 0.02 0.02 0.00 0.01 0.00 0.00 0.00 0.03 0.00 0.01 0.01 0.01 0.01 0.05 0.14 0.16 0.09 0.04 0.02 0.01 0.00 0.00 0.00 0.00 0.00 0.00 0.00 0.00 0.00 0.00 0.00 0.00 0.00 0.00 0.00 0.00 0.00 0.00 0.00 0.00 0.00 0.04 0.19 0.05
0.01 0.01 0.01 0.01 0.02 0.00 0.00 0.00 0.00 0.00 0.00 0.00 0.00 0.01 0.01 0.00 0.03 0.07 0.11 0.06 0.01 0.00 0.00 0.00 0.00 0.00 0.00 0.00 0.00 0.00 0.00 0.00 0.00 0.00 0.00 0.00 0.00 0.00 0.00 0.00 0.00 0.00 0.00 0.00 0.06 0.07 0.16
0.01 0.01 0.01 0.01 0.01 0.00 0.00 0.00 0.00 0.00 0.00 0.00 0.00 0.01 0.00 0.00 0.00 0.00 0.01 0.02 0.00 0.00 0.00 0.00 0.00 0.00 0.00 0.00 0.00 0.00 0.00 0.00 0.00 0.00 0.00 0.00 0.00 0.00 0.00 0.00 0.00 0.00 0.00 0.01 0.01 0.01 0.02
0.01 0.01 0.01 0.01 0.01 0.01 0.01 0.00 0.00 0.00 0.00 0.00 0.00 0.00 0.01 0.00 0.00 0.00 0.00 0.00 0.00 0.00 0.00 0.00 0.00 0.00 0.01 0.00 0.00 0.00 0.00 0.00 0.00 0.00 0.00 0.00 0.00 0.01 0.01 0.00 0.00 0.00 0.00 0.00 0.00 0.00 0.00
0.01 0.01 0.01 0.01 0.01 0.01 0.01 0.00 0.00 0.00 0.01 0.01 0.01 0.02 0.01 0.00 0.00 0.00 0.00 0.00 0.00 0.00 0.00 0.00 0.00 0.00 0.01 0.00 0.00 0.00 0.00 0.00 0.00 0.00 0.00 0.00 0.01 0.05 0.01 0.00 0.00 0.00 0.00 0.00 0.00 0.00 0.00
0.01 0.02 0.01 0.01 0.02 0.02 0.02 0.00 0.00 0.00 0.00 0.00 0.00 0.00 0.01 0.00 0.00 0.00 0.00 0.00 0.00 0.00 0.00 0.00 0.00 0.00 0.00 0.00 0.00 0.01 0.02 0.01 0.00 0.00 0.00 0.00 0.02 0.07 0.04 0.02 0.00 0.00 0.00 0.00 0.00 0.00 0.00
0.02 0.02 0.02 0.02 0.02 0.03 0.03 0.02 0.01 0.00 0.00 0.00 0.01 0.00 0.00 0.01 0.00 0.00 0.00 0.00 0.00 0.00 0.00 0.00 0.00 0.00 0.00 0.01 0.01 0.01 0.00 0.01 0.01 0.00 0.00 0.01 0.02 0.11 0.09 0.06 0.00 0.01 0.00 0.00 0.00 0.02 0.00
0.02 0.02 0.02 0.02 0.02 0.03 0.03 0.04 0.03 0.01 0.00 0.00 0.01 0.00 0.00 0.01 0.00 0.00 0.00 0.00 0.00 0.00 0.00 0.00 0.00 0.00 0.00 0.01 0.02 0.00 0.00 0.00 0.00 0.01 0.02 0.04 0.07 0.10 0.10 0.09 0.00 0.00 0.00 0.01 0.07 0.04 0.00
0.04 0.03 0.02 0.02 0.02 0.03 0.05 0.04 0.05 0.03 0.01 0.00 0.00 0.01 0.00 0.00 0.00 0.00 0.00 0.00 0.00 0.00 0.01 0.00 0.00 0.00 0.01 0.02 0.01 0.00 0.00 0.00 0.00 0.00 0.00 0.02 0.02 0.05 0.05 0.05 0.00 0.00 0.00 0.02 0.02 0.00 0.01
0.05 0.03 0.02 0.02 0.03 0.04 0.04 0.08 0.08 0.04 0.05 0.00 0.00 0.00 0.01 0.02 0.00 0.00 0.00 0.00 0.00 0.00 0.00 0.00 0.01 0.00 0.00 0.01 0.01 0.01 0.01 0.00 0.00 0.00 0.00 0.00 0.00 0.00 0.00 0.00 0.00 0.00 0.00 0.00 0.00 0.00 0.00

GFSGBSN_prec_precacc24_048.txt.gz
Total_Precipitation_Accumulation
0.02 0.04 0.03 0.05 0.05 0.03 0.09 0.14 0.09 0.08 0.10 0.15 0.20 0.22 0.21 0.16 0.15 0.14 0.06 0.07 0.08 0.09 0.13 0.21 0.31 0.38 0.57 0.36 0.08 0.15 0.13 0.14 0.24 0.16 0.04 0.03 0.01 0.01 0.00 0.00 0.00 0.00 0.00 0.00 0.00 0.00 0.00
0.04 0.04 0.04 0.05 0.05 0.06 0.14 0.13 0.10 0.09 0.12 0.20 0.23 0.23 0.21 0.18 0.26 0.18 0.05 0.06 0.08 0.08 0.15 0.27 0.40 0.59 0.45 0.25 0.03 0.08 0.15 0.26 0.24 0.20 0.05 0.04 0.00 0.00 0.00 0.00 0.00 0.00 0.00 0.00 0.00 0.00 0.00
0.04 0.04 0.04 0.04 0.04 0.09 0.14 0.12 0.11 0.10 0.18 0.21 0.28 0.22 0.15 0.24 0.29 0.17 0.07 0.07 0.07 0.08 0.13 0.31 0.46 0.57 0.33 0.09 0.04 0.13 0.13 0.36 0.31 0.17 0.05 0.04 0.00 0.01 0.01 0.00 0.00 0.00 0.00 0.00 0.00 0.00 0.00
0.03 0.04 0.04 0.04 0.06 0.10 0.12 0.11 0.10 0.12 0.20 0.22 0.30 0.21 0.18 0.30 0.17 0.11 0.03 0.08 0.06 0.05 0.16 0.34 0.53 0.64 0.25 0.03 0.03 0.11 0.13 0.34 0.38 0.42 0.16 0.16 0.03 0.02 0.01 0.00 0.00 0.00 0.00 0.00 0.00 0.00 0.00
0.03 0.03 0.03 0.03 0.07 0.13 0.13 0.12 0.11 0.14 0.20 0.27 0.29 0.23 0.21 0.13 0.07 0.11 0.06 0.09 0.03 0.06 0.19 0.40 0.57 0.47 0.20 0.12 0.03 0.03 0.08 0.35 0.39 0.66 0.81 0.54 0.30 0.10 0.01 0.01 0.01 0.00 0.00 0.00 0.00 0.00 0.00
0.03 0.02 0.02 0.05 0.08 0.13 0.13 0.11 0.12 0.14 0.20 0.25 0.26 0.21 0.14 0.06 0.11 0.21 0.16 0.02 0.00 0.01 0.28 0.74 0.69 0.58 0.12 0.05 0.07 0.04 0.07 0.52 0.56 0.68 0.99 0.84 0.63 0.28 0.05 0.01 0.01 0.00 0.00 0.00 0.00 0.00 0.00
0.02 0.02 0.03 0.06 0.09 0.11 0.11 0.11 0.12 0.14 0.19 0.22 0.20 0.12 0.13 0.16 0.21 0.33 0.14 0.01 0.10 0.15 0.36 0.65 0.48 0.30 0.17 0.20 0.18 0.15 0.14 0.78 0.94 0.78 0.72 0.54 0.49 0.24 0.07 0.00 0.00 0.00 0.00 0.00 0.00 0.00 0.00
0.02 0.02 0.04 0.06 0.10 0.09 0.09 0.10 0.10 0.14 0.20 0.17 0.12 0.10 0.17 0.26 0.32 0.43 0.07 0.03 0.03 0.26 0.32 0.34 0.28 0.16 0.05 0.12 0.30 0.31 0.28 1.15 1.10 0.65 0.70 0.38 0.32 0.11 0.09 0.02 0.00 0.00 0.00 0.00 0.00 0.00 0.00
0.02 0.01 0.04 0.06 0.09 0.07 0.08 0.07 0.09 0.14 0.16 0.10 0.09 0.12 0.18 0.26 0.37 0.32 0.04 0.00 0.02 0.14 0.35 0.40 0.58 0.31 0.17 0.29 0.32 0.31 0.42 1.34 0.84 0.62 0.48 0.31 0.16 0.09 0.14 0.08 0.02 0.00 0.00 0.00 0.00 0.00 0.00
0.01 0.01 0.04 0.06 0.07 0.06 0.07 0.06 0.08 0.13 0.10 0.07 0.09 0.13 0.21 0.39 0.51 0.29 0.02 0.02 0.04 0.25 0.51 0.75 0.94 0.72 0.24 0.30 0.42 0.19 0.55 1.06 0.84 0.66 0.60 0.50 0.17 0.18 0.14 0.13 0.02 0.01 0.00 0.00 0.00 0.00 0.00
0.01 0.01 0.03 0.06 0.05 0.05 0.05 0.05 0.09 0.11 0.08 0.06 0.08 0.13 0.21 0.36 0.33 0.11 0.04 0.03 0.11 0.40 0.85 1.11 1.16 0.57 0.28 0.24 0.26 0.20 0.63 0.64 0.45 0.40 0.59 0.46 0.25 0.25 0.21 0.12 0.05 0.02 0.00 0.00 0.00 0.00 0.00
0.00 0.02 0.04 0.05 0.05 0.04 0.04 0.04 0.07 0.08 0.06 0.05 0.06 0.11 0.18 0.16 0.10 0.03 0.05 0.17 0.20 0.46 1.03 1.17 0.89 0.56 0.16 0.14 0.11 0.25 0.62 0.45 0.38 0.38 0.37 0.26 0.26 0.37 0.28 0.19 0.07 0.01 0.00 0.00 0.00 0.00 0.00
0.00 0.02 0.03 0.05 0.03 0.03 0.02 0.04 0.06 0.06 0.07 0.04 0.05 0.09 0.15 0.14 0.05 0.01 0.04 0.13 0.19 0.42 0.73 0.71 0.59 0.12 0.06 0.11 0.13 0.35 0.53 0.40 0.32 0.54 0.61 0.52 0.36 0.32 0.20 0.26 0.16 0.03 0.00 0.01 0.01 0.01 0.00
0.00 0.01 0.03 0.04 0.03 0.03 0.02 0.03 0.04 0.04 0.04 0.03 0.03 0.05 0.05 0.07 0.02 0.01 0.01 0.03 0.28 0.57 0.58 0.40 0.10 0.04 0.04 0.06 0.13 0.26 0.27 0.21 0.13 0.12 0.26 0.48 0.42 0.38 0.26 0.12 0.12 0.01 0.01 0.01 0.00 0.00 0.00
0.00 0.01 0.03 0.03 0.02 0.02 0.01 0.03 0.02 0.04 0.03 0.02 0.03 0.03 0.05 0.04 0.04 0.01 0.05 0.10 0.61 0.61 0.41 0.16 0.06 0.03 0.04 0.03 0.07 0.06 0.14 0.07 0.03 0.07 0.12 0.12 0.10 0.16 0.25 0.07 0.09 0.04 0.01 0.00 0.00 0.00 0.00
0.01 0.01 0.02 0.02 0.02 0.01 0.01 0.02 0.02 0.04 0.04 0.03 0.02 0.02 0.04 0.06 0.01 0.03 0.07 0.28 0.41 0.14 0.01 0.00 0.07 0.03 0.02 0.01 0.02 0.01 0.02 0.00 0.00 0.00 0.00 0.00 0.02 0.06 0.14 0.11 0.11 0.05 0.00 0.00 0.00 0.00 0.00
0.01 0.01 0.02 0.01 0.01 0.01 0.01 0.01 0.01 0.02 0.04 0.03 0.00 0.01 0.01 0.02 0.01 0.04 0.16 0.36 0.25 0.03 0.00 0.00 0.00 0.00 0.00 0.01 0.00 0.00 0.00 0.00 0.00 0.00 0.00 0.00 0.00 0.01 0.05 0.07 0.06 0.06 0.02 0.00 0.00 0.00 0.00
0.01 0.01 0.01 0.01 0.01 0.00 0.01 0.01 0.00 0.02 0.03 0.01 0.00 0.00 0.00 0.00 0.01 0.07 0.16 0.41 0.27 0.04 0.01 0.00 0.00 0.00 0.00 0.00 0.00 0.00 0.00 0.00 0.00 0.00 0.00 0.00 0.00 0.00 0.00 0.00 0.00 0.02 0.02 0.01 0.00 0.00 0.00
0.01 0.01 0.01 0.00 0.01 0.00 0.00 0.00 0.00 0.00 0.02 0.00 0.00 0.01 0.01 0.00 0.01 0.15 0.27 0.22 0.14 0.04 0.01 0.00 0.00 0.00 0.00 0.00 0.00 0.00 0.00 0.00 0.00 0.00 0.00 0.00 0.00 0.00 0.00 0.00 0.00 0.00 0.00 0.01 0.00 0.02 0.01
0.00 0.00 0.01 0.01 0.01 0.00 0.00 0.00 0.00 0.00 0.00 0.00 0.00 0.00 0.00 0.00 0.04 0.11 0.07 0.05 0.01 0.00 0.00 0.00 0.00 0.00 0.00 0.00 0.00 0.00 0.00 0.00 0.00 0.00 0.00 0.00 0.00 0.00 0.00 0.00 0.00 0.00 0.00 0.00 0.01 0.08 0.02
0.00 0.00 0.00 0.00 0.01 0.00 0.00 0.00 0.00 0.00 0.00 0.00 0.00 0.00 0.00 0.00 0.02 0.04 0.06 0.04 0.01 0.00 0.00 0.00 0.00 0.00 0.00 0.00 0.00 0.00 0.00 0.00 0.00 0.00 0.00 0.00 0.00 0.00 0.00 0.00 0.00 0.00 0.00 0.00 0.01 0.01 0.08
0.00 0.00 0.01 0.00 0.00 0.00 0.01 0.00 0.00 0.00 0.00 0.00 0.00 0.01 0.00 0.00 0.00 0.00 0.00 0.00 0.00 0.00 0.00 0.00 0.00 0.00 0.00 0.00 0.00 0.00 0.00 0.00 0.00 0.00 0.00 0.00 0.00 0.00 0.00 0.00 0.00 0.00 0.00 0.00 0.00 0.00 0.00
0.01 0.01 0.01 0.01 0.01 0.01 0.01 0.00 0.00 0.00 0.00 0.00 0.00 0.00 0.01 0.00 0.00 0.00 0.00 0.00 0.00 0.00 0.00 0.00 0.00 0.00 0.01 0.00 0.00 0.00 0.00 0.00 0.00 0.00 0.00 0.00 0.00 0.00 0.00 0.00 0.00 0.00 0.00 0.00 0.00 0.00 0.00
0.01 0.01 0.01 0.01 0.01 0.01 0.01 0.00 0.00 0.00 0.00 0.00 0.01 0.02 0.01 0.00 0.00 0.00 0.00 0.00 0.00 0.00 0.00 0.00 0.00 0.00 0.00 0.00 0.00 0.00 0.00 0.00 0.00 0.00 0.00 0.00 0.00 0.01 0.00 0.00 0.00 0.00 0.00 0.00 0.00 0.00 0.00
0.01 0.01 0.01 0.01 0.01 0.02 0.02 0.00 0.00 0.00 0.00 0.00 0.00 0.00 0.01 0.00 0.00 0.00 0.00 0.00 0.00 0.00 0.00 0.00 0.00 0.00 0.00 0.00 0.00 0.01 0.01 0.01 0.00 0.00 0.00 0.00 0.01 0.04 0.03 0.01 0.00 0.00 0.00 0.00 0.00 0.00 0.00
0.01 0.02 0.02 0.02 0.02 0.03 0.03 0.02 0.01 0.00 0.00 0.00 0.00 0.00 0.00 0.01 0.00 0.00 0.00 0.00 0.00 0.00 0.00 0.00 0.00 0.00 0.00 0.01 0.01 0.01 0.01 0.00 0.01 0.00 0.00 0.00 0.02 0.10 0.08 0.04 0.00 0.00 0.00 0.00 0.00 0.01 0.00
0.02 0.02 0.02 0.02 0.02 0.03 0.03 0.04 0.03 0.02 0.00 0.00 0.00 0.00 0.00 0.00 0.00 0.00 0.00 0.00 0.00 0.00 0.00 0.00 0.00 0.00 0.00 0.01 0.01 0.00 0.00 0.00 0.00 0.01 0.02 0.04 0.06 0.09 0.08 0.08 0.00 0.00 0.00 0.01 0.07 0.04 0.00
0.03 0.03 0.02 0.01 0.02 0.03 0.05 0.05 0.06 0.03 0.01 0.00 0.00 0.00 0.00 0.00 0.00 0.00 0.00 0.00 0.00 0.00 0.00 0.00 0.00 0.00 0.01 0.02 0.01 0.00 0.00 0.00 0.00 0.00 0.00 0.02 0.02 0.04 0.04 0.05 0.00 0.00 0.00 0.03 0.02 0.00 0.01
0.05 0.03 0.02 0.02 0.02 0.04 0.04 0.08 0.09 0.04 0.05 0.00 0.00 0.00 0.00 0.01 0.00 0.00 0.00 0.00 0.00 0.00 0.00 0.00 0.00 0.00 0.01 0.01 0.01 0.01 0.00 0.00 0.00 0.00 0.00 0.00 0.00 0.00 0.00 0.00 0.00 0.00 0.00 0.00 0.00 0.00 0.00

GFSGBSN_prec_precacc24_051.txt.gz
Total_Precipitation_Accumulation
0.02 0.04 0.03 0.04 0.05 0.03 0.09 0.14 0.09 0.08 0.10 0.16 0.22 0.24 0.25 0.20 0.20 0.23 0.12 0.09 0.09 0.07 0.06 0.19 0.32 0.41 0.63 0.46 0.09 0.15 0.13 0.11 0.25 0.23 0.05 0.04 0.01 0.02 0.00 0.00 0.00 0.00 0.00 0.00 0.01 0.00 0.00
0.03 0.03 0.04 0.04 0.04 0.05 0.12 0.12 0.09 0.07 0.11 0.21 0.24 0.25 0.23 0.21 0.31 0.22 0.07 0.06 0.08 0.05 0.03 0.18 0.39 0.59 0.47 0.29 0.03 0.08 0.17 0.31 0.34 0.27 0.04 0.04 0.00 0.00 0.00 0.00 0.00 0.00 0.00 0.00 0.00 0.00 0.00
0.03 0.03 0.03 0.04 0.03 0.07 0.13 0.11 0.09 0.08 0.16 0.20 0.29 0.22 0.16 0.24 0.33 0.19 0.07 0.06 0.06 0.07 0.04 0.18 0.44 0.57 0.34 0.10 0.06 0.20 0.19 0.45 0.51 0.29 0.03 0.03 0.00 0.01 0.01 0.01 0.00 0.00 0.00 0.00 0.00 0.00 0.00
0.02 0.03 0.03 0.03 0.05 0.10 0.11 0.09 0.08 0.10 0.18 0.21 0.29 0.21 0.19 0.29 0.17 0.11 0.03 0.07 0.06 0.03 0.05 0.15 0.50 0.64 0.25 0.03 0.03 0.11 0.16 0.41 0.60 0.59 0.14 0.11 0.03 0.02 0.02 0.01 0.00 0.00 0.00 0.00 0.00 0.00 0.00
0.02 0.02 0.03 0.03 0.06 0.12 0.11 0.10 0.09 0.13 0.19 0.25 0.26 0.21 0.21 0.12 0.07 0.11 0.05 0.09 0.03 0.04 0.08 0.18 0.48 0.47 0.20 0.12 0.03 0.03 0.09 0.38 0.62 0.85 0.78 0.47 0.28 0.09 0.02 0.01 0.02 0.01 0.00 0.00 0.00 0.00 0.00
0.02 0.02 0.02 0.04 0.07 0.12 0.11 0.09 0.10 0.13 0.19 0.22 0.24 0.18 0.13 0.05 0.09 0.17 0.10 0.01 0.00 0.01 0.05 0.25 0.62 0.60 0.13 0.06 0.07 0.04 0.09 0.54 0.75 0.97 1.05 0.81 0.60 0.26 0.05 0.01 0.01 0.00 0.00 0.00 0.00 0.00 0.00
0.02 0.02 0.02 0.04 0.07 0.09 0.09 0.09 0.10 0.13 0.18 0.19 0.17 0.10 0.12 0.13 0.17 0.32 0.13 0.01 0.10 0.13 0.12 0.36 0.38 0.31 0.18 0.20 0.19 0.16 0.18 0.81 1.07 1.28 0.82 0.50 0.41 0.19 0.07 0.00 0.00 0.00 0.00 0.00 0.00 0.00 0.00
0.01 0.02 0.02 0.04 0.08 0.07 0.07 0.08 0.09 0.13 0.17 0.14 0.11 0.09 0.16 0.21 0.30 0.42 0.06 0.02 0.03 0.10 0.11 0.21 0.23 0.15 0.05 0.13 0.34 0.46 0.40 1.21 1.28 0.97 0.76 0.39 0.31 0.10 0.09 0.02 0.00 0.00 0.00 0.00 0.00 0.00 0.00
0.01 0.01 0.02 0.04 0.08 0.06 0.06 0.06 0.08 0.11 0.15 0.09 0.09 0.10 0.14 0.21 0.35 0.31 0.04 0.00 0.00 0.01 0.17 0.23 0.48 0.30 0.23 0.34 0.45 0.72 0.50 1.39 1.00 0.73 0.50 0.31 0.16 0.09 0.14 0.08 0.02 0.00 0.00 0.00 0.00 0.00 0.00
0.00 0.01 0.02 0.05 0.06 0.05 0.05 0.04 0.06 0.12 0.10 0.06 0.09 0.11 0.15 0.28 0.43 0.24 0.01 0.01 0.00 0.05 0.33 0.55 0.83 0.75 0.38 0.52 0.58 0.38 0.56 1.18 0.95 0.68 0.61 0.51 0.17 0.18 0.15 0.14 0.02 0.01 0.00 0.00 0.00 0.00 0.00
0.00 0.01 0.02 0.05 0.04 0.04 0.04 0.04 0.07 0.11 0.08 0.06 0.07 0.12 0.17 0.28 0.25 0.09 0.01 0.00 0.01 0.14 0.71 0.96 1.08 0.61 0.62 0.68 0.41 0.22 0.64 0.75 0.47 0.40 0.60 0.47 0.26 0.25 0.22 0.13 0.06 0.02 0.00 0.00 0.00 0.00 0.00
0.00 0.01 0.02 0.04 0.03 0.03 0.03 0.03 0.06 0.08 0.06 0.05 0.06 0.11 0.14 0.12 0.06 0.02 0.02 0.04 0.01 0.19 0.82 0.95 0.89 0.58 0.42 0.26 0.12 0.25 0.62 0.47 0.38 0.38 0.37 0.27 0.26 0.37 0.28 0.21 0.09 0.02 0.00 0.00 0.00 0.00 0.00
0.00 0.01 0.01 0.03 0.02 0.03 0.02 0.03 0.05 0.06 0.07 0.04 0.05 0.08 0.10 0.08 0.03 0.00 0.02 0.03 0.06 0.24 0.57 0.67 0.63 0.14 0.07 0.12 0.13 0.35 0.54 0.41 0.33 0.54 0.62 0.52 0.36 0.33 0.29 0.37 0.19 0.03 0.00 0.01 0.01 0.00 0.00
0.00 0.01 0.01 0.02 0.01 0.02 0.01 0.03 0.03 0.04 0.04 0.03 0.02 0.03 0.03 0.03 0.01 0.00 0.00 0.03 0.22 0.45 0.49 0.38 0.10 0.04 0.04 0.06 0.13 0.32 0.33 0.25 0.16 0.12 0.27 0.55 0.45 0.40 0.29 0.27 0.21 0.04 0.01 0.01 0.00 0.00 0.00
0.00 0.01 0.01 0.01 0.01 0.01 0.01 0.02 0.02 0.03 0.02 0.01 0.01 0.00 0.00 0.01 0.01 0.00 0.04 0.08 0.42 0.51 0.40 0.15 0.04 0.02 0.04 0.02 0.06 0.23 0.37 0.10 0.05 0.08 0.13 0.19 0.14 0.20 0.26 0.11 0.16 0.08 0.01 0.00 0.00 0.00 0.00
0.01 0.00 0.00 0.01 0.01 0.01 0.01 0.00 0.01 0.03 0.03 0.00 0.00 0.00 0.00 0.01 0.00 0.03 0.06 0.22 0.21 0.09 0.01 0.00 0.05 0.02 0.02 0.02 0.02 0.02 0.06 0.01 0.00 0.01 0.01 0.01 0.03 0.08 0.16 0.16 0.14 0.06 0.01 0.01 0.00 0.00 0.00
0.01 0.01 0.00 0.00 0.01 0.01 0.00 0.00 0.01 0.01 0.01 0.00 0.00 0.00 0.00 0.00 0.00 0.02 0.12 0.19 0.11 0.02 0.00 0.00 0.00 0.00 0.00 0.00 0.00 0.01 0.00 0.00 0.00 0.00 0.00 0.00 0.01 0.03 0.06 0.15 0.11 0.07 0.03 0.00 0.00 0.00 0.00
0.01 0.00 0.00 0.00 0.00 0.00 0.00 0.00 0.00 0.01 0.00 0.00 0.00 0.00 0.00 0.00 0.01 0.05 0.10 0.14 0.11 0.01 0.00 0.00 0.00 0.00 0.00 0.00 0.00 0.00 0.00 0.00 0.00 0.00 0.00 0.00 0.00 0.00 0.01 0.01 0.00 0.04 0.03 0.01 0.00 0.00 0.00
0.00 0.00 0.00 0.00 0.00 0.00 0.00 0.00 0.00 0.00 0.00 0.00 0.00 0.00 0.00 0.00 0.00 0.06 0.16 0.13 0.07 0.02 0.00 0.00 0.00 0.00 0.00 0.00 0.00 0.00 0.00 0.00 0.00 0.00 0.00 0.00 0.00 0.00 0.00 0.00 0.00 0.01 0.02 0.02 0.00 0.00 0.00
0.00 0.00 0.00 0.01 0.00 0.00 0.00 0.00 0.00 0.00 0.00 0.00 0.00 0.00 0.00 0.00 0.01 0.00 0.00 0.00 0.00 0.00 0.00 0.00 0.00 0.00 0.00 0.00 0.00 0.00 0.00 0.00 0.00 0.00 0.00 0.00 0.00 0.00 0.00 0.00 0.00 0.00 0.00 0.01 0.04 0.02 0.00
0.00 0.00 0.00 0.00 0.00 0.00 0.00 0.00 0.00 0.00 0.00 0.00 0.00 0.00 0.00 0.00 0.00 0.00 0.00 0.00 0.00 0.00 0.00 0.00 0.00 0.00 0.00 0.00 0.00 0.00 0.00 0.00 0.00 0.00 0.00 0.00 0.00 0.00 0.00 0.00 0.00 0.00 0.00 0.00 0.00 0.00 0.02
0.00 0.00 0.01 0.00 0.00 0.00 0.00 0.00 0.00 0.00 0.00 0.00 0.00 0.01 0.00 0.00 0.00 0.00 0.00 0.00 0.00 0.00 0.00 0.00 0.00 0.00 0.00 0.00 0.00 0.00 0.00 0.00 0.00 0.00 0.00 0.00 0.00 0.00 0.00 0.00 0.00 0.00 0.00 0.00 0.00 0.00 0.00
0.00 0.01 0.01 0.01 0.01 0.01 0.01 0.00 0.00 0.00 0.00 0.00 0.00 0.00 0.01 0.00 0.00 0.00 0.00 0.00 0.00 0.00 0.00 0.00 0.00 0.00 0.01 0.00 0.00 0.00 0.00 0.00 0.00 0.00 0.00 0.00 0.00 0.00 0.00 0.00 0.00 0.00 0.00 0.00 0.00 0.00 0.00
0.00 0.01 0.01 0.01 0.01 0.01 0.01 0.00 0.00 0.00 0.00 0.00 0.00 0.01 0.00 0.00 0.00 0.00 0.00 0.00 0.00 0.00 0.00 0.00 0.00 0.00 0.00 0.00 0.00 0.00 0.00 0.00 0.00 0.00 0.00 0.00 0.00 0.00 0.00 0.00 0.00 0.00 0.00 0.00 0.00 0.00 0.00
0.01 0.01 0.01 0.01 0.01 0.02 0.02 0.00 0.01 0.00 0.00 0.00 0.00 0.00 0.01 0.00 0.00 0.00 0.00 0.00 0.00 0.00 0.00 0.00 0.00 0.00 0.00 0.00 0.00 0.01 0.01 0.01 0.00 0.00 0.00 0.00 0.00 0.01 0.01 0.00 0.00 0.00 0.00 0.00 0.00 0.00 0.00
0.01 0.01 0.01 0.02 0.02 0.03 0.03 0.02 0.01 0.00 0.00 0.00 0.00 0.00 0.00 0.00 0.00 0.00 0.00 0.00 0.00 0.00 0.00 0.00 0.00 0.00 0.00 0.01 0.02 0.01 0.01 0.00 0.01 0.00 0.00 0.00 0.00 0.07 0.07 0.03 0.00 0.00 0.00 0.00 0.00 0.01 0.00
0.01 0.01 0.02 0.02 0.02 0.03 0.03 0.04 0.04 0.02 0.00 0.00 0.00 0.00 0.00 0.00 0.00 0.00 0.00 0.00 0.00 0.00 0.00 0.00 0.00 0.00 0.00 0.01 0.01 0.00 0.00 0.00 0.00 0.01 0.02 0.03 0.05 0.08 0.07 0.06 0.00 0.00 0.00 0.01 0.07 0.04 0.00
0.03 0.02 0.02 0.01 0.02 0.03 0.05 0.04 0.07 0.03 0.01 0.00 0.00 0.00 0.00 0.00 0.00 0.00 0.00 0.00 0.00 0.00 0.00 0.00 0.00 0.00 0.02 0.02 0.01 0.01 0.00 0.00 0.00 0.00 0.00 0.02 0.02 0.04 0.04 0.05 0.00 0.00 0.00 0.03 0.02 0.00 0.01
0.04 0.02 0.02 0.01 0.02 0.03 0.04 0.08 0.09 0.04 0.05 0.00 0.00 0.00 0.00 0.01 0.00 0.00 0.00 0.00 0.00 0.00 0.00 0.00 0.00 0.00 0.01 0.01 0.01 0.01 0.00 0.00 0.00 0.00 0.00 0.00 0.00 0.00 0.00 0.00 0.00 0.00 0.00 0.00 0.00 0.00 0.00

GFSGBSN_prec_precacc24_054.txt.gz
Total_Precipitation_Accumulation
0.02 0.03 0.03 0.04 0.04 0.03 0.08 0.13 0.08 0.06 0.07 0.15 0.21 0.21 0.24 0.20 0.21 0.24 0.14 0.12 0.09 0.10 0.08 0.10 0.11 0.40 0.65 0.50 0.12 0.16 0.13 0.11 0.24 0.35 0.14 0.04 0.01 0.02 0.00 0.00 0.00 0.00 0.00 0.00 0.04 0.01 0.01
0.03 0.03 0.03 0.04 0.04 0.05 0.13 0.12 0.08 0.05 0.10 0.19 0.22 0.20 0.21 0.20 0.31 0.21 0.06 0.06 0.08 0.05 0.03 0.14 0.10 0.47 0.47 0.29 0.03 0.09 0.16 0.30 0.30 0.31 0.10 0.05 0.00 0.00 0.00 0.00 0.00 0.00 0.00 0.01 0.01 0.00 0.00
0.02 0.02 0.03 0.04 0.03 0.07 0.13 0.10 0.08 0.07 0.15 0.19 0.25 0.20 0.16 0.22 0.30 0.16 0.06 0.06 0.06 0.07 0.04 0.11 0.13 0.47 0.34 0.10 0.06 0.23 0.21 0.46 0.54 0.34 0.04 0.04 0.00 0.01 0.01 0.01 0.00 0.00 0.01 0.00 0.00 0.00 0.00
0.01 0.02 0.03 0.03 0.04 0.08 0.10 0.08 0.08 0.09 0.17 0.18 0.25 0.19 0.18 0.27 0.16 0.09 0.03 0.07 0.06 0.03 0.05 0.10 0.12 0.48 0.25 0.03 0.03 0.12 0.17 0.46 0.66 0.67 0.21 0.14 0.03 0.02 0.02 0.01 0.00 0.00 0.00 0.00 0.00 0.00 0.00
0.02 0.02 0.03 0.02 0.04 0.10 0.10 0.09 0.09 0.12 0.17 0.21 0.24 0.20 0.20 0.10 0.07 0.09 0.04 0.08 0.03 0.04 0.08 0.10 0.08 0.36 0.19 0.12 0.04 0.04 0.09 0.42 0.81 0.91 0.75 0.46 0.27 0.08 0.02 0.01 0.02 0.01 0.00 0.00 0.00 0.00 0.00
0.02 0.02 0.02 0.02 0.06 0.11 0.10 0.09 0.09 0.12 0.17 0.20 0.22 0.16 0.11 0.03 0.08 0.15 0.08 0.01 0.00 0.01 0.04 0.05 0.16 0.49 0.13 0.06 0.07 0.05 0.10 0.61 1.04 1.10 1.15 0.82 0.54 0.22 0.04 0.01 0.02 0.00 0.00 0.00 0.00 0.00 0.00
0.02 0.01 0.02 0.02 0.06 0.09 0.08 0.07 0.08 0.11 0.16 0.17 0.16 0.09 0.10 0.12 0.17 0.30 0.11 0.01 0.10 0.13 0.07 0.06 0.11 0.26 0.18 0.20 0.19 0.16 0.24 0.95 1.32 1.65 0.99 0.44 0.32 0.11 0.01 0.00 0.00 0.00 0.00 0.00 0.00 0.00 0.00
0.01 0.01 0.01 0.02 0.07 0.07 0.06 0.07 0.07 0.11 0.16 0.14 0.10 0.09 0.13 0.19 0.28 0.41 0.04 0.02 0.02 0.09 0.03 0.02 0.10 0.14 0.05 0.13 0.34 0.47 0.52 1.42 1.64 1.58 0.82 0.37 0.24 0.06 0.05 0.02 0.00 0.00 0.00 0.00 0.00 0.00 0.00
0.01 0.00 0.01 0.02 0.06 0.05 0.05 0.05 0.06 0.10 0.13 0.09 0.09 0.10 0.10 0.16 0.28 0.27 0.03 0.00 0.00 0.00 0.04 0.08 0.30 0.26 0.27 0.37 0.46 0.78 0.73 1.54 1.29 1.03 0.54 0.31 0.13 0.08 0.14 0.08 0.02 0.00 0.00 0.00 0.00 0.00 0.00
0.00 0.01 0.01 0.02 0.04 0.04 0.04 0.04 0.05 0.10 0.09 0.06 0.09 0.10 0.11 0.21 0.37 0.22 0.01 0.00 0.00 0.01 0.18 0.39 0.58 0.68 0.41 0.60 0.73 0.67 0.75 1.29 1.24 0.88 0.65 0.51 0.17 0.18 0.15 0.14 0.02 0.01 0.00 0.00 0.00 0.00 0.00
0.00 0.01 0.01 0.02 0.03 0.03 0.03 0.03 0.06 0.09 0.07 0.06 0.07 0.12 0.15 0.20 0.17 0.05 0.01 0.00 0.00 0.08 0.59 0.84 0.89 0.60 0.65 0.72 0.49 0.29 0.65 0.79 0.58 0.52 0.63 0.47 0.26 0.25 0.22 0.13 0.06 0.02 0.00 0.00 0.00 0.00 0.00
0.00 0.01 0.00 0.02 0.02 0.02 0.02 0.02 0.05 0.07 0.06 0.05 0.05 0.09 0.08 0.05 0.02 0.01 0.00 0.01 0.01 0.13 0.68 0.71 0.79 0.86 0.67 0.33 0.16 0.26 0.67 0.52 0.42 0.38 0.37 0.27 0.26 0.37 0.29 0.21 0.09 0.02 0.00 0.00 0.00 0.00 0.00
0.00 0.01 0.00 0.01 0.01 0.01 0.01 0.02 0.03 0.06 0.06 0.03 0.04 0.05 0.04 0.01 0.01 0.00 0.00 0.00 0.04 0.17 0.40 0.51 0.60 0.22 0.12 0.13 0.13 0.34 0.56 0.41 0.34 0.54 0.59 0.52 0.36 0.33 0.29 0.37 0.19 0.04 0.01 0.02 0.02 0.01 0.00
0.00 0.00 0.00 0.00 0.01 0.01 0.01 0.02 0.02 0.03 0.03 0.02 0.01 0.00 0.00 0.00 0.00 0.00 0.00 0.03 0.16 0.30 0.37 0.34 0.10 0.03 0.04 0.05 0.13 0.31 0.34 0.25 0.16 0.12 0.26 0.55 0.46 0.40 0.29 0.27 0.21 0.05 0.01 0.02 0.01 0.00 0.00
0.00 0.00 0.00 0.00 0.01 0.00 0.00 0.01 0.01 0.02 0.01 0.00 0.00 0.00 0.00 0.00 0.00 0.00 0.01 0.05 0.25 0.36 0.34 0.13 0.02 0.02 0.03 0.02 0.06 0.25 0.37 0.11 0.06 0.08 0.13 0.19 0.14 0.20 0.26 0.11 0.22 0.11 0.02 0.00 0.00 0.00 0.00
0.00 0.00 0.00 0.00 0.00 0.00 0.00 0.00 0.01 0.01 0.00 0.00 0.00 0.00 0.00 0.00 0.00 0.00 0.01 0.09 0.07 0.04 0.01 0.00 0.02 0.01 0.02 0.01 0.01 0.02 0.09 0.01 0.00 0.01 0.01 0.01 0.04 0.10 0.17 0.16 0.18 0.16 0.02 0.01 0.00 0.00 0.00
0.00 0.00 0.00 0.00 0.00 0.00 0.00 0.00 0.00 0.00 0.00 0.00 0.00 0.00 0.00 0.00 0.00 0.00 0.02 0.04 0.03 0.00 0.00 0.00 0.00 0.00 0.00 0.00 0.00 0.00 0.00 0.00 0.00 0.00 0.00 0.00 0.01 0.04 0.09 0.16 0.12 0.10 0.10 0.00 0.00 0.00 0.00
0.00 0.00 0.00 0.00 0.00 0.00 0.00 0.00 0.00 0.00 0.00 0.00 0.00 0.00 0.00 0.00 0.00 0.02 0.02 0.01 0.00 0.00 0.00 0.00 0.00 0.00 0.00 0.00 0.00 0.00 0.00 0.00 0.00 0.00 0.00 0.00 0.00 0.01 0.01 0.01 0.00 0.04 0.04 0.02 0.01 0.00 0.00
0.00 0.00 0.00 0.00 0.00 0.00 0.00 0.00 0.00 0.00 0.00 0.00 0.00 0.00 0.00 0.00 0.00 0.01 0.02 0.00 0.00 0.00 0.00 0.00 0.00 0.00 0.00 0.00 0.00 0.00 0.00 0.00 0.00 0.00 0.00 0.00 0.00 0.00 0.01 0.00 0.00 0.02 0.02 0.02 0.01 0.00 0.00
0.00 0.00 0.00 0.00 0.00 0.00 0.00 0.00 0.00 0.00 0.00 0.00 0.00 0.00 0.00 0.00 0.00 0.00 0.00 0.00 0.00 0.00 0.00 0.00 0.00 0.00 0.00 0.00 0.00 0.00 0.00 0.00 0.00 0.00 0.00 0.00 0.00 0.00 0.00 0.00 0.00 0.00 0.00 0.01 0.05 0.02 0.00
0.00 0.00 0.00 0.00 0.00 0.00 0.00 0.00 0.00 0.00 0.00 0.00 0.00 0.00 0.00 0.00 0.00 0.00 0.00 0.00 0.00 0.00 0.00 0.00 0.00 0.00 0.00 0.00 0.00 0.00 0.00 0.00 0.00 0.00 0.00 0.00 0.00 0.00 0.00 0.00 0.00 0.00 0.00 0.00 0.01 0.00 0.00
0.00 0.00 0.01 0.00 0.00 0.00 0.00 0.00 0.00 0.00 0.00 0.00 0.00 0.01 0.00 0.00 0.00 0.00 0.00 0.00 0.00 0.00 0.00 0.00 0.00 0.00 0.00 0.00 0.00 0.00 0.00 0.00 0.00 0.00 0.00 0.00 0.00 0.00 0.00 0.00 0.00 0.00 0.00 0.00 0.00 0.00 0.00
0.00 0.00 0.01 0.01 0.00 0.01 0.01 0.00 0.00 0.00 0.00 0.00 0.00 0.00 0.01 0.00 0.00 0.00 0.00 0.00 0.00 0.00 0.00 0.00 0.00 0.00 0.01 0.00 0.00 0.00 0.00 0.00 0.00 0.00 0.00 0.00 0.00 0.00 0.00 0.00 0.00 0.00 0.00 0.00 0.00 0.00 0.00
0.00 0.00 0.01 0.01 0.01 0.01 0.01 0.00 0.00 0.00 0.00 0.00 0.00 0.01 0.00 0.00 0.00 0.00 0.00 0.00 0.00 0.00 0.00 0.00 0.00 0.00 0.00 0.00 0.00 0.00 0.00 0.00 0.00 0.00 0.00 0.00 0.00 0.00 0.00 0.00 0.00 0.00 0.00 0.00 0.00 0.00 0.00
0.00 0.00 0.01 0.01 0.01 0.02 0.02 0.01 0.01 0.00 0.00 0.00 0.00 0.00 0.01 0.00 0.00 0.00 0.00 0.00 0.00 0.00 0.00 0.00 0.00 0.00 0.00 0.00 0.00 0.01 0.01 0.01 0.00 0.00 0.00 0.00 0.00 0.01 0.01 0.00 0.00 0.00 0.00 0.00 0.00 0.00 0.00
0.00 0.01 0.01 0.02 0.02 0.03 0.03 0.02 0.01 0.00 0.00 0.00 0.00 0.00 0.00 0.00 0.00 0.00 0.00 0.00 0.00 0.00 0.00 0.00 0.00 0.00 0.00 0.01 0.02 0.01 0.01 0.00 0.01 0.00 0.00 0.00 0.00 0.03 0.05 0.02 0.00 0.00 0.00 0.00 0.00 0.01 0.00
0.01 0.01 0.01 0.02 0.02 0.02 0.03 0.04 0.04 0.02 0.00 0.00 0.00 0.00 0.00 0.00 0.00 0.00 0.00 0.00 0.00 0.00 0.00 0.00 0.00 0.00 0.00 0.01 0.01 0.01 0.00 0.00 0.00 0.00 0.01 0.03 0.05 0.06 0.05 0.05 0.00 0.00 0.00 0.01 0.07 0.04 0.00
0.03 0.02 0.01 0.01 0.01 0.02 0.04 0.05 0.07 0.03 0.02 0.00 0.00 0.00 0.00 0.00 0.00 0.00 0.00 0.00 0.00 0.00 0.00 0.00 0.01 0.00 0.02 0.02 0.01 0.01 0.00 0.00 0.00 0.00 0.00 0.01 0.02 0.04 0.03 0.04 0.00 0.00 0.00 0.03 0.02 0.00 0.01
0.04 0.02 0.01 0.01 0.02 0.03 0.04 0.08 0.09 0.04 0.05 0.00 0.00 0.00 0.00 0.00 0.00 0.00 0.00 0.00 0.00 0.00 0.00 0.00 0.01 0.00 0.01 0.02 0.01 0.01 0.00 0.00 0.00 0.00 0.00 0.00 0.00 0.00 0.00 0.00 0.00 0.00 0.00 0.00 0.00 0.00 0.00

GFSGBSN_prec_precacc24_057.txt.gz
Total_Precipitation_Accumulation
0.01 0.02 0.02 0.03 0.04 0.03 0.08 0.12 0.07 0.05 0.07 0.15 0.19 0.17 0.20 0.18 0.19 0.21 0.12 0.11 0.09 0.10 0.08 0.10 0.09 0.11 0.46 0.51 0.14 0.17 0.12 0.11 0.23 0.40 0.24 0.04 0.01 0.03 0.01 0.00 0.01 0.00 0.00 0.02 0.06 0.04 0.01
0.02 0.02 0.03 0.04 0.04 0.03 0.11 0.11 0.07 0.05 0.11 0.19 0.20 0.18 0.20 0.18 0.26 0.19 0.05 0.05 0.07 0.05 0.03 0.14 0.08 0.07 0.24 0.28 0.03 0.10 0.13 0.28 0.29 0.42 0.25 0.06 0.00 0.01 0.01 0.00 0.02 0.00 0.02 0.05 0.06 0.03 0.01
0.01 0.02 0.03 0.04 0.02 0.05 0.12 0.09 0.07 0.07 0.14 0.18 0.23 0.18 0.14 0.21 0.27 0.13 0.05 0.06 0.06 0.07 0.04 0.11 0.12 0.08 0.19 0.09 0.06 0.26 0.20 0.38 0.49 0.42 0.23 0.06 0.00 0.02 0.01 0.01 0.02 0.02 0.03 0.03 0.03 0.01 0.00
0.01 0.02 0.03 0.03 0.02 0.07 0.09 0.08 0.07 0.09 0.16 0.17 0.24 0.17 0.16 0.25 0.14 0.06 0.02 0.07 0.06 0.03 0.05 0.10 0.10 0.18 0.12 0.02 0.04 0.21 0.18 0.42 0.62 0.71 0.42 0.20 0.02 0.04 0.02 0.01 0.01 0.01 0.02 0.01 0.00 0.00 0.00
0.02 0.02 0.02 0.02 0.02 0.09 0.09 0.08 0.07 0.11 0.16 0.20 0.22 0.18 0.18 0.08 0.05 0.07 0.04 0.08 0.03 0.04 0.08 0.10 0.05 0.16 0.11 0.11 0.10 0.15 0.10 0.45 0.83 0.94 0.84 0.58 0.26 0.08 0.02 0.01 0.02 0.01 0.00 0.00 0.00 0.00 0.00
0.02 0.01 0.02 0.01 0.03 0.09 0.08 0.07 0.08 0.10 0.16 0.18 0.21 0.16 0.10 0.01 0.06 0.12 0.07 0.01 0.00 0.01 0.04 0.05 0.09 0.20 0.09 0.08 0.10 0.08 0.10 0.61 1.03 1.12 1.21 0.88 0.52 0.20 0.04 0.01 0.02 0.00 0.00 0.00 0.00 0.00 0.00
0.01 0.01 0.02 0.01 0.04 0.07 0.06 0.06 0.07 0.09 0.15 0.16 0.16 0.09 0.09 0.09 0.13 0.14 0.07 0.01 0.09 0.12 0.06 0.04 0.04 0.15 0.18 0.20 0.19 0.16 0.24 0.99 1.36 1.71 1.09 0.40 0.28 0.09 0.01 0.00 0.00 0.00 0.00 0.00 0.00 0.00 0.00
0.00 0.00 0.01 0.01 0.04 0.04 0.04 0.05 0.06 0.10 0.14 0.12 0.10 0.09 0.12 0.16 0.19 0.24 0.04 0.02 0.02 0.08 0.03 0.00 0.02 0.08 0.04 0.13 0.35 0.46 0.56 1.58 1.75 1.80 0.84 0.28 0.16 0.02 0.02 0.00 0.00 0.00 0.00 0.00 0.00 0.00 0.00
0.00 0.00 0.01 0.01 0.04 0.03 0.03 0.03 0.05 0.09 0.10 0.09 0.09 0.10 0.08 0.11 0.21 0.23 0.03 0.00 0.00 0.00 0.04 0.04 0.12 0.15 0.27 0.38 0.47 0.80 0.92 1.83 1.43 1.32 0.58 0.24 0.09 0.05 0.05 0.03 0.01 0.00 0.00 0.00 0.00 0.00 0.00
0.00 0.00 0.01 0.01 0.02 0.03 0.02 0.03 0.04 0.08 0.07 0.06 0.09 0.10 0.11 0.15 0.29 0.20 0.01 0.00 0.00 0.01 0.15 0.26 0.35 0.58 0.42 0.61 0.77 0.77 0.99 1.45 1.43 1.12 0.69 0.48 0.16 0.13 0.12 0.08 0.02 0.01 0.00 0.00 0.00 0.00 0.00
0.00 0.01 0.00 0.01 0.01 0.01 0.02 0.02 0.05 0.06 0.07 0.04 0.06 0.10 0.08 0.04 0.05 0.02 0.00 0.00 0.00 0.07 0.50 0.73 0.71 0.48 0.65 0.74 0.54 0.62 0.92 0.95 0.75 0.79 0.69 0.48 0.26 0.22 0.19 0.12 0.06 0.02 0.00 0.00 0.00 0.00 0.00
0.00 0.01 0.00 0.00 0.01 0.01 0.01 0.02 0.03 0.05 0.04 0.01 0.03 0.03 0.01 0.00 0.00 0.00 0.00 0.00 0.01 0.09 0.53 0.49 0.66 0.81 0.65 0.35 0.18 0.42 0.86 0.68 0.53 0.41 0.37 0.27 0.26 0.37 0.28 0.21 0.09 0.02 0.00 0.00 0.00 0.00 0.00
0.00 0.00 0.00 0.00 0.01 0.01 0.00 0.01 0.02 0.04 0.03 0.01 0.00 0.00 0.00 0.00 0.00 0.00 0.00 0.00 0.02 0.09 0.25 0.35 0.52 0.26 0.14 0.15 0.13 0.38 0.63 0.52 0.44 0.57 0.59 0.51 0.36 0.33 0.29 0.37 0.19 0.04 0.01 0.03 0.02 0.01 0.00
0.00 0.00 0.00 0.00 0.00 0.00 0.01 0.01 0.01 0.01 0.02 0.01 0.00 0.00 0.00 0.00 0.00 0.00 0.00 0.01 0.10 0.19 0.23 0.22 0.08 0.04 0.04 0.05 0.12 0.31 0.34 0.26 0.17 0.12 0.26 0.54 0.46 0.40 0.29 0.27 0.22 0.05 0.01 0.02 0.01 0.00 0.00
0.00 0.00 0.00 0.00 0.00 0.00 0.00 0.00 0.01 0.01 0.00 0.00 0.00 0.00 0.00 0.00 0.00 0.00 0.00 0.02 0.15 0.18 0.19 0.10 0.01 0.02 0.03 0.02 0.05 0.24 0.37 0.11 0.06 0.08 0.13 0.19 0.14 0.20 0.26 0.11 0.22 0.12 0.02 0.00 0.00 0.00 0.00
0.00 0.00 0.00 0.00 0.00 0.00 0.00 0.00 0.01 0.01 0.00 0.00 0.00 0.00 0.00 0.00 0.00 0.00 0.00 0.03 0.02 0.02 0.00 0.00 0.01 0.01 0.01 0.01 0.01 0.02 0.09 0.01 0.00 0.01 0.01 0.01 0.04 0.10 0.17 0.16 0.18 0.16 0.02 0.02 0.00 0.00 0.00
0.00 0.00 0.00 0.00 0.00 0.00 0.00 0.00 0.00 0.00 0.00 0.00 0.00 0.00 0.00 0.00 0.00 0.00 0.00 0.01 0.00 0.00 0.00 0.00 0.00 0.00 0.00 0.00 0.00 0.00 0.00 0.00 0.00 0.00 0.00 0.00 0.01 0.05 0.11 0.17 0.12 0.11 0.12 0.01 0.00 0.00 0.00
0.00 0.00 0.00 0.00 0.00 0.00 0.00 0.00 0.00 0.00 0.00 0.00 0.00 0.00 0.00 0.00 0.00 0.00 0.00 0.00 0.00 0.00 0.00 0.00 0.00 0.00 0.00 0.00 0.00 0.00 0.00 0.00 0.00 0.00 0.00 0.00 0.00 0.01 0.02 0.01 0.01 0.05 0.04 0.02 0.01 0.00 0.00
0.00 0.00 0.00 0.00 0.00 0.00 0.00 0.00 0.00 0.00 0.00 0.00 0.00 0.00 0.00 0.00 0.00 0.00 0.00 0.00 0.00 0.00 0.00 0.00 0.00 0.00 0.00 0.00 0.00 0.00 0.00 0.00 0.00 0.00 0.00 0.00 0.00 0.02 0.03 0.02 0.01 0.04 0.03 0.02 0.01 0.01 0.00
0.00 0.00 0.00 0.00 0.00 0.00 0.00 0.00 0.00 0.00 0.00 0.00 0.00 0.00 0.00 0.00 0.00 0.00 0.00 0.00 0.00 0.00 0.00 0.00 0.00 0.00 0.00 0.00 0.00 0.00 0.00 0.00 0.00 0.00 0.00 0.00 0.00 0.00 0.00 0.00 0.00 0.00 0.00 0.01 0.05 0.03 0.00
0.00 0.00 0.00 0.00 0.00 0.00 0.00 0.00 0.00 0.00 0.00 0.00 0.00 0.00 0.00 0.00 0.00 0.00 0.00 0.00 0.00 0.00 0.00 0.00 0.00 0.00 0.00 0.00 0.00 0.00 0.00 0.00 0.00 0.00 0.00 0.00 0.00 0.00 0.00 0.00 0.00 0.00 0.00 0.00 0.01 0.00 0.00
0.00 0.00 0.01 0.00 0.00 0.00 0.00 0.00 0.00 0.00 0.00 0.00 0.00 0.01 0.00 0.00 0.00 0.00 0.00 0.00 0.00 0.00 0.00 0.00 0.00 0.00 0.00 0.00 0.00 0.00 0.00 0.00 0.00 0.00 0.00 0.00 0.00 0.00 0.00 0.00 0.00 0.00 0.00 0.00 0.00 0.00 0.00
0.00 0.00 0.01 0.01 0.00 0.01 0.01 0.00 0.00 0.00 0.00 0.00 0.00 0.00 0.01 0.00 0.00 0.00 0.00 0.00 0.00 0.00 0.00 0.00 0.00 0.00 0.01 0.00 0.00 0.00 0.00 0.00 0.00 0.00 0.00 0.00 0.00 0.00 0.00 0.00 0.00 0.00 0.00 0.00 0.00 0.00 0.00
0.00 0.00 0.01 0.01 0.01 0.01 0.01 0.00 0.00 0.00 0.00 0.00 0.00 0.01 0.00 0.00 0.00 0.00 0.00 0.00 0.00 0.00 0.00 0.00 0.00 0.00 0.00 0.00 0.00 0.00 0.00 0.00 0.00 0.00 0.00 0.00 0.00 0.00 0.00 0.00 0.00 0.00 0.00 0.00 0.00 0.00 0.00
0.00 0.00 0.00 0.01 0.01 0.02 0.02 0.01 0.01 0.00 0.00 0.00 0.00 0.00 0.00 0.00 0.00 0.00 0.00 0.00 0.00 0.00 0.00 0.00 0.00 0.00 0.00 0.00 0.00 0.00 0.01 0.00 0.00 0.00 0.00 0.00 0.00 0.01 0.00 0.00 0.00 0.00 0.00 0.00 0.00 0.00 0.00
0.00 0.01 0.00 0.01 0.02 0.03 0.02 0.02 0.01 0.00 0.00 0.00 0.00 0.00 0.00 0.00 0.00 0.00 0.00 0.00 0.00 0.00 0.00 0.00 0.00 0.00 0.00 0.01 0.02 0.01 0.01 0.00 0.00 0.00 0.00 0.00 0.00 0.01 0.03 0.01 0.00 0.00 0.00 0.00 0.00 0.01 0.00
0.00 0.01 0.00 0.01 0.02 0.02 0.03 0.04 0.04 0.02 0.00 0.00 0.00 0.00 0.00 0.00 0.00 0.00 0.00 0.00 0.00 0.00 0.00 0.00 0.01 0.00 0.00 0.01 0.01 0.01 0.00 0.00 0.00 0.00 0.01 0.02 0.04 0.04 0.03 0.04 0.00 0.00 0.00 0.01 0.07 0.04 0.00
0.02 0.01 0.01 0.00 0.01 0.02 0.04 0.04 0.07 0.03 0.02 0.00 0.00 0.00 0.00 0.00 0.00 0.00 0.00 0.00 0.00 0.00 0.00 0.01 0.04 0.02 0.02 0.02 0.01 0.01 0.00 0.00 0.00 0.00 0.00 0.01 0.02 0.04 0.03 0.04 0.00 0.00 0.00 0.03 0.02 0.00 0.01
0.04 0.01 0.00 0.00 0.00 0.03 0.04 0.08 0.09 0.04 0.05 0.00 0.00 0.00 0.00 0.00 0.00 0.00 0.00 0.00 0.00 0.00 0.00 0.00 0.06 0.04 0.01 0.02 0.02 0.01 0.00 0.00 0.00 0.00 0.00 0.00 0.00 0.00 0.00 0.00 0.00 0.00 0.00 0.00 0.00 0.00 0.00

GFSGBSN_prec_precacc24_060.txt.gz
Total_Precipitation_Accumulation
0.01 0.01 0.02 0.03 0.04 0.02 0.06 0.11 0.06 0.04 0.07 0.16 0.18 0.17 0.19 0.16 0.14 0.18 0.10 0.08 0.07 0.09 0.07 0.10 0.09 0.11 0.16 0.25 0.12 0.17 0.12 0.15 0.24 0.39 0.26 0.05 0.01 0.03 0.01 0.00 0.01 0.01 0.01 0.03 0.07 0.04 0.01
0.01 0.02 0.02 0.03 0.03 0.02 0.09 0.10 0.06 0.04 0.10 0.18 0.20 0.17 0.19 0.18 0.21 0.16 0.05 0.02 0.05 0.04 0.03 0.14 0.08 0.07 0.11 0.14 0.02 0.10 0.12 0.26 0.29 0.40 0.26 0.06 0.00 0.01 0.02 0.01 0.03 0.01 0.03 0.06 0.09 0.06 0.01
0.00 0.02 0.02 0.03 0.02 0.03 0.10 0.08 0.06 0.06 0.13 0.18 0.22 0.16 0.13 0.21 0.23 0.07 0.03 0.04 0.04 0.06 0.03 0.11 0.12 0.05 0.09 0.03 0.06 0.27 0.20 0.30 0.46 0.41 0.24 0.06 0.00 0.03 0.02 0.03 0.05 0.04 0.06 0.07 0.06 0.05 0.02
0.01 0.01 0.02 0.02 0.02 0.04 0.07 0.05 0.05 0.08 0.15 0.16 0.23 0.16 0.15 0.24 0.12 0.02 0.01 0.05 0.04 0.02 0.04 0.10 0.16 0.11 0.06 0.01 0.03 0.27 0.22 0.34 0.47 0.61 0.42 0.23 0.03 0.07 0.04 0.02 0.04 0.03 0.05 0.03 0.02 0.06 0.06
0.01 0.01 0.01 0.02 0.01 0.06 0.06 0.05 0.06 0.09 0.15 0.18 0.21 0.18 0.18 0.08 0.03 0.05 0.01 0.06 0.01 0.02 0.07 0.09 0.05 0.10 0.07 0.05 0.07 0.40 0.17 0.40 0.78 0.89 0.92 0.65 0.28 0.11 0.03 0.02 0.03 0.01 0.00 0.00 0.00 0.01 0.04
0.01 0.01 0.01 0.01 0.01 0.06 0.05 0.05 0.06 0.09 0.15 0.17 0.18 0.16 0.11 0.01 0.02 0.06 0.02 0.00 0.00 0.01 0.03 0.04 0.08 0.12 0.04 0.07 0.11 0.26 0.11 0.52 0.96 1.18 1.52 1.07 0.55 0.22 0.04 0.01 0.02 0.00 0.00 0.00 0.00 0.00 0.00
0.00 0.00 0.01 0.01 0.02 0.04 0.04 0.04 0.05 0.08 0.15 0.13 0.15 0.10 0.09 0.09 0.06 0.07 0.02 0.01 0.09 0.11 0.05 0.04 0.03 0.12 0.17 0.19 0.19 0.20 0.23 0.96 1.27 1.80 1.36 0.62 0.27 0.09 0.01 0.00 0.00 0.00 0.00 0.00 0.00 0.00 0.00
0.00 0.00 0.01 0.00 0.02 0.02 0.03 0.04 0.05 0.09 0.12 0.11 0.11 0.09 0.12 0.15 0.12 0.14 0.02 0.02 0.02 0.08 0.03 0.00 0.00 0.04 0.04 0.11 0.31 0.42 0.54 1.55 1.87 2.00 0.77 0.29 0.15 0.01 0.02 0.00 0.00 0.00 0.00 0.00 0.00 0.00 0.00
0.00 0.00 0.01 0.00 0.01 0.02 0.03 0.03 0.04 0.07 0.07 0.08 0.09 0.09 0.08 0.10 0.14 0.19 0.03 0.00 0.00 0.00 0.04 0.02 0.08 0.10 0.26 0.34 0.46 0.78 0.90 1.85 1.52 1.45 0.58 0.15 0.05 0.03 0.04 0.02 0.00 0.00 0.00 0.00 0.00 0.00 0.00
0.00 0.00 0.00 0.00 0.00 0.02 0.02 0.02 0.03 0.05 0.03 0.03 0.04 0.05 0.07 0.06 0.02 0.06 0.00 0.00 0.00 0.01 0.14 0.19 0.30 0.47 0.38 0.57 0.76 0.76 0.99 1.52 1.49 1.18 0.71 0.31 0.10 0.09 0.08 0.05 0.00 0.00 0.00 0.00 0.00 0.00 0.00
0.00 0.00 0.00 0.00 0.00 0.01 0.01 0.02 0.03 0.03 0.02 0.01 0.02 0.05 0.03 0.00 0.00 0.00 0.00 0.00 0.00 0.06 0.45 0.65 0.56 0.33 0.60 0.75 0.54 0.65 0.99 1.04 0.80 0.97 0.80 0.47 0.20 0.19 0.14 0.08 0.02 0.01 0.00 0.00 0.00 0.00 0.00
0.00 0.00 0.00 0.00 0.00 0.00 0.01 0.01 0.02 0.02 0.01 0.00 0.01 0.02 0.01 0.00 0.00 0.00 0.00 0.00 0.00 0.08 0.44 0.36 0.46 0.68 0.65 0.35 0.20 0.56 1.02 0.84 0.60 0.53 0.37 0.26 0.23 0.34 0.26 0.19 0.07 0.02 0.00 0.00 0.00 0.00 0.00
0.00 0.00 0.00 0.00 0.00 0.00 0.00 0.00 0.01 0.01 0.01 0.01 0.00 0.00 0.00 0.00 0.00 0.00 0.00 0.00 0.01 0.06 0.16 0.24 0.37 0.24 0.13 0.15 0.17 0.63 0.82 0.69 0.59 0.75 0.62 0.52 0.36 0.33 0.29 0.37 0.19 0.04 0.01 0.03 0.02 0.01 0.00
0.00 0.00 0.00 0.00 0.00 0.00 0.00 0.00 0.01 0.00 0.01 0.00 0.00 0.00 0.00 0.00 0.00 0.00 0.00 0.00 0.06 0.15 0.12 0.11 0.05 0.03 0.04 0.04 0.13 0.37 0.47 0.37 0.18 0.13 0.27 0.55 0.47 0.40 0.29 0.27 0.22 0.05 0.01 0.02 0.01 0.00 0.00
0.00 0.00 0.00 0.00 0.00 0.00 0.00 0.00 0.00 0.00 0.00 0.00 0.00 0.00 0.00 0.00 0.00 0.00 0.00 0.01 0.07 0.07 0.07 0.05 0.01 0.02 0.03 0.02 0.04 0.23 0.42 0.14 0.06 0.08 0.13 0.19 0.14 0.20 0.26 0.11 0.22 0.12 0.02 0.00 0.00 0.00 0.00
0.00 0.00 0.00 0.00 0.00 0.00 0.00 0.00 0.00 0.00 0.00 0.00 0.00 0.00 0.00 0.00 0.00 0.00 0.00 0.01 0.01 0.00 0.00 0.00 0.00 0.00 0.01 0.01 0.01 0.02 0.09 0.02 0.00 0.01 0.01 0.01 0.04 0.10 0.17 0.16 0.18 0.16 0.02 0.02 0.00 0.00 0.00
0.00 0.00 0.00 0.00 0.00 0.00 0.00 0.00 0.00 0.00 0.00 0.00 0.00 0.00 0.00 0.00 0.00 0.00 0.00 0.00 0.00 0.00 0.00 0.00 0.00 0.00 0.00 0.00 0.00 0.00 0.00 0.00 0.00 0.00 0.00 0.00 0.01 0.06 0.11 0.17 0.12 0.11 0.12 0.01 0.01 0.00 0.00
0.00 0.00 0.00 0.00 0.00 0.00 0.00 0.00 0.00 0.00 0.00 0.00 0.00 0.00 0.00 0.00 0.00 0.00 0.00 0.00 0.00 0.00 0.00 0.00 0.00 0.00 0.00 0.00 0.00 0.00 0.00 0.00 0.00 0.00 0.00 0.00 0.00 0.02 0.02 0.01 0.01 0.05 0.04 0.02 0.02 0.01 0.00
0.00 0.00 0.00 0.00 0.00 0.00 0.00 0.00 0.00 0.00 0.00 0.00 0.00 0.00 0.00 0.00 0.00 0.00 0.00 0.00 0.00 0.00 0.00 0.00 0.00 0.00 0.00 0.00 0.00 0.00 0.00 0.00 0.00 0.00 0.00 0.00 0.00 0.03 0.04 0.02 0.01 0.04 0.03 0.03 0.01 0.02 0.01
0.00 0.00 0.00 0.00 0.00 0.00 0.00 0.00 0.00 0.00 0.00 0.00 0.00 0.00 0.00 0.00 0.00 0.00 0.00 0.00 0.00 0.00 0.00 0.00 0.00 0.00 0.00 0.00 0.00 0.00 0.00 0.00 0.00 0.00 0.00 0.00 0.00 0.00 0.00 0.00 0.00 0.00 0.00 0.01 0.05 0.06 0.01
0.00 0.00 0.00 0.00 0.00 0.00 0.00 0.00 0.00 0.00 0.00 0.00 0.00 0.00 0.00 0.00 0.00 0.00 0.00 0.00 0.00 0.00 0.00 0.00 0.00 0.00 0.00 0.00 0.00 0.00 0.00 0.00 0.00 0.00 0.00 0.00 0.00 0.00 0.00 0.00 0.00 0.00 0.00 0.00 0.02 0.01 0.01
0.00 0.00 0.00 0.00 0.00 0.00 0.00 0.00 0.00 0.00 0.00 0.00 0.00 0.00 0.00 0.00 0.00 0.00 0.00 0.00 0.00 0.00 0.00 0.00 0.00 0.00 0.00 0.00 0.00 0.00 0.00 0.00 0.00 0.00 0.00 0.00 0.00 0.00 0.00 0.00 0.00 0.00 0.00 0.00 0.00 0.00 0.00
0.00 0.00 0.00 0.00 0.00 0.01 0.01 0.00 0.00 0.00 0.00 0.00 0.00 0.00 0.01 0.00 0.00 0.00 0.00 0.00 0.00 0.00 0.00 0.00 0.00 0.00 0.00 0.00 0.00 0.00 0.00 0.00 0.00 0.00 0.00 0.00 0.00 0.00 0.00 0.00 0.00 0.00 0.00 0.00 0.00 0.00 0.00
0.00 0.00 0.00 0.00 0.01 0.01 0.01 0.00 0.00 0.00 0.00 0.00 0.00 0.01 0.00 0.00 0.00 0.00 0.00 0.00 0.00 0.00 0.00 0.00 0.00 0.00 0.00 0.00 0.00 0.00 0.00 0.00 0.00 0.00 0.00 0.00 0.00 0.00 0.00 0.00 0.00 0.00 0.00 0.00 0.00 0.00 0.00
0.00 0.00 0.00 0.00 0.01 0.02 0.02 0.01 0.01 0.00 0.00 0.00 0.00 0.00 0.00 0.00 0.00 0.00 0.00 0.00 0.00 0.00 0.00 0.00 0.00 0.00 0.00 0.00 0.00 0.00 0.00 0.00 0.00 0.00 0.00 0.00 0.00 0.01 0.00 0.00 0.00 0.00 0.00 0.00 0.00 0.00 0.00
0.00 0.00 0.00 0.00 0.01 0.03 0.02 0.02 0.01 0.00 0.00 0.00 0.00 0.00 0.00 0.00 0.00 0.00 0.00 0.00 0.00 0.00 0.00 0.00 0.00 0.00 0.00 0.01 0.02 0.01 0.01 0.00 0.00 0.00 0.00 0.00 0.00 0.01 0.01 0.01 0.00 0.00 0.00 0.00 0.00 0.01 0.00
0.00 0.00 0.00 0.00 0.01 0.02 0.03 0.03 0.04 0.02 0.00 0.00 0.00 0.00 0.00 0.00 0.00 0.00 0.00 0.00 0.00 0.00 0.00 0.00 0.01 0.00 0.00 0.01 0.01 0.01 0.00 0.00 0.00 0.00 0.01 0.02 0.03 0.03 0.02 0.02 0.00 0.00 0.00 0.01 0.07 0.04 0.00
0.02 0.01 0.01 0.00 0.00 0.01 0.04 0.04 0.07 0.03 0.02 0.00 0.00 0.00 0.00 0.00 0.00 0.00 0.00 0.00 0.00 0.00 0.00 0.01 0.05 0.03 0.03 0.02 0.01 0.01 0.00 0.00 0.00 0.00 0.00 0.01 0.02 0.03 0.02 0.03 0.00 0.00 0.00 0.03 0.02 0.00 0.01
0.04 0.01 0.00 0.00 0.00 0.00 0.02 0.08 0.09 0.04 0.05 0.00 0.00 0.00 0.00 0.00 0.00 0.00 0.00 0.00 0.00 0.00 0.00 0.00 0.07 0.06 0.02 0.03 0.02 0.01 0.00 0.00 0.00 0.00 0.00 0.00 0.00 0.00 0.00 0.00 0.00 0.00 0.00 0.00 0.00 0.00 0.00

GFSGBSN_prec_precacc24_063.txt.gz
Total_Precipitation_Accumulation
0.00 0.01 0.02 0.02 0.02 0.02 0.05 0.08 0.05 0.04 0.06 0.15 0.17 0.16 0.18 0.16 0.12 0.16 0.10 0.07 0.05 0.07 0.06 0.08 0.08 0.11 0.15 0.21 0.09 0.15 0.11 0.16 0.27 0.47 0.27 0.08 0.01 0.03 0.02 0.01 0.01 0.01 0.02 0.03 0.07 0.04 0.01
0.01 0.01 0.02 0.02 0.02 0.02 0.06 0.07 0.05 0.03 0.09 0.16 0.19 0.16 0.18 0.17 0.20 0.15 0.04 0.01 0.02 0.02 0.01 0.12 0.08 0.07 0.09 0.09 0.01 0.07 0.11 0.23 0.29 0.42 0.27 0.09 0.01 0.01 0.02 0.01 0.03 0.01 0.04 0.09 0.10 0.07 0.02
0.00 0.01 0.01 0.02 0.01 0.02 0.06 0.06 0.05 0.04 0.10 0.16 0.19 0.15 0.13 0.20 0.22 0.07 0.01 0.02 0.03 0.04 0.01 0.09 0.14 0.05 0.06 0.01 0.05 0.20 0.19 0.21 0.45 0.41 0.24 0.07 0.00 0.03 0.02 0.03 0.06 0.04 0.06 0.09 0.06 0.07 0.04
0.00 0.01 0.01 0.01 0.01 0.02 0.04 0.04 0.04 0.06 0.12 0.14 0.18 0.14 0.13 0.24 0.12 0.02 0.00 0.03 0.01 0.01 0.03 0.08 0.16 0.08 0.02 0.00 0.03 0.22 0.19 0.22 0.43 0.56 0.42 0.27 0.04 0.07 0.05 0.03 0.05 0.04 0.06 0.03 0.02 0.06 0.06
0.00 0.00 0.01 0.01 0.01 0.03 0.04 0.04 0.04 0.07 0.14 0.16 0.17 0.15 0.16 0.09 0.03 0.01 0.00 0.01 0.01 0.02 0.06 0.07 0.04 0.08 0.03 0.05 0.07 0.44 0.19 0.27 0.69 0.76 0.79 0.61 0.27 0.11 0.03 0.03 0.03 0.01 0.00 0.00 0.00 0.01 0.05
0.00 0.00 0.00 0.01 0.01 0.03 0.03 0.04 0.05 0.08 0.14 0.15 0.16 0.14 0.10 0.02 0.01 0.01 0.00 0.00 0.00 0.01 0.03 0.03 0.07 0.11 0.03 0.09 0.15 0.55 0.16 0.41 0.85 1.12 1.44 1.30 0.55 0.21 0.04 0.01 0.02 0.00 0.00 0.00 0.00 0.00 0.00
0.00 0.00 0.01 0.00 0.01 0.02 0.03 0.03 0.04 0.07 0.11 0.10 0.12 0.09 0.09 0.09 0.02 0.01 0.01 0.01 0.09 0.11 0.04 0.04 0.03 0.10 0.16 0.19 0.28 0.34 0.24 0.89 1.14 1.71 1.46 0.92 0.30 0.08 0.01 0.00 0.00 0.00 0.00 0.00 0.00 0.00 0.00
0.00 0.00 0.00 0.00 0.01 0.01 0.02 0.03 0.04 0.06 0.07 0.06 0.07 0.05 0.05 0.14 0.09 0.05 0.00 0.02 0.02 0.08 0.03 0.00 0.00 0.01 0.02 0.11 0.28 0.41 0.57 1.48 1.57 1.76 0.84 0.44 0.15 0.02 0.02 0.00 0.00 0.00 0.00 0.00 0.00 0.00 0.00
0.00 0.00 0.00 0.00 0.01 0.01 0.02 0.02 0.03 0.04 0.03 0.04 0.04 0.02 0.02 0.06 0.06 0.10 0.03 0.00 0.00 0.00 0.04 0.02 0.04 0.06 0.21 0.32 0.38 0.77 0.90 1.73 1.27 1.20 0.47 0.11 0.04 0.02 0.05 0.02 0.00 0.00 0.00 0.00 0.00 0.00 0.00
0.00 0.00 0.00 0.00 0.00 0.01 0.01 0.02 0.02 0.03 0.02 0.02 0.03 0.02 0.01 0.02 0.00 0.01 0.00 0.00 0.00 0.01 0.14 0.16 0.19 0.36 0.34 0.53 0.67 0.74 0.96 1.52 1.49 1.24 0.60 0.21 0.06 0.05 0.08 0.04 0.00 0.00 0.00 0.00 0.00 0.00 0.00
0.00 0.00 0.00 0.00 0.00 0.01 0.01 0.02 0.02 0.02 0.01 0.01 0.01 0.02 0.02 0.01 0.00 0.00 0.00 0.00 0.00 0.06 0.42 0.59 0.47 0.26 0.56 0.67 0.47 0.60 0.96 1.03 0.92 1.18 0.78 0.39 0.18 0.10 0.09 0.04 0.01 0.01 0.00 0.00 0.00 0.00 0.00
0.00 0.00 0.00 0.00 0.00 0.00 0.00 0.01 0.01 0.02 0.01 0.00 0.01 0.01 0.01 0.00 0.00 0.00 0.00 0.00 0.00 0.08 0.41 0.27 0.34 0.60 0.64 0.32 0.17 0.49 1.01 0.84 0.62 0.59 0.34 0.24 0.16 0.29 0.21 0.10 0.04 0.01 0.00 0.00 0.00 0.00 0.00
0.00 0.00 0.00 0.00 0.00 0.00 0.00 0.00 0.00 0.01 0.01 0.01 0.00 0.00 0.00 0.00 0.00 0.00 0.00 0.00 0.01 0.04 0.07 0.10 0.24 0.22 0.13 0.13 0.15 0.57 0.81 0.70 0.58 0.86 0.68 0.54 0.25 0.27 0.22 0.27 0.11 0.02 0.01 0.03 0.02 0.01 0.00
0.00 0.00 0.00 0.00 0.00 0.00 0.00 0.00 0.00 0.00 0.01 0.00 0.00 0.00 0.00 0.00 0.00 0.00 0.00 0.00 0.04 0.10 0.04 0.03 0.04 0.03 0.03 0.03 0.12 0.37 0.50 0.37 0.19 0.14 0.27 0.57 0.48 0.40 0.28 0.26 0.21 0.05 0.01 0.02 0.01 0.00 0.00
0.00 0.00 0.00 0.00 0.00 0.00 0.00 0.00 0.00 0.00 0.00 0.00 0.00 0.00 0.00 0.00 0.00 0.00 0.00 0.00 0.03 0.03 0.02 0.01 0.01 0.02 0.03 0.02 0.03 0.23 0.43 0.14 0.06 0.08 0.13 0.19 0.15 0.21 0.26 0.11 0.22 0.12 0.02 0.00 0.00 0.00 0.00
0.00 0.00 0.00 0.00 0.00 0.00 0.00 0.00 0.00 0.00 0.00 0.00 0.00 0.00 0.00 0.00 0.00 0.00 0.00 0.01 0.00 0.00 0.00 0.00 0.00 0.00 0.01 0.01 0.01 0.02 0.12 0.03 0.00 0.01 0.01 0.01 0.04 0.10 0.17 0.16 0.18 0.16 0.02 0.02 0.00 0.00 0.00
0.00 0.00 0.00 0.00 0.00 0.00 0.00 0.00 0.00 0.00 0.00 0.00 0.00 0.00 0.00 0.00 0.00 0.00 0.00 0.00 0.00 0.00 0.00 0.00 0.00 0.00 0.00 0.00 0.00 0.00 0.01 0.02 0.00 0.00 0.00 0.00 0.01 0.06 0.11 0.17 0.12 0.11 0.12 0.01 0.01 0.00 0.00
0.00 0.00 0.00 0.00 0.00 0.00 0.00 0.00 0.00 0.00 0.00 0.00 0.00 0.00 0.00 0.00 0.00 0.01 0.00 0.00 0.00 0.00 0.00 0.00 0.00 0.00 0.00 0.00 0.00 0.00 0.00 0.01 0.00 0.00 0.00 0.00 0.00 0.02 0.02 0.01 0.01 0.05 0.04 0.02 0.02 0.01 0.00
0.00 0.00 0.00 0.00 0.00 0.00 0.00 0.00 0.00 0.00 0.00 0.00 0.00 0.00 0.00 0.00 0.00 0.00 0.00 0.00 0.00 0.00 0.00 0.00 0.00 0.00 0.00 0.00 0.00 0.00 0.00 0.00 0.00 0.00 0.00 0.00 0.00 0.03 0.04 0.03 0.01 0.04 0.03 0.03 0.01 0.02 0.01
0.00 0.00 0.00 0.00 0.00 0.00 0.00 0.00 0.00 0.00 0.00 0.00 0.00 0.00 0.00 0.00 0.00 0.00 0.00 0.00 0.00 0.00 0.00 0.00 0.00 0.00 0.00 0.00 0.00 0.00 0.00 0.00 0.00 0.00 0.00 0.00 0.00 0.00 0.00 0.00 0.00 0.00 0.00 0.01 0.05 0.06 0.01
0.00 0.00 0.00 0.00 0.00 0.00 0.00 0.00 0.00 0.00 0.00 0.00 0.00 0.00 0.00 0.00 0.00 0.00 0.00 0.00 0.00 0.00 0.00 0.00 0.00 0.00 0.00 0.00 0.00 0.00 0.00 0.00 0.00 0.00 0.00 0.00 0.00 0.00 0.00 0.00 0.00 0.00 0.00 0.00 0.02 0.01 0.01
0.00 0.00 0.00 0.00 0.00 0.00 0.00 0.00 0.00 0.00 0.00 0.00 0.00 0.00 0.00 0.00 0.00 0.00 0.00 0.00 0.00 0.00 0.00 0.00 0.00 0.00 0.00 0.00 0.00 0.00 0.00 0.00 0.00 0.00 0.00 0.00 0.00 0.00 0.00 0.00 0.00 0.00 0.00 0.00 0.00 0.00 0.00
0.01 0.00 0.00 0.00 0.00 0.01 0.01 0.00 0.00 0.00 0.00 0.00 0.00 0.00 0.00 0.00 0.00 0.00 0.00 0.00 0.00 0.00 0.00 0.00 0.00 0.00 0.00 0.00 0.00 0.00 0.00 0.00 0.00 0.00 0.00 0.00 0.00 0.00 0.00 0.00 0.00 0.00 0.00 0.00 0.00 0.00 0.00
0.01 0.00 0.00 0.00 0.00 0.01 0.01 0.00 0.00 0.00 0.00 0.00 0.00 0.01 0.00 0.00 0.00 0.00 0.00 0.00 0.00 0.00 0.00 0.00 0.00 0.00 0.00 0.00 0.00 0.00 0.00 0.00 0.00 0.00 0.00 0.00 0.00 0.00 0.00 0.00 0.00 0.00 0.00 0.00 0.00 0.00 0.00
0.00 0.00 0.00 0.00 0.00 0.02 0.02 0.01 0.01 0.00 0.00 0.00 0.00 0.00 0.00 0.00 0.00 0.00 0.00 0.00 0.00 0.00 0.00 0.00 0.01 0.00 0.00 0.00 0.00 0.00 0.00 0.00 0.00 0.00 0.00 0.00 0.00 0.01 0.00 0.00 0.00 0.00 0.00 0.00 0.00 0.00 0.00
0.00 0.00 0.00 0.00 0.00 0.01 0.02 0.02 0.01 0.00 0.00 0.00 0.00 0.00 0.00 0.00 0.00 0.00 0.00 0.00 0.00 0.00 0.00 0.00 0.02 0.02 0.00 0.01 0.02 0.01 0.01 0.00 0.00 0.00 0.00 0.00 0.00 0.01 0.01 0.00 0.00 0.00 0.00 0.00 0.00 0.01 0.00
0.00 0.00 0.00 0.00 0.00 0.00 0.02 0.03 0.04 0.02 0.00 0.00 0.00 0.00 0.00 0.00 0.00 0.00 0.00 0.00 0.00 0.00 0.00 0.00 0.01 0.03 0.01 0.01 0.01 0.01 0.00 0.00 0.00 0.00 0.01 0.02 0.03 0.03 0.03 0.02 0.00 0.00 0.00 0.00 0.05 0.04 0.00
0.02 0.01 0.00 0.00 0.00 0.00 0.01 0.03 0.06 0.03 0.02 0.00 0.00 0.00 0.00 0.00 0.00 0.00 0.00 0.00 0.00 0.00 0.00 0.01 0.05 0.04 0.06 0.03 0.02 0.01 0.00 0.00 0.00 0.00 0.00 0.00 0.02 0.03 0.03 0.03 0.00 0.00 0.00 0.01 0.01 0.00 0.01
0.04 0.01 0.00 0.00 0.00 0.00 0.01 0.02 0.07 0.04 0.05 0.00 0.00 0.00 0.00 0.00 0.00 0.00 0.00 0.00 0.00 0.00 0.00 0.00 0.08 0.08 0.04 0.06 0.04 0.01 0.00 0.00 0.00 0.00 0.00 0.00 0.00 0.00 0.00 0.00 0.00 0.00 0.00 0.00 0.00 0.00 0.00

GFSGBSN_prec_precacc24_066.txt.gz
Total_Precipitation_Accumulation
0.00 0.01 0.01 0.01 0.02 0.01 0.04 0.06 0.03 0.03 0.05 0.11 0.14 0.11 0.16 0.15 0.12 0.16 0.10 0.06 0.04 0.06 0.05 0.03 0.04 0.10 0.15 0.20 0.07 0.12 0.10 0.22 0.37 0.55 0.30 0.12 0.03 0.03 0.02 0.01 0.05 0.17 0.07 0.04 0.07 0.05 0.01
0.00 0.01 0.01 0.01 0.01 0.01 0.05 0.05 0.04 0.02 0.06 0.12 0.14 0.11 0.15 0.16 0.17 0.13 0.03 0.01 0.01 0.01 0.01 0.04 0.04 0.05 0.08 0.09 0.00 0.06 0.11 0.23 0.35 0.51 0.31 0.14 0.03 0.01 0.02 0.02 0.06 0.04 0.11 0.14 0.12 0.08 0.02
0.00 0.00 0.00 0.01 0.01 0.02 0.04 0.04 0.03 0.03 0.09 0.13 0.15 0.11 0.11 0.11 0.15 0.06 0.01 0.01 0.02 0.03 0.01 0.04 0.09 0.03 0.06 0.01 0.05 0.19 0.18 0.20 0.44 0.46 0.33 0.15 0.03 0.03 0.03 0.05 0.06 0.05 0.10 0.22 0.12 0.09 0.05
0.00 0.00 0.00 0.01 0.01 0.01 0.02 0.03 0.03 0.05 0.11 0.13 0.15 0.10 0.10 0.14 0.11 0.02 0.00 0.00 0.00 0.00 0.03 0.07 0.15 0.06 0.02 0.00 0.02 0.21 0.18 0.18 0.41 0.54 0.47 0.35 0.07 0.08 0.06 0.04 0.06 0.07 0.09 0.07 0.07 0.08 0.07
0.00 0.00 0.00 0.00 0.00 0.01 0.03 0.03 0.04 0.06 0.11 0.12 0.12 0.08 0.10 0.05 0.03 0.00 0.00 0.00 0.00 0.00 0.04 0.05 0.02 0.05 0.02 0.03 0.07 0.43 0.18 0.19 0.64 0.71 0.71 0.70 0.25 0.13 0.04 0.05 0.04 0.02 0.00 0.00 0.01 0.01 0.05
0.01 0.00 0.00 0.00 0.01 0.01 0.02 0.03 0.04 0.06 0.09 0.09 0.10 0.06 0.06 0.02 0.01 0.00 0.00 0.00 0.00 0.01 0.01 0.02 0.06 0.08 0.03 0.13 0.21 0.56 0.16 0.23 0.79 1.06 1.29 1.46 0.50 0.18 0.04 0.02 0.02 0.00 0.00 0.00 0.00 0.00 0.00
0.00 0.01 0.00 0.00 0.01 0.01 0.02 0.02 0.03 0.05 0.06 0.06 0.07 0.04 0.04 0.03 0.01 0.00 0.01 0.01 0.09 0.10 0.03 0.04 0.03 0.08 0.12 0.34 0.76 0.53 0.23 0.46 0.97 1.63 1.42 1.22 0.34 0.07 0.01 0.00 0.00 0.00 0.00 0.00 0.00 0.00 0.00
0.03 0.02 0.00 0.00 0.01 0.01 0.02 0.02 0.02 0.03 0.04 0.05 0.06 0.03 0.02 0.04 0.03 0.01 0.00 0.02 0.02 0.08 0.03 0.00 0.00 0.00 0.01 0.11 0.51 0.54 0.55 1.08 1.31 1.70 0.83 0.60 0.17 0.01 0.01 0.00 0.00 0.00 0.00 0.00 0.00 0.00 0.00
0.02 0.00 0.00 0.00 0.00 0.01 0.01 0.01 0.02 0.03 0.02 0.04 0.05 0.03 0.02 0.02 0.02 0.01 0.00 0.00 0.00 0.00 0.04 0.02 0.02 0.03 0.17 0.31 0.39 0.82 0.80 1.25 1.09 1.10 0.50 0.20 0.06 0.03 0.05 0.01 0.00 0.00 0.00 0.00 0.00 0.00 0.00
0.02 0.01 0.00 0.00 0.00 0.01 0.01 0.01 0.01 0.02 0.02 0.02 0.03 0.02 0.02 0.01 0.00 0.00 0.00 0.00 0.00 0.01 0.12 0.08 0.10 0.18 0.31 0.52 0.71 0.78 0.70 1.09 1.18 0.99 0.59 0.20 0.03 0.05 0.09 0.04 0.00 0.00 0.00 0.00 0.00 0.00 0.00
0.02 0.00 0.00 0.00 0.00 0.00 0.01 0.01 0.01 0.01 0.01 0.02 0.01 0.02 0.02 0.01 0.00 0.00 0.00 0.00 0.00 0.06 0.34 0.42 0.29 0.20 0.55 0.66 0.47 0.59 0.64 0.87 0.71 0.98 0.65 0.25 0.07 0.07 0.09 0.04 0.01 0.01 0.00 0.00 0.00 0.00 0.00
0.02 0.00 0.00 0.00 0.00 0.00 0.00 0.00 0.00 0.01 0.01 0.00 0.01 0.01 0.01 0.00 0.00 0.00 0.00 0.00 0.00 0.08 0.35 0.21 0.28 0.58 0.64 0.30 0.17 0.46 0.93 0.81 0.61 0.57 0.25 0.08 0.05 0.13 0.17 0.08 0.04 0.01 0.00 0.00 0.00 0.00 0.00
0.01 0.00 0.00 0.00 0.00 0.00 0.00 0.00 0.00 0.01 0.01 0.00 0.00 0.00 0.00 0.00 0.00 0.00 0.00 0.00 0.00 0.03 0.05 0.07 0.19 0.21 0.13 0.11 0.11 0.51 0.79 0.69 0.60 0.95 0.68 0.46 0.19 0.18 0.16 0.17 0.06 0.01 0.00 0.03 0.03 0.01 0.00
0.01 0.00 0.00 0.00 0.00 0.00 0.00 0.00 0.00 0.00 0.00 0.00 0.00 0.00 0.00 0.00 0.00 0.00 0.00 0.00 0.02 0.05 0.02 0.01 0.03 0.02 0.03 0.03 0.07 0.28 0.49 0.37 0.19 0.16 0.28 0.54 0.40 0.36 0.21 0.19 0.12 0.04 0.01 0.02 0.01 0.00 0.00
0.01 0.00 0.00 0.00 0.00 0.00 0.00 0.00 0.00 0.00 0.00 0.00 0.00 0.00 0.00 0.00 0.00 0.00 0.00 0.00 0.01 0.01 0.01 0.01 0.01 0.02 0.03 0.02 0.02 0.24 0.44 0.15 0.06 0.08 0.14 0.18 0.13 0.20 0.25 0.10 0.20 0.11 0.02 0.00 0.00 0.00 0.00
0.01 0.00 0.00 0.00 0.00 0.00 0.00 0.00 0.00 0.00 0.00 0.00 0.00 0.00 0.00 0.00 0.00 0.00 0.00 0.01 0.00 0.00 0.00 0.00 0.00 0.00 0.01 0.01 0.01 0.03 0.13 0.03 0.00 0.01 0.01 0.01 0.04 0.10 0.17 0.16 0.18 0.16 0.02 0.02 0.00 0.00 0.00
0.06 0.03 0.01 0.00 0.00 0.00 0.00 0.00 0.00 0.00 0.00 0.00 0.00 0.00 0.00 0.00 0.00 0.01 0.00 0.00 0.00 0.00 0.00 0.00 0.00 0.00 0.00 0.00 0.00 0.00 0.01 0.02 0.00 0.00 0.00 0.00 0.01 0.06 0.12 0.17 0.12 0.11 0.12 0.01 0.01 0.00 0.00
0.09 0.06 0.03 0.00 0.00 0.00 0.00 0.00 0.00 0.00 0.00 0.00 0.00 0.00 0.00 0.00 0.00 0.01 0.00 0.00 0.00 0.00 0.00 0.00 0.00 0.00 0.00 0.00 0.00 0.00 0.00 0.01 0.00 0.00 0.00 0.00 0.00 0.02 0.03 0.01 0.01 0.05 0.04 0.02 0.02 0.01 0.00
0.12 0.04 0.03 0.00 0.00 0.00 0.00 0.00 0.00 0.00 0.00 0.00 0.00 0.00 0.00 0.00 0.00 0.00 0.00 0.00 0.00 0.00 0.00 0.00 0.00 0.00 0.00 0.00 0.00 0.00 0.00 0.00 0.00 0.00 0.00 0.00 0.00 0.03 0.05 0.03 0.02 0.04 0.03 0.03 0.01 0.02 0.01
0.18 0.08 0.02 0.00 0.00 0.00 0.00 0.00 0.00 0.00 0.00 0.00 0.00 0.00 0.01 0.01 0.00 0.00 0.00 0.00 0.00 0.00 0.00 0.00 0.00 0.00 0.00 0.00 0.00 0.00 0.00 0.00 0.00 0.00 0.00 0.00 0.00 0.00 0.00 0.00 0.00 0.00 0.00 0.01 0.06 0.07 0.02
0.16 0.09 0.02 0.00 0.00 0.00 0.00 0.00 0.00 0.00 0.00 0.00 0.00 0.00 0.00 0.00 0.00 0.00 0.00 0.00 0.00 0.00 0.00 0.00 0.00 0.00 0.00 0.00 0.00 0.00 0.00 0.00 0.00 0.00 0.00 0.00 0.00 0.00 0.00 0.00 0.00 0.00 0.00 0.00 0.02 0.01 0.01
0.23 0.13 0.03 0.00 0.00 0.00 0.00 0.00 0.00 0.00 0.00 0.00 0.00 0.00 0.00 0.00 0.00 0.00 0.00 0.00 0.00 0.00 0.00 0.00 0.00 0.00 0.00 0.00 0.00 0.00 0.00 0.00 0.00 0.00 0.00 0.00 0.00 0.00 0.00 0.00 0.00 0.00 0.00 0.00 0.00 0.00 0.00
0.22 0.13 0.03 0.00 0.00 0.01 0.01 0.00 0.00 0.00 0.00 0.00 0.00 0.00 0.00 0.00 0.00 0.00 0.00 0.00 0.00 0.00 0.00 0.00 0.00 0.00 0.00 0.00 0.00 0.00 0.00 0.00 0.00 0.00 0.00 0.00 0.00 0.00 0.00 0.00 0.00 0.00 0.00 0.00 0.00 0.00 0.00
0.14 0.08 0.02 0.00 0.00 0.00 0.01 0.00 0.00 0.00 0.00 0.00 0.00 0.01 0.00 0.00 0.00 0.00 0.00 0.00 0.00 0.00 0.00 0.00 0.00 0.00 0.00 0.00 0.00 0.00 0.00 0.00 0.00 0.00 0.00 0.00 0.00 0.00 0.00 0.00 0.00 0.00 0.00 0.00 0.00 0.00 0.00
0.13 0.04 0.01 0.00 0.00 0.00 0.01 0.01 0.00 0.00 0.00 0.00 0.00 0.00 0.00 0.00 0.00 0.00 0.00 0.00 0.00 0.00 0.00 0.01 0.03 0.00 0.00 0.00 0.00 0.00 0.00 0.00 0.00 0.00 0.00 0.00 0.00 0.01 0.00 0.00 0.00 0.00 0.00 0.00 0.00 0.00 0.00
0.14 0.04 0.00 0.00 0.00 0.00 0.00 0.01 0.01 0.00 0.00 0.00 0.00 0.00 0.00 0.00 0.00 0.00 0.00 0.00 0.00 0.00 0.00 0.00 0.02 0.02 0.00 0.01 0.02 0.01 0.01 0.00 0.00 0.00 0.00 0.00 0.00 0.01 0.01 0.00 0.00 0.00 0.00 0.00 0.00 0.00 0.00
0.12 0.06 0.01 0.00 0.00 0.00 0.00 0.01 0.02 0.01 0.00 0.00 0.00 0.00 0.00 0.00 0.00 0.00 0.00 0.00 0.00 0.00 0.00 0.00 0.01 0.04 0.03 0.01 0.02 0.01 0.00 0.00 0.00 0.00 0.01 0.02 0.03 0.03 0.02 0.01 0.00 0.00 0.00 0.00 0.02 0.01 0.00
0.13 0.07 0.02 0.00 0.00 0.00 0.00 0.01 0.02 0.02 0.01 0.00 0.00 0.00 0.00 0.00 0.00 0.00 0.00 0.00 0.00 0.00 0.00 0.01 0.05 0.05 0.15 0.04 0.02 0.01 0.00 0.00 0.00 0.00 0.00 0.01 0.02 0.02 0.02 0.04 0.00 0.00 0.00 0.00 0.00 0.00 0.00
0.11 0.05 0.01 0.00 0.00 0.00 0.01 0.01 0.03 0.01 0.03 0.00 0.00 0.00 0.00 0.00 0.00 0.00 0.00 0.00 0.00 0.00 0.00 0.00 0.08 0.08 0.06 0.13 0.05 0.01 0.00 0.00 0.00 0.00 0.00 0.00 0.00 0.00 0.00 0.00 0.00 0.00 0.00 0.00 0.00 0.00 0.00

GFSGBSN_prec_precacc24_072.txt.gz
Total_Precipitation_Accumulation
0.02 0.02 0.01 0.00 0.00 0.01 0.02 0.03 0.02 0.02 0.04 0.08 0.09 0.06 0.08 0.08 0.09 0.12 0.09 0.05 0.02 0.05 0.03 0.01 0.01 0.04 0.08 0.16 0.07 0.03 0.02 0.19 0.35 0.57 0.44 0.18 0.20 0.08 0.03 0.06 0.49 0.43 0.17 0.15 0.22 0.08 0.02
0.06 0.06 0.02 0.01 0.00 0.01 0.02 0.03 0.02 0.02 0.05 0.07 0.07 0.05 0.06 0.05 0.07 0.05 0.03 0.01 0.00 0.00 0.01 0.01 0.02 0.01 0.03 0.04 0.00 0.03 0.03 0.10 0.32 0.56 0.51 0.23 0.19 0.06 0.04 0.06 0.29 0.42 0.35 0.29 0.39 0.16 0.03
0.06 0.08 0.06 0.01 0.00 0.01 0.02 0.02 0.02 0.02 0.05 0.06 0.06 0.04 0.04 0.03 0.06 0.03 0.01 0.01 0.00 0.00 0.01 0.01 0.04 0.01 0.01 0.00 0.02 0.15 0.12 0.14 0.34 0.50 0.62 0.39 0.18 0.14 0.06 0.08 0.14 0.32 0.45 0.56 0.44 0.31 0.11
0.10 0.11 0.07 0.03 0.00 0.00 0.01 0.02 0.02 0.03 0.04 0.05 0.06 0.04 0.03 0.02 0.02 0.01 0.00 0.00 0.00 0.00 0.00 0.02 0.11 0.02 0.01 0.00 0.01 0.16 0.11 0.16 0.37 0.58 0.69 0.62 0.27 0.14 0.06 0.05 0.18 0.27 0.54 0.37 0.42 0.34 0.23
0.15 0.11 0.09 0.02 0.00 0.01 0.01 0.01 0.02 0.02 0.04 0.05 0.05 0.04 0.03 0.02 0.01 0.01 0.00 0.00 0.00 0.00 0.00 0.02 0.00 0.01 0.00 0.03 0.08 0.43 0.16 0.17 0.60 0.69 0.83 0.85 0.40 0.19 0.08 0.08 0.11 0.22 0.24 0.13 0.14 0.19 0.25
0.12 0.07 0.02 0.01 0.02 0.01 0.01 0.01 0.02 0.03 0.03 0.05 0.05 0.04 0.03 0.02 0.02 0.01 0.00 0.00 0.00 0.00 0.00 0.00 0.03 0.04 0.02 0.33 0.38 0.55 0.13 0.16 0.76 1.15 1.47 1.62 0.60 0.17 0.08 0.04 0.02 0.15 0.05 0.04 0.03 0.05 0.15
0.04 0.04 0.03 0.01 0.02 0.01 0.01 0.01 0.01 0.02 0.03 0.04 0.05 0.04 0.02 0.02 0.02 0.01 0.00 0.00 0.01 0.03 0.01 0.01 0.02 0.02 0.05 0.47 0.85 0.44 0.17 0.33 0.86 1.77 1.71 1.45 0.41 0.08 0.01 0.00 0.00 0.02 0.03 0.00 0.00 0.01 0.03
0.05 0.04 0.04 0.04 0.06 0.02 0.01 0.01 0.01 0.01 0.02 0.04 0.04 0.03 0.02 0.02 0.01 0.01 0.00 0.00 0.00 0.00 0.00 0.00 0.00 0.03 0.04 0.21 0.51 0.33 0.43 0.60 1.09 1.80 0.98 0.73 0.14 0.02 0.01 0.00 0.00 0.00 0.01 0.01 0.03 0.02 0.01
0.07 0.08 0.10 0.10 0.08 0.03 0.01 0.00 0.00 0.01 0.02 0.03 0.04 0.02 0.02 0.02 0.01 0.00 0.00 0.00 0.00 0.00 0.00 0.00 0.01 0.04 0.17 0.24 0.26 0.62 0.68 0.74 1.03 1.18 0.57 0.32 0.12 0.03 0.05 0.01 0.00 0.00 0.00 0.00 0.02 0.03 0.01
0.07 0.08 0.08 0.07 0.08 0.06 0.02 0.01 0.00 0.01 0.01 0.02 0.03 0.02 0.02 0.02 0.00 0.00 0.00 0.00 0.00 0.00 0.01 0.02 0.03 0.09 0.31 0.45 0.54 0.76 0.62 0.63 1.02 1.04 0.52 0.22 0.04 0.05 0.08 0.02 0.00 0.00 0.00 0.00 0.00 0.00 0.00
0.11 0.13 0.14 0.14 0.12 0.09 0.04 0.01 0.00 0.01 0.01 0.01 0.01 0.02 0.02 0.01 0.00 0.00 0.00 0.00 0.00 0.00 0.05 0.03 0.02 0.09 0.40 0.57 0.39 0.59 0.48 0.49 0.60 0.90 0.45 0.19 0.05 0.07 0.07 0.02 0.01 0.00 0.00 0.00 0.00 0.00 0.00
0.15 0.17 0.20 0.19 0.17 0.12 0.05 0.01 0.00 0.00 0.00 0.00 0.01 0.02 0.02 0.00 0.00 0.00 0.00 0.00 0.00 0.01 0.03 0.02 0.17 0.34 0.55 0.25 0.10 0.37 0.49 0.45 0.38 0.42 0.17 0.05 0.03 0.10 0.10 0.03 0.02 0.00 0.00 0.00 0.00 0.00 0.00
0.18 0.21 0.21 0.18 0.15 0.15 0.10 0.01 0.00 0.00 0.00 0.00 0.00 0.01 0.00 0.00 0.00 0.00 0.00 0.00 0.00 0.01 0.01 0.04 0.16 0.18 0.10 0.07 0.06 0.32 0.35 0.34 0.34 0.66 0.34 0.19 0.06 0.01 0.10 0.12 0.02 0.01 0.00 0.02 0.02 0.01 0.00
0.18 0.19 0.20 0.22 0.19 0.16 0.11 0.01 0.00 0.00 0.00 0.00 0.00 0.00 0.00 0.00 0.00 0.00 0.00 0.00 0.00 0.01 0.00 0.01 0.02 0.02 0.03 0.02 0.05 0.17 0.29 0.18 0.07 0.09 0.08 0.23 0.21 0.08 0.05 0.16 0.10 0.04 0.01 0.01 0.01 0.00 0.00
0.21 0.20 0.22 0.24 0.23 0.20 0.15 0.04 0.00 0.00 0.00 0.00 0.00 0.00 0.00 0.00 0.00 0.00 0.00 0.00 0.00 0.00 0.01 0.01 0.01 0.03 0.03 0.01 0.01 0.23 0.35 0.09 0.03 0.02 0.05 0.09 0.08 0.05 0.04 0.03 0.13 0.08 0.02 0.00 0.00 0.00 0.00
0.23 0.25 0.28 0.29 0.27 0.23 0.19 0.09 0.00 0.00 0.00 0.00 0.00 0.00 0.00 0.00 0.00 0.00 0.00 0.00 0.00 0.00 0.00 0.00 0.01 0.01 0.02 0.01 0.01 0.03 0.13 0.04 0.00 0.01 0.01 0.01 0.03 0.05 0.07 0.06 0.08 0.11 0.01 0.02 0.00 0.00 0.00
0.30 0.33 0.36 0.38 0.34 0.24 0.21 0.12 0.02 0.00 0.00 0.00 0.00 0.00 0.00 0.00 0.00 0.02 0.00 0.00 0.00 0.00 0.00 0.00 0.00 0.00 0.00 0.01 0.01 0.01 0.02 0.03 0.00 0.00 0.00 0.00 0.01 0.06 0.09 0.13 0.09 0.05 0.11 0.01 0.01 0.00 0.00
0.37 0.45 0.50 0.49 0.44 0.32 0.26 0.16 0.04 0.00 0.00 0.00 0.00 0.00 0.00 0.00 0.02 0.01 0.00 0.00 0.00 0.00 0.00 0.00 0.00 0.00 0.00 0.00 0.01 0.01 0.01 0.02 0.00 0.00 0.00 0.00 0.00 0.03 0.03 0.01 0.01 0.04 0.03 0.02 0.02 0.01 0.00
0.38 0.44 0.52 0.49 0.47 0.39 0.34 0.22 0.07 0.01 0.00 0.00 0.00 0.00 0.01 0.00 0.01 0.00 0.00 0.00 0.00 0.00 0.00 0.00 0.00 0.00 0.00 0.01 0.01 0.00 0.00 0.00 0.00 0.00 0.00 0.00 0.01 0.04 0.07 0.04 0.02 0.04 0.03 0.02 0.01 0.03 0.02
0.50 0.53 0.61 0.59 0.50 0.40 0.34 0.21 0.09 0.01 0.00 0.00 0.00 0.00 0.03 0.02 0.01 0.00 0.00 0.00 0.00 0.00 0.00 0.00 0.00 0.00 0.00 0.00 0.00 0.00 0.00 0.00 0.00 0.00 0.00 0.00 0.00 0.00 0.01 0.01 0.00 0.00 0.00 0.01 0.06 0.08 0.02
0.46 0.60 0.69 0.70 0.59 0.39 0.30 0.17 0.06 0.00 0.00 0.00 0.00 0.00 0.00 0.00 0.00 0.00 0.00 0.00 0.00 0.00 0.00 0.00 0.00 0.00 0.00 0.01 0.00 0.00 0.00 0.00 0.00 0.00 0.00 0.00 0.00 0.00 0.00 0.00 0.00 0.00 0.00 0.00 0.02 0.01 0.01
0.50 0.54 0.61 0.58 0.53 0.37 0.27 0.12 0.03 0.00 0.00 0.00 0.00 0.00 0.00 0.00 0.00 0.00 0.00 0.00 0.00 0.01 0.00 0.00 0.00 0.00 0.00 0.00 0.01 0.00 0.00 0.00 0.00 0.00 0.00 0.00 0.00 0.00 0.00 0.00 0.00 0.00 0.00 0.00 0.00 0.00 0.00
0.49 0.51 0.48 0.48 0.43 0.35 0.22 0.10 0.02 0.00 0.00 0.00 0.00 0.00 0.00 0.00 0.00 0.00 0.00 0.00 0.00 0.01 0.01 0.00 0.00 0.00 0.00 0.00 0.00 0.00 0.00 0.00 0.00 0.00 0.00 0.01 0.00 0.00 0.01 0.00 0.00 0.00 0.00 0.00 0.00 0.00 0.00
0.74 0.85 0.92 0.85 0.55 0.35 0.20 0.07 0.00 0.00 0.00 0.00 0.00 0.00 0.00 0.00 0.00 0.00 0.00 0.00 0.00 0.00 0.02 0.00 0.00 0.00 0.00 0.00 0.00 0.00 0.00 0.00 0.00 0.00 0.00 0.01 0.01 0.00 0.01 0.00 0.00 0.00 0.00 0.00 0.00 0.00 0.00
0.76 0.77 0.79 0.78 0.68 0.43 0.22 0.07 0.01 0.00 0.00 0.00 0.00 0.00 0.00 0.00 0.00 0.00 0.00 0.00 0.00 0.00 0.01 0.02 0.03 0.00 0.00 0.00 0.00 0.01 0.00 0.00 0.00 0.00 0.00 0.00 0.01 0.01 0.00 0.00 0.00 0.00 0.00 0.00 0.00 0.00 0.00
0.49 0.49 0.46 0.49 0.50 0.42 0.27 0.08 0.01 0.00 0.00 0.00 0.00 0.00 0.00 0.00 0.00 0.00 0.00 0.00 0.00 0.00 0.00 0.00 0.02 0.02 0.00 0.01 0.04 0.03 0.02 0.01 0.00 0.00 0.00 0.00 0.00 0.00 0.00 0.00 0.00 0.00 0.00 0.00 0.00 0.00 0.00
0.42 0.39 0.36 0.37 0.36 0.36 0.28 0.07 0.01 0.00 0.00 0.00 0.00 0.00 0.00 0.00 0.00 0.00 0.00 0.00 0.00 0.00 0.00 0.00 0.01 0.04 0.03 0.03 0.05 0.03 0.01 0.00 0.00 0.00 0.00 0.02 0.03 0.03 0.02 0.02 0.00 0.00 0.00 0.00 0.00 0.00 0.00
0.93 0.73 0.59 0.43 0.32 0.28 0.19 0.05 0.01 0.00 0.00 0.00 0.00 0.00 0.00 0.00 0.00 0.00 0.00 0.00 0.00 0.00 0.00 0.01 0.05 0.04 0.15 0.05 0.04 0.02 0.01 0.00 0.00 0.00 0.00 0.01 0.03 0.03 0.04 0.06 0.01 0.00 0.00 0.00 0.00 0.00 0.00
0.93 0.90 0.90 0.67 0.40 0.26 0.12 0.03 0.02 0.00 0.00 0.00 0.00 0.00 0.00 0.00 0.00 0.00 0.00 0.00 0.00 0.00 0.00 0.00 0.08 0.08 0.06 0.18 0.06 0.00 0.00 0.00 0.00 0.00 0.00 0.00 0.00 0.01 0.00 0.00 0.00 0.00 0.00 0.00 0.00 0.00 0.00

GFSGBSN_prec_precacc24_075.txt.gz
Total_Precipitation_Accumulation
0.05 0.05 0.03 0.01 0.00 0.01 0.01 0.02 0.01 0.02 0.03 0.06 0.06 0.04 0.04 0.04 0.04 0.03 0.03 0.04 0.01 0.03 0.02 0.01 0.00 0.02 0.03 0.06 0.05 0.03 0.02 0.20 0.35 0.50 0.44 0.19 0.28 0.16 0.09 0.07 0.51 0.47 0.24 0.21 0.30 0.14 0.03
0.08 0.08 0.06 0.05 0.02 0.01 0.01 0.02 0.02 0.02 0.03 0.05 0.05 0.03 0.04 0.03 0.03 0.02 0.01 0.01 0.01 0.01 0.01 0.01 0.02 0.01 0.01 0.00 0.00 0.02 0.01 0.04 0.23 0.46 0.52 0.25 0.27 0.15 0.13 0.07 0.31 0.45 0.38 0.40 0.70 0.28 0.09
0.07 0.09 0.10 0.06 0.04 0.01 0.01 0.02 0.02 0.02 0.03 0.04 0.05 0.04 0.03 0.02 0.02 0.02 0.01 0.01 0.01 0.01 0.01 0.02 0.04 0.00 0.00 0.00 0.00 0.07 0.06 0.05 0.15 0.37 0.63 0.46 0.22 0.18 0.19 0.09 0.15 0.35 0.56 0.73 0.84 0.63 0.18
0.11 0.12 0.09 0.09 0.06 0.01 0.01 0.01 0.01 0.02 0.03 0.04 0.05 0.03 0.03 0.02 0.02 0.01 0.01 0.00 0.00 0.00 0.00 0.01 0.10 0.00 0.00 0.00 0.01 0.16 0.09 0.10 0.16 0.40 0.68 0.65 0.26 0.18 0.10 0.08 0.21 0.29 0.75 0.70 0.88 0.76 0.51
0.17 0.13 0.12 0.05 0.02 0.02 0.01 0.01 0.01 0.02 0.03 0.03 0.04 0.04 0.03 0.02 0.02 0.01 0.00 0.00 0.00 0.00 0.00 0.00 0.00 0.00 0.01 0.02 0.09 0.43 0.16 0.14 0.37 0.51 0.75 0.86 0.39 0.23 0.16 0.13 0.16 0.25 0.40 0.43 0.50 0.51 0.53
0.14 0.09 0.04 0.04 0.04 0.03 0.03 0.03 0.02 0.02 0.02 0.04 0.04 0.04 0.03 0.02 0.02 0.01 0.00 0.00 0.00 0.00 0.00 0.00 0.00 0.03 0.03 0.38 0.42 0.57 0.11 0.14 0.59 0.85 1.36 1.56 0.61 0.23 0.18 0.09 0.05 0.20 0.09 0.10 0.30 0.28 0.27
0.07 0.07 0.06 0.04 0.05 0.05 0.04 0.04 0.03 0.01 0.02 0.04 0.04 0.03 0.02 0.02 0.02 0.01 0.00 0.00 0.00 0.00 0.00 0.00 0.01 0.02 0.09 0.50 0.85 0.42 0.13 0.31 0.77 1.31 1.61 1.44 0.55 0.12 0.03 0.01 0.00 0.03 0.05 0.01 0.04 0.12 0.08
0.08 0.06 0.07 0.07 0.12 0.14 0.07 0.06 0.05 0.02 0.02 0.03 0.04 0.03 0.02 0.02 0.01 0.01 0.00 0.00 0.00 0.00 0.00 0.00 0.00 0.05 0.06 0.21 0.47 0.18 0.30 0.54 0.98 1.55 0.94 0.75 0.19 0.04 0.06 0.03 0.03 0.02 0.08 0.10 0.07 0.07 0.03
0.08 0.09 0.11 0.12 0.13 0.15 0.13 0.08 0.07 0.04 0.02 0.03 0.03 0.02 0.02 0.02 0.01 0.00 0.00 0.00 0.00 0.00 0.00 0.00 0.01 0.03 0.13 0.19 0.13 0.21 0.60 0.71 0.91 1.11 0.59 0.35 0.18 0.05 0.10 0.07 0.01 0.00 0.00 0.02 0.05 0.09 0.05
0.08 0.08 0.09 0.09 0.12 0.14 0.12 0.07 0.07 0.05 0.03 0.02 0.02 0.01 0.02 0.02 0.00 0.00 0.00 0.00 0.00 0.00 0.01 0.02 0.01 0.04 0.18 0.23 0.38 0.59 0.62 0.52 0.97 1.19 0.59 0.36 0.07 0.05 0.08 0.04 0.00 0.00 0.00 0.00 0.01 0.09 0.04
0.12 0.14 0.15 0.16 0.17 0.17 0.16 0.12 0.10 0.07 0.04 0.01 0.00 0.01 0.02 0.01 0.00 0.00 0.00 0.00 0.00 0.00 0.02 0.01 0.02 0.05 0.09 0.14 0.25 0.58 0.48 0.41 0.64 0.92 0.47 0.29 0.08 0.08 0.09 0.04 0.01 0.00 0.00 0.01 0.01 0.02 0.01
0.15 0.18 0.22 0.25 0.27 0.24 0.22 0.19 0.14 0.11 0.05 0.00 0.00 0.01 0.02 0.00 0.00 0.00 0.00 0.00 0.00 0.00 0.00 0.01 0.12 0.31 0.28 0.12 0.08 0.37 0.48 0.43 0.38 0.42 0.19 0.11 0.07 0.11 0.11 0.00 0.00 0.00 0.00 0.01 0.01 0.01 0.00
0.19 0.23 0.24 0.23 0.22 0.23 0.26 0.25 0.19 0.14 0.05 0.00 0.00 0.01 0.00 0.00 0.00 0.00 0.00 0.00 0.00 0.00 0.00 0.01 0.11 0.15 0.08 0.05 0.06 0.32 0.35 0.33 0.33 0.66 0.34 0.20 0.06 0.02 0.02 0.01 0.00 0.00 0.00 0.02 0.02 0.01 0.00
0.21 0.22 0.23 0.28 0.28 0.26 0.28 0.29 0.17 0.08 0.04 0.01 0.00 0.00 0.00 0.00 0.00 0.00 0.00 0.00 0.00 0.00 0.00 0.01 0.01 0.02 0.02 0.02 0.05 0.10 0.22 0.14 0.04 0.09 0.07 0.16 0.18 0.07 0.02 0.01 0.01 0.01 0.01 0.01 0.01 0.00 0.00
0.26 0.27 0.30 0.32 0.36 0.33 0.36 0.37 0.23 0.09 0.05 0.01 0.00 0.00 0.00 0.00 0.00 0.00 0.00 0.00 0.00 0.00 0.00 0.00 0.01 0.03 0.02 0.01 0.01 0.05 0.12 0.05 0.01 0.01 0.04 0.02 0.04 0.02 0.03 0.00 0.06 0.04 0.01 0.00 0.00 0.00 0.00
0.31 0.34 0.36 0.39 0.42 0.43 0.45 0.47 0.31 0.13 0.07 0.02 0.00 0.00 0.00 0.00 0.00 0.00 0.00 0.00 0.00 0.00 0.00 0.00 0.01 0.01 0.01 0.01 0.01 0.03 0.09 0.03 0.00 0.00 0.00 0.00 0.02 0.03 0.04 0.02 0.05 0.10 0.01 0.02 0.00 0.00 0.00
0.32 0.36 0.41 0.45 0.47 0.51 0.57 0.58 0.33 0.18 0.12 0.04 0.00 0.00 0.00 0.00 0.00 0.02 0.00 0.00 0.00 0.00 0.00 0.00 0.00 0.01 0.00 0.01 0.01 0.00 0.02 0.03 0.00 0.00 0.00 0.00 0.00 0.05 0.07 0.05 0.03 0.04 0.09 0.01 0.01 0.00 0.00
0.39 0.47 0.53 0.54 0.56 0.60 0.62 0.62 0.42 0.18 0.09 0.05 0.00 0.01 0.01 0.00 0.02 0.01 0.00 0.00 0.00 0.00 0.00 0.00 0.00 0.00 0.00 0.00 0.01 0.01 0.01 0.02 0.00 0.00 0.00 0.00 0.00 0.03 0.03 0.00 0.01 0.01 0.01 0.02 0.02 0.01 0.00
0.39 0.46 0.56 0.55 0.60 0.57 0.50 0.51 0.45 0.22 0.07 0.03 0.00 0.00 0.01 0.00 0.01 0.00 0.00 0.00 0.00 0.00 0.00 0.00 0.00 0.00 0.00 0.01 0.01 0.00 0.00 0.00 0.00 0.00 0.00 0.00 0.01 0.04 0.07 0.04 0.01 0.03 0.01 0.01 0.01 0.03 0.02
0.51 0.55 0.66 0.67 0.75 0.74 0.60 0.44 0.39 0.20 0.05 0.02 0.00 0.00 0.03 0.02 0.01 0.00 0.00 0.00 0.00 0.00 0.00 0.00 0.00 0.00 0.00 0.00 0.00 0.00 0.00 0.00 0.00 0.00 0.00 0.00 0.00 0.00 0.01 0.01 0.00 0.00 0.00 0.00 0.02 0.07 0.02
0.47 0.61 0.73 0.80 0.85 0.94 0.84 0.51 0.32 0.14 0.03 0.02 0.00 0.00 0.00 0.01 0.00 0.00 0.00 0.00 0.00 0.00 0.00 0.00 0.00 0.00 0.00 0.01 0.00 0.00 0.00 0.00 0.01 0.00 0.00 0.00 0.00 0.00 0.00 0.00 0.00 0.00 0.00 0.00 0.02 0.01 0.01
0.51 0.56 0.66 0.64 0.71 0.68 0.67 0.56 0.31 0.10 0.03 0.02 0.00 0.00 0.00 0.00 0.00 0.00 0.00 0.00 0.00 0.01 0.00 0.00 0.00 0.00 0.00 0.01 0.01 0.01 0.00 0.00 0.01 0.00 0.00 0.00 0.00 0.00 0.00 0.00 0.00 0.00 0.00 0.00 0.00 0.00 0.00
0.50 0.54 0.59 0.65 0.66 0.56 0.53 0.47 0.30 0.08 0.03 0.01 0.00 0.00 0.00 0.00 0.00 0.00 0.00 0.00 0.00 0.01 0.01 0.00 0.00 0.00 0.00 0.00 0.00 0.00 0.00 0.00 0.00 0.00 0.00 0.01 0.00 0.00 0.01 0.00 0.00 0.00 0.00 0.00 0.00 0.00 0.00
0.75 0.90 1.10 1.33 1.32 1.11 0.89 0.55 0.28 0.09 0.02 0.00 0.00 0.00 0.00 0.00 0.00 0.00 0.00 0.00 0.00 0.00 0.02 0.00 0.00 0.00 0.00 0.00 0.00 0.00 0.00 0.00 0.00 0.00 0.00 0.02 0.01 0.00 0.01 0.00 0.00 0.00 0.00 0.00 0.00 0.00 0.00
0.78 0.81 0.94 1.02 1.02 0.92 0.95 0.73 0.35 0.11 0.01 0.00 0.00 0.00 0.00 0.00 0.00 0.00 0.00 0.00 0.00 0.00 0.01 0.02 0.03 0.00 0.00 0.00 0.00 0.01 0.00 0.00 0.00 0.00 0.00 0.01 0.02 0.01 0.01 0.00 0.00 0.00 0.00 0.00 0.00 0.00 0.00
0.51 0.52 0.51 0.55 0.58 0.52 0.48 0.40 0.27 0.10 0.01 0.00 0.00 0.00 0.00 0.00 0.00 0.00 0.00 0.00 0.00 0.00 0.00 0.00 0.02 0.02 0.00 0.01 0.04 0.02 0.02 0.01 0.00 0.00 0.00 0.00 0.01 0.01 0.00 0.00 0.00 0.00 0.00 0.00 0.00 0.00 0.00
0.44 0.41 0.38 0.42 0.47 0.45 0.39 0.24 0.15 0.07 0.01 0.00 0.00 0.00 0.00 0.00 0.00 0.00 0.00 0.00 0.00 0.00 0.00 0.00 0.01 0.04 0.03 0.03 0.05 0.03 0.01 0.00 0.00 0.00 0.00 0.02 0.02 0.03 0.02 0.02 0.00 0.00 0.00 0.00 0.00 0.00 0.00
0.96 0.81 0.84 0.79 0.72 0.59 0.43 0.23 0.09 0.08 0.03 0.00 0.00 0.00 0.00 0.00 0.00 0.00 0.00 0.00 0.00 0.00 0.00 0.01 0.05 0.04 0.15 0.05 0.04 0.02 0.01 0.00 0.00 0.00 0.00 0.01 0.03 0.03 0.04 0.06 0.01 0.00 0.00 0.00 0.00 0.00 0.00
0.96 1.06 1.26 1.29 1.14 0.85 0.49 0.21 0.09 0.13 0.03 0.00 0.00 0.00 0.00 0.00 0.00 0.00 0.00 0.00 0.00 0.00 0.00 0.00 0.08 0.08 0.06 0.18 0.06 0.00 0.00 0.00 0.00 0.00 0.00 0.00 0.00 0.01 0.00 0.00 0.00 0.00 0.00 0.00 0.00 0.00 0.00

GFSGBSN_prec_precacc24_078.txt.gz
Total_Precipitation_Accumulation
0.08 0.08 0.05 0.03 0.04 0.04 0.04 0.05 0.02 0.02 0.02 0.04 0.05 0.04 0.04 0.04 0.03 0.02 0.02 0.02 0.01 0.01 0.01 0.01 0.01 0.01 0.00 0.01 0.02 0.02 0.02 0.20 0.35 0.38 0.36 0.38 0.36 0.27 0.18 0.10 0.54 0.71 0.35 0.25 0.33 0.16 0.07
0.11 0.11 0.09 0.08 0.08 0.06 0.06 0.08 0.04 0.01 0.02 0.04 0.04 0.04 0.04 0.03 0.02 0.02 0.02 0.01 0.01 0.02 0.01 0.01 0.02 0.01 0.00 0.00 0.00 0.01 0.01 0.04 0.22 0.41 0.47 0.33 0.42 0.26 0.23 0.11 0.33 0.57 0.46 0.43 0.81 0.34 0.15
0.11 0.12 0.12 0.09 0.09 0.08 0.07 0.06 0.05 0.02 0.02 0.03 0.04 0.04 0.03 0.02 0.02 0.02 0.01 0.01 0.01 0.01 0.01 0.02 0.05 0.01 0.00 0.00 0.00 0.05 0.02 0.01 0.08 0.30 0.63 0.45 0.27 0.27 0.29 0.15 0.19 0.46 0.61 0.76 1.06 0.87 0.22
0.13 0.14 0.12 0.12 0.10 0.06 0.04 0.05 0.10 0.04 0.03 0.03 0.04 0.03 0.03 0.02 0.02 0.02 0.01 0.00 0.00 0.00 0.00 0.01 0.10 0.01 0.00 0.00 0.00 0.15 0.07 0.05 0.10 0.31 0.61 0.60 0.28 0.22 0.26 0.16 0.27 0.39 0.82 0.78 1.09 1.23 0.61
0.17 0.15 0.14 0.08 0.05 0.05 0.06 0.08 0.07 0.04 0.06 0.03 0.03 0.04 0.03 0.02 0.02 0.01 0.00 0.00 0.00 0.00 0.00 0.00 0.00 0.01 0.01 0.03 0.10 0.43 0.15 0.11 0.18 0.41 0.64 0.82 0.37 0.25 0.32 0.26 0.19 0.28 0.43 0.51 0.65 0.90 0.89
0.15 0.10 0.05 0.04 0.06 0.06 0.09 0.11 0.09 0.09 0.07 0.04 0.03 0.04 0.02 0.02 0.02 0.01 0.00 0.00 0.00 0.00 0.00 0.00 0.00 0.03 0.04 0.42 0.44 0.57 0.11 0.07 0.31 0.65 1.16 1.48 0.59 0.25 0.39 0.31 0.09 0.21 0.09 0.11 0.43 0.55 0.75
0.07 0.07 0.06 0.04 0.06 0.09 0.12 0.13 0.14 0.10 0.09 0.07 0.04 0.03 0.02 0.02 0.02 0.01 0.00 0.00 0.00 0.00 0.00 0.00 0.01 0.03 0.11 0.50 0.85 0.42 0.07 0.17 0.50 0.89 1.38 1.42 0.55 0.14 0.15 0.09 0.02 0.03 0.05 0.01 0.12 0.31 0.42
0.08 0.07 0.07 0.08 0.12 0.15 0.13 0.13 0.16 0.17 0.12 0.08 0.05 0.02 0.02 0.02 0.01 0.01 0.00 0.00 0.00 0.00 0.00 0.00 0.00 0.05 0.06 0.21 0.47 0.17 0.20 0.37 0.63 0.94 0.86 0.73 0.20 0.06 0.15 0.11 0.05 0.03 0.10 0.12 0.12 0.16 0.25
0.08 0.09 0.12 0.13 0.13 0.15 0.17 0.16 0.16 0.19 0.12 0.08 0.05 0.02 0.02 0.02 0.01 0.00 0.00 0.00 0.00 0.00 0.00 0.00 0.00 0.03 0.09 0.17 0.12 0.16 0.46 0.70 0.69 0.82 0.54 0.34 0.26 0.10 0.22 0.24 0.04 0.01 0.02 0.05 0.11 0.13 0.12
0.08 0.09 0.10 0.10 0.12 0.15 0.14 0.15 0.19 0.21 0.17 0.11 0.05 0.01 0.02 0.02 0.00 0.00 0.00 0.00 0.00 0.00 0.00 0.01 0.00 0.02 0.15 0.15 0.23 0.31 0.49 0.49 0.72 1.00 0.55 0.39 0.24 0.09 0.12 0.12 0.01 0.01 0.01 0.02 0.07 0.23 0.09
0.12 0.14 0.16 0.17 0.18 0.18 0.18 0.19 0.22 0.21 0.15 0.09 0.04 0.01 0.02 0.01 0.00 0.00 0.00 0.00 0.00 0.00 0.02 0.01 0.00 0.01 0.05 0.09 0.17 0.49 0.49 0.45 0.57 0.82 0.48 0.41 0.19 0.09 0.13 0.09 0.01 0.01 0.00 0.01 0.01 0.07 0.02
0.16 0.19 0.22 0.26 0.28 0.25 0.23 0.23 0.23 0.22 0.15 0.10 0.04 0.01 0.02 0.00 0.00 0.00 0.00 0.00 0.00 0.00 0.00 0.01 0.07 0.02 0.02 0.04 0.05 0.35 0.44 0.38 0.35 0.47 0.32 0.17 0.08 0.11 0.12 0.00 0.00 0.01 0.01 0.05 0.02 0.01 0.00
0.21 0.25 0.25 0.25 0.22 0.23 0.27 0.29 0.30 0.27 0.20 0.09 0.02 0.01 0.00 0.00 0.00 0.00 0.00 0.00 0.00 0.00 0.00 0.01 0.07 0.06 0.03 0.03 0.06 0.32 0.32 0.33 0.32 0.70 0.44 0.21 0.06 0.02 0.02 0.01 0.01 0.01 0.02 0.12 0.06 0.02 0.00
0.23 0.24 0.26 0.29 0.29 0.28 0.30 0.33 0.29 0.25 0.21 0.11 0.03 0.00 0.00 0.00 0.00 0.00 0.00 0.00 0.00 0.00 0.00 0.00 0.01 0.02 0.02 0.02 0.05 0.10 0.22 0.14 0.04 0.09 0.08 0.17 0.20 0.07 0.02 0.01 0.01 0.01 0.01 0.00 0.00 0.00 0.00
0.28 0.29 0.31 0.34 0.42 0.41 0.41 0.43 0.38 0.31 0.22 0.12 0.04 0.00 0.00 0.00 0.00 0.00 0.00 0.00 0.00 0.00 0.00 0.00 0.01 0.02 0.02 0.01 0.01 0.03 0.11 0.05 0.01 0.01 0.04 0.02 0.04 0.01 0.03 0.00 0.00 0.01 0.01 0.00 0.00 0.00 0.00
0.31 0.35 0.36 0.41 0.47 0.48 0.49 0.54 0.48 0.33 0.21 0.11 0.05 0.02 0.01 0.00 0.00 0.00 0.00 0.00 0.00 0.00 0.00 0.00 0.01 0.01 0.01 0.01 0.01 0.02 0.05 0.02 0.00 0.00 0.00 0.00 0.02 0.01 0.03 0.01 0.01 0.00 0.00 0.01 0.00 0.00 0.00
0.33 0.36 0.42 0.46 0.49 0.52 0.60 0.75 0.93 0.78 0.37 0.17 0.10 0.05 0.03 0.00 0.00 0.02 0.01 0.00 0.00 0.00 0.00 0.00 0.00 0.01 0.01 0.00 0.00 0.00 0.02 0.03 0.00 0.00 0.00 0.00 0.00 0.04 0.04 0.03 0.03 0.01 0.03 0.01 0.01 0.00 0.00
0.39 0.47 0.54 0.55 0.57 0.61 0.65 0.74 0.78 0.76 0.47 0.30 0.13 0.07 0.03 0.00 0.02 0.02 0.00 0.00 0.00 0.00 0.00 0.00 0.00 0.00 0.00 0.00 0.01 0.01 0.01 0.02 0.00 0.00 0.00 0.00 0.00 0.03 0.03 0.00 0.01 0.01 0.01 0.01 0.02 0.01 0.00
0.39 0.46 0.56 0.56 0.61 0.58 0.53 0.53 0.54 0.54 0.28 0.19 0.15 0.11 0.04 0.01 0.01 0.00 0.00 0.00 0.00 0.00 0.00 0.00 0.00 0.00 0.00 0.01 0.01 0.01 0.00 0.00 0.00 0.00 0.00 0.00 0.01 0.04 0.07 0.04 0.01 0.02 0.00 0.00 0.00 0.03 0.02
0.52 0.55 0.66 0.68 0.76 0.76 0.69 0.61 0.47 0.35 0.20 0.16 0.13 0.08 0.07 0.03 0.01 0.00 0.00 0.00 0.00 0.00 0.00 0.00 0.00 0.00 0.00 0.00 0.00 0.00 0.00 0.00 0.00 0.00 0.00 0.00 0.00 0.00 0.01 0.01 0.00 0.00 0.00 0.00 0.01 0.07 0.02
0.48 0.62 0.74 0.82 0.87 0.98 0.99 1.03 0.84 0.49 0.19 0.18 0.09 0.03 0.01 0.01 0.00 0.00 0.00 0.00 0.00 0.00 0.00 0.00 0.00 0.00 0.00 0.01 0.00 0.00 0.00 0.01 0.01 0.00 0.00 0.00 0.00 0.00 0.00 0.00 0.00 0.00 0.00 0.00 0.01 0.01 0.01
0.53 0.58 0.67 0.65 0.74 0.76 0.80 0.83 0.80 0.58 0.29 0.25 0.11 0.02 0.00 0.00 0.00 0.00 0.00 0.00 0.01 0.01 0.00 0.00 0.00 0.00 0.00 0.01 0.01 0.01 0.00 0.00 0.01 0.00 0.00 0.00 0.00 0.00 0.00 0.00 0.00 0.00 0.00 0.00 0.00 0.00 0.00
0.53 0.56 0.61 0.66 0.72 0.76 0.76 0.64 0.55 0.37 0.30 0.23 0.11 0.02 0.00 0.00 0.00 0.00 0.00 0.00 0.00 0.01 0.01 0.00 0.00 0.00 0.00 0.00 0.00 0.00 0.00 0.00 0.00 0.00 0.00 0.01 0.00 0.00 0.01 0.00 0.00 0.00 0.00 0.00 0.00 0.00 0.00
0.77 0.92 1.13 1.36 1.45 1.49 1.64 1.26 0.64 0.26 0.27 0.21 0.09 0.00 0.00 0.00 0.00 0.00 0.00 0.00 0.00 0.00 0.02 0.00 0.00 0.00 0.00 0.00 0.00 0.00 0.00 0.00 0.00 0.00 0.00 0.02 0.01 0.00 0.01 0.00 0.00 0.00 0.00 0.00 0.00 0.00 0.00
0.80 0.84 0.97 1.07 1.13 1.15 1.25 1.24 1.06 0.48 0.30 0.13 0.01 0.00 0.00 0.00 0.00 0.00 0.00 0.00 0.00 0.00 0.01 0.02 0.03 0.00 0.00 0.00 0.00 0.01 0.01 0.00 0.00 0.00 0.00 0.01 0.02 0.02 0.01 0.00 0.00 0.00 0.00 0.00 0.00 0.00 0.00
0.54 0.56 0.54 0.57 0.62 0.62 0.55 0.47 0.53 0.35 0.18 0.04 0.00 0.00 0.00 0.00 0.00 0.00 0.00 0.00 0.00 0.00 0.00 0.00 0.02 0.02 0.00 0.01 0.03 0.02 0.02 0.01 0.00 0.00 0.00 0.00 0.01 0.01 0.01 0.00 0.00 0.00 0.00 0.00 0.00 0.00 0.00
0.47 0.43 0.39 0.45 0.56 0.59 0.49 0.29 0.22 0.16 0.10 0.01 0.00 0.00 0.00 0.00 0.00 0.00 0.00 0.00 0.00 0.00 0.00 0.00 0.01 0.04 0.03 0.03 0.05 0.03 0.01 0.00 0.00 0.00 0.00 0.02 0.02 0.03 0.02 0.01 0.00 0.00 0.00 0.00 0.00 0.00 0.00
0.98 0.83 0.85 0.85 0.96 0.92 0.71 0.43 0.26 0.18 0.08 0.00 0.00 0.00 0.00 0.00 0.00 0.00 0.00 0.00 0.00 0.00 0.00 0.00 0.04 0.04 0.15 0.05 0.04 0.02 0.01 0.00 0.00 0.00 0.00 0.01 0.03 0.03 0.03 0.06 0.01 0.00 0.00 0.00 0.00 0.00 0.00
0.98 1.07 1.27 1.37 1.32 1.30 1.00 0.54 0.33 0.25 0.09 0.01 0.00 0.00 0.00 0.00 0.00 0.00 0.00 0.00 0.00 0.00 0.00 0.00 0.07 0.08 0.06 0.17 0.06 0.00 0.00 0.00 0.00 0.00 0.00 0.00 0.00 0.01 0.00 0.00 0.00 0.00 0.00 0.00 0.00 0.00 0.00

GFSGBSN_prec_precacc24_084.txt.gz
Total_Precipitation_Accumulation
0.09 0.10 0.06 0.06 0.08 0.08 0.08 0.11 0.13 0.11 0.08 0.09 0.11 0.11 0.06 0.04 0.04 0.03 0.03 0.03 0.02 0.02 0.03 0.04 0.03 0.02 0.00 0.00 0.00 0.00 0.01 0.16 0.33 0.31 0.24 0.39 0.49 0.36 0.32 0.13 0.62 0.77 0.45 0.36 0.49 0.46 0.23
0.11 0.11 0.09 0.09 0.10 0.09 0.09 0.14 0.10 0.07 0.12 0.13 0.14 0.10 0.08 0.08 0.06 0.03 0.02 0.02 0.02 0.03 0.03 0.03 0.04 0.03 0.00 0.00 0.00 0.00 0.00 0.04 0.22 0.29 0.31 0.39 0.62 0.42 0.32 0.19 0.37 0.62 0.60 0.51 0.90 0.60 0.47
0.11 0.12 0.12 0.10 0.09 0.09 0.09 0.08 0.08 0.13 0.16 0.17 0.15 0.12 0.09 0.07 0.08 0.05 0.02 0.01 0.01 0.02 0.02 0.01 0.05 0.05 0.00 0.00 0.00 0.00 0.00 0.00 0.08 0.20 0.43 0.48 0.57 0.61 0.52 0.24 0.20 0.51 0.75 0.99 1.18 1.09 0.63
0.13 0.15 0.13 0.12 0.11 0.07 0.04 0.06 0.13 0.15 0.16 0.19 0.17 0.09 0.08 0.10 0.09 0.07 0.02 0.01 0.01 0.01 0.01 0.01 0.04 0.02 0.01 0.00 0.00 0.00 0.00 0.00 0.07 0.17 0.36 0.51 0.43 0.34 0.51 0.35 0.36 0.50 1.11 1.03 1.37 1.51 0.90
0.18 0.15 0.15 0.09 0.07 0.06 0.06 0.10 0.14 0.14 0.17 0.21 0.16 0.11 0.13 0.10 0.10 0.06 0.01 0.00 0.00 0.00 0.00 0.01 0.01 0.01 0.01 0.03 0.04 0.07 0.04 0.01 0.09 0.21 0.31 0.59 0.41 0.49 0.61 0.44 0.32 0.40 0.79 0.77 0.89 1.19 1.27
0.15 0.11 0.06 0.07 0.09 0.08 0.10 0.13 0.17 0.18 0.20 0.17 0.15 0.14 0.13 0.14 0.06 0.02 0.00 0.00 0.00 0.00 0.00 0.00 0.00 0.03 0.04 0.40 0.34 0.35 0.08 0.02 0.20 0.39 0.55 1.15 0.55 0.55 0.76 0.43 0.18 0.25 0.29 0.43 0.59 0.81 1.20
0.08 0.08 0.08 0.07 0.09 0.11 0.14 0.15 0.15 0.15 0.17 0.18 0.17 0.17 0.13 0.09 0.04 0.03 0.01 0.00 0.00 0.00 0.00 0.00 0.01 0.03 0.11 0.49 0.78 0.35 0.06 0.11 0.31 0.42 0.60 1.14 0.56 0.24 0.42 0.30 0.07 0.05 0.07 0.38 0.37 0.47 0.75
0.08 0.07 0.09 0.10 0.14 0.17 0.15 0.15 0.17 0.21 0.23 0.19 0.15 0.15 0.12 0.08 0.06 0.03 0.01 0.00 0.00 0.00 0.00 0.00 0.00 0.05 0.06 0.21 0.45 0.16 0.15 0.19 0.31 0.41 0.49 0.65 0.20 0.07 0.19 0.25 0.15 0.06 0.12 0.27 0.47 0.34 0.44
0.09 0.10 0.13 0.15 0.15 0.17 0.19 0.17 0.17 0.20 0.19 0.18 0.17 0.24 0.20 0.10 0.04 0.01 0.00 0.00 0.00 0.00 0.00 0.00 0.00 0.03 0.08 0.16 0.12 0.19 0.34 0.43 0.42 0.34 0.39 0.33 0.26 0.10 0.23 0.30 0.18 0.03 0.02 0.07 0.17 0.34 0.31
0.08 0.09 0.11 0.11 0.14 0.16 0.15 0.16 0.21 0.23 0.23 0.21 0.20 0.25 0.20 0.07 0.01 0.00 0.00 0.00 0.00 0.00 0.00 0.01 0.00 0.02 0.14 0.14 0.22 0.27 0.26 0.27 0.45 0.65 0.44 0.37 0.28 0.10 0.26 0.22 0.16 0.06 0.02 0.02 0.11 0.37 0.32
0.12 0.14 0.16 0.18 0.19 0.18 0.18 0.20 0.23 0.22 0.17 0.14 0.17 0.20 0.18 0.06 0.02 0.01 0.00 0.00 0.00 0.00 0.01 0.00 0.00 0.01 0.05 0.06 0.12 0.20 0.23 0.33 0.39 0.37 0.31 0.46 0.26 0.11 0.30 0.19 0.10 0.02 0.00 0.02 0.05 0.23 0.17
0.16 0.20 0.23 0.26 0.28 0.25 0.23 0.24 0.24 0.23 0.17 0.15 0.17 0.16 0.18 0.05 0.01 0.00 0.00 0.00 0.00 0.00 0.00 0.00 0.00 0.00 0.02 0.02 0.01 0.04 0.09 0.07 0.17 0.33 0.49 0.34 0.14 0.22 0.25 0.06 0.02 0.01 0.03 0.10 0.07 0.09 0.17
0.22 0.26 0.26 0.25 0.23 0.23 0.28 0.30 0.31 0.28 0.23 0.16 0.14 0.22 0.24 0.04 0.01 0.00 0.00 0.00 0.00 0.00 0.00 0.00 0.01 0.00 0.01 0.01 0.01 0.02 0.03 0.04 0.09 0.67 0.65 0.41 0.16 0.04 0.04 0.03 0.02 0.01 0.04 0.34 0.25 0.07 0.05
0.24 0.25 0.27 0.29 0.30 0.30 0.31 0.34 0.30 0.26 0.27 0.24 0.25 0.24 0.15 0.04 0.01 0.00 0.00 0.00 0.00 0.00 0.00 0.00 0.00 0.01 0.01 0.01 0.02 0.03 0.06 0.02 0.02 0.10 0.08 0.19 0.24 0.09 0.04 0.02 0.07 0.03 0.04 0.05 0.04 0.00 0.00
0.29 0.30 0.31 0.35 0.43 0.43 0.43 0.44 0.39 0.33 0.30 0.33 0.28 0.15 0.09 0.05 0.03 0.02 0.01 0.01 0.00 0.00 0.00 0.00 0.01 0.02 0.02 0.01 0.01 0.03 0.06 0.02 0.00 0.01 0.04 0.02 0.08 0.03 0.05 0.00 0.03 0.08 0.02 0.00 0.00 0.00 0.00
0.32 0.37 0.38 0.42 0.49 0.50 0.51 0.54 0.52 0.53 0.55 0.51 0.38 0.21 0.13 0.05 0.06 0.06 0.06 0.01 0.00 0.00 0.00 0.00 0.01 0.01 0.01 0.01 0.01 0.02 0.04 0.02 0.00 0.00 0.00 0.00 0.02 0.01 0.03 0.05 0.05 0.01 0.00 0.00 0.00 0.00 0.00
0.34 0.38 0.44 0.49 0.53 0.55 0.63 0.77 0.99 1.16 1.14 0.83 0.72 0.44 0.18 0.11 0.14 0.15 0.07 0.00 0.00 0.00 0.00 0.00 0.00 0.01 0.01 0.00 0.00 0.00 0.02 0.03 0.00 0.00 0.00 0.00 0.00 0.02 0.02 0.07 0.04 0.01 0.00 0.00 0.00 0.00 0.00
0.41 0.49 0.57 0.60 0.62 0.64 0.70 0.77 0.83 0.94 0.95 0.94 0.91 0.51 0.23 0.22 0.22 0.10 0.01 0.00 0.00 0.00 0.00 0.00 0.00 0.00 0.00 0.00 0.01 0.01 0.01 0.02 0.00 0.00 0.00 0.00 0.00 0.02 0.01 0.00 0.01 0.01 0.01 0.01 0.00 0.00 0.00
0.41 0.49 0.61 0.63 0.66 0.62 0.57 0.57 0.59 0.66 0.57 0.71 0.65 0.52 0.49 0.34 0.17 0.03 0.01 0.00 0.00 0.00 0.00 0.00 0.00 0.00 0.00 0.01 0.01 0.01 0.00 0.00 0.00 0.00 0.00 0.00 0.00 0.01 0.04 0.02 0.00 0.00 0.00 0.00 0.00 0.01 0.01
0.56 0.60 0.74 0.78 0.82 0.81 0.73 0.65 0.53 0.42 0.43 0.68 0.55 0.43 0.54 0.41 0.11 0.03 0.05 0.02 0.00 0.00 0.00 0.00 0.00 0.00 0.00 0.00 0.00 0.00 0.00 0.00 0.00 0.00 0.00 0.00 0.00 0.00 0.01 0.00 0.00 0.00 0.00 0.00 0.01 0.02 0.01
0.53 0.69 0.83 0.89 0.92 1.03 1.04 1.09 0.93 0.62 0.50 0.92 0.53 0.26 0.15 0.17 0.07 0.07 0.05 0.01 0.00 0.00 0.00 0.00 0.00 0.00 0.00 0.01 0.00 0.00 0.00 0.01 0.01 0.00 0.00 0.00 0.00 0.00 0.00 0.00 0.00 0.00 0.00 0.00 0.00 0.00 0.00
0.58 0.64 0.75 0.72 0.79 0.83 0.87 0.90 0.92 0.86 0.81 0.90 0.42 0.22 0.20 0.14 0.11 0.09 0.02 0.00 0.01 0.01 0.00 0.00 0.00 0.00 0.00 0.01 0.01 0.01 0.00 0.00 0.01 0.00 0.00 0.00 0.00 0.00 0.00 0.00 0.00 0.00 0.00 0.00 0.00 0.00 0.00
0.58 0.62 0.67 0.73 0.78 0.82 0.86 0.75 0.74 0.67 0.89 0.77 0.45 0.32 0.21 0.15 0.06 0.02 0.00 0.00 0.00 0.01 0.01 0.00 0.00 0.00 0.00 0.00 0.00 0.00 0.00 0.00 0.00 0.00 0.00 0.01 0.00 0.00 0.01 0.00 0.00 0.00 0.00 0.00 0.00 0.00 0.00
0.83 0.98 1.19 1.42 1.51 1.57 1.80 1.46 0.93 0.62 0.78 0.63 0.39 0.24 0.11 0.06 0.01 0.00 0.00 0.00 0.00 0.00 0.02 0.00 0.00 0.00 0.00 0.00 0.00 0.00 0.00 0.00 0.00 0.00 0.00 0.02 0.01 0.00 0.01 0.00 0.00 0.00 0.00 0.00 0.00 0.00 0.00
0.86 0.90 1.02 1.12 1.19 1.25 1.38 1.35 1.30 1.06 0.77 0.47 0.27 0.11 0.04 0.01 0.00 0.00 0.00 0.00 0.00 0.00 0.01 0.02 0.03 0.00 0.00 0.00 0.01 0.01 0.02 0.01 0.00 0.00 0.00 0.01 0.02 0.02 0.01 0.00 0.00 0.00 0.00 0.00 0.00 0.00 0.00
0.60 0.60 0.58 0.61 0.68 0.73 0.67 0.56 0.66 0.63 0.59 0.25 0.10 0.02 0.00 0.00 0.00 0.00 0.00 0.00 0.00 0.00 0.00 0.00 0.02 0.02 0.00 0.01 0.03 0.02 0.03 0.01 0.00 0.00 0.00 0.00 0.01 0.01 0.01 0.00 0.00 0.00 0.00 0.00 0.00 0.00 0.00
0.51 0.46 0.42 0.49 0.60 0.66 0.57 0.45 0.40 0.39 0.28 0.10 0.04 0.00 0.00 0.00 0.00 0.00 0.00 0.00 0.00 0.00 0.00 0.00 0.00 0.04 0.03 0.03 0.05 0.03 0.01 0.00 0.00 0.00 0.00 0.02 0.02 0.03 0.02 0.01 0.00 0.00 0.00 0.00 0.00 0.00 0.00
1.01 0.85 0.88 0.88 0.99 0.95 0.74 0.58 0.50 0.35 0.21 0.05 0.02 0.00 0.00 0.00 0.00 0.00 0.00 0.00 0.00 0.00 0.00 0.00 0.00 0.02 0.14 0.05 0.04 0.02 0.01 0.00 0.00 0.00 0.00 0.01 0.02 0.03 0.03 0.05 0.01 0.00 0.00 0.00 0.00 0.00 0.00
1.00 1.09 1.30 1.40 1.35 1.33 1.03 0.68 0.54 0.38 0.15 0.02 0.01 0.00 0.00 0.00 0.00 0.00 0.00 0.00 0.00 0.00 0.00 0.00 0.00 0.02 0.05 0.16 0.05 0.00 0.00 0.00 0.00 0.00 0.00 0.00 0.00 0.01 0.00 0.00 0.00 0.00 0.00 0.00 0.00 0.00 0.00

GFSGBSN_prec_precacc24_087.txt.gz
Total_Precipitation_Accumulation
0.09 0.10 0.07 0.07 0.09 0.09 0.09 0.11 0.13 0.12 0.09 0.09 0.11 0.15 0.13 0.09 0.08 0.06 0.04 0.03 0.02 0.03 0.04 0.05 0.05 0.06 0.00 0.00 0.00 0.00 0.00 0.14 0.31 0.24 0.22 0.35 0.50 0.38 0.33 0.14 0.62 0.78 0.52 0.42 0.54 0.47 0.23
0.11 0.12 0.10 0.10 0.10 0.10 0.10 0.14 0.10 0.08 0.12 0.14 0.17 0.17 0.16 0.13 0.08 0.05 0.05 0.03 0.02 0.03 0.03 0.04 0.06 0.07 0.00 0.00 0.00 0.00 0.00 0.04 0.21 0.27 0.30 0.35 0.63 0.45 0.36 0.21 0.39 0.63 0.61 0.55 0.93 0.62 0.49
0.11 0.13 0.13 0.10 0.10 0.10 0.09 0.08 0.08 0.13 0.17 0.18 0.16 0.13 0.10 0.10 0.11 0.08 0.04 0.02 0.02 0.02 0.03 0.02 0.04 0.07 0.00 0.00 0.00 0.00 0.00 0.00 0.08 0.20 0.43 0.46 0.59 0.72 0.63 0.27 0.21 0.55 0.81 1.05 1.25 1.10 0.66
0.13 0.15 0.13 0.13 0.12 0.08 0.05 0.07 0.14 0.15 0.16 0.20 0.18 0.10 0.08 0.12 0.12 0.09 0.04 0.01 0.01 0.01 0.01 0.01 0.03 0.03 0.01 0.00 0.00 0.00 0.00 0.00 0.07 0.17 0.35 0.46 0.43 0.42 0.76 0.42 0.42 0.53 1.23 1.09 1.41 1.55 0.92
0.18 0.15 0.15 0.10 0.08 0.08 0.07 0.12 0.14 0.15 0.17 0.21 0.16 0.11 0.14 0.14 0.12 0.07 0.01 0.00 0.00 0.00 0.01 0.02 0.02 0.01 0.01 0.02 0.04 0.02 0.01 0.01 0.05 0.20 0.29 0.51 0.40 0.54 0.74 0.57 0.39 0.47 0.91 0.82 0.91 1.24 1.29
0.15 0.11 0.07 0.08 0.10 0.09 0.12 0.15 0.17 0.18 0.20 0.17 0.15 0.14 0.14 0.16 0.10 0.03 0.01 0.00 0.00 0.00 0.01 0.01 0.01 0.04 0.04 0.38 0.31 0.06 0.01 0.01 0.15 0.35 0.49 0.81 0.52 0.60 0.77 0.55 0.28 0.27 0.32 0.44 0.60 0.83 1.20
0.08 0.08 0.09 0.08 0.10 0.12 0.15 0.16 0.16 0.16 0.17 0.18 0.16 0.16 0.15 0.14 0.07 0.04 0.01 0.01 0.00 0.00 0.00 0.00 0.01 0.03 0.11 0.49 0.69 0.20 0.02 0.03 0.21 0.41 0.47 0.84 0.54 0.40 0.59 0.34 0.15 0.06 0.09 0.38 0.39 0.49 0.77
0.08 0.08 0.10 0.11 0.15 0.18 0.16 0.15 0.18 0.22 0.23 0.19 0.14 0.14 0.18 0.25 0.12 0.04 0.02 0.00 0.00 0.00 0.00 0.00 0.00 0.05 0.05 0.20 0.43 0.15 0.09 0.13 0.25 0.33 0.28 0.49 0.19 0.09 0.37 0.37 0.20 0.08 0.12 0.28 0.49 0.38 0.53
0.09 0.10 0.14 0.15 0.15 0.17 0.19 0.17 0.18 0.21 0.20 0.18 0.17 0.24 0.28 0.23 0.10 0.03 0.00 0.00 0.00 0.00 0.00 0.00 0.00 0.03 0.08 0.15 0.11 0.18 0.31 0.38 0.27 0.17 0.23 0.31 0.25 0.11 0.27 0.42 0.18 0.04 0.02 0.07 0.18 0.37 0.37
0.08 0.09 0.11 0.11 0.14 0.16 0.15 0.16 0.21 0.23 0.23 0.21 0.20 0.25 0.23 0.16 0.03 0.00 0.00 0.00 0.00 0.00 0.00 0.01 0.00 0.02 0.14 0.14 0.22 0.27 0.26 0.21 0.25 0.33 0.27 0.34 0.29 0.10 0.26 0.23 0.18 0.06 0.02 0.02 0.11 0.37 0.38
0.12 0.14 0.16 0.18 0.19 0.18 0.18 0.20 0.23 0.22 0.17 0.14 0.17 0.20 0.18 0.10 0.03 0.02 0.01 0.00 0.00 0.00 0.02 0.00 0.00 0.01 0.05 0.06 0.12 0.20 0.24 0.32 0.24 0.11 0.23 0.44 0.27 0.11 0.28 0.18 0.19 0.03 0.00 0.02 0.05 0.23 0.18
0.16 0.20 0.23 0.27 0.29 0.26 0.24 0.25 0.25 0.23 0.16 0.15 0.17 0.16 0.20 0.15 0.03 0.02 0.00 0.00 0.00 0.01 0.01 0.00 0.00 0.00 0.02 0.02 0.01 0.03 0.07 0.11 0.18 0.25 0.59 0.36 0.16 0.24 0.26 0.07 0.04 0.02 0.03 0.10 0.07 0.09 0.18
0.22 0.26 0.27 0.26 0.23 0.24 0.30 0.33 0.33 0.27 0.22 0.16 0.15 0.22 0.27 0.16 0.05 0.05 0.01 0.00 0.01 0.01 0.00 0.00 0.01 0.00 0.01 0.01 0.00 0.01 0.01 0.03 0.17 0.59 0.68 0.47 0.31 0.16 0.06 0.04 0.05 0.02 0.04 0.34 0.25 0.08 0.08
0.25 0.25 0.27 0.30 0.30 0.31 0.35 0.39 0.31 0.27 0.27 0.25 0.26 0.24 0.15 0.05 0.03 0.06 0.04 0.02 0.01 0.00 0.00 0.00 0.00 0.01 0.01 0.01 0.02 0.00 0.01 0.01 0.08 0.18 0.12 0.20 0.26 0.14 0.07 0.04 0.11 0.04 0.04 0.05 0.04 0.01 0.01
0.30 0.30 0.33 0.36 0.44 0.46 0.49 0.48 0.40 0.34 0.32 0.38 0.36 0.22 0.12 0.05 0.04 0.08 0.08 0.06 0.00 0.01 0.00 0.00 0.01 0.01 0.02 0.01 0.01 0.01 0.01 0.00 0.00 0.00 0.04 0.02 0.12 0.06 0.06 0.01 0.03 0.08 0.02 0.00 0.00 0.00 0.00
0.33 0.38 0.40 0.43 0.50 0.55 0.57 0.58 0.54 0.55 0.59 0.64 0.60 0.37 0.20 0.06 0.08 0.16 0.16 0.03 0.00 0.01 0.00 0.00 0.01 0.01 0.01 0.01 0.01 0.01 0.02 0.01 0.00 0.00 0.00 0.00 0.03 0.03 0.04 0.06 0.06 0.01 0.00 0.00 0.00 0.00 0.00
0.35 0.39 0.45 0.50 0.55 0.59 0.67 0.81 1.01 1.18 1.20 0.96 0.83 0.68 0.36 0.20 0.28 0.32 0.14 0.00 0.00 0.00 0.00 0.00 0.00 0.01 0.01 0.00 0.00 0.00 0.02 0.01 0.00 0.00 0.00 0.00 0.00 0.02 0.04 0.09 0.05 0.01 0.00 0.00 0.00 0.00 0.00
0.41 0.49 0.58 0.61 0.65 0.69 0.74 0.81 0.86 0.97 1.03 1.00 0.96 0.68 0.52 0.43 0.42 0.18 0.02 0.00 0.00 0.01 0.00 0.00 0.00 0.00 0.00 0.00 0.01 0.01 0.01 0.01 0.00 0.00 0.00 0.00 0.00 0.01 0.01 0.00 0.01 0.01 0.01 0.01 0.00 0.00 0.00
0.41 0.49 0.61 0.66 0.70 0.68 0.62 0.61 0.62 0.70 0.65 0.75 0.70 0.59 0.83 0.53 0.25 0.05 0.01 0.01 0.00 0.01 0.00 0.00 0.00 0.00 0.00 0.01 0.01 0.01 0.00 0.00 0.00 0.00 0.00 0.00 0.00 0.01 0.03 0.01 0.00 0.00 0.00 0.00 0.00 0.01 0.01
0.56 0.60 0.75 0.80 0.86 0.86 0.78 0.68 0.55 0.46 0.50 0.77 0.62 0.52 0.81 0.62 0.18 0.03 0.07 0.07 0.03 0.00 0.00 0.00 0.00 0.00 0.00 0.00 0.00 0.00 0.00 0.00 0.00 0.00 0.00 0.00 0.00 0.00 0.01 0.00 0.00 0.00 0.00 0.00 0.01 0.01 0.00
0.53 0.69 0.83 0.93 0.96 1.07 1.09 1.11 0.94 0.67 0.62 1.01 0.57 0.33 0.22 0.21 0.12 0.08 0.07 0.03 0.02 0.01 0.00 0.00 0.00 0.00 0.00 0.01 0.00 0.00 0.00 0.01 0.01 0.00 0.00 0.00 0.00 0.00 0.00 0.00 0.00 0.00 0.00 0.00 0.00 0.00 0.00
0.57 0.64 0.77 0.77 0.85 0.87 0.89 0.92 0.94 0.91 0.86 0.92 0.44 0.24 0.22 0.14 0.12 0.11 0.07 0.01 0.01 0.02 0.00 0.00 0.00 0.00 0.00 0.01 0.01 0.01 0.00 0.00 0.01 0.00 0.00 0.00 0.00 0.00 0.00 0.00 0.00 0.00 0.00 0.00 0.00 0.00 0.00
0.57 0.63 0.71 0.78 0.83 0.86 0.89 0.78 0.77 0.71 0.93 0.85 0.55 0.34 0.24 0.21 0.10 0.08 0.03 0.00 0.00 0.01 0.01 0.00 0.00 0.00 0.00 0.00 0.00 0.00 0.00 0.00 0.00 0.00 0.00 0.01 0.00 0.00 0.01 0.00 0.00 0.00 0.00 0.00 0.00 0.00 0.00
0.82 1.00 1.23 1.46 1.55 1.59 1.82 1.47 0.95 0.63 0.83 0.75 0.46 0.27 0.13 0.09 0.03 0.02 0.00 0.00 0.00 0.00 0.01 0.00 0.00 0.00 0.00 0.00 0.00 0.00 0.00 0.00 0.00 0.00 0.00 0.02 0.01 0.00 0.01 0.00 0.00 0.00 0.00 0.00 0.00 0.00 0.00
0.85 0.92 1.05 1.15 1.20 1.26 1.39 1.37 1.31 1.07 0.79 0.49 0.29 0.12 0.06 0.03 0.00 0.00 0.00 0.00 0.00 0.00 0.01 0.02 0.01 0.00 0.00 0.00 0.01 0.01 0.02 0.01 0.00 0.00 0.00 0.01 0.02 0.02 0.01 0.00 0.00 0.00 0.00 0.00 0.00 0.00 0.00
0.60 0.61 0.60 0.63 0.70 0.75 0.71 0.58 0.67 0.67 0.61 0.25 0.11 0.03 0.00 0.00 0.00 0.00 0.00 0.00 0.00 0.01 0.00 0.00 0.00 0.00 0.00 0.01 0.03 0.02 0.03 0.01 0.00 0.00 0.00 0.00 0.01 0.01 0.01 0.00 0.00 0.00 0.00 0.00 0.00 0.00 0.00
0.52 0.47 0.43 0.50 0.62 0.68 0.59 0.47 0.42 0.51 0.31 0.11 0.04 0.00 0.00 0.00 0.00 0.00 0.00 0.00 0.00 0.01 0.00 0.00 0.00 0.02 0.02 0.03 0.04 0.03 0.01 0.00 0.00 0.00 0.00 0.01 0.01 0.02 0.01 0.01 0.00 0.00 0.00 0.00 0.00 0.00 0.00
1.02 0.86 0.89 0.89 1.00 0.96 0.76 0.60 0.51 0.39 0.22 0.06 0.02 0.00 0.00 0.00 0.00 0.00 0.00 0.00 0.00 0.00 0.00 0.00 0.01 0.01 0.10 0.06 0.03 0.02 0.01 0.00 0.00 0.00 0.00 0.01 0.02 0.02 0.03 0.05 0.01 0.00 0.00 0.00 0.00 0.00 0.00
1.01 1.10 1.31 1.40 1.36 1.34 1.04 0.69 0.55 0.39 0.15 0.02 0.01 0.00 0.00 0.00 0.00 0.00 0.00 0.00 0.00 0.00 0.00 0.00 0.00 0.00 0.03 0.14 0.03 0.00 0.00 0.00 0.00 0.00 0.00 0.00 0.00 0.01 0.00 0.00 0.00 0.00 0.00 0.00 0.00 0.00 0.00

GFSGBSN_prec_precacc24_090.txt.gz
Total_Precipitation_Accumulation
0.09 0.10 0.07 0.07 0.09 0.10 0.10 0.12 0.14 0.12 0.09 0.10 0.11 0.17 0.17 0.19 0.25 0.13 0.04 0.03 0.02 0.03 0.04 0.05 0.05 0.07 0.00 0.00 0.00 0.00 0.00 0.07 0.20 0.15 0.18 0.31 0.48 0.38 0.34 0.13 0.59 0.63 0.48 0.42 0.55 0.49 0.28
0.12 0.12 0.10 0.10 0.11 0.11 0.10 0.15 0.11 0.08 0.13 0.14 0.18 0.18 0.17 0.17 0.15 0.10 0.05 0.03 0.03 0.04 0.03 0.04 0.05 0.08 0.00 0.00 0.00 0.00 0.00 0.02 0.15 0.17 0.24 0.29 0.61 0.46 0.38 0.22 0.38 0.61 0.55 0.51 0.94 0.63 0.53
0.11 0.13 0.13 0.11 0.11 0.11 0.10 0.10 0.09 0.14 0.17 0.18 0.16 0.14 0.10 0.10 0.12 0.10 0.07 0.04 0.02 0.02 0.02 0.01 0.04 0.08 0.01 0.00 0.00 0.00 0.00 0.00 0.07 0.15 0.33 0.37 0.57 0.72 0.64 0.28 0.22 0.57 0.81 0.94 1.21 1.12 0.69
0.13 0.15 0.14 0.14 0.13 0.09 0.06 0.08 0.14 0.16 0.16 0.20 0.18 0.10 0.08 0.12 0.12 0.12 0.06 0.02 0.01 0.01 0.01 0.01 0.04 0.04 0.01 0.00 0.00 0.00 0.00 0.00 0.07 0.16 0.26 0.32 0.40 0.42 0.78 0.48 0.45 0.55 1.23 1.13 1.45 1.55 0.95
0.18 0.15 0.15 0.10 0.09 0.08 0.08 0.13 0.14 0.15 0.18 0.22 0.16 0.11 0.14 0.14 0.16 0.12 0.03 0.01 0.01 0.01 0.01 0.02 0.02 0.02 0.01 0.01 0.04 0.02 0.01 0.01 0.06 0.19 0.24 0.26 0.37 0.53 0.81 0.77 0.47 0.54 0.91 0.83 0.97 1.29 1.34
0.15 0.11 0.07 0.09 0.11 0.10 0.13 0.16 0.17 0.19 0.21 0.17 0.14 0.13 0.14 0.16 0.15 0.08 0.03 0.02 0.01 0.01 0.02 0.03 0.01 0.04 0.04 0.32 0.25 0.04 0.01 0.01 0.15 0.32 0.46 0.44 0.47 0.60 0.80 0.60 0.32 0.29 0.37 0.50 0.64 0.88 1.26
0.07 0.07 0.09 0.09 0.10 0.12 0.16 0.16 0.17 0.18 0.18 0.18 0.15 0.16 0.15 0.17 0.21 0.07 0.02 0.02 0.01 0.01 0.00 0.00 0.01 0.03 0.11 0.29 0.20 0.00 0.00 0.02 0.19 0.37 0.44 0.46 0.48 0.44 0.61 0.36 0.17 0.06 0.10 0.41 0.43 0.54 0.80
0.05 0.06 0.10 0.12 0.16 0.20 0.17 0.16 0.19 0.23 0.25 0.20 0.13 0.14 0.18 0.31 0.37 0.19 0.07 0.01 0.00 0.00 0.00 0.00 0.00 0.05 0.05 0.17 0.18 0.01 0.02 0.10 0.22 0.29 0.23 0.31 0.16 0.12 0.49 0.48 0.23 0.08 0.14 0.30 0.53 0.40 0.53
0.07 0.10 0.14 0.16 0.16 0.18 0.20 0.17 0.18 0.21 0.20 0.17 0.16 0.23 0.27 0.23 0.16 0.08 0.06 0.04 0.00 0.00 0.00 0.00 0.00 0.03 0.07 0.13 0.09 0.13 0.24 0.35 0.25 0.16 0.17 0.22 0.23 0.16 0.36 0.54 0.21 0.05 0.04 0.08 0.19 0.37 0.37
0.07 0.09 0.11 0.13 0.15 0.17 0.16 0.16 0.22 0.24 0.23 0.21 0.20 0.24 0.23 0.16 0.05 0.00 0.00 0.00 0.00 0.00 0.00 0.01 0.00 0.01 0.13 0.13 0.16 0.22 0.24 0.20 0.24 0.33 0.16 0.31 0.29 0.12 0.27 0.25 0.19 0.08 0.02 0.03 0.12 0.38 0.39
0.10 0.14 0.17 0.19 0.20 0.20 0.19 0.22 0.26 0.24 0.17 0.13 0.17 0.20 0.18 0.11 0.05 0.03 0.03 0.01 0.00 0.00 0.02 0.00 0.00 0.01 0.05 0.05 0.10 0.20 0.24 0.31 0.22 0.07 0.14 0.42 0.28 0.11 0.27 0.19 0.21 0.05 0.01 0.02 0.05 0.23 0.18
0.15 0.20 0.24 0.27 0.30 0.28 0.25 0.28 0.27 0.24 0.17 0.16 0.17 0.16 0.20 0.15 0.04 0.13 0.09 0.02 0.01 0.02 0.01 0.00 0.00 0.00 0.01 0.01 0.01 0.03 0.06 0.11 0.10 0.16 0.54 0.36 0.20 0.26 0.34 0.16 0.09 0.03 0.04 0.10 0.07 0.09 0.18
0.22 0.27 0.27 0.27 0.25 0.25 0.32 0.36 0.34 0.29 0.25 0.18 0.17 0.23 0.27 0.17 0.05 0.15 0.15 0.04 0.04 0.01 0.00 0.00 0.00 0.00 0.01 0.00 0.00 0.01 0.01 0.02 0.18 0.42 0.68 0.56 0.41 0.24 0.12 0.08 0.06 0.02 0.05 0.35 0.25 0.08 0.09
0.26 0.27 0.28 0.31 0.31 0.33 0.38 0.41 0.33 0.31 0.31 0.28 0.32 0.29 0.18 0.05 0.03 0.12 0.20 0.12 0.03 0.00 0.00 0.00 0.00 0.01 0.01 0.01 0.01 0.00 0.01 0.11 0.22 0.27 0.23 0.31 0.31 0.16 0.07 0.04 0.11 0.03 0.04 0.05 0.04 0.01 0.02
0.35 0.33 0.33 0.37 0.45 0.48 0.52 0.49 0.45 0.37 0.35 0.43 0.44 0.29 0.18 0.06 0.05 0.13 0.26 0.12 0.01 0.01 0.01 0.00 0.01 0.01 0.01 0.01 0.01 0.00 0.00 0.00 0.00 0.00 0.04 0.03 0.17 0.08 0.08 0.02 0.03 0.07 0.02 0.00 0.00 0.00 0.00
0.39 0.41 0.40 0.44 0.51 0.58 0.59 0.61 0.58 0.59 0.62 0.71 0.68 0.51 0.35 0.09 0.09 0.25 0.31 0.05 0.00 0.01 0.00 0.00 0.01 0.01 0.01 0.01 0.01 0.01 0.01 0.00 0.00 0.00 0.00 0.00 0.05 0.04 0.04 0.06 0.05 0.01 0.00 0.00 0.00 0.00 0.00
0.36 0.41 0.44 0.50 0.57 0.61 0.70 0.85 1.06 1.22 1.24 1.01 0.89 0.88 0.61 0.25 0.33 0.47 0.22 0.02 0.00 0.01 0.01 0.00 0.00 0.01 0.01 0.00 0.00 0.00 0.01 0.00 0.00 0.00 0.00 0.00 0.00 0.02 0.04 0.09 0.04 0.00 0.00 0.00 0.00 0.00 0.00
0.42 0.46 0.55 0.61 0.67 0.71 0.77 0.86 0.91 1.00 1.08 1.02 1.03 0.86 1.01 0.62 0.52 0.30 0.04 0.00 0.01 0.05 0.00 0.00 0.00 0.00 0.00 0.00 0.01 0.01 0.00 0.00 0.00 0.00 0.00 0.00 0.00 0.01 0.01 0.00 0.01 0.01 0.00 0.01 0.00 0.00 0.00
0.34 0.46 0.59 0.66 0.71 0.69 0.66 0.66 0.65 0.73 0.72 0.77 0.73 0.77 1.11 0.69 0.30 0.09 0.03 0.01 0.04 0.05 0.02 0.00 0.00 0.00 0.00 0.01 0.01 0.01 0.00 0.00 0.00 0.00 0.00 0.00 0.00 0.01 0.03 0.01 0.00 0.00 0.00 0.00 0.00 0.01 0.01
0.38 0.52 0.72 0.80 0.87 0.90 0.83 0.72 0.57 0.49 0.54 0.77 0.63 0.62 0.99 0.77 0.21 0.04 0.09 0.14 0.11 0.03 0.01 0.00 0.00 0.00 0.00 0.00 0.00 0.00 0.00 0.00 0.00 0.00 0.00 0.00 0.00 0.00 0.01 0.00 0.00 0.00 0.00 0.00 0.00 0.01 0.00
0.36 0.60 0.81 0.94 0.98 1.10 1.12 1.13 0.96 0.69 0.67 1.01 0.57 0.38 0.31 0.27 0.15 0.09 0.09 0.10 0.08 0.03 0.01 0.00 0.01 0.00 0.00 0.01 0.00 0.00 0.00 0.01 0.01 0.00 0.00 0.00 0.00 0.00 0.00 0.00 0.00 0.00 0.00 0.00 0.00 0.00 0.00
0.35 0.51 0.73 0.79 0.88 0.89 0.91 0.93 0.95 0.92 0.88 0.92 0.45 0.26 0.24 0.15 0.12 0.13 0.11 0.07 0.04 0.02 0.01 0.00 0.01 0.00 0.00 0.01 0.01 0.01 0.00 0.00 0.01 0.00 0.00 0.00 0.00 0.00 0.00 0.00 0.00 0.00 0.00 0.00 0.00 0.00 0.00
0.36 0.50 0.69 0.81 0.86 0.88 0.90 0.78 0.77 0.72 0.94 0.86 0.57 0.37 0.28 0.26 0.14 0.12 0.06 0.02 0.00 0.01 0.01 0.00 0.00 0.00 0.00 0.00 0.00 0.00 0.00 0.00 0.00 0.00 0.00 0.01 0.00 0.00 0.01 0.00 0.00 0.00 0.00 0.00 0.00 0.00 0.00
0.69 0.92 1.22 1.46 1.56 1.60 1.82 1.49 0.96 0.64 0.84 0.77 0.47 0.30 0.14 0.09 0.04 0.02 0.00 0.00 0.00 0.01 0.01 0.00 0.00 0.01 0.00 0.00 0.00 0.00 0.00 0.00 0.00 0.00 0.00 0.02 0.01 0.00 0.01 0.00 0.00 0.00 0.00 0.00 0.00 0.00 0.00
0.74 0.89 1.04 1.15 1.21 1.28 1.41 1.39 1.32 1.08 0.80 0.50 0.30 0.13 0.07 0.04 0.01 0.00 0.00 0.00 0.00 0.01 0.01 0.01 0.00 0.00 0.00 0.00 0.01 0.01 0.02 0.01 0.00 0.00 0.00 0.01 0.02 0.02 0.01 0.00 0.00 0.00 0.00 0.00 0.00 0.00 0.00
0.46 0.58 0.60 0.63 0.71 0.77 0.73 0.59 0.68 0.69 0.61 0.25 0.11 0.03 0.00 0.00 0.00 0.00 0.00 0.00 0.01 0.03 0.00 0.00 0.00 0.00 0.00 0.01 0.03 0.02 0.03 0.01 0.00 0.00 0.00 0.00 0.01 0.01 0.01 0.00 0.00 0.00 0.00 0.00 0.00 0.00 0.00
0.40 0.42 0.42 0.50 0.62 0.70 0.59 0.47 0.43 0.51 0.31 0.11 0.04 0.00 0.00 0.00 0.00 0.00 0.00 0.00 0.00 0.02 0.00 0.00 0.00 0.00 0.00 0.03 0.03 0.02 0.01 0.00 0.00 0.00 0.00 0.01 0.01 0.01 0.01 0.01 0.00 0.00 0.00 0.00 0.00 0.00 0.00
0.91 0.80 0.87 0.89 1.01 0.97 0.77 0.60 0.51 0.39 0.22 0.06 0.02 0.00 0.00 0.00 0.00 0.00 0.00 0.00 0.00 0.00 0.00 0.00 0.01 0.01 0.01 0.04 0.02 0.02 0.01 0.00 0.00 0.00 0.00 0.00 0.01 0.01 0.02 0.04 0.01 0.00 0.00 0.00 0.00 0.00 0.00
0.92 1.06 1.30 1.40 1.36 1.34 1.04 0.69 0.55 0.39 0.15 0.03 0.01 0.00 0.00 0.00 0.00 0.00 0.00 0.00 0.00 0.00 0.00 0.00 0.00 0.00 0.01 0.06 0.02 0.00 0.00 0.00 0.00 0.00 0.00 0.00 0.00 0.01 0.00 0.00 0.00 0.00 0.00 0.00 0.00 0.00 0.00

GFSGBSN_prec_precacc24_093.txt.gz
Total_Precipitation_Accumulation
0.10 0.11 0.08 0.07 0.10 0.11 0.10 0.13 0.15 0.12 0.10 0.11 0.12 0.17 0.17 0.19 0.26 0.24 0.20 0.13 0.04 0.03 0.04 0.05 0.05 0.08 0.00 0.00 0.00 0.00 0.00 0.04 0.10 0.07 0.08 0.27 0.39 0.37 0.34 0.10 0.40 0.56 0.44 0.38 0.48 0.48 0.28
0.12 0.12 0.11 0.10 0.12 0.12 0.11 0.16 0.12 0.08 0.13 0.15 0.19 0.19 0.17 0.17 0.15 0.12 0.14 0.15 0.05 0.04 0.03 0.03 0.05 0.08 0.00 0.00 0.00 0.00 0.00 0.01 0.05 0.08 0.18 0.23 0.52 0.45 0.38 0.20 0.32 0.51 0.41 0.47 0.82 0.62 0.53
0.11 0.13 0.14 0.11 0.12 0.12 0.10 0.10 0.09 0.14 0.17 0.19 0.16 0.14 0.11 0.10 0.12 0.09 0.09 0.11 0.05 0.04 0.03 0.01 0.04 0.08 0.01 0.00 0.00 0.00 0.00 0.00 0.03 0.07 0.25 0.20 0.49 0.71 0.64 0.27 0.18 0.52 0.72 0.81 1.12 1.00 0.69
0.11 0.15 0.14 0.14 0.14 0.10 0.06 0.08 0.14 0.16 0.17 0.21 0.18 0.10 0.08 0.12 0.12 0.12 0.09 0.06 0.03 0.01 0.01 0.01 0.04 0.05 0.01 0.00 0.00 0.00 0.00 0.00 0.06 0.08 0.17 0.10 0.29 0.40 0.78 0.48 0.43 0.50 1.18 0.98 1.26 1.49 0.95
0.14 0.15 0.15 0.11 0.10 0.09 0.09 0.14 0.15 0.15 0.19 0.22 0.15 0.10 0.14 0.14 0.16 0.13 0.06 0.06 0.08 0.03 0.02 0.02 0.03 0.02 0.01 0.01 0.04 0.01 0.01 0.01 0.04 0.10 0.09 0.15 0.30 0.51 0.81 0.80 0.52 0.54 0.88 0.78 0.89 1.21 1.31
0.08 0.10 0.07 0.09 0.12 0.10 0.14 0.16 0.18 0.20 0.22 0.17 0.13 0.12 0.13 0.16 0.15 0.17 0.17 0.06 0.06 0.04 0.03 0.04 0.02 0.03 0.03 0.15 0.16 0.04 0.00 0.00 0.11 0.17 0.18 0.30 0.39 0.59 0.80 0.66 0.39 0.33 0.38 0.50 0.63 0.87 1.26
0.06 0.07 0.08 0.09 0.11 0.14 0.18 0.18 0.19 0.19 0.19 0.19 0.15 0.15 0.14 0.16 0.29 0.39 0.13 0.10 0.03 0.04 0.03 0.01 0.01 0.02 0.09 0.11 0.04 0.00 0.00 0.02 0.14 0.26 0.24 0.31 0.41 0.43 0.62 0.37 0.18 0.07 0.11 0.42 0.48 0.62 0.85
0.04 0.06 0.10 0.12 0.17 0.22 0.18 0.17 0.19 0.24 0.26 0.23 0.14 0.14 0.17 0.30 0.38 0.33 0.25 0.12 0.04 0.00 0.00 0.00 0.00 0.04 0.04 0.03 0.01 0.00 0.01 0.09 0.21 0.24 0.16 0.16 0.15 0.11 0.51 0.49 0.24 0.08 0.14 0.34 0.66 0.48 0.58
0.03 0.09 0.14 0.16 0.17 0.19 0.21 0.18 0.19 0.24 0.23 0.20 0.18 0.24 0.27 0.23 0.16 0.11 0.13 0.17 0.09 0.00 0.00 0.00 0.00 0.01 0.04 0.06 0.02 0.07 0.20 0.31 0.22 0.11 0.12 0.13 0.21 0.16 0.40 0.57 0.22 0.05 0.06 0.16 0.26 0.39 0.39
0.02 0.07 0.11 0.14 0.15 0.18 0.16 0.17 0.24 0.26 0.24 0.22 0.22 0.25 0.23 0.16 0.05 0.01 0.02 0.03 0.04 0.00 0.01 0.01 0.00 0.00 0.08 0.08 0.10 0.15 0.18 0.17 0.22 0.31 0.15 0.25 0.28 0.11 0.32 0.28 0.20 0.09 0.04 0.10 0.14 0.44 0.44
0.04 0.11 0.21 0.22 0.22 0.21 0.20 0.24 0.29 0.25 0.20 0.18 0.20 0.20 0.18 0.11 0.05 0.04 0.05 0.02 0.01 0.01 0.04 0.00 0.00 0.01 0.05 0.03 0.06 0.17 0.22 0.31 0.22 0.07 0.12 0.39 0.28 0.09 0.26 0.20 0.21 0.08 0.01 0.10 0.07 0.25 0.27
0.14 0.19 0.34 0.37 0.33 0.28 0.26 0.31 0.29 0.26 0.23 0.23 0.20 0.17 0.21 0.15 0.05 0.13 0.16 0.08 0.04 0.10 0.04 0.00 0.00 0.01 0.01 0.01 0.01 0.03 0.07 0.13 0.11 0.18 0.54 0.35 0.23 0.38 0.40 0.18 0.09 0.06 0.07 0.12 0.08 0.11 0.22
0.26 0.38 0.42 0.39 0.27 0.26 0.34 0.37 0.36 0.34 0.32 0.23 0.19 0.28 0.30 0.18 0.06 0.21 0.29 0.18 0.16 0.07 0.01 0.00 0.01 0.00 0.00 0.01 0.01 0.01 0.03 0.05 0.21 0.41 0.65 0.55 0.51 0.49 0.32 0.14 0.07 0.05 0.11 0.40 0.30 0.11 0.10
0.46 0.46 0.41 0.39 0.32 0.36 0.41 0.43 0.36 0.36 0.35 0.31 0.36 0.34 0.23 0.06 0.04 0.14 0.37 0.26 0.08 0.01 0.00 0.00 0.00 0.00 0.00 0.00 0.00 0.00 0.02 0.22 0.30 0.32 0.32 0.31 0.28 0.23 0.17 0.07 0.14 0.08 0.06 0.10 0.06 0.02 0.02
0.47 0.39 0.34 0.38 0.46 0.51 0.54 0.51 0.48 0.41 0.37 0.46 0.49 0.38 0.30 0.07 0.06 0.16 0.40 0.22 0.05 0.01 0.01 0.00 0.01 0.00 0.00 0.00 0.00 0.01 0.03 0.03 0.02 0.01 0.05 0.04 0.17 0.08 0.06 0.02 0.03 0.07 0.02 0.00 0.00 0.00 0.00
0.39 0.39 0.33 0.41 0.52 0.59 0.60 0.63 0.61 0.62 0.64 0.77 0.82 0.77 0.47 0.09 0.10 0.29 0.44 0.13 0.01 0.01 0.00 0.00 0.01 0.01 0.00 0.00 0.00 0.00 0.01 0.00 0.00 0.00 0.00 0.00 0.06 0.04 0.02 0.05 0.05 0.01 0.00 0.00 0.00 0.00 0.00
0.26 0.32 0.28 0.44 0.56 0.62 0.71 0.88 1.09 1.24 1.27 1.05 0.94 1.01 0.74 0.27 0.35 0.52 0.29 0.06 0.01 0.01 0.01 0.00 0.00 0.01 0.01 0.00 0.00 0.00 0.01 0.00 0.00 0.00 0.00 0.00 0.01 0.02 0.03 0.08 0.03 0.00 0.00 0.00 0.00 0.00 0.00
0.25 0.24 0.31 0.43 0.61 0.71 0.79 0.89 0.92 1.03 1.10 1.04 1.07 0.99 1.14 0.69 0.56 0.36 0.08 0.01 0.02 0.06 0.00 0.00 0.00 0.00 0.00 0.00 0.00 0.00 0.00 0.00 0.00 0.00 0.00 0.00 0.00 0.01 0.00 0.00 0.00 0.00 0.00 0.00 0.00 0.00 0.00
0.15 0.18 0.28 0.42 0.64 0.69 0.68 0.67 0.66 0.75 0.74 0.78 0.79 0.95 1.25 0.75 0.31 0.11 0.04 0.02 0.05 0.07 0.02 0.00 0.01 0.00 0.00 0.01 0.01 0.01 0.00 0.00 0.00 0.00 0.00 0.00 0.00 0.00 0.01 0.00 0.00 0.00 0.00 0.00 0.00 0.00 0.00
0.17 0.21 0.36 0.50 0.77 0.88 0.84 0.73 0.58 0.50 0.55 0.78 0.64 0.71 1.05 0.79 0.22 0.05 0.09 0.14 0.15 0.04 0.02 0.00 0.00 0.00 0.00 0.00 0.00 0.00 0.00 0.00 0.00 0.00 0.00 0.00 0.00 0.00 0.01 0.00 0.00 0.00 0.00 0.00 0.00 0.00 0.00
0.21 0.30 0.42 0.62 0.86 1.08 1.13 1.14 0.96 0.69 0.67 1.01 0.57 0.41 0.33 0.29 0.15 0.09 0.10 0.12 0.10 0.06 0.02 0.00 0.01 0.00 0.00 0.01 0.00 0.00 0.00 0.01 0.01 0.00 0.00 0.00 0.00 0.00 0.00 0.00 0.00 0.00 0.00 0.00 0.00 0.00 0.00
0.20 0.27 0.39 0.54 0.76 0.88 0.91 0.93 0.95 0.93 0.88 0.92 0.45 0.26 0.25 0.15 0.13 0.13 0.12 0.08 0.05 0.03 0.02 0.01 0.02 0.00 0.00 0.00 0.01 0.01 0.00 0.00 0.01 0.00 0.00 0.00 0.00 0.00 0.00 0.00 0.00 0.00 0.00 0.00 0.00 0.00 0.00
0.16 0.24 0.41 0.60 0.77 0.87 0.90 0.79 0.78 0.73 0.94 0.86 0.57 0.38 0.28 0.26 0.14 0.13 0.07 0.02 0.01 0.01 0.01 0.00 0.01 0.01 0.00 0.00 0.00 0.00 0.00 0.00 0.00 0.00 0.00 0.01 0.00 0.00 0.00 0.00 0.00 0.00 0.00 0.00 0.00 0.00 0.00
0.31 0.58 0.94 1.30 1.47 1.58 1.83 1.50 0.96 0.65 0.85 0.77 0.47 0.30 0.14 0.10 0.04 0.02 0.00 0.00 0.00 0.01 0.01 0.00 0.00 0.01 0.00 0.00 0.00 0.00 0.00 0.00 0.00 0.00 0.00 0.02 0.01 0.00 0.01 0.00 0.00 0.00 0.00 0.00 0.00 0.00 0.00
0.27 0.44 0.74 0.98 1.14 1.24 1.41 1.39 1.32 1.10 0.82 0.51 0.30 0.13 0.07 0.04 0.01 0.00 0.00 0.00 0.00 0.01 0.01 0.00 0.00 0.00 0.00 0.00 0.01 0.01 0.01 0.00 0.00 0.00 0.00 0.01 0.01 0.02 0.01 0.00 0.00 0.00 0.00 0.00 0.00 0.00 0.00
0.17 0.19 0.29 0.47 0.62 0.73 0.73 0.59 0.68 0.69 0.62 0.26 0.11 0.03 0.00 0.00 0.00 0.00 0.00 0.00 0.01 0.03 0.01 0.00 0.00 0.00 0.00 0.00 0.01 0.01 0.02 0.01 0.00 0.00 0.00 0.00 0.01 0.00 0.01 0.00 0.00 0.00 0.00 0.00 0.00 0.00 0.00
0.17 0.13 0.18 0.37 0.54 0.66 0.59 0.48 0.43 0.51 0.31 0.11 0.04 0.00 0.00 0.00 0.00 0.00 0.00 0.00 0.00 0.03 0.00 0.00 0.00 0.00 0.00 0.01 0.02 0.01 0.01 0.00 0.00 0.00 0.00 0.00 0.00 0.01 0.01 0.01 0.00 0.00 0.00 0.00 0.00 0.00 0.00
0.58 0.54 0.66 0.78 0.94 0.94 0.77 0.60 0.51 0.39 0.22 0.06 0.02 0.00 0.00 0.00 0.00 0.00 0.00 0.00 0.00 0.00 0.00 0.00 0.01 0.01 0.00 0.03 0.00 0.01 0.00 0.00 0.00 0.00 0.00 0.00 0.00 0.00 0.01 0.02 0.00 0.00 0.00 0.00 0.00 0.00 0.00
0.49 0.76 1.12 1.31 1.30 1.32 1.05 0.69 0.55 0.39 0.15 0.03 0.01 0.00 0.00 0.00 0.00 0.00 0.00 0.00 0.00 0.00 0.00 0.00 0.01 0.00 0.00 0.01 0.00 0.00 0.00 0.00 0.00 0.00 0.00 0.00 0.00 0.01 0.00 0.00 0.00 0.00 0.00 0.00 0.00 0.00 0.00

GFSGBSN_prec_precacc24_096.txt.gz
Total_Precipitation_Accumulation
0.08 0.09 0.08 0.08 0.11 0.12 0.11 0.13 0.16 0.12 0.10 0.11 0.13 0.18 0.18 0.19 0.26 0.24 0.20 0.19 0.22 0.18 0.07 0.04 0.05 0.08 0.00 0.00 0.00 0.00 0.00 0.01 0.07 0.05 0.03 0.24 0.31 0.32 0.33 0.09 0.16 0.37 0.38 0.31 0.40 0.46 0.28
0.07 0.07 0.09 0.11 0.12 0.13 0.11 0.16 0.12 0.08 0.13 0.16 0.19 0.19 0.17 0.17 0.15 0.12 0.13 0.18 0.19 0.20 0.08 0.04 0.05 0.08 0.00 0.00 0.00 0.00 0.00 0.00 0.03 0.02 0.03 0.19 0.44 0.40 0.36 0.19 0.16 0.23 0.31 0.36 0.67 0.56 0.52
0.06 0.06 0.09 0.11 0.12 0.12 0.11 0.11 0.10 0.14 0.17 0.19 0.16 0.14 0.10 0.10 0.12 0.09 0.08 0.12 0.15 0.15 0.13 0.04 0.04 0.09 0.02 0.00 0.00 0.00 0.00 0.00 0.01 0.00 0.03 0.12 0.41 0.61 0.61 0.26 0.15 0.31 0.49 0.61 0.89 0.90 0.63
0.04 0.05 0.08 0.12 0.14 0.10 0.06 0.09 0.15 0.16 0.16 0.21 0.18 0.09 0.08 0.12 0.12 0.12 0.08 0.06 0.09 0.15 0.06 0.02 0.04 0.05 0.02 0.00 0.00 0.00 0.00 0.00 0.02 0.01 0.03 0.05 0.21 0.36 0.78 0.48 0.33 0.38 0.83 0.86 1.11 1.30 0.80
0.04 0.05 0.06 0.09 0.10 0.09 0.10 0.15 0.15 0.16 0.18 0.22 0.15 0.10 0.13 0.14 0.16 0.13 0.09 0.10 0.13 0.08 0.04 0.03 0.03 0.02 0.01 0.01 0.03 0.01 0.01 0.01 0.02 0.02 0.06 0.04 0.18 0.47 0.79 0.79 0.48 0.41 0.72 0.72 0.85 1.11 1.14
0.04 0.05 0.06 0.09 0.11 0.11 0.15 0.17 0.19 0.21 0.22 0.17 0.13 0.12 0.13 0.16 0.14 0.24 0.35 0.28 0.12 0.10 0.08 0.06 0.03 0.03 0.03 0.11 0.06 0.03 0.00 0.00 0.06 0.06 0.10 0.10 0.21 0.54 0.77 0.67 0.40 0.24 0.46 0.50 0.61 0.87 1.15
0.04 0.05 0.07 0.09 0.11 0.16 0.19 0.19 0.20 0.19 0.20 0.20 0.16 0.15 0.14 0.16 0.28 0.42 0.27 0.53 0.35 0.12 0.12 0.03 0.00 0.02 0.07 0.03 0.00 0.00 0.00 0.02 0.07 0.11 0.08 0.10 0.28 0.41 0.62 0.38 0.18 0.05 0.09 0.43 0.49 0.63 0.86
0.05 0.06 0.10 0.13 0.19 0.27 0.21 0.18 0.21 0.25 0.28 0.23 0.15 0.13 0.17 0.30 0.38 0.33 0.28 0.27 0.44 0.14 0.01 0.00 0.01 0.01 0.01 0.01 0.00 0.00 0.01 0.09 0.16 0.15 0.06 0.10 0.12 0.11 0.52 0.50 0.26 0.09 0.14 0.33 0.72 0.50 0.60
0.08 0.12 0.21 0.29 0.38 0.35 0.27 0.19 0.21 0.26 0.25 0.21 0.19 0.24 0.27 0.22 0.16 0.11 0.20 0.34 0.27 0.07 0.01 0.00 0.00 0.00 0.00 0.00 0.01 0.06 0.16 0.26 0.16 0.06 0.05 0.09 0.16 0.16 0.40 0.57 0.24 0.06 0.06 0.21 0.39 0.39 0.40
0.11 0.18 0.31 0.73 0.50 0.33 0.22 0.20 0.27 0.29 0.26 0.24 0.23 0.26 0.23 0.16 0.05 0.01 0.04 0.16 0.31 0.14 0.05 0.01 0.00 0.00 0.02 0.00 0.04 0.08 0.10 0.15 0.13 0.20 0.12 0.22 0.26 0.10 0.31 0.28 0.22 0.10 0.04 0.17 0.17 0.59 0.55
0.19 0.31 0.60 0.73 0.41 0.31 0.21 0.28 0.32 0.27 0.23 0.23 0.24 0.21 0.19 0.11 0.05 0.04 0.07 0.03 0.24 0.11 0.08 0.02 0.00 0.01 0.03 0.01 0.02 0.10 0.16 0.28 0.18 0.07 0.13 0.39 0.28 0.07 0.25 0.22 0.24 0.11 0.04 0.16 0.08 0.38 0.56
0.36 0.47 0.74 0.49 0.39 0.22 0.24 0.33 0.32 0.31 0.29 0.28 0.23 0.19 0.23 0.16 0.05 0.15 0.17 0.11 0.09 0.14 0.09 0.03 0.01 0.02 0.01 0.01 0.01 0.02 0.06 0.13 0.11 0.19 0.49 0.33 0.23 0.35 0.37 0.18 0.09 0.06 0.10 0.13 0.08 0.21 0.38
0.49 0.61 0.53 0.37 0.18 0.13 0.28 0.40 0.41 0.39 0.37 0.27 0.21 0.31 0.35 0.18 0.06 0.23 0.33 0.26 0.20 0.13 0.06 0.01 0.01 0.01 0.00 0.01 0.01 0.01 0.04 0.06 0.23 0.44 0.64 0.57 0.68 0.65 0.34 0.14 0.07 0.06 0.24 0.55 0.36 0.23 0.15
0.56 0.50 0.37 0.20 0.15 0.25 0.32 0.44 0.40 0.40 0.39 0.35 0.41 0.38 0.26 0.07 0.05 0.14 0.46 0.41 0.22 0.11 0.02 0.00 0.00 0.00 0.01 0.01 0.00 0.00 0.03 0.27 0.33 0.33 0.32 0.37 0.39 0.31 0.20 0.07 0.18 0.18 0.18 0.24 0.18 0.06 0.05
0.49 0.39 0.28 0.16 0.24 0.32 0.40 0.50 0.51 0.44 0.43 0.55 0.60 0.48 0.33 0.08 0.06 0.17 0.44 0.33 0.22 0.06 0.02 0.01 0.00 0.00 0.00 0.00 0.00 0.01 0.05 0.11 0.04 0.01 0.06 0.05 0.16 0.09 0.07 0.02 0.05 0.09 0.02 0.00 0.01 0.01 0.02
0.35 0.33 0.20 0.16 0.26 0.37 0.42 0.56 0.63 0.65 0.72 0.86 0.91 0.84 0.49 0.09 0.10 0.29 0.47 0.28 0.04 0.03 0.02 0.00 0.01 0.00 0.00 0.00 0.02 0.02 0.06 0.01 0.02 0.00 0.00 0.01 0.07 0.04 0.02 0.06 0.05 0.01 0.00 0.00 0.00 0.02 0.01
0.20 0.22 0.11 0.12 0.24 0.38 0.51 0.77 1.07 1.26 1.31 1.06 0.94 1.04 0.77 0.28 0.36 0.52 0.31 0.16 0.09 0.03 0.01 0.00 0.00 0.01 0.00 0.00 0.01 0.01 0.01 0.00 0.00 0.00 0.00 0.00 0.02 0.03 0.03 0.07 0.02 0.00 0.00 0.00 0.00 0.00 0.00
0.17 0.10 0.08 0.12 0.23 0.40 0.53 0.73 0.89 1.03 1.11 1.04 1.07 1.01 1.15 0.70 0.56 0.37 0.12 0.03 0.04 0.07 0.00 0.00 0.00 0.00 0.00 0.00 0.00 0.00 0.00 0.00 0.00 0.00 0.00 0.00 0.00 0.01 0.00 0.00 0.00 0.00 0.00 0.00 0.00 0.00 0.00
0.08 0.05 0.09 0.18 0.24 0.31 0.34 0.45 0.59 0.75 0.75 0.78 0.79 0.97 1.26 0.76 0.32 0.12 0.05 0.02 0.06 0.08 0.02 0.01 0.01 0.00 0.00 0.00 0.00 0.00 0.00 0.00 0.00 0.00 0.00 0.00 0.00 0.01 0.01 0.00 0.00 0.00 0.00 0.00 0.00 0.00 0.00
0.06 0.07 0.14 0.21 0.37 0.51 0.50 0.51 0.49 0.50 0.55 0.78 0.64 0.72 1.04 0.79 0.22 0.05 0.10 0.14 0.15 0.04 0.02 0.00 0.01 0.00 0.00 0.00 0.00 0.00 0.00 0.00 0.00 0.00 0.00 0.00 0.00 0.00 0.00 0.00 0.00 0.00 0.00 0.00 0.00 0.00 0.00
0.07 0.09 0.15 0.24 0.40 0.72 0.83 0.97 0.91 0.69 0.67 1.01 0.57 0.41 0.33 0.29 0.16 0.09 0.10 0.12 0.10 0.06 0.02 0.01 0.01 0.00 0.00 0.00 0.00 0.00 0.00 0.01 0.00 0.00 0.00 0.00 0.00 0.00 0.00 0.00 0.00 0.00 0.00 0.00 0.00 0.00 0.00
0.07 0.10 0.15 0.23 0.35 0.53 0.64 0.81 0.92 0.93 0.88 0.92 0.45 0.27 0.25 0.15 0.13 0.13 0.12 0.08 0.05 0.03 0.02 0.02 0.02 0.00 0.00 0.00 0.00 0.00 0.00 0.00 0.00 0.00 0.00 0.00 0.00 0.00 0.00 0.00 0.00 0.00 0.00 0.00 0.00 0.00 0.00
0.09 0.12 0.24 0.33 0.43 0.53 0.68 0.71 0.76 0.73 0.94 0.86 0.58 0.38 0.29 0.27 0.15 0.13 0.07 0.02 0.01 0.01 0.01 0.00 0.01 0.01 0.00 0.00 0.00 0.00 0.00 0.00 0.00 0.00 0.00 0.00 0.00 0.00 0.00 0.00 0.00 0.00 0.00 0.00 0.00 0.00 0.00
0.10 0.15 0.32 0.62 1.00 1.25 1.63 1.44 0.96 0.65 0.85 0.77 0.48 0.30 0.15 0.10 0.04 0.02 0.00 0.00 0.00 0.01 0.01 0.00 0.00 0.01 0.00 0.00 0.00 0.00 0.00 0.00 0.00 0.00 0.00 0.00 0.00 0.00 0.00 0.00 0.00 0.00 0.00 0.00 0.00 0.00 0.00
0.10 0.17 0.26 0.37 0.53 0.85 1.20 1.32 1.33 1.10 0.82 0.51 0.30 0.14 0.07 0.05 0.01 0.00 0.00 0.00 0.00 0.01 0.00 0.00 0.00 0.00 0.00 0.00 0.01 0.01 0.01 0.00 0.00 0.00 0.00 0.01 0.01 0.01 0.00 0.00 0.00 0.00 0.00 0.00 0.00 0.00 0.00
0.11 0.13 0.14 0.15 0.21 0.35 0.47 0.51 0.68 0.69 0.62 0.26 0.11 0.03 0.00 0.00 0.00 0.00 0.00 0.00 0.01 0.03 0.01 0.00 0.00 0.00 0.00 0.00 0.00 0.00 0.01 0.00 0.00 0.00 0.00 0.00 0.00 0.00 0.01 0.00 0.00 0.00 0.00 0.00 0.00 0.00 0.00
0.10 0.08 0.08 0.13 0.26 0.34 0.31 0.41 0.43 0.52 0.31 0.11 0.04 0.00 0.00 0.00 0.00 0.00 0.00 0.00 0.00 0.03 0.00 0.00 0.00 0.00 0.00 0.00 0.00 0.00 0.00 0.00 0.00 0.00 0.00 0.00 0.00 0.00 0.00 0.00 0.00 0.00 0.00 0.00 0.00 0.00 0.00
0.09 0.13 0.31 0.46 0.69 0.69 0.58 0.55 0.50 0.39 0.22 0.06 0.02 0.00 0.00 0.00 0.00 0.00 0.00 0.00 0.00 0.00 0.00 0.00 0.01 0.01 0.00 0.02 0.00 0.00 0.00 0.00 0.00 0.00 0.00 0.00 0.00 0.00 0.00 0.01 0.00 0.00 0.00 0.00 0.00 0.00 0.00
0.08 0.21 0.41 0.73 0.96 1.08 0.94 0.66 0.54 0.39 0.15 0.03 0.01 0.00 0.00 0.00 0.00 0.00 0.00 0.00 0.00 0.00 0.00 0.00 0.01 0.00 0.00 0.01 0.00 0.00 0.00 0.00 0.00 0.00 0.00 0.00 0.00 0.00 0.00 0.00 0.00 0.00 0.00 0.00 0.00 0.00 0.00

GFSGBSN_prec_precacc24_099.txt.gz
Total_Precipitation_Accumulation
0.07 0.07 0.08 0.08 0.11 0.12 0.12 0.14 0.16 0.13 0.10 0.11 0.13 0.18 0.18 0.18 0.26 0.23 0.19 0.18 0.22 0.29 0.40 0.29 0.09 0.07 0.00 0.00 0.00 0.00 0.00 0.00 0.00 0.01 0.02 0.23 0.23 0.24 0.27 0.08 0.13 0.33 0.31 0.24 0.31 0.39 0.25
0.06 0.07 0.07 0.08 0.11 0.14 0.12 0.17 0.13 0.09 0.14 0.16 0.19 0.19 0.17 0.16 0.14 0.11 0.13 0.17 0.19 0.23 0.28 0.30 0.13 0.10 0.00 0.00 0.00 0.00 0.00 0.00 0.00 0.01 0.02 0.17 0.37 0.32 0.28 0.18 0.15 0.20 0.29 0.25 0.36 0.43 0.46
0.07 0.06 0.07 0.07 0.10 0.12 0.12 0.12 0.11 0.15 0.18 0.19 0.17 0.14 0.10 0.10 0.11 0.08 0.08 0.11 0.15 0.16 0.22 0.18 0.18 0.13 0.02 0.00 0.00 0.00 0.00 0.00 0.00 0.00 0.01 0.06 0.37 0.57 0.48 0.24 0.14 0.29 0.37 0.44 0.49 0.58 0.56
0.04 0.06 0.07 0.07 0.10 0.10 0.07 0.11 0.17 0.17 0.17 0.21 0.18 0.09 0.08 0.12 0.12 0.11 0.08 0.06 0.09 0.17 0.16 0.13 0.16 0.10 0.03 0.00 0.00 0.00 0.00 0.00 0.01 0.00 0.00 0.01 0.20 0.32 0.72 0.44 0.31 0.36 0.62 0.54 0.65 0.88 0.52
0.06 0.07 0.08 0.09 0.11 0.10 0.14 0.20 0.18 0.17 0.19 0.23 0.15 0.10 0.13 0.14 0.16 0.13 0.09 0.13 0.18 0.14 0.10 0.14 0.20 0.09 0.01 0.01 0.02 0.01 0.01 0.01 0.01 0.01 0.01 0.01 0.17 0.42 0.70 0.75 0.43 0.37 0.56 0.41 0.48 0.79 0.86
0.07 0.09 0.11 0.16 0.26 0.31 0.39 0.34 0.26 0.22 0.23 0.18 0.13 0.12 0.13 0.16 0.15 0.24 0.35 0.41 0.38 0.15 0.15 0.12 0.07 0.04 0.01 0.05 0.02 0.01 0.00 0.00 0.03 0.04 0.05 0.07 0.16 0.48 0.65 0.62 0.37 0.18 0.43 0.45 0.36 0.64 1.04
0.08 0.11 0.16 0.24 0.39 0.66 0.62 0.44 0.30 0.21 0.22 0.21 0.16 0.15 0.14 0.16 0.29 0.42 0.28 0.59 0.67 0.21 0.20 0.09 0.04 0.01 0.02 0.00 0.00 0.00 0.00 0.01 0.03 0.06 0.06 0.08 0.15 0.37 0.60 0.36 0.18 0.05 0.08 0.43 0.45 0.52 0.84
0.11 0.15 0.23 0.40 0.58 0.70 0.51 0.40 0.24 0.30 0.29 0.25 0.15 0.13 0.17 0.31 0.38 0.33 0.31 0.37 0.79 0.43 0.10 0.11 0.08 0.01 0.00 0.00 0.00 0.00 0.01 0.07 0.09 0.07 0.04 0.09 0.08 0.09 0.47 0.48 0.24 0.09 0.09 0.25 0.69 0.45 0.58
0.11 0.19 0.38 0.51 0.79 0.49 0.41 0.23 0.23 0.28 0.26 0.22 0.20 0.26 0.29 0.23 0.16 0.12 0.22 0.50 0.58 0.38 0.13 0.06 0.07 0.00 0.00 0.00 0.01 0.06 0.16 0.24 0.12 0.02 0.02 0.06 0.11 0.14 0.36 0.52 0.24 0.06 0.06 0.19 0.37 0.34 0.37
0.16 0.28 0.47 0.81 0.57 0.39 0.21 0.19 0.27 0.29 0.27 0.27 0.24 0.27 0.25 0.16 0.05 0.01 0.05 0.18 0.41 0.34 0.13 0.03 0.04 0.01 0.00 0.00 0.04 0.07 0.09 0.14 0.07 0.03 0.04 0.07 0.23 0.10 0.31 0.27 0.22 0.10 0.05 0.19 0.18 0.61 0.58
0.25 0.36 0.65 0.74 0.39 0.26 0.12 0.22 0.27 0.24 0.21 0.24 0.25 0.22 0.22 0.13 0.06 0.05 0.07 0.03 0.35 0.23 0.17 0.07 0.01 0.00 0.00 0.00 0.02 0.10 0.15 0.25 0.13 0.04 0.11 0.29 0.25 0.06 0.24 0.20 0.24 0.12 0.05 0.16 0.10 0.54 0.71
0.39 0.47 0.72 0.44 0.31 0.12 0.10 0.17 0.21 0.23 0.28 0.31 0.25 0.22 0.25 0.16 0.06 0.15 0.17 0.11 0.16 0.23 0.21 0.08 0.01 0.02 0.01 0.01 0.03 0.02 0.06 0.13 0.10 0.19 0.46 0.28 0.19 0.34 0.35 0.18 0.09 0.06 0.12 0.15 0.08 0.26 0.50
0.51 0.59 0.50 0.32 0.12 0.07 0.15 0.19 0.26 0.31 0.37 0.30 0.23 0.34 0.36 0.18 0.06 0.23 0.33 0.26 0.22 0.22 0.16 0.04 0.02 0.01 0.00 0.01 0.02 0.01 0.04 0.06 0.23 0.45 0.65 0.59 0.71 0.65 0.35 0.15 0.07 0.07 0.30 0.68 0.43 0.32 0.23
0.54 0.48 0.34 0.15 0.06 0.16 0.18 0.20 0.27 0.38 0.40 0.38 0.44 0.40 0.26 0.07 0.05 0.14 0.46 0.42 0.33 0.22 0.08 0.01 0.00 0.01 0.03 0.01 0.01 0.01 0.05 0.29 0.34 0.33 0.34 0.50 0.43 0.32 0.21 0.09 0.18 0.19 0.24 0.42 0.35 0.18 0.12
0.44 0.32 0.20 0.08 0.12 0.20 0.20 0.19 0.31 0.41 0.44 0.58 0.62 0.49 0.33 0.08 0.06 0.17 0.44 0.39 0.42 0.14 0.05 0.01 0.00 0.01 0.01 0.01 0.00 0.02 0.08 0.17 0.06 0.01 0.07 0.14 0.19 0.10 0.07 0.02 0.05 0.10 0.06 0.04 0.08 0.10 0.09
0.27 0.23 0.13 0.06 0.11 0.18 0.16 0.19 0.35 0.57 0.68 0.86 0.91 0.84 0.49 0.09 0.10 0.29 0.48 0.41 0.15 0.08 0.03 0.00 0.00 0.00 0.01 0.00 0.04 0.10 0.11 0.04 0.05 0.00 0.00 0.04 0.09 0.04 0.02 0.06 0.05 0.01 0.00 0.00 0.02 0.10 0.15
0.17 0.19 0.06 0.06 0.11 0.11 0.16 0.32 0.78 1.10 1.19 1.02 0.94 1.04 0.78 0.28 0.36 0.51 0.33 0.21 0.11 0.03 0.01 0.00 0.00 0.00 0.00 0.00 0.02 0.02 0.02 0.00 0.00 0.00 0.00 0.06 0.05 0.03 0.03 0.07 0.02 0.00 0.00 0.00 0.00 0.00 0.04
0.16 0.07 0.04 0.08 0.11 0.12 0.17 0.27 0.51 0.86 1.02 0.99 1.07 1.01 1.15 0.70 0.56 0.37 0.12 0.03 0.05 0.07 0.00 0.00 0.00 0.00 0.00 0.00 0.00 0.00 0.00 0.00 0.00 0.00 0.00 0.00 0.01 0.01 0.00 0.00 0.00 0.00 0.00 0.00 0.00 0.00 0.00
0.07 0.04 0.06 0.12 0.11 0.14 0.18 0.16 0.21 0.53 0.67 0.75 0.79 0.97 1.25 0.76 0.32 0.12 0.05 0.02 0.06 0.08 0.02 0.01 0.01 0.00 0.00 0.00 0.00 0.00 0.00 0.00 0.00 0.00 0.00 0.00 0.00 0.01 0.00 0.00 0.00 0.00 0.00 0.00 0.00 0.00 0.00
0.05 0.05 0.09 0.13 0.13 0.17 0.24 0.29 0.19 0.30 0.50 0.75 0.63 0.72 1.04 0.78 0.22 0.05 0.10 0.14 0.15 0.04 0.02 0.00 0.01 0.00 0.00 0.00 0.00 0.00 0.00 0.00 0.00 0.00 0.00 0.00 0.00 0.00 0.00 0.00 0.00 0.00 0.00 0.00 0.00 0.00 0.00
0.05 0.08 0.10 0.15 0.14 0.17 0.29 0.63 0.65 0.55 0.64 0.99 0.57 0.41 0.33 0.28 0.16 0.09 0.10 0.12 0.09 0.06 0.02 0.01 0.01 0.00 0.00 0.00 0.00 0.00 0.00 0.00 0.00 0.00 0.00 0.00 0.00 0.00 0.00 0.00 0.00 0.00 0.00 0.00 0.00 0.00 0.00
0.07 0.08 0.11 0.17 0.17 0.21 0.24 0.37 0.64 0.82 0.86 0.90 0.45 0.27 0.25 0.15 0.13 0.13 0.12 0.08 0.05 0.03 0.02 0.02 0.02 0.00 0.00 0.00 0.00 0.00 0.00 0.00 0.00 0.00 0.00 0.00 0.00 0.00 0.00 0.00 0.00 0.00 0.00 0.00 0.00 0.00 0.00
0.08 0.09 0.13 0.17 0.20 0.32 0.37 0.34 0.48 0.64 0.91 0.85 0.58 0.38 0.29 0.27 0.15 0.13 0.07 0.02 0.01 0.01 0.01 0.00 0.01 0.01 0.00 0.00 0.00 0.00 0.00 0.00 0.00 0.00 0.00 0.00 0.00 0.00 0.00 0.00 0.00 0.00 0.00 0.00 0.00 0.00 0.00
0.08 0.10 0.14 0.14 0.23 0.49 0.94 0.96 0.69 0.56 0.83 0.77 0.48 0.30 0.15 0.10 0.04 0.02 0.00 0.00 0.00 0.01 0.01 0.00 0.00 0.01 0.00 0.00 0.00 0.00 0.00 0.00 0.00 0.00 0.00 0.00 0.00 0.00 0.00 0.00 0.00 0.00 0.00 0.00 0.00 0.00 0.00
0.09 0.12 0.12 0.13 0.19 0.36 0.47 0.67 0.98 1.00 0.81 0.51 0.30 0.14 0.07 0.05 0.01 0.00 0.00 0.00 0.00 0.01 0.00 0.00 0.00 0.00 0.00 0.00 0.01 0.01 0.01 0.00 0.00 0.00 0.00 0.00 0.00 0.01 0.00 0.00 0.00 0.00 0.00 0.00 0.00 0.00 0.00
0.10 0.10 0.09 0.09 0.13 0.25 0.25 0.19 0.42 0.59 0.61 0.26 0.11 0.03 0.00 0.00 0.00 0.00 0.00 0.00 0.01 0.03 0.01 0.00 0.00 0.00 0.00 0.00 0.00 0.00 0.01 0.00 0.00 0.00 0.00 0.00 0.00 0.00 0.01 0.00 0.00 0.00 0.00 0.00 0.00 0.00 0.00
0.08 0.07 0.06 0.08 0.15 0.25 0.21 0.23 0.28 0.45 0.31 0.11 0.04 0.00 0.00 0.00 0.00 0.00 0.00 0.00 0.00 0.03 0.00 0.00 0.00 0.00 0.00 0.00 0.00 0.00 0.00 0.00 0.00 0.00 0.00 0.00 0.00 0.00 0.00 0.00 0.00 0.00 0.00 0.00 0.00 0.00 0.00
0.06 0.05 0.05 0.10 0.29 0.38 0.34 0.37 0.42 0.31 0.20 0.06 0.02 0.00 0.00 0.00 0.00 0.00 0.00 0.00 0.00 0.00 0.00 0.00 0.01 0.01 0.00 0.02 0.00 0.00 0.00 0.00 0.00 0.00 0.00 0.00 0.00 0.00 0.00 0.00 0.00 0.00 0.00 0.00 0.00 0.00 0.00
0.05 0.04 0.05 0.12 0.21 0.50 0.57 0.47 0.47 0.27 0.12 0.03 0.01 0.00 0.00 0.00 0.00 0.00 0.00 0.00 0.00 0.00 0.00 0.00 0.01 0.00 0.00 0.01 0.00 0.00 0.00 0.00 0.00 0.00 0.00 0.00 0.00 0.00 0.00 0.00 0.00 0.00 0.00 0.00 0.00 0.00 0.00

GFSGBSN_prec_precacc24_102.txt.gz
Total_Precipitation_Accumulation
0.06 0.06 0.06 0.07 0.08 0.09 0.09 0.11 0.16 0.13 0.11 0.12 0.14 0.18 0.18 0.18 0.26 0.23 0.19 0.18 0.21 0.28 0.40 0.55 0.58 0.35 0.05 0.01 0.00 0.00 0.00 0.00 0.00 0.00 0.01 0.04 0.15 0.13 0.17 0.05 0.11 0.09 0.21 0.20 0.25 0.36 0.22
0.07 0.07 0.07 0.09 0.10 0.14 0.12 0.13 0.13 0.10 0.15 0.17 0.19 0.20 0.17 0.16 0.15 0.11 0.12 0.17 0.18 0.22 0.28 0.36 0.38 0.34 0.10 0.02 0.00 0.00 0.00 0.00 0.00 0.00 0.01 0.08 0.22 0.20 0.17 0.14 0.12 0.08 0.21 0.22 0.23 0.37 0.40
0.07 0.07 0.10 0.13 0.16 0.20 0.21 0.24 0.16 0.23 0.25 0.23 0.17 0.14 0.10 0.10 0.11 0.08 0.08 0.11 0.15 0.15 0.22 0.24 0.28 0.27 0.18 0.07 0.00 0.00 0.00 0.00 0.00 0.00 0.00 0.06 0.32 0.48 0.38 0.19 0.09 0.17 0.31 0.41 0.28 0.34 0.51
0.07 0.10 0.13 0.15 0.18 0.22 0.24 0.35 0.49 0.45 0.36 0.27 0.20 0.10 0.08 0.13 0.12 0.11 0.08 0.06 0.09 0.17 0.17 0.20 0.22 0.20 0.16 0.05 0.00 0.00 0.00 0.00 0.01 0.00 0.00 0.01 0.19 0.27 0.57 0.36 0.24 0.26 0.55 0.45 0.43 0.41 0.43
0.09 0.11 0.13 0.15 0.19 0.26 0.42 0.78 0.74 0.44 0.34 0.30 0.19 0.10 0.14 0.16 0.16 0.13 0.09 0.13 0.19 0.17 0.19 0.21 0.24 0.14 0.14 0.06 0.01 0.00 0.01 0.00 0.01 0.01 0.01 0.01 0.17 0.41 0.54 0.62 0.39 0.34 0.53 0.33 0.33 0.40 0.50
0.10 0.12 0.14 0.19 0.27 0.39 0.67 0.69 0.59 0.40 0.28 0.21 0.16 0.13 0.14 0.17 0.15 0.24 0.36 0.41 0.53 0.32 0.25 0.23 0.15 0.15 0.07 0.04 0.01 0.00 0.00 0.00 0.01 0.03 0.04 0.07 0.16 0.46 0.45 0.39 0.33 0.18 0.44 0.44 0.22 0.37 0.56
0.12 0.13 0.18 0.26 0.40 0.65 0.61 0.53 0.43 0.24 0.20 0.19 0.17 0.17 0.15 0.18 0.29 0.42 0.28 0.61 0.92 0.51 0.33 0.25 0.16 0.05 0.01 0.00 0.00 0.00 0.00 0.00 0.02 0.05 0.05 0.08 0.14 0.35 0.48 0.29 0.16 0.05 0.08 0.42 0.37 0.34 0.50
0.12 0.16 0.24 0.40 0.58 0.70 0.48 0.41 0.23 0.22 0.24 0.21 0.15 0.15 0.19 0.33 0.38 0.33 0.31 0.40 1.04 0.71 0.22 0.22 0.28 0.03 0.00 0.00 0.00 0.00 0.00 0.04 0.06 0.06 0.04 0.09 0.06 0.07 0.39 0.40 0.22 0.08 0.10 0.23 0.64 0.36 0.38
0.12 0.18 0.38 0.51 0.79 0.49 0.39 0.19 0.18 0.16 0.18 0.18 0.19 0.27 0.31 0.24 0.16 0.12 0.22 0.55 0.67 0.53 0.21 0.16 0.25 0.03 0.00 0.00 0.01 0.05 0.08 0.10 0.06 0.02 0.02 0.06 0.02 0.09 0.23 0.35 0.22 0.07 0.07 0.16 0.31 0.30 0.31
0.16 0.28 0.46 0.81 0.57 0.40 0.21 0.14 0.18 0.14 0.15 0.19 0.21 0.28 0.26 0.16 0.05 0.01 0.07 0.19 0.48 0.46 0.27 0.32 0.38 0.09 0.00 0.00 0.04 0.06 0.03 0.06 0.04 0.02 0.04 0.05 0.07 0.07 0.28 0.19 0.23 0.11 0.04 0.18 0.13 0.50 0.57
0.26 0.36 0.64 0.73 0.39 0.27 0.12 0.18 0.18 0.13 0.12 0.16 0.21 0.22 0.23 0.13 0.06 0.05 0.08 0.04 0.45 0.28 0.26 0.22 0.12 0.05 0.00 0.01 0.02 0.10 0.13 0.18 0.09 0.03 0.08 0.16 0.15 0.06 0.21 0.15 0.25 0.12 0.05 0.16 0.10 0.52 0.74
0.39 0.47 0.72 0.43 0.30 0.12 0.12 0.18 0.17 0.18 0.23 0.22 0.21 0.22 0.25 0.16 0.06 0.15 0.17 0.12 0.19 0.27 0.30 0.13 0.02 0.02 0.01 0.01 0.05 0.03 0.06 0.13 0.10 0.14 0.34 0.21 0.18 0.34 0.35 0.18 0.09 0.06 0.10 0.10 0.07 0.28 0.60
0.49 0.57 0.48 0.30 0.11 0.07 0.16 0.19 0.20 0.22 0.25 0.22 0.21 0.34 0.36 0.18 0.06 0.23 0.33 0.27 0.23 0.26 0.21 0.06 0.04 0.01 0.00 0.02 0.04 0.01 0.04 0.06 0.24 0.42 0.56 0.58 0.71 0.65 0.35 0.14 0.07 0.06 0.29 0.61 0.45 0.42 0.31
0.52 0.46 0.31 0.14 0.06 0.14 0.18 0.19 0.18 0.23 0.23 0.28 0.41 0.40 0.26 0.07 0.05 0.14 0.46 0.42 0.39 0.29 0.09 0.02 0.00 0.01 0.03 0.01 0.01 0.01 0.07 0.30 0.35 0.33 0.37 0.52 0.44 0.32 0.21 0.09 0.18 0.18 0.29 0.56 0.43 0.32 0.22
0.42 0.30 0.19 0.06 0.06 0.13 0.17 0.16 0.19 0.22 0.28 0.47 0.58 0.49 0.33 0.08 0.06 0.17 0.44 0.42 0.48 0.17 0.06 0.01 0.02 0.03 0.02 0.01 0.01 0.03 0.11 0.24 0.06 0.02 0.09 0.19 0.20 0.10 0.07 0.02 0.05 0.12 0.12 0.11 0.16 0.24 0.16
0.27 0.22 0.12 0.04 0.06 0.12 0.13 0.13 0.18 0.39 0.56 0.77 0.86 0.81 0.48 0.09 0.10 0.29 0.48 0.43 0.16 0.09 0.03 0.00 0.00 0.00 0.01 0.00 0.07 0.12 0.14 0.08 0.05 0.00 0.03 0.06 0.10 0.04 0.02 0.06 0.05 0.02 0.02 0.05 0.05 0.15 0.25
0.16 0.18 0.05 0.05 0.09 0.10 0.13 0.15 0.18 0.50 0.94 0.89 0.85 1.00 0.75 0.28 0.36 0.51 0.33 0.22 0.11 0.03 0.01 0.00 0.00 0.00 0.00 0.01 0.02 0.02 0.02 0.00 0.00 0.00 0.01 0.07 0.05 0.03 0.03 0.07 0.02 0.00 0.02 0.02 0.00 0.01 0.06
0.16 0.07 0.04 0.07 0.10 0.11 0.15 0.16 0.14 0.28 0.64 0.74 0.94 0.95 1.12 0.70 0.56 0.36 0.12 0.03 0.05 0.07 0.00 0.00 0.00 0.00 0.00 0.00 0.00 0.00 0.00 0.00 0.00 0.00 0.00 0.00 0.01 0.01 0.00 0.00 0.00 0.00 0.00 0.01 0.00 0.00 0.00
0.07 0.04 0.06 0.11 0.10 0.12 0.15 0.14 0.12 0.21 0.47 0.59 0.65 0.87 1.22 0.75 0.32 0.12 0.05 0.02 0.06 0.08 0.02 0.01 0.01 0.00 0.00 0.00 0.00 0.00 0.00 0.00 0.00 0.00 0.00 0.00 0.00 0.01 0.00 0.00 0.00 0.00 0.00 0.00 0.00 0.00 0.00
0.04 0.05 0.09 0.12 0.12 0.15 0.15 0.12 0.11 0.16 0.35 0.62 0.51 0.64 1.00 0.78 0.22 0.05 0.10 0.14 0.15 0.04 0.02 0.00 0.01 0.00 0.00 0.00 0.00 0.00 0.00 0.00 0.00 0.00 0.00 0.00 0.00 0.00 0.00 0.00 0.00 0.00 0.00 0.00 0.00 0.00 0.00
0.04 0.07 0.09 0.13 0.13 0.13 0.15 0.11 0.13 0.21 0.47 0.83 0.48 0.37 0.32 0.28 0.16 0.09 0.10 0.12 0.09 0.06 0.02 0.01 0.01 0.00 0.00 0.00 0.00 0.00 0.00 0.00 0.00 0.00 0.00 0.00 0.00 0.00 0.00 0.00 0.00 0.00 0.00 0.00 0.00 0.00 0.00
0.04 0.06 0.09 0.15 0.15 0.13 0.11 0.10 0.16 0.35 0.60 0.67 0.35 0.24 0.24 0.15 0.13 0.13 0.12 0.08 0.05 0.03 0.02 0.02 0.02 0.00 0.00 0.00 0.00 0.00 0.00 0.00 0.00 0.00 0.00 0.00 0.00 0.00 0.00 0.00 0.00 0.00 0.00 0.00 0.00 0.00 0.00
0.05 0.07 0.11 0.15 0.14 0.12 0.14 0.17 0.23 0.35 0.64 0.63 0.47 0.36 0.29 0.27 0.15 0.13 0.07 0.02 0.01 0.01 0.01 0.00 0.01 0.01 0.00 0.00 0.00 0.00 0.00 0.00 0.00 0.00 0.00 0.00 0.00 0.00 0.00 0.00 0.00 0.00 0.00 0.00 0.00 0.00 0.00
0.06 0.08 0.11 0.11 0.10 0.11 0.19 0.25 0.33 0.40 0.58 0.56 0.39 0.30 0.15 0.10 0.04 0.02 0.00 0.00 0.00 0.01 0.01 0.00 0.00 0.01 0.00 0.00 0.00 0.00 0.00 0.00 0.00 0.00 0.00 0.00 0.00 0.00 0.00 0.00 0.00 0.00 0.00 0.00 0.00 0.00 0.00
0.06 0.10 0.09 0.09 0.08 0.12 0.17 0.16 0.27 0.63 0.52 0.38 0.28 0.14 0.07 0.05 0.01 0.00 0.00 0.00 0.00 0.01 0.00 0.00 0.00 0.00 0.00 0.00 0.00 0.00 0.01 0.00 0.00 0.00 0.00 0.00 0.00 0.00 0.00 0.00 0.00 0.00 0.00 0.00 0.00 0.00 0.00
0.07 0.07 0.06 0.07 0.09 0.15 0.18 0.12 0.16 0.34 0.43 0.22 0.11 0.03 0.00 0.00 0.00 0.00 0.00 0.00 0.01 0.03 0.01 0.00 0.00 0.00 0.00 0.00 0.00 0.00 0.01 0.00 0.00 0.00 0.00 0.00 0.00 0.00 0.00 0.00 0.00 0.00 0.00 0.00 0.00 0.00 0.00
0.05 0.05 0.05 0.06 0.06 0.11 0.10 0.19 0.21 0.36 0.21 0.09 0.04 0.00 0.00 0.00 0.00 0.00 0.00 0.00 0.00 0.03 0.00 0.00 0.00 0.00 0.00 0.00 0.00 0.00 0.00 0.00 0.00 0.00 0.00 0.00 0.00 0.00 0.00 0.00 0.00 0.00 0.00 0.00 0.00 0.00 0.00
0.04 0.03 0.04 0.04 0.05 0.05 0.06 0.17 0.24 0.21 0.14 0.06 0.02 0.00 0.00 0.00 0.00 0.00 0.00 0.00 0.00 0.00 0.00 0.00 0.01 0.01 0.00 0.02 0.00 0.00 0.00 0.00 0.00 0.00 0.00 0.00 0.00 0.00 0.00 0.00 0.00 0.00 0.00 0.00 0.00 0.00 0.00
0.03 0.03 0.04 0.04 0.03 0.05 0.05 0.15 0.22 0.15 0.06 0.02 0.00 0.00 0.00 0.00 0.00 0.00 0.00 0.00 0.00 0.00 0.00 0.00 0.01 0.00 0.00 0.01 0.00 0.00 0.00 0.00 0.00 0.00 0.00 0.00 0.00 0.00 0.00 0.00 0.00 0.00 0.00 0.00 0.00 0.00 0.00

GFSGBSN_prec_precacc24_108.txt.gz
Total_Precipitation_Accumulation
0.11 0.10 0.10 0.14 0.16 0.20 0.26 0.32 0.30 0.30 0.33 0.41 0.54 0.63 0.32 0.18 0.25 0.23 0.18 0.17 0.20 0.27 0.38 0.52 0.64 0.67 0.30 0.34 0.22 0.00 0.00 0.03 0.01 0.00 0.00 0.00 0.01 0.03 0.02 0.01 0.02 0.02 0.09 0.06 0.06 0.04 0.05
0.10 0.11 0.11 0.15 0.20 0.23 0.27 0.29 0.33 0.42 0.71 1.23 1.01 0.66 0.23 0.11 0.11 0.10 0.12 0.16 0.18 0.21 0.27 0.35 0.71 0.55 0.32 0.37 0.22 0.12 0.05 0.02 0.00 0.00 0.00 0.00 0.01 0.04 0.07 0.05 0.05 0.02 0.03 0.08 0.06 0.05 0.07
0.09 0.10 0.14 0.17 0.19 0.21 0.24 0.30 0.39 0.80 1.34 1.26 0.85 0.51 0.08 0.06 0.06 0.05 0.07 0.11 0.14 0.14 0.21 0.24 0.59 0.35 0.30 0.31 0.13 0.27 0.12 0.01 0.00 0.00 0.00 0.00 0.02 0.12 0.14 0.07 0.03 0.08 0.12 0.12 0.10 0.07 0.09
0.08 0.11 0.14 0.16 0.18 0.22 0.26 0.40 0.88 1.02 0.84 0.70 0.52 0.27 0.05 0.05 0.05 0.06 0.07 0.06 0.09 0.17 0.17 0.23 0.36 0.30 0.38 0.19 0.15 0.22 0.11 0.01 0.01 0.00 0.00 0.00 0.01 0.10 0.30 0.16 0.11 0.11 0.21 0.17 0.13 0.07 0.07
0.09 0.11 0.12 0.15 0.19 0.26 0.44 0.83 0.86 0.56 0.52 0.36 0.21 0.09 0.05 0.08 0.08 0.08 0.08 0.13 0.20 0.19 0.24 0.33 0.34 0.18 0.22 0.12 0.07 0.07 0.04 0.01 0.00 0.01 0.01 0.01 0.08 0.12 0.25 0.44 0.26 0.22 0.16 0.08 0.09 0.11 0.07
0.10 0.12 0.13 0.17 0.25 0.39 0.68 0.69 0.57 0.37 0.20 0.12 0.07 0.02 0.02 0.05 0.10 0.23 0.35 0.41 0.54 0.40 0.38 0.31 0.21 0.21 0.10 0.08 0.09 0.03 0.00 0.00 0.00 0.00 0.02 0.04 0.10 0.13 0.08 0.27 0.24 0.14 0.24 0.12 0.06 0.11 0.11
0.11 0.13 0.16 0.24 0.38 0.65 0.60 0.54 0.44 0.21 0.14 0.08 0.05 0.02 0.03 0.12 0.27 0.40 0.27 0.61 0.98 0.67 0.48 0.32 0.20 0.09 0.02 0.01 0.01 0.01 0.00 0.00 0.00 0.02 0.03 0.06 0.12 0.24 0.21 0.08 0.11 0.03 0.05 0.06 0.13 0.17 0.16
0.12 0.15 0.22 0.38 0.57 0.69 0.48 0.42 0.23 0.20 0.15 0.11 0.06 0.03 0.09 0.27 0.34 0.31 0.29 0.40 1.13 0.87 0.47 0.27 0.30 0.07 0.03 0.00 0.00 0.00 0.00 0.01 0.02 0.03 0.02 0.08 0.06 0.06 0.34 0.26 0.13 0.05 0.08 0.08 0.30 0.19 0.18
0.11 0.18 0.37 0.49 0.78 0.49 0.40 0.20 0.17 0.16 0.12 0.07 0.06 0.05 0.12 0.16 0.13 0.11 0.22 0.56 0.73 0.64 0.32 0.32 0.44 0.15 0.02 0.02 0.01 0.00 0.00 0.01 0.02 0.01 0.01 0.05 0.02 0.09 0.22 0.29 0.08 0.04 0.07 0.15 0.25 0.09 0.12
0.16 0.27 0.45 0.80 0.57 0.40 0.23 0.18 0.19 0.15 0.10 0.08 0.06 0.03 0.06 0.10 0.04 0.01 0.06 0.21 0.50 0.51 0.35 0.62 0.63 0.31 0.04 0.01 0.01 0.00 0.00 0.02 0.03 0.01 0.03 0.04 0.02 0.06 0.12 0.08 0.08 0.07 0.03 0.17 0.10 0.38 0.35
0.26 0.36 0.64 0.74 0.40 0.28 0.14 0.22 0.21 0.14 0.11 0.11 0.08 0.02 0.06 0.08 0.03 0.03 0.08 0.07 0.51 0.39 0.49 0.62 0.42 0.18 0.07 0.04 0.04 0.02 0.01 0.05 0.05 0.03 0.08 0.08 0.07 0.05 0.05 0.05 0.16 0.11 0.05 0.15 0.06 0.37 0.64
0.39 0.46 0.72 0.44 0.31 0.14 0.13 0.20 0.17 0.17 0.21 0.18 0.09 0.06 0.08 0.10 0.05 0.15 0.17 0.19 0.28 0.29 0.44 0.30 0.21 0.14 0.09 0.05 0.06 0.04 0.04 0.11 0.08 0.11 0.15 0.05 0.14 0.23 0.21 0.13 0.06 0.05 0.09 0.06 0.03 0.24 0.52
0.48 0.56 0.48 0.30 0.12 0.08 0.17 0.20 0.20 0.21 0.22 0.15 0.09 0.13 0.13 0.14 0.05 0.23 0.33 0.27 0.23 0.28 0.26 0.13 0.13 0.05 0.02 0.05 0.05 0.02 0.05 0.06 0.22 0.23 0.30 0.36 0.61 0.62 0.33 0.13 0.05 0.05 0.30 0.41 0.26 0.43 0.31
0.51 0.45 0.31 0.14 0.06 0.14 0.18 0.19 0.19 0.22 0.17 0.15 0.19 0.16 0.11 0.03 0.04 0.14 0.46 0.43 0.44 0.36 0.13 0.05 0.01 0.01 0.04 0.02 0.02 0.01 0.10 0.33 0.36 0.34 0.39 0.50 0.39 0.30 0.20 0.08 0.12 0.18 0.33 0.65 0.47 0.40 0.33
0.42 0.29 0.18 0.05 0.06 0.12 0.16 0.16 0.19 0.20 0.20 0.26 0.34 0.34 0.24 0.03 0.03 0.15 0.42 0.42 0.52 0.19 0.07 0.01 0.02 0.03 0.02 0.05 0.06 0.06 0.20 0.28 0.07 0.02 0.11 0.23 0.16 0.08 0.05 0.02 0.03 0.07 0.18 0.19 0.30 0.34 0.33
0.26 0.21 0.10 0.03 0.05 0.10 0.12 0.13 0.15 0.18 0.22 0.36 0.53 0.63 0.37 0.04 0.04 0.23 0.43 0.42 0.17 0.10 0.03 0.00 0.00 0.00 0.01 0.01 0.08 0.14 0.17 0.09 0.06 0.01 0.06 0.07 0.10 0.04 0.01 0.02 0.02 0.02 0.09 0.16 0.15 0.22 0.36
0.15 0.16 0.04 0.02 0.06 0.08 0.10 0.13 0.12 0.11 0.17 0.23 0.22 0.61 0.60 0.17 0.22 0.39 0.28 0.22 0.11 0.03 0.01 0.00 0.00 0.00 0.00 0.01 0.02 0.02 0.02 0.00 0.00 0.00 0.01 0.07 0.06 0.03 0.03 0.03 0.01 0.00 0.07 0.10 0.11 0.11 0.18
0.14 0.05 0.00 0.02 0.06 0.08 0.10 0.13 0.09 0.10 0.16 0.10 0.16 0.50 0.93 0.48 0.35 0.28 0.11 0.03 0.05 0.07 0.00 0.00 0.00 0.00 0.00 0.00 0.00 0.00 0.00 0.00 0.00 0.00 0.00 0.00 0.01 0.01 0.00 0.00 0.00 0.00 0.00 0.03 0.08 0.08 0.04
0.05 0.00 0.00 0.04 0.05 0.08 0.11 0.10 0.07 0.10 0.17 0.07 0.15 0.46 0.78 0.42 0.16 0.09 0.04 0.02 0.06 0.08 0.02 0.01 0.01 0.00 0.00 0.00 0.00 0.00 0.00 0.00 0.00 0.00 0.00 0.00 0.00 0.01 0.00 0.00 0.00 0.00 0.00 0.00 0.00 0.01 0.00
0.01 0.00 0.01 0.03 0.05 0.10 0.12 0.08 0.05 0.08 0.12 0.09 0.09 0.29 0.53 0.40 0.12 0.02 0.05 0.12 0.15 0.04 0.02 0.00 0.01 0.00 0.00 0.00 0.00 0.00 0.00 0.00 0.00 0.00 0.00 0.00 0.00 0.00 0.00 0.00 0.00 0.00 0.00 0.00 0.00 0.00 0.00
0.00 0.00 0.01 0.05 0.07 0.08 0.09 0.06 0.04 0.07 0.17 0.09 0.05 0.15 0.19 0.12 0.08 0.02 0.05 0.12 0.09 0.06 0.02 0.01 0.01 0.00 0.00 0.00 0.00 0.00 0.00 0.00 0.00 0.00 0.00 0.00 0.00 0.00 0.00 0.00 0.00 0.00 0.00 0.00 0.00 0.00 0.00
0.00 0.00 0.02 0.09 0.09 0.07 0.05 0.04 0.04 0.07 0.07 0.03 0.03 0.04 0.05 0.01 0.02 0.04 0.10 0.08 0.05 0.03 0.02 0.02 0.02 0.00 0.00 0.00 0.00 0.00 0.00 0.00 0.00 0.00 0.00 0.00 0.00 0.00 0.00 0.00 0.00 0.00 0.00 0.00 0.00 0.00 0.00
0.00 0.00 0.04 0.09 0.08 0.06 0.05 0.07 0.04 0.06 0.05 0.09 0.13 0.06 0.08 0.12 0.08 0.11 0.07 0.02 0.01 0.01 0.01 0.00 0.01 0.01 0.00 0.00 0.00 0.00 0.00 0.00 0.00 0.00 0.00 0.00 0.00 0.00 0.00 0.00 0.00 0.00 0.00 0.00 0.00 0.00 0.00
0.01 0.02 0.05 0.05 0.04 0.03 0.04 0.06 0.04 0.04 0.07 0.14 0.09 0.06 0.03 0.03 0.03 0.02 0.00 0.00 0.00 0.01 0.01 0.00 0.00 0.01 0.00 0.00 0.00 0.00 0.00 0.00 0.00 0.00 0.00 0.00 0.00 0.00 0.00 0.00 0.00 0.00 0.00 0.00 0.00 0.00 0.00
0.01 0.04 0.04 0.03 0.03 0.03 0.05 0.05 0.04 0.05 0.06 0.04 0.03 0.02 0.04 0.04 0.01 0.00 0.00 0.00 0.00 0.01 0.00 0.00 0.00 0.00 0.00 0.00 0.00 0.00 0.00 0.00 0.00 0.00 0.00 0.00 0.00 0.00 0.00 0.00 0.00 0.00 0.00 0.00 0.00 0.00 0.00
0.02 0.02 0.02 0.02 0.03 0.04 0.06 0.03 0.03 0.06 0.02 0.01 0.01 0.00 0.00 0.00 0.00 0.00 0.00 0.00 0.01 0.03 0.01 0.00 0.00 0.00 0.00 0.00 0.00 0.00 0.00 0.00 0.00 0.00 0.00 0.00 0.00 0.00 0.00 0.00 0.00 0.00 0.00 0.00 0.00 0.00 0.00
0.02 0.01 0.02 0.02 0.02 0.04 0.02 0.03 0.03 0.13 0.03 0.01 0.00 0.00 0.00 0.00 0.00 0.00 0.00 0.00 0.00 0.03 0.00 0.00 0.00 0.00 0.00 0.00 0.00 0.00 0.00 0.00 0.00 0.00 0.00 0.00 0.00 0.00 0.00 0.00 0.00 0.00 0.00 0.00 0.00 0.00 0.00
0.02 0.01 0.01 0.01 0.01 0.02 0.03 0.02 0.01 0.04 0.02 0.01 0.00 0.00 0.00 0.00 0.00 0.00 0.00 0.00 0.00 0.00 0.00 0.00 0.01 0.01 0.00 0.02 0.00 0.00 0.00 0.00 0.00 0.00 0.00 0.00 0.00 0.00 0.00 0.00 0.00 0.00 0.00 0.00 0.00 0.00 0.00
0.01 0.01 0.00 0.00 0.00 0.02 0.02 0.00 0.01 0.01 0.00 0.00 0.00 0.00 0.00 0.00 0.00 0.00 0.00 0.00 0.00 0.00 0.00 0.00 0.01 0.00 0.00 0.01 0.00 0.00 0.00 0.00 0.00 0.00 0.00 0.00 0.00 0.00 0.00 0.00 0.00 0.00 0.00 0.00 0.00 0.00 0.00

GFSGBSN_prec_precacc24_111.txt.gz
Total_Precipitation_Accumulation
0.11 0.10 0.11 0.14 0.16 0.20 0.26 0.32 0.31 0.35 0.48 0.81 1.08 1.43 0.93 0.38 0.23 0.20 0.17 0.16 0.20 0.26 0.37 0.51 0.62 0.64 0.31 0.38 0.34 0.05 0.02 0.06 0.02 0.00 0.00 0.00 0.00 0.01 0.01 0.01 0.01 0.01 0.00 0.00 0.01 0.02 0.05
0.10 0.10 0.11 0.16 0.21 0.23 0.26 0.28 0.32 0.44 0.80 1.62 1.39 0.93 0.33 0.08 0.09 0.09 0.10 0.15 0.17 0.21 0.26 0.34 0.69 0.53 0.38 0.49 0.39 0.22 0.13 0.08 0.00 0.00 0.00 0.00 0.00 0.01 0.03 0.02 0.03 0.01 0.01 0.01 0.03 0.02 0.04
0.09 0.10 0.14 0.18 0.19 0.21 0.24 0.30 0.38 0.80 1.35 1.28 0.90 0.55 0.10 0.02 0.03 0.03 0.05 0.10 0.14 0.14 0.21 0.24 0.63 0.34 0.45 0.46 0.28 0.41 0.29 0.15 0.00 0.00 0.00 0.00 0.00 0.01 0.02 0.03 0.02 0.04 0.06 0.04 0.03 0.04 0.04
0.08 0.11 0.14 0.16 0.18 0.22 0.27 0.39 0.87 1.01 0.83 0.69 0.51 0.27 0.04 0.03 0.03 0.04 0.05 0.05 0.09 0.17 0.17 0.25 0.40 0.32 0.62 0.34 0.32 0.35 0.18 0.02 0.01 0.00 0.00 0.00 0.00 0.03 0.05 0.09 0.05 0.07 0.09 0.12 0.09 0.03 0.05
0.09 0.12 0.13 0.15 0.18 0.26 0.44 0.82 0.86 0.56 0.51 0.35 0.21 0.09 0.03 0.03 0.05 0.07 0.08 0.13 0.22 0.19 0.24 0.36 0.40 0.33 0.61 0.43 0.31 0.10 0.06 0.02 0.00 0.01 0.01 0.01 0.06 0.06 0.12 0.29 0.18 0.16 0.05 0.02 0.07 0.06 0.06
0.10 0.12 0.13 0.17 0.26 0.40 0.68 0.68 0.57 0.37 0.19 0.12 0.07 0.02 0.01 0.01 0.06 0.22 0.35 0.41 0.54 0.41 0.39 0.31 0.23 0.26 0.20 0.17 0.14 0.03 0.00 0.00 0.00 0.00 0.02 0.04 0.08 0.08 0.06 0.16 0.14 0.12 0.21 0.10 0.05 0.09 0.11
0.11 0.12 0.17 0.24 0.40 0.66 0.60 0.53 0.42 0.20 0.13 0.08 0.05 0.02 0.01 0.07 0.24 0.39 0.27 0.61 0.98 0.67 0.50 0.34 0.23 0.10 0.02 0.01 0.02 0.01 0.00 0.00 0.00 0.01 0.02 0.05 0.09 0.08 0.04 0.03 0.03 0.02 0.03 0.05 0.11 0.15 0.14
0.12 0.15 0.23 0.38 0.59 0.71 0.48 0.41 0.22 0.18 0.14 0.11 0.06 0.03 0.03 0.10 0.27 0.30 0.29 0.40 1.12 0.89 0.48 0.27 0.31 0.07 0.03 0.00 0.01 0.00 0.00 0.01 0.02 0.03 0.02 0.07 0.05 0.03 0.16 0.14 0.07 0.04 0.07 0.08 0.27 0.15 0.09
0.11 0.18 0.37 0.50 0.81 0.51 0.41 0.20 0.17 0.15 0.11 0.07 0.06 0.05 0.05 0.02 0.07 0.09 0.22 0.56 0.73 0.64 0.32 0.33 0.46 0.17 0.03 0.03 0.01 0.00 0.00 0.01 0.02 0.01 0.01 0.04 0.02 0.07 0.16 0.17 0.07 0.03 0.07 0.14 0.24 0.06 0.05
0.16 0.27 0.45 0.80 0.58 0.43 0.25 0.18 0.19 0.14 0.09 0.08 0.06 0.03 0.03 0.00 0.01 0.01 0.06 0.21 0.50 0.51 0.35 0.64 0.64 0.33 0.05 0.03 0.02 0.00 0.00 0.02 0.03 0.01 0.02 0.03 0.01 0.05 0.11 0.07 0.06 0.06 0.03 0.17 0.10 0.38 0.29
0.26 0.36 0.64 0.73 0.41 0.30 0.16 0.23 0.21 0.13 0.11 0.11 0.08 0.02 0.06 0.03 0.03 0.03 0.07 0.07 0.51 0.39 0.49 0.73 0.47 0.20 0.08 0.05 0.04 0.02 0.00 0.03 0.04 0.03 0.07 0.07 0.07 0.04 0.05 0.05 0.07 0.10 0.05 0.15 0.06 0.37 0.66
0.39 0.46 0.71 0.43 0.31 0.15 0.14 0.20 0.18 0.17 0.21 0.18 0.09 0.06 0.06 0.01 0.03 0.12 0.17 0.19 0.28 0.28 0.44 0.32 0.23 0.18 0.13 0.05 0.07 0.04 0.03 0.05 0.04 0.09 0.04 0.02 0.11 0.20 0.20 0.11 0.05 0.05 0.08 0.06 0.03 0.25 0.53
0.48 0.56 0.47 0.30 0.12 0.08 0.15 0.18 0.20 0.22 0.22 0.14 0.09 0.13 0.10 0.02 0.01 0.18 0.32 0.27 0.22 0.29 0.27 0.15 0.15 0.06 0.03 0.06 0.05 0.02 0.05 0.06 0.12 0.16 0.17 0.26 0.45 0.51 0.31 0.11 0.03 0.05 0.31 0.42 0.25 0.43 0.28
0.50 0.44 0.30 0.13 0.06 0.13 0.14 0.15 0.18 0.22 0.17 0.14 0.18 0.16 0.11 0.02 0.02 0.08 0.42 0.40 0.43 0.38 0.13 0.05 0.01 0.01 0.04 0.02 0.02 0.01 0.10 0.32 0.30 0.23 0.34 0.46 0.34 0.25 0.16 0.06 0.09 0.20 0.36 0.69 0.48 0.40 0.32
0.40 0.29 0.17 0.04 0.05 0.09 0.11 0.13 0.19 0.20 0.19 0.21 0.26 0.27 0.21 0.03 0.02 0.08 0.35 0.37 0.52 0.18 0.07 0.01 0.02 0.03 0.02 0.07 0.06 0.07 0.20 0.29 0.07 0.02 0.11 0.25 0.12 0.05 0.04 0.01 0.04 0.09 0.21 0.22 0.35 0.36 0.35
0.25 0.19 0.09 0.02 0.03 0.06 0.06 0.10 0.13 0.18 0.18 0.23 0.31 0.47 0.30 0.04 0.02 0.13 0.32 0.40 0.17 0.09 0.03 0.00 0.00 0.00 0.01 0.01 0.08 0.14 0.18 0.09 0.08 0.02 0.06 0.08 0.09 0.02 0.01 0.01 0.01 0.03 0.11 0.19 0.19 0.24 0.40
0.14 0.16 0.03 0.01 0.03 0.03 0.06 0.09 0.10 0.10 0.11 0.10 0.11 0.36 0.42 0.08 0.08 0.21 0.20 0.21 0.11 0.03 0.01 0.00 0.00 0.00 0.00 0.01 0.02 0.02 0.02 0.00 0.00 0.00 0.01 0.07 0.06 0.02 0.01 0.01 0.01 0.01 0.11 0.15 0.16 0.15 0.23
0.14 0.05 0.00 0.01 0.02 0.03 0.06 0.09 0.07 0.07 0.08 0.04 0.11 0.33 0.63 0.27 0.16 0.19 0.10 0.03 0.05 0.06 0.00 0.00 0.00 0.00 0.00 0.00 0.00 0.00 0.00 0.00 0.00 0.00 0.00 0.00 0.01 0.01 0.00 0.00 0.00 0.00 0.00 0.06 0.13 0.10 0.05
0.05 0.00 0.00 0.01 0.01 0.03 0.06 0.07 0.05 0.06 0.09 0.03 0.10 0.38 0.44 0.23 0.09 0.07 0.04 0.01 0.05 0.07 0.02 0.01 0.01 0.00 0.00 0.00 0.00 0.00 0.00 0.00 0.00 0.00 0.00 0.00 0.00 0.01 0.00 0.00 0.00 0.00 0.01 0.00 0.03 0.01 0.01
0.01 0.00 0.00 0.00 0.02 0.05 0.07 0.05 0.04 0.05 0.05 0.01 0.02 0.20 0.26 0.18 0.04 0.02 0.03 0.07 0.12 0.03 0.02 0.00 0.01 0.00 0.00 0.00 0.00 0.00 0.00 0.00 0.00 0.00 0.00 0.00 0.00 0.00 0.00 0.00 0.00 0.00 0.00 0.00 0.00 0.00 0.00
0.00 0.00 0.00 0.01 0.03 0.04 0.05 0.04 0.02 0.03 0.05 0.00 0.00 0.07 0.12 0.08 0.03 0.01 0.02 0.09 0.08 0.05 0.02 0.01 0.01 0.00 0.00 0.00 0.00 0.00 0.00 0.00 0.00 0.00 0.00 0.00 0.00 0.00 0.00 0.00 0.00 0.00 0.00 0.00 0.00 0.00 0.00
0.00 0.00 0.00 0.03 0.04 0.03 0.03 0.03 0.02 0.02 0.02 0.00 0.01 0.02 0.02 0.01 0.01 0.02 0.05 0.07 0.05 0.02 0.02 0.02 0.02 0.00 0.00 0.00 0.00 0.00 0.00 0.00 0.00 0.00 0.00 0.00 0.00 0.00 0.00 0.00 0.00 0.00 0.00 0.00 0.00 0.00 0.00
0.01 0.00 0.00 0.03 0.02 0.02 0.03 0.04 0.02 0.02 0.01 0.01 0.03 0.04 0.04 0.05 0.04 0.05 0.04 0.02 0.01 0.01 0.01 0.00 0.01 0.01 0.00 0.00 0.00 0.00 0.00 0.00 0.00 0.00 0.00 0.00 0.00 0.00 0.00 0.00 0.00 0.00 0.00 0.00 0.00 0.00 0.00
0.01 0.01 0.01 0.01 0.01 0.01 0.02 0.05 0.03 0.02 0.03 0.03 0.02 0.03 0.02 0.00 0.01 0.01 0.00 0.00 0.00 0.01 0.01 0.00 0.00 0.01 0.00 0.00 0.00 0.00 0.00 0.00 0.00 0.00 0.00 0.00 0.00 0.00 0.00 0.00 0.00 0.00 0.00 0.00 0.00 0.00 0.00
0.01 0.01 0.01 0.00 0.01 0.01 0.04 0.03 0.02 0.03 0.03 0.02 0.01 0.01 0.01 0.01 0.00 0.00 0.00 0.00 0.00 0.00 0.00 0.00 0.00 0.00 0.00 0.00 0.00 0.00 0.00 0.00 0.00 0.00 0.00 0.00 0.00 0.00 0.00 0.00 0.00 0.00 0.00 0.00 0.00 0.00 0.00
0.01 0.01 0.01 0.01 0.01 0.02 0.02 0.01 0.02 0.02 0.01 0.00 0.00 0.00 0.00 0.00 0.00 0.00 0.00 0.00 0.00 0.02 0.01 0.00 0.00 0.00 0.00 0.00 0.00 0.00 0.00 0.00 0.00 0.00 0.00 0.00 0.00 0.00 0.00 0.00 0.00 0.00 0.00 0.00 0.00 0.00 0.00
0.01 0.01 0.01 0.00 0.00 0.02 0.00 0.00 0.01 0.01 0.00 0.00 0.00 0.00 0.00 0.00 0.00 0.00 0.00 0.00 0.00 0.02 0.00 0.00 0.00 0.00 0.00 0.00 0.00 0.00 0.00 0.00 0.00 0.00 0.00 0.00 0.00 0.00 0.00 0.00 0.00 0.00 0.00 0.00 0.00 0.00 0.00
0.01 0.01 0.00 0.00 0.00 0.01 0.01 0.00 0.00 0.00 0.00 0.00 0.00 0.00 0.00 0.00 0.00 0.00 0.00 0.00 0.00 0.00 0.00 0.00 0.01 0.00 0.00 0.01 0.00 0.00 0.00 0.00 0.00 0.00 0.00 0.00 0.00 0.00 0.00 0.00 0.00 0.00 0.00 0.00 0.00 0.00 0.00
0.01 0.01 0.00 0.00 0.00 0.01 0.01 0.00 0.00 0.00 0.00 0.00 0.00 0.00 0.00 0.00 0.00 0.00 0.00 0.00 0.00 0.00 0.00 0.00 0.01 0.00 0.00 0.01 0.00 0.00 0.00 0.00 0.00 0.00 0.00 0.00 0.00 0.00 0.00 0.00 0.00 0.00 0.00 0.00 0.00 0.00 0.00

GFSGBSN_prec_precacc24_114.txt.gz
Total_Precipitation_Accumulation
0.10 0.10 0.11 0.15 0.18 0.22 0.28 0.32 0.30 0.34 0.49 0.85 1.12 1.50 0.97 0.34 0.08 0.14 0.17 0.16 0.20 0.26 0.37 0.51 0.62 0.65 0.44 0.44 0.38 0.06 0.05 0.14 0.04 0.00 0.00 0.00 0.00 0.00 0.00 0.00 0.00 0.00 0.00 0.00 0.00 0.00 0.00
0.10 0.10 0.12 0.16 0.22 0.24 0.28 0.29 0.32 0.44 0.80 1.62 1.41 0.94 0.33 0.04 0.02 0.04 0.09 0.15 0.17 0.20 0.26 0.34 0.69 0.54 0.42 0.53 0.42 0.23 0.15 0.12 0.01 0.00 0.00 0.00 0.00 0.00 0.00 0.00 0.01 0.00 0.01 0.00 0.00 0.00 0.00
0.09 0.10 0.14 0.18 0.20 0.22 0.26 0.31 0.39 0.80 1.35 1.27 0.90 0.55 0.10 0.02 0.02 0.01 0.03 0.09 0.14 0.14 0.21 0.24 0.64 0.35 0.46 0.51 0.33 0.42 0.36 0.24 0.01 0.00 0.00 0.00 0.00 0.00 0.00 0.00 0.00 0.01 0.02 0.02 0.00 0.00 0.00
0.08 0.11 0.14 0.17 0.18 0.23 0.27 0.40 0.90 1.02 0.83 0.68 0.50 0.26 0.04 0.03 0.01 0.00 0.03 0.05 0.09 0.17 0.17 0.29 0.48 0.34 0.72 0.47 0.39 0.41 0.21 0.03 0.00 0.00 0.00 0.00 0.00 0.01 0.01 0.01 0.00 0.03 0.06 0.03 0.00 0.00 0.00
0.09 0.12 0.13 0.16 0.19 0.27 0.44 0.81 0.87 0.57 0.50 0.34 0.21 0.09 0.03 0.03 0.01 0.02 0.08 0.16 0.22 0.23 0.43 0.48 0.48 0.40 1.00 0.79 0.47 0.15 0.08 0.03 0.00 0.01 0.01 0.00 0.04 0.04 0.03 0.07 0.10 0.06 0.04 0.01 0.00 0.00 0.01
0.10 0.12 0.13 0.17 0.27 0.40 0.67 0.68 0.56 0.38 0.19 0.12 0.07 0.02 0.01 0.01 0.01 0.17 0.33 0.40 0.55 0.46 0.54 0.48 0.40 0.45 0.51 0.50 0.23 0.04 0.00 0.00 0.00 0.00 0.01 0.02 0.05 0.05 0.03 0.10 0.10 0.10 0.16 0.04 0.01 0.03 0.05
0.11 0.13 0.17 0.24 0.41 0.67 0.60 0.53 0.42 0.19 0.13 0.08 0.05 0.02 0.01 0.03 0.09 0.36 0.26 0.59 0.97 0.68 0.52 0.37 0.28 0.14 0.11 0.07 0.03 0.02 0.00 0.00 0.00 0.01 0.01 0.03 0.06 0.03 0.01 0.01 0.01 0.02 0.03 0.03 0.06 0.10 0.11
0.11 0.15 0.22 0.38 0.60 0.70 0.48 0.40 0.22 0.18 0.13 0.10 0.06 0.03 0.02 0.03 0.02 0.15 0.24 0.39 1.13 0.91 0.49 0.28 0.31 0.08 0.04 0.01 0.01 0.00 0.00 0.01 0.01 0.02 0.01 0.05 0.04 0.01 0.03 0.03 0.04 0.04 0.06 0.05 0.23 0.12 0.09
0.11 0.17 0.37 0.49 0.80 0.51 0.41 0.20 0.17 0.15 0.10 0.07 0.06 0.05 0.04 0.01 0.00 0.04 0.16 0.52 0.72 0.64 0.33 0.34 0.47 0.18 0.04 0.03 0.01 0.00 0.00 0.01 0.02 0.01 0.01 0.03 0.01 0.02 0.06 0.04 0.05 0.02 0.05 0.14 0.23 0.06 0.05
0.16 0.27 0.45 0.80 0.58 0.42 0.25 0.19 0.18 0.13 0.09 0.08 0.05 0.03 0.03 0.00 0.00 0.01 0.06 0.20 0.50 0.51 0.35 0.64 0.64 0.34 0.06 0.03 0.02 0.00 0.00 0.02 0.03 0.01 0.02 0.02 0.01 0.03 0.08 0.04 0.05 0.05 0.03 0.16 0.09 0.37 0.29
0.26 0.35 0.63 0.73 0.40 0.29 0.16 0.22 0.18 0.12 0.10 0.11 0.08 0.02 0.05 0.02 0.01 0.01 0.05 0.06 0.50 0.39 0.49 0.73 0.48 0.20 0.08 0.05 0.05 0.02 0.00 0.03 0.04 0.03 0.06 0.06 0.05 0.04 0.04 0.04 0.05 0.09 0.05 0.15 0.06 0.38 0.67
0.39 0.45 0.70 0.43 0.30 0.13 0.14 0.18 0.16 0.16 0.20 0.17 0.08 0.06 0.05 0.00 0.01 0.02 0.08 0.17 0.27 0.27 0.45 0.32 0.24 0.19 0.13 0.06 0.07 0.03 0.03 0.03 0.02 0.04 0.02 0.01 0.07 0.17 0.10 0.02 0.00 0.04 0.07 0.05 0.03 0.26 0.54
0.48 0.55 0.47 0.29 0.11 0.08 0.14 0.16 0.19 0.21 0.20 0.12 0.07 0.11 0.09 0.02 0.00 0.08 0.18 0.23 0.19 0.28 0.28 0.15 0.15 0.06 0.03 0.06 0.05 0.02 0.05 0.04 0.06 0.11 0.07 0.11 0.34 0.43 0.23 0.07 0.02 0.05 0.30 0.42 0.26 0.43 0.28
0.48 0.43 0.30 0.12 0.04 0.11 0.13 0.14 0.17 0.18 0.14 0.11 0.12 0.11 0.08 0.02 0.01 0.02 0.26 0.31 0.42 0.39 0.13 0.05 0.01 0.01 0.04 0.02 0.02 0.01 0.10 0.22 0.15 0.13 0.20 0.32 0.25 0.21 0.15 0.05 0.08 0.20 0.37 0.71 0.49 0.40 0.32
0.34 0.26 0.17 0.04 0.04 0.07 0.08 0.13 0.16 0.17 0.16 0.16 0.18 0.20 0.15 0.02 0.01 0.04 0.18 0.31 0.52 0.18 0.07 0.01 0.02 0.03 0.02 0.07 0.06 0.07 0.21 0.28 0.08 0.02 0.11 0.24 0.07 0.03 0.02 0.01 0.04 0.10 0.23 0.23 0.38 0.37 0.37
0.18 0.16 0.08 0.02 0.02 0.03 0.05 0.09 0.10 0.14 0.16 0.17 0.23 0.33 0.15 0.01 0.01 0.04 0.17 0.38 0.17 0.09 0.03 0.00 0.00 0.00 0.01 0.01 0.08 0.14 0.18 0.09 0.08 0.02 0.06 0.08 0.07 0.01 0.00 0.01 0.01 0.05 0.14 0.25 0.24 0.26 0.41
0.08 0.11 0.02 0.00 0.01 0.01 0.03 0.06 0.06 0.06 0.07 0.05 0.05 0.16 0.17 0.03 0.02 0.05 0.13 0.20 0.10 0.02 0.00 0.00 0.00 0.00 0.00 0.01 0.02 0.02 0.02 0.00 0.00 0.00 0.01 0.07 0.06 0.02 0.01 0.00 0.01 0.02 0.13 0.18 0.17 0.16 0.24
0.04 0.03 0.00 0.00 0.01 0.01 0.03 0.05 0.03 0.04 0.03 0.02 0.04 0.16 0.14 0.08 0.06 0.07 0.08 0.03 0.04 0.02 0.00 0.00 0.00 0.00 0.00 0.00 0.00 0.00 0.00 0.00 0.00 0.00 0.00 0.00 0.01 0.01 0.00 0.00 0.00 0.00 0.01 0.09 0.14 0.10 0.06
0.01 0.00 0.00 0.00 0.00 0.02 0.03 0.02 0.02 0.03 0.03 0.01 0.06 0.20 0.15 0.07 0.03 0.03 0.02 0.00 0.02 0.03 0.00 0.00 0.01 0.00 0.00 0.00 0.00 0.00 0.00 0.00 0.00 0.00 0.00 0.00 0.00 0.01 0.00 0.00 0.00 0.00 0.01 0.01 0.03 0.01 0.01
0.01 0.00 0.00 0.00 0.01 0.01 0.02 0.02 0.01 0.01 0.01 0.00 0.01 0.10 0.08 0.02 0.01 0.01 0.01 0.01 0.04 0.01 0.01 0.00 0.00 0.00 0.00 0.00 0.00 0.00 0.00 0.00 0.00 0.00 0.00 0.00 0.00 0.00 0.00 0.00 0.00 0.00 0.00 0.00 0.00 0.00 0.00
0.00 0.00 0.00 0.01 0.01 0.00 0.02 0.02 0.01 0.00 0.00 0.00 0.00 0.03 0.02 0.02 0.01 0.00 0.00 0.02 0.02 0.04 0.01 0.00 0.01 0.00 0.00 0.00 0.00 0.00 0.00 0.00 0.00 0.00 0.00 0.00 0.00 0.00 0.00 0.00 0.00 0.00 0.00 0.00 0.00 0.00 0.00
0.00 0.00 0.00 0.01 0.00 0.01 0.02 0.02 0.01 0.00 0.00 0.00 0.00 0.01 0.00 0.00 0.00 0.00 0.01 0.01 0.02 0.01 0.01 0.01 0.01 0.00 0.00 0.00 0.00 0.00 0.00 0.00 0.00 0.00 0.00 0.00 0.00 0.00 0.00 0.00 0.00 0.00 0.00 0.00 0.00 0.00 0.00
0.01 0.00 0.00 0.00 0.00 0.00 0.02 0.04 0.02 0.00 0.00 0.00 0.00 0.00 0.01 0.01 0.01 0.01 0.00 0.01 0.01 0.00 0.00 0.00 0.01 0.00 0.00 0.00 0.00 0.00 0.00 0.00 0.00 0.00 0.00 0.00 0.00 0.00 0.00 0.00 0.00 0.00 0.00 0.00 0.00 0.00 0.00
0.01 0.01 0.00 0.00 0.00 0.00 0.02 0.03 0.02 0.01 0.01 0.00 0.00 0.00 0.01 0.00 0.00 0.00 0.00 0.00 0.00 0.01 0.01 0.00 0.00 0.01 0.00 0.00 0.00 0.00 0.00 0.00 0.00 0.00 0.00 0.00 0.00 0.00 0.00 0.00 0.00 0.00 0.00 0.00 0.00 0.00 0.00
0.01 0.01 0.00 0.00 0.00 0.00 0.01 0.01 0.01 0.02 0.02 0.01 0.00 0.00 0.01 0.01 0.00 0.00 0.00 0.00 0.00 0.00 0.00 0.00 0.00 0.00 0.00 0.00 0.00 0.00 0.00 0.00 0.00 0.00 0.00 0.00 0.00 0.00 0.00 0.00 0.00 0.00 0.00 0.00 0.00 0.00 0.00
0.01 0.01 0.00 0.00 0.00 0.00 0.00 0.00 0.01 0.01 0.00 0.00 0.00 0.00 0.00 0.00 0.00 0.00 0.00 0.00 0.00 0.00 0.01 0.00 0.00 0.00 0.00 0.00 0.00 0.00 0.00 0.00 0.00 0.00 0.00 0.00 0.00 0.00 0.00 0.00 0.00 0.00 0.00 0.00 0.00 0.00 0.00
0.01 0.00 0.00 0.00 0.00 0.00 0.00 0.00 0.00 0.00 0.00 0.00 0.00 0.00 0.00 0.00 0.00 0.00 0.00 0.00 0.00 0.00 0.00 0.00 0.00 0.00 0.00 0.00 0.00 0.00 0.00 0.00 0.00 0.00 0.00 0.00 0.00 0.00 0.00 0.00 0.00 0.00 0.00 0.00 0.00 0.00 0.00
0.01 0.00 0.00 0.00 0.00 0.00 0.00 0.00 0.00 0.00 0.00 0.00 0.00 0.00 0.00 0.00 0.00 0.00 0.00 0.00 0.00 0.00 0.00 0.00 0.00 0.00 0.00 0.00 0.00 0.00 0.00 0.00 0.00 0.00 0.00 0.00 0.00 0.00 0.00 0.00 0.00 0.00 0.00 0.00 0.00 0.00 0.00
0.01 0.01 0.00 0.00 0.00 0.01 0.01 0.00 0.00 0.00 0.00 0.00 0.00 0.00 0.00 0.00 0.00 0.00 0.00 0.00 0.00 0.00 0.00 0.00 0.01 0.00 0.00 0.01 0.00 0.00 0.00 0.00 0.00 0.00 0.00 0.00 0.00 0.00 0.00 0.00 0.00 0.00 0.00 0.00 0.00 0.00 0.00

GFSGBSN_prec_precacc24_117.txt.gz
Total_Precipitation_Accumulation
0.10 0.10 0.11 0.16 0.19 0.22 0.29 0.32 0.30 0.34 0.49 0.85 1.13 1.52 0.98 0.34 0.06 0.02 0.01 0.07 0.18 0.26 0.37 0.51 0.62 0.73 0.64 0.68 0.52 0.08 0.10 0.26 0.04 0.00 0.00 0.00 0.00 0.00 0.00 0.00 0.00 0.00 0.00 0.00 0.00 0.00 0.00
0.10 0.10 0.12 0.18 0.22 0.24 0.29 0.29 0.33 0.44 0.79 1.63 1.41 0.94 0.33 0.04 0.02 0.01 0.00 0.03 0.14 0.20 0.26 0.34 0.70 0.59 0.60 0.76 0.53 0.26 0.21 0.24 0.02 0.00 0.00 0.00 0.00 0.00 0.00 0.00 0.00 0.00 0.00 0.00 0.00 0.00 0.00
0.09 0.10 0.15 0.20 0.20 0.22 0.26 0.31 0.41 0.80 1.35 1.28 0.91 0.55 0.09 0.02 0.01 0.01 0.00 0.01 0.10 0.12 0.20 0.24 0.66 0.44 0.67 0.74 0.37 0.44 0.40 0.28 0.02 0.00 0.00 0.00 0.00 0.00 0.00 0.00 0.00 0.00 0.00 0.00 0.00 0.00 0.00
0.08 0.11 0.15 0.18 0.19 0.23 0.28 0.40 0.91 1.02 0.82 0.70 0.52 0.27 0.04 0.02 0.02 0.01 0.01 0.01 0.08 0.17 0.18 0.34 0.56 0.41 0.98 0.66 0.45 0.42 0.22 0.04 0.00 0.00 0.00 0.00 0.00 0.00 0.00 0.00 0.00 0.01 0.01 0.01 0.00 0.00 0.00
0.09 0.12 0.14 0.17 0.21 0.27 0.44 0.82 0.87 0.57 0.50 0.35 0.21 0.09 0.03 0.03 0.04 0.05 0.08 0.14 0.32 0.52 0.57 0.59 0.49 0.43 1.21 0.95 0.58 0.19 0.09 0.03 0.00 0.00 0.00 0.00 0.01 0.01 0.01 0.03 0.03 0.02 0.01 0.00 0.00 0.00 0.00
0.10 0.13 0.14 0.18 0.28 0.40 0.67 0.67 0.56 0.37 0.18 0.11 0.07 0.02 0.01 0.01 0.02 0.10 0.25 0.40 0.55 0.52 0.66 0.56 0.45 0.58 0.72 0.69 0.31 0.05 0.01 0.00 0.00 0.00 0.01 0.01 0.01 0.01 0.01 0.03 0.03 0.05 0.14 0.04 0.01 0.00 0.01
0.11 0.13 0.16 0.24 0.41 0.66 0.58 0.52 0.41 0.18 0.12 0.07 0.04 0.02 0.01 0.03 0.02 0.03 0.15 0.51 0.95 0.68 0.60 0.54 0.46 0.29 0.30 0.14 0.08 0.03 0.00 0.00 0.00 0.00 0.00 0.01 0.02 0.01 0.00 0.00 0.00 0.01 0.02 0.01 0.01 0.02 0.04
0.11 0.15 0.22 0.38 0.59 0.69 0.47 0.40 0.22 0.17 0.11 0.07 0.04 0.03 0.02 0.03 0.01 0.00 0.06 0.29 1.09 0.91 0.50 0.30 0.34 0.11 0.06 0.02 0.03 0.00 0.00 0.00 0.00 0.00 0.00 0.03 0.03 0.00 0.01 0.01 0.03 0.03 0.05 0.01 0.10 0.04 0.04
0.11 0.17 0.37 0.49 0.79 0.51 0.40 0.20 0.17 0.13 0.08 0.04 0.03 0.04 0.04 0.01 0.00 0.01 0.09 0.39 0.63 0.64 0.32 0.34 0.47 0.19 0.04 0.03 0.01 0.00 0.00 0.00 0.01 0.01 0.01 0.01 0.00 0.00 0.01 0.01 0.03 0.02 0.03 0.05 0.17 0.04 0.03
0.16 0.26 0.45 0.78 0.58 0.42 0.24 0.18 0.17 0.11 0.08 0.06 0.03 0.02 0.03 0.00 0.00 0.00 0.05 0.18 0.46 0.51 0.34 0.65 0.64 0.34 0.06 0.03 0.02 0.00 0.00 0.02 0.02 0.01 0.01 0.01 0.00 0.02 0.02 0.01 0.04 0.04 0.01 0.10 0.07 0.32 0.23
0.23 0.31 0.58 0.68 0.39 0.28 0.15 0.20 0.16 0.11 0.08 0.06 0.05 0.01 0.04 0.02 0.00 0.00 0.03 0.05 0.50 0.38 0.47 0.73 0.48 0.20 0.08 0.05 0.04 0.02 0.00 0.03 0.04 0.02 0.05 0.04 0.04 0.03 0.03 0.02 0.04 0.05 0.04 0.07 0.04 0.36 0.58
0.28 0.35 0.58 0.32 0.26 0.13 0.13 0.16 0.14 0.14 0.15 0.09 0.05 0.04 0.04 0.00 0.01 0.01 0.02 0.12 0.24 0.19 0.43 0.32 0.24 0.18 0.13 0.06 0.07 0.03 0.01 0.01 0.01 0.02 0.01 0.00 0.02 0.01 0.00 0.00 0.00 0.01 0.04 0.03 0.02 0.24 0.50
0.30 0.28 0.25 0.16 0.09 0.07 0.12 0.15 0.17 0.16 0.12 0.08 0.04 0.05 0.06 0.01 0.00 0.02 0.04 0.09 0.07 0.23 0.28 0.15 0.15 0.06 0.03 0.06 0.04 0.02 0.02 0.01 0.03 0.08 0.05 0.08 0.22 0.17 0.03 0.01 0.00 0.01 0.24 0.36 0.22 0.40 0.27
0.17 0.09 0.06 0.04 0.03 0.08 0.10 0.13 0.15 0.14 0.10 0.08 0.08 0.06 0.03 0.01 0.01 0.00 0.09 0.16 0.37 0.39 0.14 0.05 0.01 0.01 0.04 0.02 0.02 0.01 0.08 0.11 0.07 0.04 0.10 0.25 0.20 0.11 0.05 0.02 0.06 0.16 0.34 0.67 0.48 0.40 0.32
0.08 0.04 0.02 0.02 0.02 0.04 0.07 0.11 0.13 0.14 0.13 0.13 0.14 0.11 0.03 0.01 0.01 0.01 0.03 0.21 0.48 0.18 0.07 0.01 0.02 0.03 0.02 0.07 0.06 0.06 0.18 0.26 0.06 0.01 0.07 0.23 0.06 0.02 0.01 0.00 0.03 0.11 0.24 0.24 0.39 0.37 0.38
0.03 0.01 0.01 0.01 0.01 0.02 0.04 0.07 0.07 0.12 0.13 0.11 0.10 0.06 0.03 0.00 0.00 0.01 0.05 0.31 0.16 0.09 0.03 0.00 0.01 0.00 0.01 0.01 0.08 0.14 0.17 0.09 0.08 0.02 0.06 0.08 0.06 0.00 0.00 0.01 0.00 0.05 0.15 0.27 0.26 0.27 0.42
0.01 0.01 0.00 0.00 0.01 0.01 0.02 0.03 0.03 0.04 0.04 0.01 0.01 0.04 0.04 0.00 0.00 0.00 0.05 0.16 0.10 0.02 0.00 0.00 0.00 0.00 0.00 0.01 0.02 0.02 0.02 0.00 0.00 0.00 0.01 0.07 0.06 0.01 0.01 0.00 0.01 0.03 0.14 0.19 0.18 0.16 0.25
0.00 0.01 0.00 0.00 0.00 0.00 0.01 0.02 0.01 0.01 0.01 0.00 0.00 0.02 0.02 0.01 0.01 0.01 0.04 0.03 0.03 0.01 0.00 0.00 0.00 0.00 0.00 0.00 0.00 0.00 0.00 0.00 0.00 0.00 0.00 0.00 0.01 0.01 0.00 0.00 0.00 0.00 0.01 0.10 0.15 0.11 0.06
0.00 0.00 0.00 0.00 0.00 0.00 0.01 0.01 0.01 0.01 0.01 0.00 0.00 0.01 0.01 0.00 0.01 0.00 0.01 0.00 0.00 0.00 0.00 0.00 0.00 0.00 0.00 0.00 0.00 0.00 0.00 0.00 0.00 0.00 0.00 0.00 0.00 0.01 0.00 0.00 0.00 0.00 0.01 0.02 0.03 0.02 0.01
0.01 0.00 0.00 0.00 0.00 0.00 0.01 0.01 0.01 0.00 0.00 0.00 0.00 0.01 0.00 0.00 0.00 0.00 0.00 0.00 0.00 0.00 0.00 0.00 0.00 0.00 0.00 0.00 0.00 0.00 0.00 0.00 0.00 0.00 0.00 0.00 0.00 0.00 0.00 0.00 0.00 0.00 0.00 0.00 0.00 0.01 0.00
0.00 0.00 0.00 0.00 0.00 0.00 0.01 0.01 0.00 0.00 0.00 0.00 0.00 0.00 0.00 0.00 0.00 0.00 0.00 0.00 0.00 0.00 0.00 0.00 0.00 0.00 0.00 0.00 0.00 0.00 0.00 0.00 0.00 0.00 0.00 0.00 0.00 0.00 0.00 0.00 0.00 0.00 0.00 0.00 0.00 0.00 0.00
0.00 0.00 0.00 0.00 0.00 0.00 0.01 0.01 0.01 0.00 0.00 0.00 0.00 0.00 0.00 0.00 0.00 0.00 0.00 0.00 0.00 0.00 0.00 0.00 0.00 0.00 0.00 0.00 0.00 0.00 0.00 0.00 0.00 0.00 0.00 0.00 0.00 0.00 0.00 0.00 0.00 0.00 0.00 0.00 0.00 0.00 0.00
0.01 0.00 0.00 0.00 0.00 0.00 0.01 0.03 0.01 0.00 0.00 0.00 0.00 0.00 0.00 0.00 0.00 0.00 0.00 0.00 0.00 0.00 0.00 0.00 0.00 0.00 0.00 0.00 0.00 0.00 0.00 0.00 0.00 0.00 0.00 0.00 0.00 0.00 0.00 0.00 0.00 0.00 0.00 0.00 0.00 0.00 0.00
0.01 0.01 0.00 0.00 0.00 0.00 0.01 0.02 0.01 0.00 0.00 0.00 0.00 0.00 0.00 0.00 0.00 0.00 0.00 0.00 0.00 0.00 0.00 0.00 0.00 0.00 0.00 0.00 0.00 0.00 0.00 0.00 0.00 0.00 0.00 0.00 0.00 0.00 0.00 0.00 0.00 0.00 0.00 0.00 0.00 0.00 0.00
0.01 0.01 0.00 0.00 0.00 0.00 0.01 0.01 0.01 0.00 0.00 0.00 0.00 0.00 0.00 0.00 0.00 0.00 0.00 0.00 0.00 0.00 0.00 0.00 0.00 0.00 0.00 0.00 0.00 0.00 0.00 0.00 0.00 0.00 0.00 0.00 0.00 0.00 0.00 0.00 0.00 0.00 0.00 0.00 0.00 0.00 0.00
0.01 0.01 0.00 0.00 0.00 0.00 0.00 0.00 0.01 0.00 0.00 0.00 0.00 0.00 0.00 0.00 0.00 0.00 0.00 0.00 0.00 0.00 0.00 0.00 0.00 0.00 0.00 0.00 0.00 0.00 0.00 0.00 0.00 0.00 0.00 0.00 0.00 0.00 0.00 0.00 0.00 0.00 0.00 0.00 0.00 0.00 0.00
0.01 0.00 0.00 0.00 0.00 0.00 0.00 0.00 0.00 0.00 0.00 0.00 0.00 0.00 0.00 0.00 0.00 0.00 0.00 0.00 0.00 0.00 0.00 0.00 0.00 0.00 0.00 0.00 0.00 0.00 0.00 0.00 0.00 0.00 0.00 0.00 0.00 0.00 0.00 0.00 0.00 0.00 0.00 0.00 0.00 0.00 0.00
0.01 0.00 0.00 0.00 0.00 0.00 0.00 0.00 0.00 0.00 0.00 0.00 0.00 0.00 0.00 0.00 0.00 0.00 0.00 0.00 0.00 0.00 0.00 0.00 0.00 0.00 0.00 0.00 0.00 0.00 0.00 0.00 0.00 0.00 0.00 0.00 0.00 0.00 0.00 0.00 0.00 0.00 0.00 0.00 0.00 0.00 0.00
0.01 0.01 0.00 0.00 0.00 0.01 0.01 0.00 0.00 0.00 0.00 0.00 0.00 0.00 0.00 0.00 0.00 0.00 0.00 0.00 0.00 0.00 0.00 0.00 0.00 0.00 0.00 0.00 0.00 0.00 0.00 0.00 0.00 0.00 0.00 0.00 0.00 0.00 0.00 0.00 0.00 0.00 0.00 0.00 0.00 0.00 0.00

GFSGBSN_prec_precacc24_120.txt.gz
Total_Precipitation_Accumulation
0.11 0.10 0.12 0.17 0.19 0.22 0.29 0.33 0.33 0.35 0.51 0.85 1.13 1.52 0.97 0.34 0.06 0.02 0.00 0.00 0.01 0.11 0.33 0.51 0.64 0.90 0.71 0.77 0.59 0.13 0.13 0.29 0.04 0.00 0.00 0.00 0.00 0.00 0.00 0.00 0.00 0.00 0.00 0.00 0.00 0.00 0.00
0.10 0.10 0.12 0.19 0.23 0.24 0.29 0.30 0.36 0.46 0.81 1.63 1.41 0.94 0.33 0.03 0.02 0.01 0.00 0.00 0.00 0.03 0.20 0.34 0.77 0.93 0.68 0.90 0.65 0.29 0.29 0.26 0.02 0.00 0.00 0.00 0.00 0.00 0.00 0.00 0.00 0.00 0.00 0.00 0.00 0.00 0.00
0.09 0.10 0.14 0.21 0.21 0.23 0.26 0.31 0.42 0.82 1.36 1.27 0.91 0.55 0.09 0.02 0.01 0.00 0.00 0.00 0.00 0.01 0.10 0.22 0.76 0.62 0.80 0.96 0.53 0.53 0.54 0.36 0.02 0.00 0.00 0.00 0.00 0.00 0.00 0.00 0.00 0.00 0.00 0.00 0.00 0.00 0.00
0.08 0.11 0.14 0.18 0.20 0.24 0.28 0.40 0.91 1.02 0.82 0.70 0.52 0.27 0.04 0.02 0.02 0.02 0.03 0.03 0.02 0.04 0.15 0.40 0.70 0.53 1.18 0.86 0.55 0.53 0.34 0.10 0.00 0.00 0.00 0.00 0.00 0.00 0.00 0.00 0.00 0.00 0.00 0.00 0.00 0.00 0.00
0.09 0.12 0.14 0.17 0.21 0.28 0.44 0.81 0.87 0.57 0.50 0.34 0.21 0.09 0.03 0.03 0.06 0.08 0.10 0.29 0.47 0.54 0.62 0.66 0.62 0.49 1.42 1.16 0.69 0.23 0.11 0.04 0.00 0.00 0.00 0.00 0.00 0.01 0.00 0.01 0.00 0.00 0.00 0.00 0.00 0.00 0.00
0.10 0.12 0.14 0.18 0.28 0.41 0.67 0.67 0.56 0.37 0.18 0.11 0.07 0.02 0.01 0.01 0.02 0.04 0.10 0.27 0.59 0.53 0.68 0.56 0.47 0.59 0.78 0.77 0.37 0.06 0.01 0.00 0.00 0.00 0.01 0.01 0.01 0.01 0.00 0.00 0.00 0.00 0.02 0.00 0.01 0.00 0.01
0.11 0.12 0.16 0.23 0.40 0.64 0.58 0.51 0.40 0.18 0.11 0.06 0.03 0.02 0.01 0.03 0.02 0.00 0.01 0.09 0.66 0.70 0.62 0.63 0.57 0.34 0.37 0.17 0.08 0.03 0.00 0.00 0.00 0.00 0.00 0.01 0.01 0.00 0.00 0.00 0.00 0.00 0.00 0.01 0.00 0.00 0.02
0.10 0.13 0.19 0.33 0.52 0.63 0.45 0.40 0.21 0.16 0.10 0.06 0.03 0.03 0.02 0.03 0.01 0.00 0.02 0.14 0.69 0.80 0.54 0.33 0.36 0.11 0.07 0.03 0.03 0.00 0.00 0.00 0.00 0.00 0.00 0.01 0.01 0.00 0.00 0.00 0.01 0.02 0.04 0.01 0.00 0.00 0.01
0.06 0.08 0.21 0.27 0.51 0.33 0.34 0.19 0.16 0.10 0.06 0.03 0.02 0.03 0.04 0.01 0.00 0.00 0.02 0.21 0.45 0.57 0.32 0.34 0.47 0.19 0.04 0.04 0.01 0.00 0.00 0.00 0.01 0.00 0.00 0.00 0.00 0.00 0.00 0.01 0.02 0.02 0.03 0.00 0.01 0.02 0.01
0.08 0.11 0.17 0.13 0.15 0.21 0.18 0.15 0.14 0.08 0.06 0.05 0.01 0.01 0.02 0.00 0.00 0.00 0.02 0.05 0.19 0.37 0.30 0.64 0.64 0.34 0.06 0.03 0.02 0.00 0.00 0.02 0.02 0.01 0.01 0.00 0.00 0.01 0.01 0.01 0.02 0.03 0.01 0.02 0.03 0.16 0.13
0.09 0.07 0.06 0.05 0.08 0.10 0.10 0.16 0.13 0.09 0.05 0.01 0.01 0.01 0.04 0.02 0.00 0.00 0.01 0.04 0.27 0.28 0.43 0.72 0.48 0.20 0.08 0.05 0.04 0.01 0.00 0.03 0.04 0.02 0.03 0.01 0.02 0.02 0.03 0.01 0.02 0.02 0.01 0.01 0.03 0.22 0.29
0.06 0.03 0.01 0.01 0.04 0.07 0.10 0.12 0.12 0.10 0.09 0.05 0.03 0.03 0.02 0.00 0.00 0.00 0.00 0.08 0.19 0.15 0.38 0.30 0.23 0.17 0.12 0.06 0.06 0.02 0.01 0.01 0.01 0.01 0.00 0.00 0.01 0.00 0.00 0.00 0.00 0.00 0.01 0.02 0.01 0.13 0.35
0.04 0.01 0.01 0.01 0.03 0.06 0.09 0.11 0.13 0.12 0.08 0.04 0.03 0.03 0.02 0.00 0.00 0.00 0.00 0.02 0.03 0.17 0.22 0.14 0.15 0.06 0.03 0.06 0.04 0.01 0.01 0.01 0.01 0.05 0.03 0.03 0.03 0.01 0.00 0.00 0.00 0.00 0.11 0.22 0.16 0.29 0.22
0.02 0.01 0.01 0.01 0.02 0.04 0.08 0.11 0.11 0.10 0.06 0.03 0.03 0.01 0.00 0.00 0.00 0.00 0.00 0.02 0.24 0.30 0.12 0.05 0.00 0.01 0.03 0.02 0.02 0.01 0.07 0.06 0.03 0.03 0.09 0.18 0.08 0.02 0.01 0.01 0.02 0.05 0.23 0.53 0.37 0.35 0.30
0.01 0.01 0.01 0.01 0.01 0.03 0.06 0.08 0.10 0.11 0.08 0.04 0.02 0.01 0.00 0.00 0.00 0.00 0.00 0.10 0.31 0.14 0.05 0.01 0.02 0.03 0.02 0.07 0.06 0.06 0.15 0.17 0.04 0.01 0.05 0.19 0.04 0.00 0.00 0.00 0.02 0.10 0.24 0.24 0.39 0.37 0.36
0.01 0.01 0.01 0.01 0.01 0.01 0.03 0.05 0.05 0.08 0.05 0.01 0.00 0.00 0.00 0.00 0.00 0.00 0.01 0.15 0.13 0.07 0.01 0.00 0.01 0.00 0.00 0.01 0.06 0.12 0.12 0.08 0.05 0.02 0.06 0.07 0.04 0.00 0.00 0.00 0.00 0.05 0.15 0.28 0.27 0.26 0.41
0.01 0.01 0.00 0.00 0.00 0.01 0.01 0.02 0.02 0.01 0.00 0.00 0.00 0.00 0.00 0.00 0.00 0.00 0.02 0.05 0.02 0.00 0.00 0.00 0.00 0.00 0.00 0.01 0.01 0.01 0.01 0.00 0.00 0.00 0.01 0.07 0.04 0.00 0.00 0.00 0.02 0.03 0.14 0.19 0.19 0.16 0.25
0.00 0.01 0.00 0.00 0.00 0.00 0.01 0.02 0.01 0.00 0.00 0.00 0.00 0.00 0.00 0.00 0.00 0.00 0.00 0.01 0.00 0.00 0.00 0.00 0.00 0.00 0.00 0.00 0.00 0.00 0.00 0.00 0.00 0.00 0.00 0.00 0.01 0.00 0.00 0.00 0.00 0.00 0.02 0.11 0.16 0.12 0.06
0.00 0.01 0.00 0.00 0.00 0.00 0.01 0.01 0.01 0.00 0.00 0.00 0.00 0.00 0.00 0.00 0.00 0.00 0.00 0.00 0.00 0.00 0.00 0.00 0.00 0.00 0.00 0.00 0.00 0.00 0.00 0.00 0.00 0.00 0.00 0.00 0.00 0.00 0.00 0.00 0.00 0.00 0.01 0.02 0.03 0.02 0.01
0.01 0.00 0.00 0.00 0.00 0.00 0.01 0.01 0.01 0.00 0.00 0.00 0.00 0.00 0.00 0.00 0.00 0.00 0.00 0.00 0.00 0.00 0.00 0.00 0.00 0.00 0.00 0.00 0.00 0.00 0.00 0.00 0.00 0.00 0.00 0.00 0.00 0.00 0.00 0.00 0.00 0.00 0.00 0.00 0.00 0.01 0.00
0.00 0.00 0.00 0.00 0.00 0.00 0.01 0.01 0.00 0.00 0.00 0.00 0.00 0.00 0.00 0.00 0.00 0.00 0.00 0.00 0.00 0.00 0.00 0.00 0.00 0.00 0.00 0.00 0.00 0.00 0.00 0.00 0.00 0.00 0.00 0.00 0.00 0.00 0.00 0.00 0.00 0.00 0.00 0.00 0.00 0.00 0.00
0.00 0.00 0.00 0.00 0.00 0.00 0.01 0.01 0.01 0.00 0.00 0.00 0.00 0.00 0.00 0.00 0.00 0.00 0.00 0.00 0.00 0.00 0.00 0.00 0.00 0.00 0.00 0.00 0.00 0.00 0.00 0.00 0.00 0.00 0.00 0.00 0.00 0.00 0.00 0.00 0.00 0.00 0.00 0.00 0.00 0.00 0.00
0.01 0.00 0.00 0.00 0.00 0.00 0.01 0.01 0.01 0.00 0.00 0.00 0.00 0.00 0.00 0.00 0.00 0.00 0.00 0.00 0.00 0.00 0.00 0.00 0.00 0.00 0.00 0.00 0.00 0.00 0.00 0.00 0.00 0.00 0.00 0.00 0.00 0.00 0.00 0.00 0.00 0.00 0.00 0.00 0.00 0.00 0.00
0.01 0.01 0.00 0.00 0.00 0.00 0.01 0.01 0.01 0.00 0.00 0.00 0.00 0.00 0.00 0.00 0.00 0.00 0.00 0.00 0.00 0.00 0.00 0.00 0.00 0.00 0.00 0.00 0.00 0.00 0.00 0.00 0.00 0.00 0.00 0.00 0.00 0.00 0.00 0.00 0.00 0.00 0.00 0.00 0.00 0.00 0.00
0.01 0.01 0.00 0.00 0.00 0.00 0.00 0.00 0.00 0.00 0.00 0.00 0.00 0.00 0.00 0.00 0.00 0.00 0.00 0.00 0.00 0.00 0.00 0.00 0.00 0.00 0.00 0.00 0.00 0.00 0.00 0.00 0.00 0.00 0.00 0.00 0.00 0.00 0.00 0.00 0.00 0.00 0.00 0.00 0.00 0.00 0.00
0.01 0.01 0.00 0.00 0.00 0.00 0.00 0.00 0.00 0.00 0.00 0.00 0.00 0.00 0.00 0.00 0.00 0.00 0.00 0.00 0.00 0.00 0.00 0.00 0.00 0.00 0.00 0.00 0.00 0.00 0.00 0.00 0.00 0.00 0.00 0.00 0.00 0.00 0.00 0.00 0.00 0.00 0.00 0.00 0.00 0.00 0.00
0.01 0.00 0.00 0.00 0.00 0.00 0.00 0.00 0.00 0.00 0.00 0.00 0.00 0.00 0.00 0.00 0.00 0.00 0.00 0.00 0.00 0.00 0.00 0.00 0.00 0.00 0.00 0.00 0.00 0.00 0.00 0.00 0.00 0.00 0.00 0.00 0.00 0.00 0.00 0.00 0.00 0.00 0.00 0.00 0.00 0.00 0.00
0.01 0.00 0.00 0.00 0.00 0.00 0.00 0.00 0.00 0.00 0.00 0.00 0.00 0.00 0.00 0.00 0.00 0.00 0.00 0.00 0.00 0.00 0.00 0.00 0.00 0.00 0.00 0.00 0.00 0.00 0.00 0.00 0.00 0.00 0.00 0.00 0.00 0.00 0.00 0.00 0.00 0.00 0.00 0.00 0.00 0.00 0.00
0.01 0.01 0.00 0.00 0.00 0.00 0.00 0.00 0.00 0.00 0.00 0.00 0.00 0.00 0.00 0.00 0.00 0.00 0.00 0.00 0.00 0.00 0.00 0.00 0.00 0.00 0.00 0.00 0.00 0.00 0.00 0.00 0.00 0.00 0.00 0.00 0.00 0.00 0.00 0.00 0.00 0.00 0.00 0.00 0.00 0.00 0.00

GFSGBSN_prec_precacc24_123.txt.gz
Total_Precipitation_Accumulation
0.10 0.08 0.11 0.17 0.18 0.22 0.29 0.33 0.33 0.34 0.51 0.85 1.12 1.52 0.97 0.34 0.06 0.02 0.00 0.00 0.00 0.00 0.01 0.27 0.70 1.28 1.06 1.02 0.77 0.26 0.15 0.29 0.04 0.00 0.00 0.00 0.00 0.00 0.00 0.00 0.00 0.00 0.00 0.00 0.00 0.00 0.00
0.09 0.09 0.11 0.19 0.22 0.24 0.29 0.29 0.35 0.45 0.80 1.62 1.41 0.94 0.33 0.03 0.02 0.01 0.00 0.00 0.00 0.00 0.02 0.11 0.85 1.06 0.80 1.03 0.80 0.42 0.35 0.26 0.02 0.00 0.00 0.00 0.00 0.00 0.00 0.00 0.00 0.00 0.00 0.00 0.00 0.00 0.00
0.08 0.09 0.13 0.20 0.21 0.23 0.25 0.31 0.41 0.81 1.35 1.27 0.91 0.55 0.10 0.03 0.02 0.01 0.00 0.00 0.00 0.00 0.03 0.10 0.66 0.62 0.82 1.14 0.65 0.70 0.59 0.37 0.02 0.00 0.00 0.00 0.00 0.00 0.00 0.00 0.00 0.00 0.00 0.00 0.00 0.00 0.00
0.07 0.10 0.14 0.18 0.20 0.24 0.28 0.39 0.89 1.01 0.81 0.70 0.52 0.27 0.04 0.06 0.03 0.02 0.04 0.04 0.02 0.04 0.09 0.34 0.62 0.49 1.26 0.99 0.60 0.59 0.39 0.11 0.00 0.00 0.00 0.00 0.00 0.00 0.00 0.00 0.00 0.00 0.00 0.00 0.00 0.00 0.00
0.05 0.09 0.11 0.15 0.19 0.26 0.40 0.76 0.84 0.56 0.49 0.34 0.21 0.09 0.03 0.04 0.08 0.10 0.11 0.28 0.43 0.52 0.62 0.58 0.47 0.44 1.48 1.22 0.73 0.27 0.14 0.05 0.00 0.00 0.00 0.00 0.00 0.00 0.00 0.00 0.00 0.00 0.00 0.00 0.00 0.00 0.00
0.04 0.06 0.07 0.08 0.11 0.19 0.41 0.48 0.49 0.36 0.17 0.10 0.07 0.02 0.01 0.01 0.01 0.05 0.12 0.15 0.33 0.49 0.62 0.50 0.43 0.59 0.83 0.82 0.39 0.07 0.02 0.00 0.00 0.00 0.00 0.01 0.01 0.00 0.00 0.00 0.00 0.00 0.00 0.00 0.00 0.00 0.00
0.04 0.03 0.04 0.06 0.08 0.11 0.12 0.24 0.30 0.16 0.10 0.05 0.03 0.02 0.01 0.02 0.01 0.00 0.00 0.03 0.34 0.63 0.55 0.58 0.54 0.34 0.38 0.17 0.08 0.03 0.00 0.00 0.00 0.00 0.00 0.01 0.00 0.00 0.00 0.00 0.00 0.00 0.00 0.00 0.00 0.00 0.00
0.02 0.01 0.03 0.03 0.07 0.09 0.09 0.13 0.13 0.11 0.08 0.05 0.03 0.03 0.02 0.02 0.00 0.00 0.00 0.03 0.34 0.52 0.46 0.23 0.29 0.11 0.07 0.03 0.03 0.00 0.00 0.00 0.00 0.00 0.00 0.00 0.00 0.00 0.00 0.00 0.00 0.00 0.02 0.01 0.00 0.00 0.00
0.02 0.01 0.02 0.02 0.06 0.08 0.09 0.08 0.07 0.06 0.04 0.02 0.01 0.02 0.03 0.01 0.00 0.00 0.00 0.06 0.15 0.26 0.20 0.29 0.40 0.18 0.05 0.04 0.01 0.00 0.00 0.00 0.00 0.00 0.00 0.00 0.00 0.00 0.00 0.00 0.01 0.01 0.02 0.00 0.00 0.00 0.00
0.02 0.01 0.01 0.02 0.05 0.08 0.09 0.10 0.08 0.05 0.03 0.01 0.00 0.01 0.00 0.00 0.00 0.00 0.01 0.02 0.10 0.17 0.22 0.62 0.60 0.33 0.06 0.03 0.02 0.00 0.00 0.01 0.02 0.01 0.01 0.00 0.00 0.01 0.00 0.00 0.02 0.02 0.00 0.01 0.02 0.06 0.05
0.02 0.01 0.01 0.02 0.04 0.07 0.09 0.11 0.09 0.06 0.03 0.00 0.00 0.00 0.00 0.00 0.00 0.00 0.01 0.04 0.16 0.16 0.34 0.67 0.47 0.20 0.08 0.05 0.04 0.01 0.00 0.02 0.03 0.01 0.01 0.00 0.01 0.02 0.02 0.00 0.01 0.01 0.00 0.00 0.01 0.04 0.14
0.02 0.01 0.01 0.01 0.03 0.06 0.08 0.10 0.09 0.07 0.05 0.01 0.00 0.00 0.00 0.00 0.00 0.00 0.00 0.08 0.13 0.06 0.26 0.25 0.23 0.17 0.12 0.05 0.04 0.02 0.01 0.00 0.01 0.01 0.00 0.00 0.00 0.00 0.00 0.00 0.00 0.00 0.00 0.00 0.00 0.08 0.22
0.02 0.01 0.02 0.01 0.02 0.04 0.06 0.08 0.09 0.06 0.03 0.01 0.00 0.00 0.00 0.00 0.00 0.00 0.00 0.01 0.01 0.09 0.13 0.11 0.14 0.06 0.03 0.06 0.03 0.01 0.01 0.00 0.01 0.03 0.01 0.01 0.00 0.00 0.00 0.00 0.00 0.00 0.05 0.08 0.09 0.19 0.15
0.01 0.01 0.01 0.01 0.01 0.03 0.06 0.08 0.08 0.04 0.01 0.00 0.00 0.00 0.00 0.00 0.00 0.00 0.00 0.00 0.13 0.19 0.06 0.04 0.00 0.00 0.01 0.02 0.01 0.01 0.05 0.04 0.01 0.03 0.07 0.04 0.03 0.00 0.00 0.00 0.01 0.05 0.17 0.35 0.20 0.23 0.23
0.01 0.01 0.01 0.00 0.01 0.02 0.04 0.06 0.07 0.04 0.01 0.00 0.00 0.00 0.00 0.00 0.00 0.00 0.00 0.04 0.11 0.05 0.02 0.00 0.02 0.02 0.01 0.07 0.06 0.05 0.12 0.11 0.02 0.01 0.04 0.11 0.02 0.00 0.00 0.00 0.02 0.09 0.20 0.20 0.32 0.28 0.29
0.01 0.01 0.01 0.00 0.00 0.01 0.03 0.04 0.03 0.02 0.01 0.00 0.00 0.00 0.00 0.00 0.00 0.00 0.00 0.02 0.02 0.01 0.00 0.00 0.01 0.00 0.00 0.01 0.04 0.04 0.07 0.04 0.02 0.02 0.06 0.04 0.02 0.00 0.00 0.00 0.00 0.05 0.15 0.27 0.25 0.18 0.28
0.01 0.01 0.00 0.00 0.00 0.00 0.01 0.02 0.02 0.01 0.00 0.00 0.00 0.00 0.00 0.00 0.00 0.00 0.00 0.00 0.00 0.00 0.00 0.00 0.00 0.00 0.00 0.00 0.00 0.01 0.00 0.00 0.00 0.00 0.01 0.02 0.01 0.00 0.00 0.00 0.02 0.03 0.14 0.19 0.19 0.16 0.21
0.00 0.01 0.00 0.00 0.00 0.00 0.01 0.01 0.01 0.00 0.00 0.00 0.00 0.00 0.00 0.00 0.00 0.00 0.00 0.00 0.00 0.00 0.00 0.00 0.00 0.00 0.00 0.00 0.00 0.00 0.00 0.00 0.00 0.00 0.00 0.00 0.00 0.00 0.00 0.00 0.00 0.00 0.02 0.11 0.16 0.13 0.06
0.00 0.01 0.00 0.00 0.00 0.00 0.01 0.01 0.01 0.00 0.00 0.00 0.00 0.00 0.00 0.00 0.00 0.00 0.00 0.00 0.00 0.00 0.00 0.00 0.00 0.00 0.00 0.00 0.00 0.00 0.00 0.00 0.00 0.00 0.00 0.00 0.00 0.00 0.00 0.00 0.00 0.00 0.01 0.02 0.03 0.02 0.01
0.01 0.00 0.00 0.00 0.00 0.00 0.01 0.01 0.01 0.00 0.00 0.00 0.00 0.00 0.00 0.00 0.00 0.00 0.00 0.00 0.00 0.00 0.00 0.00 0.00 0.00 0.00 0.00 0.00 0.00 0.00 0.00 0.00 0.00 0.00 0.00 0.00 0.00 0.00 0.00 0.00 0.00 0.00 0.00 0.00 0.01 0.00
0.00 0.00 0.00 0.00 0.00 0.00 0.01 0.01 0.00 0.00 0.00 0.00 0.00 0.00 0.00 0.00 0.00 0.00 0.00 0.00 0.00 0.00 0.00 0.00 0.00 0.00 0.00 0.00 0.00 0.00 0.00 0.00 0.00 0.00 0.00 0.00 0.00 0.00 0.00 0.00 0.00 0.00 0.00 0.00 0.00 0.00 0.00
0.00 0.00 0.00 0.00 0.00 0.00 0.01 0.01 0.01 0.00 0.00 0.00 0.00 0.00 0.00 0.00 0.00 0.00 0.00 0.00 0.00 0.00 0.00 0.00 0.00 0.00 0.00 0.00 0.00 0.00 0.00 0.00 0.00 0.00 0.00 0.00 0.00 0.00 0.00 0.00 0.00 0.00 0.00 0.00 0.00 0.00 0.00
0.01 0.00 0.00 0.00 0.00 0.00 0.01 0.01 0.01 0.00 0.00 0.00 0.00 0.00 0.00 0.00 0.00 0.00 0.00 0.00 0.00 0.00 0.00 0.00 0.00 0.00 0.00 0.00 0.00 0.00 0.00 0.00 0.00 0.00 0.00 0.00 0.00 0.00 0.00 0.00 0.00 0.00 0.00 0.00 0.00 0.00 0.00
0.01 0.01 0.00 0.00 0.00 0.00 0.01 0.01 0.01 0.00 0.00 0.00 0.00 0.00 0.00 0.00 0.00 0.00 0.00 0.00 0.00 0.00 0.00 0.00 0.00 0.00 0.00 0.00 0.00 0.00 0.00 0.00 0.00 0.00 0.00 0.00 0.00 0.00 0.00 0.00 0.00 0.00 0.00 0.00 0.00 0.00 0.00
0.02 0.01 0.00 0.00 0.00 0.00 0.00 0.00 0.00 0.00 0.00 0.00 0.00 0.00 0.00 0.00 0.00 0.00 0.00 0.00 0.00 0.00 0.00 0.00 0.00 0.00 0.00 0.00 0.00 0.00 0.00 0.00 0.00 0.00 0.00 0.00 0.00 0.00 0.00 0.00 0.00 0.00 0.00 0.00 0.00 0.00 0.00
0.02 0.01 0.00 0.00 0.00 0.00 0.00 0.00 0.00 0.00 0.00 0.00 0.00 0.00 0.00 0.00 0.00 0.00 0.00 0.00 0.00 0.00 0.00 0.00 0.00 0.00 0.00 0.00 0.00 0.00 0.00 0.00 0.00 0.00 0.00 0.00 0.00 0.00 0.00 0.00 0.00 0.00 0.00 0.00 0.00 0.00 0.00
0.01 0.01 0.00 0.00 0.00 0.00 0.00 0.00 0.00 0.00 0.00 0.00 0.00 0.00 0.00 0.00 0.00 0.00 0.00 0.00 0.00 0.00 0.00 0.00 0.00 0.00 0.00 0.00 0.00 0.00 0.00 0.00 0.00 0.00 0.00 0.00 0.00 0.00 0.00 0.00 0.00 0.00 0.00 0.00 0.00 0.00 0.00
0.01 0.00 0.00 0.00 0.00 0.00 0.00 0.00 0.00 0.00 0.00 0.00 0.00 0.00 0.00 0.00 0.00 0.00 0.00 0.00 0.00 0.00 0.00 0.00 0.00 0.00 0.00 0.00 0.00 0.00 0.00 0.00 0.00 0.00 0.00 0.00 0.00 0.00 0.00 0.00 0.00 0.00 0.00 0.00 0.00 0.00 0.00
0.01 0.01 0.00 0.00 0.00 0.00 0.00 0.00 0.00 0.00 0.00 0.00 0.00 0.00 0.00 0.00 0.00 0.00 0.00 0.00 0.00 0.00 0.00 0.00 0.00 0.00 0.00 0.00 0.00 0.00 0.00 0.00 0.00 0.00 0.00 0.00 0.00 0.00 0.00 0.00 0.00 0.00 0.00 0.00 0.00 0.00 0.00

GFSGBSN_prec_precacc24_126.txt.gz
Total_Precipitation_Accumulation
0.09 0.08 0.11 0.17 0.19 0.22 0.29 0.33 0.33 0.34 0.50 0.86 1.15 1.54 0.97 0.35 0.06 0.01 0.00 0.00 0.01 0.03 0.08 0.23 0.45 1.33 1.41 1.28 1.10 0.42 0.16 0.29 0.04 0.00 0.00 0.00 0.00 0.00 0.00 0.00 0.00 0.00 0.00 0.00 0.00 0.00 0.00
0.06 0.07 0.09 0.15 0.19 0.19 0.24 0.27 0.34 0.45 0.79 1.62 1.43 0.96 0.35 0.06 0.02 0.01 0.00 0.00 0.02 0.02 0.04 0.13 0.67 0.93 0.85 1.26 1.09 0.54 0.36 0.26 0.02 0.00 0.00 0.00 0.00 0.00 0.00 0.00 0.00 0.00 0.00 0.00 0.00 0.00 0.00
0.05 0.06 0.08 0.12 0.10 0.10 0.10 0.13 0.32 0.72 1.28 1.24 0.90 0.56 0.12 0.06 0.06 0.03 0.02 0.03 0.03 0.03 0.04 0.05 0.58 0.49 0.72 1.32 0.86 0.76 0.59 0.37 0.02 0.00 0.00 0.00 0.00 0.00 0.00 0.00 0.00 0.00 0.00 0.00 0.00 0.00 0.00
0.03 0.04 0.05 0.07 0.07 0.07 0.07 0.10 0.48 0.70 0.62 0.63 0.50 0.26 0.04 0.07 0.06 0.04 0.04 0.07 0.04 0.06 0.09 0.26 0.56 0.39 1.22 1.11 0.71 0.61 0.39 0.11 0.00 0.00 0.00 0.00 0.00 0.00 0.00 0.00 0.00 0.00 0.00 0.00 0.00 0.00 0.00
0.01 0.03 0.04 0.07 0.08 0.07 0.08 0.11 0.23 0.26 0.30 0.26 0.17 0.08 0.02 0.02 0.09 0.11 0.12 0.28 0.43 0.48 0.53 0.50 0.43 0.39 1.43 1.21 0.79 0.27 0.14 0.05 0.00 0.00 0.00 0.00 0.00 0.00 0.00 0.00 0.00 0.00 0.00 0.00 0.00 0.00 0.00
0.01 0.02 0.03 0.05 0.08 0.08 0.08 0.06 0.09 0.10 0.07 0.06 0.04 0.01 0.00 0.00 0.01 0.05 0.11 0.14 0.18 0.32 0.52 0.40 0.35 0.49 0.82 0.82 0.41 0.08 0.02 0.00 0.00 0.00 0.00 0.00 0.00 0.00 0.00 0.00 0.00 0.00 0.00 0.00 0.00 0.00 0.00
0.01 0.01 0.02 0.04 0.07 0.07 0.06 0.06 0.06 0.05 0.04 0.03 0.01 0.00 0.00 0.00 0.00 0.00 0.00 0.01 0.09 0.34 0.43 0.43 0.43 0.30 0.37 0.17 0.08 0.03 0.00 0.00 0.00 0.00 0.00 0.00 0.00 0.00 0.00 0.00 0.00 0.00 0.00 0.00 0.00 0.00 0.00
0.02 0.01 0.02 0.03 0.07 0.08 0.06 0.06 0.05 0.04 0.03 0.03 0.01 0.01 0.01 0.00 0.00 0.00 0.00 0.00 0.09 0.24 0.34 0.12 0.10 0.09 0.07 0.03 0.03 0.00 0.00 0.00 0.00 0.00 0.00 0.00 0.00 0.00 0.00 0.00 0.00 0.00 0.00 0.00 0.00 0.00 0.00
0.02 0.01 0.02 0.02 0.06 0.07 0.07 0.05 0.03 0.03 0.02 0.01 0.00 0.01 0.00 0.00 0.00 0.00 0.00 0.01 0.05 0.11 0.12 0.18 0.22 0.16 0.05 0.04 0.01 0.00 0.00 0.00 0.00 0.00 0.00 0.00 0.00 0.00 0.00 0.00 0.00 0.00 0.00 0.00 0.00 0.00 0.00
0.02 0.02 0.02 0.02 0.05 0.07 0.07 0.07 0.05 0.03 0.02 0.00 0.00 0.00 0.00 0.00 0.00 0.00 0.00 0.01 0.03 0.06 0.08 0.32 0.26 0.25 0.06 0.03 0.01 0.00 0.00 0.01 0.01 0.00 0.00 0.00 0.00 0.00 0.00 0.00 0.00 0.01 0.00 0.00 0.00 0.03 0.02
0.02 0.02 0.02 0.02 0.04 0.06 0.06 0.08 0.05 0.03 0.01 0.00 0.00 0.00 0.00 0.00 0.00 0.00 0.00 0.03 0.06 0.10 0.25 0.52 0.36 0.15 0.07 0.04 0.03 0.01 0.00 0.02 0.03 0.01 0.01 0.00 0.00 0.01 0.01 0.00 0.00 0.00 0.00 0.00 0.00 0.02 0.10
0.02 0.02 0.01 0.01 0.03 0.05 0.05 0.06 0.04 0.02 0.00 0.00 0.00 0.00 0.00 0.00 0.00 0.00 0.00 0.07 0.09 0.02 0.18 0.20 0.22 0.16 0.12 0.05 0.02 0.01 0.00 0.00 0.01 0.01 0.00 0.00 0.00 0.00 0.00 0.00 0.00 0.00 0.00 0.00 0.00 0.05 0.13
0.02 0.02 0.02 0.01 0.02 0.03 0.04 0.04 0.04 0.02 0.01 0.00 0.00 0.00 0.00 0.00 0.00 0.00 0.00 0.01 0.00 0.05 0.08 0.09 0.12 0.05 0.03 0.04 0.01 0.01 0.01 0.00 0.00 0.02 0.01 0.00 0.00 0.00 0.00 0.00 0.00 0.00 0.04 0.05 0.02 0.08 0.06
0.01 0.01 0.01 0.01 0.01 0.02 0.03 0.04 0.04 0.02 0.01 0.00 0.00 0.00 0.00 0.00 0.00 0.00 0.00 0.00 0.06 0.12 0.05 0.03 0.00 0.00 0.01 0.02 0.01 0.01 0.03 0.03 0.01 0.02 0.04 0.02 0.01 0.00 0.00 0.00 0.01 0.04 0.11 0.21 0.12 0.10 0.13
0.01 0.01 0.01 0.00 0.00 0.01 0.03 0.03 0.03 0.02 0.01 0.00 0.00 0.00 0.00 0.00 0.00 0.00 0.00 0.01 0.05 0.03 0.01 0.00 0.00 0.00 0.01 0.06 0.05 0.04 0.09 0.04 0.01 0.01 0.02 0.05 0.00 0.00 0.00 0.00 0.01 0.07 0.15 0.14 0.24 0.14 0.22
0.01 0.01 0.01 0.00 0.00 0.01 0.02 0.03 0.02 0.01 0.00 0.00 0.00 0.00 0.00 0.00 0.00 0.00 0.00 0.01 0.00 0.00 0.00 0.00 0.01 0.00 0.00 0.00 0.01 0.02 0.04 0.01 0.02 0.02 0.03 0.02 0.01 0.00 0.00 0.00 0.00 0.04 0.13 0.22 0.23 0.14 0.17
0.01 0.01 0.00 0.00 0.00 0.00 0.01 0.02 0.02 0.01 0.00 0.00 0.00 0.00 0.00 0.00 0.00 0.00 0.00 0.00 0.00 0.00 0.00 0.00 0.00 0.00 0.00 0.00 0.00 0.00 0.00 0.00 0.00 0.00 0.00 0.00 0.01 0.00 0.00 0.00 0.02 0.03 0.12 0.17 0.19 0.16 0.19
0.00 0.01 0.00 0.00 0.00 0.00 0.01 0.01 0.01 0.00 0.00 0.00 0.00 0.00 0.00 0.00 0.00 0.00 0.00 0.00 0.00 0.00 0.00 0.00 0.00 0.00 0.00 0.00 0.00 0.00 0.00 0.00 0.00 0.00 0.00 0.00 0.00 0.00 0.00 0.00 0.00 0.00 0.02 0.10 0.16 0.12 0.06
0.00 0.01 0.00 0.00 0.00 0.00 0.01 0.01 0.01 0.00 0.00 0.00 0.00 0.00 0.00 0.00 0.00 0.00 0.00 0.00 0.00 0.00 0.00 0.00 0.00 0.00 0.00 0.00 0.00 0.00 0.00 0.00 0.00 0.00 0.00 0.00 0.00 0.00 0.00 0.00 0.00 0.00 0.01 0.02 0.03 0.02 0.01
0.01 0.00 0.00 0.00 0.00 0.00 0.01 0.01 0.01 0.00 0.00 0.00 0.00 0.00 0.00 0.00 0.00 0.00 0.00 0.00 0.00 0.00 0.00 0.00 0.00 0.00 0.00 0.00 0.00 0.00 0.00 0.00 0.00 0.00 0.00 0.00 0.00 0.00 0.00 0.00 0.00 0.00 0.00 0.00 0.00 0.01 0.00
0.01 0.00 0.00 0.00 0.00 0.00 0.01 0.01 0.00 0.00 0.00 0.00 0.00 0.00 0.00 0.00 0.00 0.00 0.00 0.00 0.00 0.00 0.00 0.00 0.00 0.00 0.00 0.00 0.00 0.00 0.00 0.00 0.00 0.00 0.00 0.00 0.00 0.00 0.00 0.00 0.00 0.00 0.00 0.00 0.00 0.00 0.00
0.01 0.00 0.00 0.00 0.00 0.00 0.01 0.01 0.01 0.00 0.00 0.00 0.00 0.00 0.00 0.00 0.00 0.00 0.00 0.00 0.00 0.00 0.00 0.00 0.00 0.00 0.00 0.00 0.00 0.00 0.00 0.00 0.00 0.00 0.00 0.00 0.00 0.00 0.00 0.00 0.00 0.00 0.00 0.00 0.00 0.00 0.00
0.01 0.01 0.00 0.00 0.00 0.00 0.01 0.01 0.00 0.00 0.00 0.00 0.00 0.00 0.00 0.00 0.00 0.00 0.00 0.00 0.00 0.00 0.00 0.00 0.00 0.00 0.00 0.00 0.00 0.00 0.00 0.00 0.00 0.00 0.00 0.00 0.00 0.00 0.00 0.00 0.00 0.00 0.00 0.00 0.00 0.00 0.00
0.02 0.01 0.00 0.00 0.00 0.00 0.00 0.00 0.00 0.00 0.00 0.00 0.00 0.00 0.00 0.00 0.00 0.00 0.00 0.00 0.00 0.00 0.00 0.00 0.00 0.00 0.00 0.00 0.00 0.00 0.00 0.00 0.00 0.00 0.00 0.00 0.00 0.00 0.00 0.00 0.00 0.00 0.00 0.00 0.00 0.00 0.00
0.02 0.01 0.00 0.00 0.00 0.00 0.00 0.00 0.00 0.00 0.00 0.00 0.00 0.00 0.00 0.00 0.00 0.00 0.00 0.00 0.00 0.00 0.00 0.00 0.00 0.00 0.00 0.00 0.00 0.00 0.00 0.00 0.00 0.00 0.00 0.00 0.00 0.00 0.00 0.00 0.00 0.00 0.00 0.00 0.00 0.00 0.00
0.02 0.01 0.01 0.00 0.00 0.00 0.00 0.00 0.00 0.00 0.00 0.00 0.00 0.00 0.00 0.00 0.00 0.00 0.00 0.00 0.00 0.00 0.00 0.00 0.00 0.00 0.00 0.00 0.00 0.00 0.00 0.00 0.00 0.00 0.00 0.00 0.00 0.00 0.00 0.00 0.00 0.00 0.00 0.00 0.00 0.00 0.00
0.01 0.01 0.00 0.00 0.00 0.00 0.00 0.00 0.00 0.00 0.00 0.00 0.00 0.00 0.00 0.00 0.00 0.00 0.00 0.00 0.00 0.00 0.00 0.00 0.00 0.00 0.00 0.00 0.00 0.00 0.00 0.00 0.00 0.00 0.00 0.00 0.00 0.00 0.00 0.00 0.00 0.00 0.00 0.00 0.00 0.00 0.00
0.01 0.00 0.00 0.00 0.00 0.00 0.00 0.00 0.00 0.00 0.00 0.00 0.00 0.00 0.00 0.00 0.00 0.00 0.00 0.00 0.00 0.00 0.00 0.00 0.00 0.00 0.00 0.00 0.00 0.00 0.00 0.00 0.00 0.00 0.00 0.00 0.00 0.00 0.00 0.00 0.00 0.00 0.00 0.00 0.00 0.00 0.00
0.01 0.01 0.00 0.00 0.00 0.00 0.00 0.00 0.00 0.00 0.00 0.00 0.00 0.00 0.00 0.00 0.00 0.00 0.00 0.00 0.00 0.00 0.00 0.00 0.00 0.00 0.00 0.00 0.00 0.00 0.00 0.00 0.00 0.00 0.00 0.00 0.00 0.00 0.00 0.00 0.00 0.00 0.00 0.00 0.00 0.00 0.00

GFSGBSN_prec_precacc24_129.txt.gz
Total_Precipitation_Accumulation
0.05 0.03 0.05 0.08 0.09 0.08 0.07 0.06 0.10 0.11 0.32 0.75 1.11 1.55 1.01 0.36 0.06 0.01 0.02 0.08 0.23 0.25 0.19 0.33 0.52 1.41 1.60 1.71 1.43 0.46 0.16 0.29 0.04 0.00 0.00 0.00 0.00 0.00 0.00 0.00 0.00 0.00 0.00 0.00 0.00 0.00 0.00
0.03 0.03 0.05 0.08 0.08 0.07 0.07 0.05 0.09 0.16 0.45 1.34 1.29 0.95 0.37 0.10 0.04 0.05 0.06 0.09 0.16 0.13 0.14 0.28 0.50 1.09 0.86 1.38 1.16 0.54 0.35 0.26 0.02 0.00 0.00 0.00 0.00 0.00 0.00 0.00 0.00 0.00 0.00 0.00 0.00 0.00 0.00
0.02 0.03 0.05 0.08 0.07 0.08 0.07 0.06 0.08 0.19 0.52 0.65 0.57 0.47 0.12 0.08 0.10 0.10 0.08 0.09 0.15 0.11 0.10 0.18 0.55 0.64 0.80 1.38 0.86 0.71 0.57 0.37 0.02 0.00 0.00 0.00 0.00 0.00 0.00 0.00 0.00 0.00 0.00 0.00 0.00 0.00 0.00
0.01 0.03 0.05 0.07 0.08 0.07 0.06 0.05 0.07 0.07 0.13 0.20 0.22 0.13 0.03 0.07 0.06 0.08 0.10 0.09 0.05 0.06 0.11 0.30 0.57 0.49 1.33 1.11 0.62 0.51 0.36 0.11 0.00 0.00 0.00 0.00 0.00 0.00 0.00 0.00 0.00 0.00 0.00 0.00 0.00 0.00 0.00
0.01 0.02 0.04 0.07 0.08 0.07 0.06 0.04 0.05 0.05 0.03 0.04 0.03 0.01 0.00 0.02 0.09 0.12 0.13 0.29 0.43 0.48 0.50 0.41 0.37 0.39 1.46 1.21 0.75 0.24 0.14 0.05 0.00 0.00 0.00 0.00 0.00 0.00 0.00 0.00 0.00 0.00 0.00 0.00 0.00 0.00 0.00
0.01 0.02 0.03 0.05 0.08 0.07 0.06 0.04 0.04 0.04 0.02 0.02 0.01 0.00 0.00 0.00 0.01 0.05 0.11 0.14 0.17 0.25 0.41 0.33 0.31 0.46 0.83 0.81 0.35 0.07 0.02 0.00 0.00 0.00 0.00 0.00 0.00 0.00 0.00 0.00 0.00 0.00 0.00 0.00 0.00 0.00 0.00
0.02 0.02 0.03 0.04 0.07 0.07 0.05 0.04 0.04 0.03 0.02 0.02 0.00 0.00 0.00 0.00 0.00 0.00 0.00 0.01 0.04 0.20 0.31 0.37 0.41 0.28 0.37 0.16 0.08 0.03 0.00 0.00 0.00 0.00 0.00 0.00 0.00 0.00 0.00 0.00 0.00 0.00 0.00 0.00 0.00 0.00 0.00
0.02 0.02 0.03 0.03 0.07 0.07 0.05 0.04 0.03 0.03 0.01 0.01 0.00 0.01 0.01 0.00 0.00 0.00 0.00 0.00 0.01 0.11 0.17 0.08 0.07 0.05 0.04 0.02 0.03 0.00 0.00 0.00 0.00 0.00 0.00 0.00 0.00 0.00 0.00 0.00 0.00 0.00 0.00 0.00 0.00 0.00 0.00
0.03 0.02 0.02 0.02 0.06 0.07 0.05 0.03 0.02 0.02 0.01 0.00 0.00 0.01 0.00 0.00 0.00 0.00 0.00 0.00 0.01 0.02 0.05 0.05 0.05 0.06 0.02 0.03 0.01 0.00 0.00 0.00 0.00 0.00 0.00 0.00 0.00 0.00 0.00 0.00 0.00 0.00 0.00 0.00 0.00 0.00 0.00
0.03 0.03 0.02 0.02 0.05 0.07 0.04 0.03 0.01 0.01 0.01 0.00 0.00 0.00 0.00 0.00 0.00 0.00 0.00 0.00 0.00 0.00 0.02 0.15 0.11 0.12 0.03 0.03 0.01 0.00 0.00 0.00 0.00 0.00 0.00 0.00 0.00 0.00 0.00 0.00 0.00 0.01 0.00 0.00 0.00 0.01 0.01
0.03 0.03 0.02 0.02 0.04 0.06 0.05 0.03 0.02 0.01 0.00 0.00 0.00 0.00 0.00 0.00 0.00 0.00 0.00 0.00 0.00 0.00 0.06 0.22 0.15 0.06 0.03 0.03 0.03 0.00 0.00 0.01 0.02 0.01 0.00 0.00 0.00 0.00 0.00 0.00 0.00 0.00 0.00 0.00 0.00 0.02 0.06
0.02 0.02 0.02 0.01 0.03 0.05 0.04 0.03 0.03 0.01 0.00 0.00 0.00 0.00 0.00 0.00 0.00 0.00 0.00 0.04 0.02 0.00 0.10 0.10 0.10 0.12 0.11 0.04 0.01 0.00 0.00 0.00 0.00 0.00 0.00 0.00 0.00 0.00 0.00 0.00 0.00 0.00 0.00 0.00 0.00 0.02 0.05
0.02 0.02 0.02 0.01 0.02 0.03 0.04 0.03 0.03 0.02 0.01 0.00 0.00 0.00 0.00 0.00 0.00 0.00 0.00 0.00 0.00 0.04 0.06 0.09 0.10 0.05 0.03 0.03 0.00 0.01 0.00 0.00 0.00 0.01 0.00 0.00 0.00 0.00 0.00 0.00 0.00 0.00 0.03 0.03 0.01 0.03 0.02
0.01 0.01 0.01 0.01 0.00 0.02 0.03 0.03 0.03 0.02 0.01 0.00 0.00 0.00 0.00 0.00 0.00 0.00 0.00 0.00 0.03 0.08 0.03 0.01 0.00 0.00 0.01 0.01 0.00 0.00 0.01 0.01 0.00 0.01 0.02 0.00 0.00 0.00 0.00 0.00 0.01 0.04 0.07 0.13 0.07 0.02 0.03
0.01 0.01 0.01 0.00 0.00 0.01 0.02 0.03 0.03 0.02 0.01 0.00 0.00 0.00 0.00 0.00 0.00 0.00 0.00 0.00 0.02 0.01 0.00 0.00 0.00 0.00 0.01 0.06 0.03 0.03 0.04 0.02 0.01 0.00 0.01 0.03 0.00 0.00 0.00 0.00 0.01 0.05 0.09 0.08 0.16 0.07 0.12
0.01 0.01 0.01 0.00 0.00 0.00 0.02 0.03 0.02 0.01 0.00 0.00 0.00 0.00 0.00 0.00 0.00 0.00 0.00 0.00 0.00 0.00 0.00 0.00 0.01 0.00 0.00 0.00 0.01 0.01 0.03 0.01 0.02 0.02 0.01 0.01 0.01 0.00 0.00 0.00 0.00 0.04 0.08 0.18 0.19 0.11 0.11
0.01 0.01 0.00 0.00 0.00 0.00 0.01 0.02 0.02 0.01 0.00 0.00 0.00 0.00 0.00 0.00 0.00 0.00 0.00 0.00 0.00 0.00 0.00 0.00 0.00 0.00 0.00 0.00 0.00 0.00 0.00 0.00 0.00 0.00 0.00 0.00 0.01 0.00 0.00 0.00 0.02 0.03 0.09 0.14 0.17 0.14 0.14
0.01 0.01 0.00 0.00 0.00 0.00 0.01 0.01 0.01 0.00 0.00 0.00 0.00 0.00 0.00 0.00 0.00 0.00 0.00 0.00 0.00 0.00 0.00 0.00 0.00 0.00 0.00 0.00 0.00 0.00 0.00 0.00 0.00 0.00 0.00 0.00 0.00 0.00 0.00 0.00 0.00 0.00 0.02 0.09 0.15 0.12 0.06
0.01 0.01 0.00 0.00 0.00 0.00 0.00 0.01 0.01 0.00 0.00 0.00 0.00 0.00 0.00 0.00 0.00 0.00 0.00 0.00 0.00 0.00 0.00 0.00 0.00 0.00 0.00 0.00 0.00 0.00 0.00 0.00 0.00 0.00 0.00 0.00 0.00 0.00 0.00 0.00 0.00 0.00 0.01 0.02 0.03 0.02 0.01
0.02 0.01 0.00 0.00 0.00 0.00 0.01 0.01 0.01 0.00 0.00 0.00 0.00 0.00 0.00 0.00 0.00 0.00 0.00 0.00 0.00 0.00 0.00 0.00 0.00 0.00 0.00 0.00 0.00 0.00 0.00 0.00 0.00 0.00 0.00 0.00 0.00 0.00 0.00 0.00 0.00 0.00 0.00 0.00 0.00 0.01 0.00
0.02 0.01 0.00 0.00 0.00 0.00 0.00 0.01 0.00 0.00 0.00 0.00 0.00 0.00 0.00 0.00 0.00 0.00 0.00 0.00 0.00 0.00 0.00 0.00 0.00 0.00 0.00 0.00 0.00 0.00 0.00 0.00 0.00 0.00 0.00 0.00 0.00 0.00 0.00 0.00 0.00 0.00 0.00 0.00 0.00 0.00 0.00
0.01 0.01 0.00 0.00 0.00 0.00 0.01 0.00 0.00 0.00 0.00 0.00 0.00 0.00 0.00 0.00 0.00 0.00 0.00 0.00 0.00 0.00 0.00 0.00 0.00 0.00 0.00 0.00 0.00 0.00 0.00 0.00 0.00 0.00 0.00 0.00 0.00 0.00 0.00 0.00 0.00 0.00 0.00 0.00 0.00 0.00 0.00
0.02 0.01 0.00 0.00 0.00 0.00 0.00 0.00 0.00 0.00 0.00 0.00 0.00 0.00 0.00 0.00 0.00 0.00 0.00 0.00 0.00 0.00 0.00 0.00 0.00 0.00 0.00 0.00 0.00 0.00 0.00 0.00 0.00 0.00 0.00 0.00 0.00 0.00 0.00 0.00 0.00 0.00 0.00 0.00 0.00 0.00 0.00
0.02 0.02 0.01 0.00 0.00 0.00 0.00 0.00 0.00 0.00 0.00 0.00 0.00 0.00 0.00 0.00 0.00 0.00 0.00 0.00 0.00 0.00 0.00 0.00 0.00 0.00 0.00 0.00 0.00 0.00 0.00 0.00 0.00 0.00 0.00 0.00 0.00 0.00 0.00 0.00 0.00 0.00 0.00 0.00 0.00 0.00 0.00
0.02 0.01 0.01 0.01 0.01 0.00 0.00 0.00 0.00 0.00 0.00 0.00 0.00 0.00 0.00 0.00 0.00 0.00 0.00 0.00 0.00 0.00 0.00 0.00 0.00 0.00 0.00 0.00 0.00 0.00 0.00 0.00 0.00 0.00 0.00 0.00 0.00 0.00 0.00 0.00 0.00 0.00 0.00 0.00 0.00 0.00 0.00
0.02 0.01 0.01 0.02 0.01 0.00 0.00 0.00 0.00 0.00 0.00 0.00 0.00 0.00 0.00 0.00 0.00 0.00 0.00 0.00 0.00 0.00 0.00 0.00 0.00 0.00 0.00 0.00 0.00 0.00 0.00 0.00 0.00 0.00 0.00 0.00 0.00 0.00 0.00 0.00 0.00 0.00 0.00 0.00 0.00 0.00 0.00
0.01 0.01 0.00 0.01 0.01 0.00 0.00 0.00 0.00 0.00 0.00 0.00 0.00 0.00 0.00 0.00 0.00 0.00 0.00 0.00 0.00 0.00 0.00 0.00 0.00 0.00 0.00 0.00 0.00 0.00 0.00 0.00 0.00 0.00 0.00 0.00 0.00 0.00 0.00 0.00 0.00 0.00 0.00 0.00 0.00 0.00 0.00
0.02 0.01 0.01 0.00 0.00 0.00 0.00 0.00 0.00 0.00 0.00 0.00 0.00 0.00 0.00 0.00 0.00 0.00 0.00 0.00 0.00 0.00 0.00 0.00 0.00 0.00 0.00 0.00 0.00 0.00 0.00 0.00 0.00 0.00 0.00 0.00 0.00 0.00 0.00 0.00 0.00 0.00 0.00 0.00 0.00 0.00 0.00
0.01 0.02 0.01 0.00 0.00 0.00 0.00 0.00 0.00 0.00 0.00 0.00 0.00 0.00 0.00 0.00 0.00 0.00 0.00 0.00 0.00 0.00 0.00 0.00 0.00 0.00 0.00 0.00 0.00 0.00 0.00 0.00 0.00 0.00 0.00 0.00 0.00 0.00 0.00 0.00 0.00 0.00 0.00 0.00 0.00 0.00 0.00

GFSGBSN_prec_precacc24_132.txt.gz
Total_Precipitation_Accumulation
0.03 0.04 0.06 0.09 0.10 0.08 0.07 0.04 0.08 0.08 0.21 0.51 0.70 1.05 0.86 0.39 0.12 0.13 0.28 0.42 0.55 0.45 0.26 0.38 0.58 1.39 1.67 1.67 1.37 0.45 0.16 0.26 0.03 0.00 0.00 0.00 0.00 0.00 0.00 0.00 0.00 0.00 0.00 0.00 0.00 0.00 0.00
0.03 0.04 0.05 0.09 0.09 0.08 0.07 0.04 0.07 0.06 0.13 0.45 0.51 0.44 0.27 0.11 0.11 0.23 0.46 0.39 0.36 0.30 0.24 0.34 0.50 1.09 0.90 1.34 1.04 0.43 0.30 0.24 0.02 0.00 0.00 0.00 0.00 0.00 0.00 0.00 0.00 0.00 0.00 0.00 0.00 0.00 0.00
0.02 0.04 0.05 0.08 0.08 0.09 0.07 0.05 0.06 0.03 0.04 0.05 0.10 0.09 0.08 0.08 0.12 0.13 0.13 0.24 0.30 0.32 0.30 0.26 0.42 0.61 0.82 1.40 0.78 0.50 0.47 0.36 0.02 0.00 0.00 0.00 0.00 0.00 0.00 0.00 0.00 0.00 0.00 0.00 0.00 0.00 0.00
0.02 0.04 0.05 0.07 0.08 0.08 0.06 0.04 0.06 0.02 0.01 0.04 0.03 0.01 0.02 0.07 0.06 0.08 0.11 0.11 0.13 0.18 0.24 0.36 0.53 0.41 1.21 1.04 0.57 0.39 0.28 0.10 0.00 0.00 0.00 0.00 0.00 0.00 0.00 0.00 0.00 0.00 0.00 0.00 0.00 0.00 0.00
0.02 0.03 0.04 0.07 0.08 0.07 0.07 0.04 0.04 0.04 0.01 0.02 0.02 0.00 0.00 0.02 0.09 0.12 0.13 0.29 0.42 0.49 0.54 0.46 0.40 0.39 1.51 1.20 0.73 0.20 0.10 0.05 0.00 0.00 0.00 0.00 0.00 0.00 0.00 0.00 0.00 0.00 0.00 0.00 0.00 0.00 0.00
0.02 0.02 0.04 0.05 0.09 0.08 0.06 0.04 0.03 0.03 0.01 0.01 0.00 0.00 0.00 0.00 0.01 0.05 0.11 0.14 0.17 0.24 0.41 0.37 0.31 0.46 0.87 0.81 0.33 0.05 0.02 0.00 0.00 0.00 0.00 0.00 0.00 0.00 0.00 0.00 0.00 0.00 0.00 0.00 0.00 0.00 0.00
0.03 0.02 0.03 0.04 0.08 0.08 0.06 0.04 0.03 0.02 0.02 0.01 0.00 0.00 0.00 0.00 0.00 0.00 0.00 0.01 0.03 0.18 0.27 0.37 0.40 0.26 0.37 0.16 0.07 0.02 0.00 0.00 0.00 0.00 0.00 0.00 0.00 0.00 0.00 0.00 0.00 0.00 0.00 0.00 0.00 0.00 0.00
0.03 0.02 0.02 0.03 0.07 0.07 0.05 0.04 0.03 0.02 0.01 0.01 0.00 0.00 0.00 0.00 0.00 0.00 0.00 0.00 0.01 0.08 0.09 0.07 0.07 0.04 0.04 0.02 0.03 0.00 0.00 0.00 0.00 0.00 0.00 0.00 0.00 0.00 0.00 0.00 0.00 0.00 0.00 0.00 0.00 0.00 0.00
0.03 0.02 0.02 0.02 0.05 0.06 0.04 0.03 0.02 0.02 0.00 0.00 0.00 0.00 0.00 0.00 0.00 0.00 0.00 0.00 0.00 0.00 0.01 0.02 0.03 0.04 0.02 0.02 0.00 0.00 0.00 0.00 0.00 0.00 0.00 0.00 0.00 0.00 0.00 0.00 0.00 0.00 0.00 0.00 0.00 0.00 0.00
0.03 0.03 0.02 0.02 0.04 0.05 0.04 0.03 0.02 0.01 0.00 0.00 0.00 0.00 0.00 0.00 0.00 0.00 0.00 0.00 0.00 0.00 0.00 0.03 0.01 0.04 0.02 0.02 0.00 0.00 0.00 0.00 0.00 0.00 0.00 0.00 0.00 0.00 0.00 0.00 0.00 0.00 0.00 0.00 0.00 0.00 0.00
0.03 0.03 0.02 0.01 0.02 0.04 0.04 0.04 0.02 0.01 0.00 0.00 0.00 0.00 0.00 0.00 0.00 0.00 0.00 0.00 0.00 0.00 0.02 0.13 0.06 0.02 0.00 0.01 0.01 0.00 0.00 0.00 0.01 0.00 0.00 0.00 0.00 0.00 0.00 0.00 0.00 0.00 0.00 0.00 0.00 0.01 0.04
0.03 0.02 0.02 0.01 0.01 0.03 0.03 0.03 0.03 0.01 0.00 0.00 0.00 0.00 0.00 0.00 0.00 0.00 0.00 0.00 0.00 0.00 0.03 0.03 0.02 0.05 0.04 0.01 0.00 0.00 0.00 0.00 0.00 0.00 0.00 0.00 0.00 0.00 0.00 0.00 0.00 0.00 0.00 0.00 0.00 0.02 0.03
0.02 0.02 0.02 0.01 0.01 0.02 0.02 0.02 0.03 0.02 0.01 0.00 0.00 0.00 0.00 0.00 0.00 0.00 0.00 0.00 0.00 0.02 0.02 0.03 0.02 0.02 0.01 0.01 0.00 0.00 0.00 0.00 0.00 0.00 0.00 0.00 0.00 0.00 0.00 0.00 0.00 0.00 0.02 0.02 0.01 0.02 0.01
0.01 0.02 0.01 0.01 0.00 0.01 0.02 0.03 0.02 0.02 0.01 0.00 0.00 0.00 0.00 0.00 0.00 0.00 0.00 0.00 0.02 0.05 0.01 0.00 0.00 0.00 0.00 0.00 0.00 0.00 0.00 0.00 0.00 0.00 0.00 0.00 0.00 0.00 0.00 0.00 0.01 0.03 0.05 0.07 0.03 0.01 0.01
0.01 0.01 0.01 0.00 0.00 0.00 0.01 0.02 0.02 0.01 0.01 0.00 0.00 0.00 0.00 0.00 0.00 0.00 0.00 0.00 0.01 0.00 0.00 0.00 0.00 0.00 0.01 0.03 0.01 0.00 0.00 0.00 0.00 0.00 0.00 0.01 0.00 0.00 0.00 0.00 0.01 0.04 0.06 0.05 0.10 0.03 0.06
0.02 0.01 0.01 0.00 0.00 0.00 0.01 0.02 0.02 0.01 0.00 0.00 0.00 0.00 0.00 0.00 0.00 0.00 0.00 0.00 0.00 0.00 0.00 0.00 0.01 0.00 0.00 0.00 0.00 0.00 0.01 0.00 0.01 0.01 0.00 0.01 0.01 0.00 0.00 0.00 0.00 0.03 0.06 0.12 0.13 0.07 0.07
0.02 0.01 0.00 0.00 0.00 0.00 0.01 0.01 0.02 0.01 0.00 0.00 0.00 0.00 0.00 0.00 0.00 0.00 0.00 0.00 0.00 0.00 0.00 0.00 0.00 0.00 0.00 0.00 0.00 0.00 0.00 0.00 0.00 0.00 0.00 0.00 0.01 0.00 0.00 0.00 0.02 0.03 0.08 0.09 0.08 0.05 0.07
0.01 0.01 0.00 0.00 0.00 0.00 0.01 0.01 0.01 0.00 0.00 0.00 0.00 0.00 0.00 0.00 0.00 0.00 0.00 0.00 0.00 0.00 0.00 0.00 0.00 0.00 0.00 0.00 0.00 0.00 0.00 0.00 0.00 0.00 0.00 0.00 0.00 0.00 0.00 0.00 0.00 0.00 0.02 0.07 0.08 0.05 0.02
0.01 0.01 0.00 0.00 0.00 0.00 0.00 0.01 0.01 0.00 0.00 0.00 0.00 0.00 0.00 0.00 0.00 0.00 0.00 0.00 0.00 0.00 0.00 0.00 0.00 0.00 0.00 0.00 0.00 0.00 0.00 0.00 0.00 0.00 0.00 0.00 0.00 0.00 0.00 0.00 0.00 0.00 0.01 0.02 0.02 0.01 0.01
0.02 0.01 0.00 0.00 0.00 0.00 0.00 0.00 0.01 0.00 0.00 0.00 0.00 0.00 0.00 0.00 0.00 0.00 0.00 0.00 0.00 0.00 0.00 0.00 0.00 0.00 0.00 0.00 0.00 0.00 0.00 0.00 0.00 0.00 0.00 0.00 0.00 0.00 0.00 0.00 0.00 0.00 0.00 0.00 0.00 0.01 0.00
0.02 0.01 0.01 0.00 0.00 0.00 0.00 0.00 0.00 0.00 0.00 0.00 0.00 0.00 0.00 0.00 0.00 0.00 0.00 0.00 0.00 0.00 0.00 0.00 0.00 0.00 0.00 0.00 0.00 0.00 0.00 0.00 0.00 0.00 0.00 0.00 0.00 0.00 0.00 0.00 0.00 0.00 0.00 0.00 0.00 0.00 0.00
0.02 0.01 0.01 0.01 0.00 0.00 0.00 0.00 0.00 0.00 0.00 0.00 0.00 0.00 0.00 0.00 0.00 0.00 0.00 0.00 0.00 0.00 0.00 0.00 0.00 0.00 0.00 0.00 0.00 0.00 0.00 0.00 0.00 0.00 0.00 0.00 0.00 0.00 0.00 0.00 0.00 0.00 0.00 0.00 0.00 0.00 0.00
0.02 0.02 0.01 0.01 0.00 0.00 0.00 0.00 0.00 0.00 0.00 0.00 0.00 0.00 0.00 0.00 0.00 0.00 0.00 0.00 0.00 0.00 0.00 0.00 0.00 0.00 0.00 0.00 0.00 0.00 0.00 0.00 0.00 0.00 0.00 0.00 0.00 0.00 0.00 0.00 0.00 0.00 0.00 0.00 0.00 0.00 0.00
0.02 0.02 0.01 0.01 0.01 0.00 0.00 0.00 0.00 0.00 0.00 0.00 0.00 0.00 0.00 0.00 0.00 0.00 0.00 0.00 0.00 0.00 0.00 0.00 0.00 0.00 0.00 0.00 0.00 0.00 0.00 0.00 0.00 0.00 0.00 0.00 0.00 0.00 0.00 0.00 0.00 0.00 0.00 0.00 0.00 0.00 0.00
0.01 0.01 0.01 0.01 0.01 0.00 0.00 0.00 0.00 0.00 0.00 0.00 0.00 0.00 0.00 0.00 0.00 0.00 0.00 0.00 0.00 0.00 0.00 0.00 0.00 0.00 0.00 0.00 0.00 0.00 0.00 0.00 0.00 0.00 0.00 0.00 0.00 0.00 0.00 0.00 0.00 0.00 0.00 0.00 0.00 0.00 0.00
0.01 0.01 0.01 0.02 0.01 0.00 0.00 0.00 0.00 0.00 0.00 0.00 0.00 0.00 0.00 0.00 0.00 0.00 0.00 0.00 0.00 0.00 0.00 0.00 0.00 0.00 0.00 0.00 0.00 0.00 0.00 0.00 0.00 0.00 0.00 0.00 0.00 0.00 0.00 0.00 0.00 0.00 0.00 0.00 0.00 0.00 0.00
0.02 0.01 0.01 0.01 0.01 0.00 0.00 0.00 0.00 0.00 0.00 0.00 0.00 0.00 0.00 0.00 0.00 0.00 0.00 0.00 0.00 0.00 0.00 0.00 0.00 0.00 0.00 0.00 0.00 0.00 0.00 0.00 0.00 0.00 0.00 0.00 0.00 0.00 0.00 0.00 0.00 0.00 0.00 0.00 0.00 0.00 0.00
0.02 0.01 0.01 0.01 0.00 0.00 0.00 0.00 0.00 0.00 0.00 0.00 0.00 0.00 0.00 0.00 0.00 0.00 0.00 0.00 0.00 0.00 0.00 0.00 0.00 0.00 0.00 0.00 0.00 0.00 0.00 0.00 0.00 0.00 0.00 0.00 0.00 0.00 0.00 0.00 0.00 0.00 0.00 0.00 0.00 0.00 0.00
0.01 0.01 0.01 0.01 0.01 0.00 0.00 0.00 0.00 0.00 0.00 0.00 0.00 0.00 0.00 0.00 0.00 0.00 0.00 0.00 0.00 0.00 0.00 0.00 0.00 0.00 0.00 0.00 0.00 0.00 0.00 0.00 0.00 0.00 0.00 0.00 0.00 0.00 0.00 0.00 0.00 0.00 0.00 0.00 0.00 0.00 0.00

GFSGBSN_prec_precacc24_135.txt.gz
Total_Precipitation_Accumulation
0.03 0.04 0.06 0.10 0.10 0.08 0.06 0.04 0.07 0.02 0.05 0.11 0.15 0.20 0.19 0.16 0.20 0.42 0.60 0.69 0.69 0.55 0.30 0.45 0.60 1.41 1.70 1.72 1.37 0.41 0.15 0.23 0.02 0.00 0.00 0.00 0.00 0.00 0.00 0.00 0.00 0.00 0.00 0.00 0.00 0.00 0.00
0.04 0.04 0.05 0.09 0.08 0.08 0.06 0.04 0.06 0.03 0.02 0.05 0.08 0.09 0.07 0.10 0.13 0.37 0.71 0.71 0.56 0.44 0.31 0.35 0.49 1.08 0.86 1.29 0.92 0.33 0.23 0.18 0.01 0.00 0.00 0.00 0.00 0.00 0.00 0.00 0.00 0.00 0.00 0.00 0.00 0.00 0.00
0.03 0.04 0.05 0.07 0.08 0.08 0.06 0.04 0.06 0.03 0.02 0.02 0.03 0.03 0.04 0.08 0.14 0.17 0.25 0.39 0.43 0.38 0.31 0.26 0.36 0.59 0.66 1.30 0.63 0.35 0.30 0.22 0.02 0.00 0.00 0.00 0.00 0.00 0.00 0.00 0.00 0.00 0.00 0.00 0.00 0.00 0.00
0.03 0.04 0.05 0.07 0.08 0.07 0.06 0.03 0.05 0.02 0.00 0.03 0.03 0.01 0.01 0.07 0.06 0.10 0.16 0.17 0.16 0.21 0.25 0.34 0.47 0.38 0.98 0.90 0.40 0.26 0.21 0.09 0.00 0.00 0.00 0.00 0.00 0.00 0.00 0.00 0.00 0.00 0.00 0.00 0.00 0.00 0.00
0.03 0.03 0.04 0.06 0.07 0.06 0.06 0.04 0.04 0.03 0.00 0.02 0.02 0.00 0.00 0.02 0.09 0.12 0.13 0.31 0.43 0.49 0.53 0.42 0.33 0.24 1.13 0.89 0.49 0.17 0.08 0.04 0.00 0.00 0.00 0.00 0.00 0.00 0.00 0.00 0.00 0.00 0.00 0.00 0.00 0.00 0.00
0.03 0.02 0.03 0.05 0.07 0.06 0.05 0.03 0.02 0.03 0.01 0.01 0.00 0.00 0.00 0.00 0.01 0.05 0.11 0.14 0.17 0.23 0.40 0.35 0.29 0.42 0.82 0.73 0.27 0.05 0.01 0.00 0.00 0.00 0.00 0.00 0.00 0.00 0.00 0.00 0.00 0.00 0.00 0.00 0.00 0.00 0.00
0.04 0.02 0.02 0.04 0.06 0.05 0.04 0.03 0.03 0.02 0.02 0.01 0.00 0.00 0.00 0.00 0.00 0.00 0.00 0.01 0.03 0.17 0.26 0.35 0.37 0.25 0.39 0.16 0.06 0.02 0.00 0.00 0.00 0.00 0.00 0.00 0.00 0.00 0.00 0.00 0.00 0.00 0.00 0.00 0.00 0.00 0.00
0.04 0.02 0.02 0.02 0.05 0.05 0.04 0.03 0.03 0.01 0.01 0.01 0.00 0.00 0.00 0.00 0.00 0.00 0.00 0.00 0.01 0.06 0.07 0.07 0.07 0.04 0.04 0.02 0.03 0.00 0.00 0.00 0.00 0.00 0.00 0.00 0.00 0.00 0.00 0.00 0.00 0.00 0.00 0.00 0.00 0.00 0.00
0.04 0.03 0.01 0.02 0.03 0.04 0.03 0.03 0.02 0.01 0.00 0.00 0.00 0.00 0.00 0.00 0.00 0.00 0.00 0.00 0.00 0.00 0.00 0.01 0.01 0.02 0.02 0.01 0.00 0.00 0.00 0.00 0.00 0.00 0.00 0.00 0.00 0.00 0.00 0.00 0.00 0.00 0.00 0.00 0.00 0.00 0.00
0.04 0.03 0.01 0.02 0.02 0.03 0.03 0.02 0.02 0.01 0.00 0.00 0.00 0.00 0.00 0.00 0.00 0.00 0.00 0.00 0.00 0.00 0.00 0.01 0.00 0.01 0.00 0.00 0.00 0.00 0.00 0.00 0.00 0.00 0.00 0.00 0.00 0.00 0.00 0.00 0.00 0.00 0.00 0.00 0.00 0.00 0.00
0.03 0.03 0.02 0.01 0.02 0.02 0.02 0.03 0.02 0.01 0.00 0.00 0.00 0.00 0.00 0.00 0.00 0.00 0.00 0.00 0.00 0.00 0.01 0.01 0.00 0.00 0.00 0.00 0.00 0.00 0.00 0.00 0.00 0.00 0.00 0.00 0.00 0.00 0.00 0.00 0.00 0.00 0.00 0.00 0.00 0.00 0.01
0.03 0.03 0.02 0.00 0.01 0.02 0.02 0.02 0.02 0.01 0.00 0.00 0.00 0.00 0.00 0.00 0.00 0.00 0.00 0.00 0.00 0.00 0.02 0.01 0.01 0.00 0.01 0.01 0.00 0.00 0.00 0.00 0.00 0.00 0.00 0.00 0.00 0.00 0.00 0.00 0.00 0.00 0.00 0.00 0.00 0.01 0.01
0.02 0.02 0.02 0.00 0.01 0.01 0.02 0.02 0.02 0.01 0.00 0.00 0.00 0.00 0.00 0.00 0.00 0.00 0.00 0.00 0.00 0.02 0.01 0.01 0.00 0.00 0.00 0.00 0.00 0.00 0.00 0.00 0.00 0.00 0.00 0.00 0.00 0.00 0.00 0.00 0.00 0.00 0.00 0.00 0.01 0.01 0.00
0.01 0.02 0.01 0.01 0.00 0.01 0.02 0.02 0.02 0.01 0.00 0.00 0.00 0.00 0.00 0.00 0.00 0.00 0.00 0.00 0.01 0.03 0.00 0.00 0.00 0.00 0.00 0.00 0.00 0.00 0.00 0.00 0.00 0.00 0.00 0.00 0.00 0.00 0.00 0.00 0.01 0.00 0.01 0.03 0.02 0.01 0.01
0.01 0.01 0.01 0.00 0.00 0.00 0.01 0.02 0.01 0.01 0.00 0.00 0.00 0.00 0.00 0.00 0.00 0.00 0.00 0.00 0.00 0.00 0.00 0.00 0.00 0.00 0.00 0.01 0.00 0.00 0.00 0.00 0.00 0.00 0.00 0.00 0.00 0.00 0.00 0.00 0.00 0.02 0.03 0.02 0.05 0.02 0.03
0.02 0.01 0.01 0.00 0.00 0.00 0.01 0.02 0.01 0.01 0.00 0.00 0.00 0.00 0.00 0.00 0.00 0.00 0.00 0.00 0.00 0.00 0.00 0.00 0.01 0.00 0.00 0.00 0.00 0.00 0.00 0.00 0.00 0.00 0.00 0.00 0.00 0.00 0.00 0.00 0.00 0.02 0.04 0.09 0.09 0.04 0.03
0.02 0.01 0.00 0.00 0.00 0.00 0.01 0.01 0.01 0.00 0.00 0.00 0.00 0.00 0.00 0.00 0.00 0.00 0.00 0.00 0.00 0.00 0.00 0.00 0.00 0.00 0.00 0.00 0.00 0.00 0.00 0.00 0.00 0.00 0.00 0.00 0.00 0.00 0.00 0.00 0.01 0.01 0.04 0.05 0.03 0.02 0.02
0.01 0.01 0.00 0.00 0.00 0.00 0.00 0.01 0.01 0.00 0.00 0.00 0.00 0.00 0.00 0.00 0.00 0.00 0.00 0.00 0.00 0.00 0.00 0.00 0.00 0.00 0.00 0.00 0.00 0.00 0.00 0.00 0.00 0.00 0.00 0.00 0.00 0.00 0.00 0.00 0.00 0.00 0.01 0.04 0.03 0.03 0.01
0.02 0.01 0.00 0.00 0.00 0.00 0.00 0.00 0.00 0.00 0.00 0.00 0.00 0.00 0.00 0.00 0.00 0.00 0.00 0.00 0.00 0.00 0.00 0.00 0.00 0.00 0.00 0.00 0.00 0.00 0.00 0.00 0.00 0.00 0.00 0.00 0.00 0.00 0.00 0.00 0.00 0.00 0.00 0.01 0.00 0.01 0.01
0.02 0.02 0.01 0.00 0.00 0.00 0.00 0.00 0.00 0.00 0.00 0.00 0.00 0.00 0.00 0.00 0.00 0.00 0.00 0.00 0.00 0.00 0.00 0.00 0.00 0.00 0.00 0.00 0.00 0.00 0.00 0.00 0.00 0.00 0.00 0.00 0.00 0.00 0.00 0.00 0.00 0.00 0.00 0.00 0.00 0.01 0.00
0.01 0.02 0.01 0.01 0.00 0.00 0.00 0.00 0.00 0.00 0.00 0.00 0.00 0.00 0.00 0.00 0.00 0.00 0.00 0.00 0.00 0.00 0.00 0.00 0.00 0.00 0.00 0.00 0.00 0.00 0.00 0.00 0.00 0.00 0.00 0.00 0.00 0.00 0.00 0.00 0.00 0.00 0.00 0.00 0.00 0.00 0.00
0.01 0.01 0.01 0.01 0.00 0.00 0.00 0.00 0.00 0.00 0.00 0.00 0.00 0.00 0.00 0.00 0.00 0.00 0.00 0.00 0.00 0.00 0.00 0.00 0.00 0.00 0.00 0.00 0.00 0.00 0.00 0.00 0.00 0.00 0.00 0.00 0.00 0.00 0.00 0.00 0.00 0.00 0.00 0.00 0.00 0.00 0.00
0.01 0.01 0.01 0.01 0.01 0.00 0.00 0.00 0.00 0.00 0.00 0.00 0.00 0.00 0.00 0.00 0.00 0.00 0.00 0.00 0.00 0.00 0.00 0.00 0.00 0.00 0.00 0.00 0.00 0.00 0.00 0.00 0.00 0.00 0.00 0.00 0.00 0.00 0.00 0.00 0.00 0.00 0.00 0.00 0.00 0.00 0.00
0.01 0.01 0.01 0.01 0.01 0.01 0.00 0.00 0.00 0.00 0.00 0.00 0.00 0.00 0.00 0.00 0.00 0.00 0.00 0.00 0.00 0.00 0.00 0.00 0.00 0.00 0.00 0.00 0.00 0.00 0.00 0.00 0.00 0.00 0.00 0.00 0.00 0.00 0.00 0.00 0.00 0.00 0.00 0.00 0.00 0.00 0.00
0.01 0.01 0.01 0.01 0.01 0.00 0.00 0.00 0.00 0.00 0.00 0.00 0.00 0.00 0.00 0.00 0.00 0.00 0.00 0.00 0.00 0.00 0.00 0.00 0.00 0.00 0.00 0.00 0.00 0.00 0.00 0.00 0.00 0.00 0.00 0.00 0.00 0.00 0.00 0.00 0.00 0.00 0.00 0.00 0.00 0.00 0.00
0.01 0.02 0.02 0.02 0.01 0.00 0.00 0.00 0.00 0.00 0.00 0.00 0.00 0.00 0.00 0.00 0.00 0.00 0.00 0.00 0.00 0.00 0.00 0.00 0.00 0.00 0.00 0.00 0.00 0.00 0.00 0.00 0.00 0.00 0.00 0.00 0.00 0.00 0.00 0.00 0.00 0.00 0.00 0.00 0.00 0.00 0.00
0.02 0.02 0.01 0.02 0.01 0.00 0.00 0.00 0.00 0.00 0.00 0.00 0.00 0.00 0.00 0.00 0.00 0.00 0.00 0.00 0.00 0.00 0.00 0.00 0.00 0.00 0.00 0.00 0.00 0.00 0.00 0.00 0.00 0.00 0.00 0.00 0.00 0.00 0.00 0.00 0.00 0.00 0.00 0.00 0.00 0.00 0.00
0.02 0.01 0.01 0.01 0.01 0.00 0.00 0.00 0.00 0.00 0.00 0.00 0.00 0.00 0.00 0.00 0.00 0.00 0.00 0.00 0.00 0.00 0.00 0.00 0.00 0.00 0.00 0.00 0.00 0.00 0.00 0.00 0.00 0.00 0.00 0.00 0.00 0.00 0.00 0.00 0.00 0.00 0.00 0.00 0.00 0.00 0.00
0.01 0.01 0.01 0.01 0.01 0.00 0.00 0.00 0.00 0.00 0.00 0.00 0.00 0.00 0.00 0.00 0.00 0.00 0.00 0.00 0.00 0.00 0.00 0.00 0.00 0.00 0.00 0.00 0.00 0.00 0.00 0.00 0.00 0.00 0.00 0.00 0.00 0.00 0.00 0.00 0.00 0.00 0.00 0.00 0.00 0.00 0.00

GFSGBSN_prec_precacc24_141.txt.gz
Total_Precipitation_Accumulation
0.04 0.03 0.05 0.07 0.06 0.04 0.02 0.02 0.05 0.02 0.03 0.05 0.09 0.09 0.09 0.10 0.26 0.61 0.87 0.87 0.87 0.65 0.37 0.48 0.64 1.51 1.59 1.81 1.36 0.48 0.13 0.03 0.00 0.00 0.00 0.00 0.00 0.00 0.00 0.00 0.00 0.00 0.00 0.00 0.00 0.00 0.00
0.04 0.03 0.04 0.06 0.05 0.05 0.02 0.01 0.03 0.02 0.02 0.02 0.04 0.06 0.05 0.10 0.14 0.47 0.93 0.92 0.73 0.59 0.39 0.36 0.49 1.09 0.85 1.38 0.90 0.30 0.15 0.02 0.00 0.00 0.00 0.00 0.00 0.00 0.00 0.00 0.00 0.00 0.00 0.00 0.00 0.00 0.00
0.03 0.04 0.04 0.05 0.05 0.06 0.03 0.01 0.01 0.02 0.01 0.00 0.00 0.02 0.04 0.07 0.14 0.17 0.28 0.45 0.48 0.43 0.33 0.26 0.36 0.56 0.61 1.15 0.56 0.32 0.18 0.09 0.00 0.00 0.00 0.00 0.00 0.00 0.00 0.00 0.00 0.00 0.00 0.00 0.00 0.00 0.00
0.03 0.03 0.04 0.04 0.05 0.05 0.03 0.01 0.01 0.00 0.00 0.00 0.00 0.00 0.01 0.07 0.06 0.09 0.16 0.16 0.16 0.21 0.24 0.25 0.33 0.29 0.64 0.59 0.27 0.20 0.17 0.07 0.00 0.00 0.00 0.00 0.00 0.00 0.00 0.00 0.00 0.00 0.00 0.00 0.00 0.00 0.00
0.02 0.03 0.03 0.04 0.04 0.04 0.04 0.02 0.01 0.00 0.00 0.00 0.00 0.00 0.00 0.02 0.06 0.08 0.08 0.24 0.25 0.14 0.19 0.18 0.23 0.14 0.53 0.36 0.22 0.08 0.04 0.03 0.00 0.00 0.00 0.00 0.00 0.00 0.00 0.00 0.00 0.00 0.00 0.00 0.00 0.00 0.00
0.03 0.01 0.02 0.04 0.04 0.04 0.04 0.02 0.01 0.00 0.00 0.00 0.00 0.00 0.00 0.00 0.00 0.02 0.05 0.09 0.10 0.09 0.09 0.07 0.06 0.09 0.31 0.21 0.10 0.03 0.01 0.00 0.00 0.00 0.00 0.00 0.00 0.00 0.00 0.00 0.00 0.00 0.00 0.00 0.00 0.00 0.00
0.04 0.01 0.01 0.03 0.04 0.04 0.04 0.03 0.01 0.00 0.00 0.00 0.00 0.00 0.00 0.00 0.00 0.00 0.00 0.01 0.02 0.13 0.13 0.14 0.15 0.07 0.12 0.03 0.00 0.00 0.00 0.00 0.00 0.00 0.00 0.00 0.00 0.00 0.00 0.00 0.00 0.00 0.00 0.00 0.00 0.00 0.00
0.04 0.02 0.01 0.02 0.03 0.03 0.03 0.03 0.02 0.01 0.00 0.00 0.00 0.00 0.00 0.00 0.00 0.00 0.00 0.00 0.00 0.03 0.05 0.04 0.03 0.01 0.01 0.01 0.00 0.00 0.00 0.00 0.00 0.00 0.00 0.00 0.00 0.00 0.00 0.00 0.00 0.00 0.00 0.00 0.00 0.00 0.00
0.05 0.03 0.01 0.01 0.02 0.02 0.02 0.02 0.01 0.01 0.00 0.00 0.00 0.00 0.00 0.00 0.00 0.00 0.00 0.00 0.00 0.00 0.00 0.00 0.00 0.00 0.01 0.01 0.00 0.00 0.00 0.00 0.00 0.00 0.00 0.00 0.00 0.00 0.00 0.00 0.00 0.00 0.00 0.00 0.00 0.00 0.00
0.05 0.04 0.01 0.01 0.01 0.02 0.02 0.02 0.01 0.00 0.00 0.00 0.00 0.00 0.00 0.00 0.00 0.00 0.00 0.00 0.00 0.00 0.00 0.00 0.00 0.00 0.00 0.00 0.00 0.00 0.00 0.00 0.00 0.00 0.00 0.00 0.00 0.00 0.00 0.00 0.00 0.00 0.00 0.00 0.00 0.00 0.00
0.04 0.04 0.02 0.00 0.01 0.01 0.02 0.02 0.01 0.00 0.00 0.00 0.00 0.00 0.00 0.00 0.00 0.00 0.00 0.00 0.00 0.00 0.01 0.00 0.00 0.00 0.00 0.00 0.00 0.00 0.00 0.00 0.00 0.00 0.00 0.00 0.00 0.00 0.00 0.00 0.00 0.00 0.00 0.00 0.00 0.00 0.00
0.03 0.03 0.02 0.00 0.00 0.01 0.01 0.01 0.01 0.00 0.00 0.00 0.00 0.00 0.00 0.00 0.00 0.00 0.00 0.00 0.00 0.00 0.01 0.00 0.00 0.00 0.00 0.00 0.00 0.00 0.00 0.00 0.00 0.00 0.00 0.00 0.00 0.00 0.00 0.00 0.00 0.00 0.00 0.00 0.00 0.00 0.00
0.02 0.02 0.01 0.00 0.00 0.01 0.01 0.00 0.01 0.00 0.00 0.00 0.00 0.00 0.00 0.00 0.00 0.00 0.00 0.00 0.00 0.01 0.00 0.00 0.00 0.00 0.00 0.00 0.00 0.00 0.00 0.00 0.00 0.00 0.00 0.00 0.00 0.00 0.00 0.00 0.00 0.00 0.00 0.00 0.00 0.00 0.00
0.01 0.02 0.01 0.00 0.00 0.00 0.01 0.00 0.00 0.00 0.00 0.00 0.00 0.00 0.00 0.00 0.00 0.00 0.00 0.00 0.00 0.01 0.00 0.00 0.00 0.00 0.00 0.00 0.00 0.00 0.00 0.00 0.00 0.00 0.00 0.00 0.00 0.00 0.00 0.00 0.00 0.00 0.00 0.00 0.00 0.00 0.00
0.00 0.01 0.01 0.00 0.00 0.00 0.00 0.00 0.00 0.00 0.00 0.00 0.00 0.00 0.00 0.00 0.00 0.00 0.00 0.00 0.00 0.00 0.00 0.00 0.00 0.00 0.00 0.00 0.00 0.00 0.00 0.00 0.00 0.00 0.00 0.00 0.00 0.00 0.00 0.00 0.00 0.00 0.00 0.00 0.00 0.00 0.00
0.01 0.01 0.01 0.00 0.00 0.00 0.00 0.00 0.00 0.00 0.00 0.00 0.00 0.00 0.00 0.00 0.00 0.00 0.00 0.00 0.00 0.00 0.00 0.00 0.00 0.00 0.00 0.00 0.00 0.00 0.00 0.00 0.00 0.00 0.00 0.00 0.00 0.00 0.00 0.00 0.00 0.00 0.00 0.01 0.02 0.01 0.01
0.01 0.00 0.00 0.00 0.00 0.00 0.00 0.00 0.00 0.00 0.00 0.00 0.00 0.00 0.00 0.00 0.00 0.00 0.00 0.00 0.00 0.00 0.00 0.00 0.00 0.00 0.00 0.00 0.00 0.00 0.00 0.00 0.00 0.00 0.00 0.00 0.00 0.00 0.00 0.00 0.00 0.00 0.00 0.00 0.01 0.00 0.00
0.01 0.01 0.00 0.00 0.00 0.00 0.00 0.00 0.00 0.00 0.00 0.00 0.00 0.00 0.00 0.00 0.00 0.00 0.00 0.00 0.00 0.00 0.00 0.00 0.00 0.00 0.00 0.00 0.00 0.00 0.00 0.00 0.00 0.00 0.00 0.00 0.00 0.00 0.00 0.00 0.00 0.00 0.00 0.00 0.01 0.01 0.00
0.01 0.01 0.00 0.00 0.00 0.00 0.00 0.00 0.00 0.00 0.00 0.00 0.00 0.00 0.00 0.00 0.00 0.00 0.00 0.00 0.00 0.00 0.00 0.00 0.00 0.00 0.00 0.00 0.00 0.00 0.00 0.00 0.00 0.00 0.00 0.00 0.00 0.00 0.00 0.00 0.00 0.00 0.00 0.00 0.00 0.00 0.00
0.02 0.02 0.01 0.00 0.00 0.00 0.00 0.00 0.00 0.00 0.00 0.00 0.00 0.00 0.00 0.00 0.00 0.00 0.00 0.00 0.00 0.00 0.00 0.00 0.00 0.00 0.00 0.00 0.00 0.00 0.00 0.00 0.00 0.00 0.00 0.00 0.00 0.00 0.00 0.00 0.00 0.00 0.00 0.00 0.00 0.00 0.00
0.01 0.01 0.01 0.01 0.00 0.00 0.00 0.00 0.00 0.00 0.00 0.00 0.00 0.00 0.00 0.00 0.00 0.00 0.00 0.00 0.00 0.00 0.00 0.00 0.00 0.00 0.00 0.00 0.00 0.00 0.00 0.00 0.00 0.00 0.00 0.00 0.00 0.00 0.00 0.00 0.00 0.00 0.00 0.00 0.00 0.00 0.00
0.01 0.01 0.01 0.01 0.01 0.00 0.00 0.00 0.00 0.00 0.00 0.00 0.00 0.00 0.00 0.00 0.00 0.00 0.00 0.00 0.00 0.00 0.00 0.00 0.00 0.00 0.00 0.00 0.00 0.00 0.00 0.00 0.00 0.00 0.00 0.00 0.00 0.00 0.00 0.00 0.00 0.00 0.00 0.00 0.00 0.00 0.00
0.01 0.01 0.01 0.01 0.01 0.00 0.00 0.00 0.00 0.00 0.00 0.00 0.00 0.00 0.00 0.00 0.00 0.00 0.00 0.00 0.00 0.00 0.00 0.00 0.00 0.00 0.00 0.00 0.00 0.00 0.00 0.00 0.00 0.00 0.00 0.00 0.00 0.00 0.00 0.00 0.00 0.00 0.00 0.00 0.00 0.00 0.00
0.01 0.01 0.01 0.01 0.01 0.01 0.00 0.00 0.00 0.00 0.00 0.00 0.00 0.00 0.00 0.00 0.00 0.00 0.00 0.00 0.00 0.00 0.00 0.00 0.00 0.00 0.00 0.00 0.00 0.00 0.00 0.00 0.00 0.00 0.00 0.00 0.00 0.00 0.00 0.00 0.00 0.00 0.00 0.00 0.00 0.00 0.00
0.01 0.01 0.01 0.01 0.01 0.00 0.00 0.00 0.00 0.00 0.00 0.00 0.00 0.00 0.00 0.00 0.00 0.00 0.00 0.00 0.00 0.00 0.00 0.00 0.00 0.00 0.00 0.00 0.00 0.00 0.00 0.00 0.00 0.00 0.00 0.00 0.00 0.00 0.00 0.00 0.00 0.00 0.00 0.00 0.00 0.00 0.00
0.02 0.02 0.02 0.02 0.01 0.00 0.00 0.00 0.00 0.00 0.00 0.00 0.00 0.00 0.00 0.00 0.00 0.00 0.00 0.00 0.00 0.00 0.00 0.00 0.00 0.00 0.00 0.00 0.00 0.00 0.00 0.00 0.00 0.00 0.00 0.00 0.00 0.00 0.00 0.00 0.00 0.00 0.00 0.00 0.00 0.00 0.00
0.03 0.02 0.02 0.02 0.02 0.01 0.00 0.00 0.00 0.00 0.00 0.00 0.00 0.00 0.00 0.00 0.00 0.00 0.00 0.00 0.00 0.00 0.00 0.00 0.00 0.00 0.00 0.00 0.00 0.00 0.00 0.00 0.00 0.00 0.00 0.00 0.00 0.00 0.00 0.00 0.00 0.00 0.00 0.00 0.00 0.00 0.00
0.02 0.02 0.02 0.01 0.01 0.01 0.00 0.00 0.00 0.00 0.00 0.00 0.00 0.00 0.00 0.00 0.00 0.00 0.00 0.00 0.00 0.00 0.00 0.00 0.00 0.00 0.00 0.00 0.00 0.00 0.00 0.00 0.00 0.00 0.00 0.00 0.00 0.00 0.00 0.00 0.00 0.00 0.00 0.00 0.00 0.00 0.00
0.01 0.01 0.00 0.00 0.00 0.00 0.00 0.00 0.00 0.00 0.01 0.00 0.00 0.00 0.00 0.00 0.00 0.00 0.00 0.00 0.00 0.00 0.00 0.00 0.00 0.00 0.00 0.00 0.00 0.00 0.00 0.00 0.00 0.00 0.00 0.00 0.00 0.00 0.00 0.00 0.00 0.00 0.00 0.00 0.00 0.00 0.00

GFSGBSN_prec_precacc24_144.txt.gz
Total_Precipitation_Accumulation
0.03 0.03 0.04 0.05 0.06 0.04 0.01 0.01 0.01 0.01 0.02 0.05 0.08 0.07 0.09 0.10 0.26 0.64 0.92 0.89 0.91 0.68 0.41 0.54 0.70 1.38 1.55 1.73 1.36 0.55 0.26 0.11 0.01 0.00 0.00 0.00 0.00 0.00 0.00 0.00 0.00 0.00 0.00 0.00 0.00 0.00 0.00
0.03 0.03 0.03 0.04 0.05 0.04 0.02 0.00 0.00 0.00 0.00 0.01 0.04 0.06 0.05 0.10 0.14 0.48 0.95 0.93 0.73 0.59 0.39 0.37 0.45 0.75 0.77 1.28 0.90 0.38 0.12 0.01 0.00 0.00 0.00 0.00 0.00 0.00 0.00 0.00 0.00 0.00 0.00 0.00 0.00 0.00 0.00
0.03 0.03 0.03 0.03 0.04 0.05 0.03 0.01 0.00 0.00 0.00 0.00 0.00 0.02 0.04 0.07 0.14 0.17 0.28 0.45 0.48 0.43 0.33 0.25 0.26 0.39 0.49 1.04 0.44 0.24 0.04 0.00 0.00 0.00 0.00 0.00 0.00 0.00 0.00 0.00 0.00 0.00 0.00 0.00 0.00 0.00 0.00
0.02 0.03 0.03 0.03 0.03 0.04 0.03 0.01 0.00 0.00 0.00 0.00 0.00 0.00 0.01 0.07 0.06 0.08 0.14 0.14 0.15 0.20 0.22 0.18 0.19 0.17 0.45 0.40 0.16 0.08 0.05 0.01 0.00 0.00 0.00 0.00 0.00 0.00 0.00 0.00 0.00 0.00 0.00 0.00 0.00 0.00 0.00
0.02 0.02 0.03 0.04 0.03 0.03 0.03 0.01 0.00 0.00 0.00 0.00 0.00 0.00 0.00 0.01 0.04 0.03 0.04 0.04 0.04 0.07 0.11 0.11 0.11 0.07 0.32 0.16 0.11 0.04 0.03 0.01 0.00 0.00 0.00 0.00 0.00 0.00 0.00 0.00 0.00 0.00 0.00 0.00 0.00 0.00 0.00
0.03 0.01 0.02 0.03 0.04 0.03 0.03 0.02 0.01 0.00 0.00 0.00 0.00 0.00 0.00 0.00 0.00 0.01 0.01 0.00 0.00 0.01 0.03 0.06 0.04 0.07 0.25 0.13 0.05 0.02 0.01 0.00 0.00 0.00 0.00 0.00 0.00 0.00 0.00 0.00 0.00 0.00 0.00 0.00 0.00 0.00 0.00
0.04 0.01 0.01 0.02 0.03 0.03 0.03 0.02 0.01 0.00 0.00 0.00 0.00 0.00 0.00 0.00 0.00 0.00 0.00 0.00 0.00 0.03 0.01 0.03 0.03 0.02 0.04 0.00 0.00 0.00 0.00 0.00 0.00 0.00 0.00 0.00 0.00 0.00 0.00 0.00 0.00 0.00 0.00 0.00 0.00 0.00 0.00
0.04 0.02 0.01 0.01 0.03 0.03 0.03 0.02 0.01 0.00 0.00 0.00 0.00 0.00 0.00 0.00 0.00 0.00 0.00 0.00 0.00 0.01 0.01 0.00 0.00 0.00 0.00 0.00 0.00 0.00 0.00 0.00 0.00 0.00 0.00 0.00 0.00 0.00 0.00 0.00 0.00 0.00 0.00 0.00 0.00 0.00 0.00
0.05 0.03 0.01 0.01 0.02 0.02 0.02 0.02 0.01 0.00 0.00 0.00 0.00 0.00 0.00 0.00 0.00 0.00 0.00 0.00 0.00 0.00 0.00 0.00 0.00 0.00 0.00 0.00 0.00 0.00 0.00 0.00 0.00 0.00 0.00 0.00 0.00 0.00 0.00 0.00 0.00 0.00 0.00 0.00 0.00 0.00 0.00
0.05 0.04 0.02 0.01 0.01 0.01 0.01 0.01 0.00 0.00 0.00 0.00 0.00 0.00 0.00 0.00 0.00 0.00 0.00 0.00 0.00 0.00 0.00 0.00 0.00 0.00 0.00 0.00 0.00 0.00 0.00 0.00 0.00 0.00 0.00 0.00 0.00 0.00 0.00 0.00 0.00 0.00 0.00 0.00 0.00 0.00 0.00
0.04 0.04 0.02 0.01 0.01 0.01 0.01 0.01 0.01 0.00 0.00 0.00 0.00 0.00 0.00 0.00 0.00 0.00 0.00 0.00 0.00 0.00 0.00 0.00 0.00 0.00 0.00 0.00 0.00 0.00 0.00 0.00 0.00 0.00 0.00 0.00 0.00 0.00 0.00 0.00 0.00 0.00 0.00 0.00 0.00 0.00 0.00
0.02 0.03 0.02 0.00 0.00 0.01 0.01 0.01 0.01 0.00 0.00 0.00 0.00 0.00 0.00 0.00 0.00 0.00 0.00 0.00 0.00 0.00 0.00 0.00 0.00 0.00 0.00 0.00 0.00 0.00 0.00 0.00 0.00 0.00 0.00 0.00 0.00 0.00 0.00 0.00 0.00 0.00 0.00 0.00 0.00 0.00 0.00
0.01 0.01 0.01 0.00 0.00 0.00 0.00 0.00 0.01 0.00 0.00 0.00 0.00 0.00 0.00 0.00 0.00 0.00 0.00 0.00 0.00 0.00 0.00 0.00 0.00 0.00 0.00 0.00 0.00 0.00 0.00 0.00 0.00 0.00 0.00 0.00 0.00 0.00 0.00 0.00 0.00 0.00 0.00 0.00 0.00 0.00 0.00
0.01 0.01 0.01 0.00 0.00 0.00 0.00 0.00 0.00 0.00 0.00 0.00 0.00 0.00 0.00 0.00 0.00 0.00 0.00 0.00 0.00 0.00 0.00 0.00 0.00 0.00 0.00 0.00 0.00 0.00 0.00 0.00 0.00 0.00 0.00 0.00 0.00 0.00 0.00 0.00 0.00 0.00 0.00 0.00 0.00 0.00 0.00
0.00 0.00 0.00 0.00 0.00 0.00 0.00 0.00 0.00 0.00 0.00 0.00 0.00 0.00 0.00 0.00 0.00 0.00 0.00 0.00 0.00 0.00 0.00 0.00 0.00 0.00 0.00 0.00 0.00 0.00 0.00 0.00 0.00 0.00 0.00 0.00 0.00 0.00 0.00 0.00 0.00 0.00 0.00 0.00 0.00 0.00 0.00
0.01 0.00 0.00 0.00 0.00 0.00 0.00 0.00 0.00 0.00 0.00 0.00 0.00 0.00 0.00 0.00 0.00 0.00 0.00 0.00 0.00 0.00 0.00 0.00 0.00 0.00 0.00 0.00 0.00 0.00 0.00 0.00 0.00 0.00 0.00 0.00 0.00 0.00 0.00 0.00 0.00 0.00 0.00 0.00 0.00 0.00 0.00
0.01 0.00 0.00 0.00 0.00 0.00 0.00 0.00 0.00 0.00 0.00 0.00 0.00 0.00 0.00 0.00 0.00 0.00 0.00 0.00 0.00 0.00 0.00 0.00 0.00 0.00 0.00 0.00 0.00 0.00 0.00 0.00 0.00 0.00 0.00 0.00 0.00 0.00 0.00 0.00 0.00 0.00 0.00 0.00 0.00 0.00 0.00
0.01 0.01 0.00 0.00 0.00 0.00 0.00 0.00 0.00 0.00 0.00 0.00 0.00 0.00 0.00 0.00 0.00 0.00 0.00 0.00 0.00 0.00 0.00 0.00 0.00 0.00 0.00 0.00 0.00 0.00 0.00 0.00 0.00 0.00 0.00 0.00 0.00 0.00 0.00 0.00 0.00 0.00 0.00 0.00 0.00 0.00 0.00
0.01 0.01 0.00 0.00 0.00 0.00 0.00 0.00 0.00 0.00 0.00 0.00 0.00 0.00 0.00 0.00 0.00 0.00 0.00 0.00 0.00 0.00 0.00 0.00 0.00 0.00 0.00 0.00 0.00 0.00 0.00 0.00 0.00 0.00 0.00 0.00 0.00 0.00 0.00 0.00 0.00 0.00 0.00 0.00 0.00 0.00 0.00
0.02 0.02 0.01 0.00 0.00 0.00 0.00 0.00 0.00 0.00 0.00 0.00 0.00 0.00 0.00 0.00 0.00 0.00 0.00 0.00 0.00 0.00 0.00 0.00 0.00 0.00 0.00 0.00 0.00 0.00 0.00 0.00 0.00 0.00 0.00 0.00 0.00 0.00 0.00 0.00 0.00 0.00 0.00 0.00 0.00 0.00 0.00
0.01 0.01 0.01 0.01 0.00 0.00 0.00 0.00 0.00 0.00 0.00 0.00 0.00 0.00 0.00 0.00 0.00 0.00 0.00 0.00 0.00 0.00 0.00 0.00 0.00 0.00 0.00 0.00 0.00 0.00 0.00 0.00 0.00 0.00 0.00 0.00 0.00 0.00 0.00 0.00 0.00 0.00 0.00 0.00 0.00 0.00 0.00
0.01 0.01 0.01 0.01 0.01 0.00 0.00 0.00 0.00 0.00 0.00 0.00 0.00 0.00 0.00 0.00 0.00 0.00 0.00 0.00 0.00 0.00 0.00 0.00 0.00 0.00 0.00 0.00 0.00 0.00 0.00 0.00 0.00 0.00 0.00 0.00 0.00 0.00 0.00 0.00 0.00 0.00 0.00 0.00 0.00 0.00 0.00
0.01 0.01 0.01 0.01 0.01 0.00 0.00 0.00 0.00 0.00 0.00 0.00 0.00 0.00 0.00 0.00 0.00 0.00 0.00 0.00 0.00 0.00 0.00 0.00 0.00 0.00 0.00 0.00 0.00 0.00 0.00 0.00 0.00 0.00 0.00 0.00 0.00 0.00 0.00 0.00 0.00 0.00 0.00 0.00 0.00 0.00 0.00
0.01 0.01 0.01 0.01 0.01 0.01 0.00 0.00 0.00 0.00 0.00 0.00 0.00 0.00 0.00 0.00 0.00 0.00 0.00 0.00 0.00 0.00 0.00 0.00 0.00 0.00 0.00 0.00 0.00 0.00 0.00 0.00 0.00 0.00 0.00 0.00 0.00 0.00 0.00 0.00 0.00 0.00 0.00 0.00 0.00 0.00 0.00
0.02 0.01 0.02 0.01 0.01 0.00 0.00 0.00 0.00 0.00 0.00 0.00 0.00 0.00 0.00 0.00 0.00 0.00 0.00 0.00 0.00 0.00 0.00 0.00 0.00 0.00 0.00 0.00 0.00 0.00 0.00 0.00 0.00 0.00 0.00 0.00 0.00 0.00 0.00 0.00 0.00 0.00 0.00 0.00 0.00 0.00 0.00
0.02 0.02 0.03 0.03 0.01 0.01 0.00 0.00 0.00 0.00 0.00 0.00 0.00 0.00 0.00 0.00 0.00 0.00 0.00 0.00 0.00 0.00 0.00 0.00 0.00 0.00 0.00 0.00 0.00 0.00 0.00 0.00 0.00 0.00 0.00 0.00 0.00 0.00 0.00 0.00 0.00 0.00 0.00 0.00 0.00 0.00 0.00
0.03 0.03 0.02 0.02 0.02 0.01 0.00 0.00 0.00 0.00 0.00 0.00 0.00 0.00 0.00 0.00 0.00 0.00 0.00 0.00 0.00 0.00 0.00 0.00 0.00 0.00 0.00 0.00 0.00 0.00 0.00 0.00 0.00 0.00 0.00 0.00 0.00 0.00 0.00 0.00 0.00 0.00 0.00 0.00 0.00 0.00 0.00
0.02 0.02 0.02 0.01 0.01 0.01 0.00 0.00 0.00 0.00 0.00 0.00 0.00 0.00 0.00 0.00 0.00 0.00 0.00 0.00 0.00 0.00 0.00 0.00 0.00 0.00 0.00 0.00 0.00 0.00 0.00 0.00 0.00 0.00 0.00 0.00 0.00 0.00 0.00 0.00 0.00 0.00 0.00 0.00 0.00 0.00 0.00
0.01 0.01 0.00 0.00 0.00 0.00 0.00 0.00 0.00 0.01 0.01 0.00 0.00 0.00 0.00 0.00 0.00 0.00 0.00 0.00 0.00 0.00 0.00 0.00 0.00 0.00 0.00 0.00 0.00 0.00 0.00 0.00 0.00 0.00 0.00 0.00 0.00 0.00 0.00 0.00 0.00 0.00 0.00 0.00 0.00 0.00 0.00

GFSGBSN_prec_precacc24_147.txt.gz
Total_Precipitation_Accumulation
0.03 0.03 0.03 0.04 0.05 0.03 0.01 0.00 0.01 0.01 0.01 0.04 0.08 0.07 0.08 0.11 0.27 0.65 0.94 0.89 0.92 0.70 0.50 0.72 0.69 1.02 1.20 1.48 1.18 0.43 0.31 0.16 0.06 0.05 0.01 0.00 0.00 0.00 0.00 0.00 0.00 0.00 0.00 0.00 0.00 0.00 0.00
0.03 0.03 0.03 0.03 0.04 0.04 0.02 0.00 0.00 0.00 0.00 0.01 0.04 0.05 0.05 0.09 0.14 0.48 0.96 0.94 0.73 0.59 0.39 0.35 0.31 0.60 0.65 1.17 0.75 0.25 0.11 0.07 0.02 0.01 0.00 0.00 0.00 0.00 0.00 0.00 0.00 0.00 0.00 0.00 0.00 0.00 0.00
0.02 0.03 0.03 0.03 0.03 0.04 0.02 0.00 0.00 0.00 0.00 0.00 0.00 0.01 0.02 0.06 0.13 0.17 0.28 0.46 0.49 0.43 0.30 0.23 0.22 0.33 0.46 0.87 0.32 0.07 0.03 0.01 0.00 0.00 0.00 0.00 0.00 0.00 0.00 0.00 0.00 0.00 0.00 0.00 0.00 0.00 0.00
0.02 0.02 0.02 0.03 0.03 0.03 0.02 0.00 0.00 0.00 0.00 0.00 0.00 0.00 0.00 0.02 0.04 0.07 0.13 0.13 0.15 0.18 0.17 0.13 0.16 0.16 0.36 0.27 0.12 0.02 0.00 0.00 0.00 0.00 0.00 0.00 0.00 0.00 0.00 0.00 0.00 0.00 0.00 0.00 0.00 0.00 0.00
0.02 0.02 0.02 0.03 0.03 0.03 0.02 0.01 0.00 0.00 0.00 0.00 0.00 0.00 0.00 0.00 0.01 0.02 0.02 0.03 0.03 0.04 0.06 0.08 0.09 0.06 0.25 0.10 0.07 0.00 0.00 0.00 0.00 0.00 0.00 0.00 0.00 0.00 0.00 0.00 0.00 0.00 0.00 0.00 0.00 0.00 0.00
0.04 0.02 0.02 0.02 0.03 0.03 0.02 0.01 0.00 0.00 0.00 0.00 0.00 0.00 0.00 0.00 0.00 0.00 0.00 0.00 0.00 0.01 0.02 0.05 0.03 0.06 0.20 0.08 0.02 0.01 0.00 0.00 0.00 0.00 0.00 0.00 0.00 0.00 0.00 0.00 0.00 0.00 0.00 0.00 0.00 0.00 0.00
0.05 0.02 0.01 0.02 0.03 0.02 0.02 0.01 0.00 0.00 0.00 0.00 0.00 0.00 0.00 0.00 0.00 0.00 0.00 0.00 0.00 0.00 0.00 0.01 0.02 0.01 0.03 0.00 0.00 0.00 0.00 0.00 0.00 0.00 0.00 0.00 0.00 0.00 0.00 0.00 0.00 0.00 0.00 0.00 0.00 0.00 0.00
0.04 0.03 0.02 0.02 0.03 0.02 0.02 0.01 0.01 0.00 0.00 0.00 0.00 0.00 0.00 0.00 0.00 0.00 0.00 0.00 0.00 0.00 0.00 0.00 0.00 0.00 0.00 0.00 0.00 0.00 0.00 0.00 0.00 0.00 0.00 0.00 0.00 0.00 0.00 0.00 0.00 0.00 0.00 0.00 0.00 0.00 0.00
0.05 0.04 0.01 0.01 0.02 0.01 0.01 0.01 0.01 0.00 0.00 0.00 0.00 0.00 0.00 0.00 0.00 0.00 0.00 0.00 0.00 0.00 0.00 0.00 0.00 0.00 0.00 0.00 0.00 0.00 0.00 0.00 0.00 0.00 0.00 0.00 0.00 0.00 0.00 0.00 0.00 0.00 0.00 0.00 0.00 0.00 0.00
0.05 0.04 0.01 0.01 0.01 0.01 0.01 0.00 0.00 0.00 0.00 0.00 0.00 0.00 0.00 0.00 0.00 0.00 0.00 0.00 0.00 0.00 0.00 0.00 0.00 0.00 0.00 0.00 0.00 0.00 0.00 0.00 0.00 0.00 0.00 0.00 0.00 0.00 0.00 0.00 0.00 0.00 0.00 0.00 0.00 0.00 0.00
0.04 0.04 0.02 0.01 0.01 0.01 0.00 0.00 0.00 0.00 0.00 0.00 0.00 0.00 0.00 0.00 0.00 0.00 0.00 0.00 0.00 0.00 0.00 0.00 0.00 0.00 0.00 0.00 0.00 0.00 0.00 0.00 0.00 0.00 0.00 0.00 0.00 0.00 0.00 0.00 0.00 0.00 0.00 0.00 0.00 0.00 0.00
0.02 0.02 0.01 0.00 0.00 0.00 0.00 0.00 0.00 0.00 0.00 0.00 0.00 0.00 0.00 0.00 0.00 0.00 0.00 0.00 0.00 0.00 0.00 0.00 0.00 0.00 0.00 0.00 0.00 0.00 0.00 0.00 0.00 0.00 0.00 0.00 0.00 0.00 0.00 0.00 0.00 0.00 0.00 0.00 0.00 0.00 0.00
0.01 0.01 0.01 0.00 0.00 0.00 0.00 0.00 0.00 0.00 0.00 0.00 0.00 0.00 0.00 0.00 0.00 0.00 0.00 0.00 0.00 0.00 0.00 0.00 0.00 0.00 0.00 0.00 0.00 0.00 0.00 0.00 0.00 0.00 0.00 0.00 0.00 0.00 0.00 0.00 0.00 0.00 0.00 0.00 0.00 0.00 0.00
0.01 0.01 0.01 0.00 0.00 0.00 0.00 0.00 0.00 0.00 0.00 0.00 0.00 0.00 0.00 0.00 0.00 0.00 0.00 0.00 0.00 0.00 0.00 0.00 0.00 0.00 0.00 0.00 0.00 0.00 0.00 0.00 0.00 0.00 0.00 0.00 0.00 0.00 0.00 0.00 0.00 0.00 0.00 0.00 0.00 0.00 0.00
0.00 0.00 0.00 0.00 0.00 0.00 0.00 0.00 0.00 0.00 0.00 0.00 0.00 0.00 0.00 0.00 0.00 0.00 0.00 0.00 0.00 0.00 0.00 0.00 0.00 0.00 0.00 0.00 0.00 0.00 0.00 0.00 0.00 0.00 0.00 0.00 0.00 0.00 0.00 0.00 0.00 0.00 0.00 0.00 0.00 0.00 0.00
0.01 0.00 0.00 0.00 0.00 0.00 0.00 0.00 0.00 0.00 0.00 0.00 0.00 0.00 0.00 0.00 0.00 0.00 0.00 0.00 0.00 0.00 0.00 0.00 0.00 0.00 0.00 0.00 0.00 0.00 0.00 0.00 0.00 0.00 0.00 0.00 0.00 0.00 0.00 0.00 0.00 0.00 0.00 0.00 0.00 0.00 0.00
0.01 0.00 0.00 0.00 0.00 0.00 0.00 0.00 0.00 0.00 0.00 0.00 0.00 0.00 0.00 0.00 0.00 0.00 0.00 0.00 0.00 0.00 0.00 0.00 0.00 0.00 0.00 0.00 0.00 0.00 0.00 0.00 0.00 0.00 0.00 0.00 0.00 0.00 0.00 0.00 0.00 0.00 0.00 0.00 0.00 0.00 0.00
0.01 0.01 0.00 0.00 0.00 0.00 0.00 0.00 0.00 0.00 0.00 0.00 0.00 0.00 0.00 0.00 0.00 0.00 0.00 0.00 0.00 0.00 0.00 0.00 0.00 0.00 0.00 0.00 0.00 0.00 0.00 0.00 0.00 0.00 0.00 0.00 0.00 0.00 0.00 0.00 0.00 0.00 0.00 0.00 0.00 0.00 0.00
0.01 0.01 0.00 0.00 0.00 0.00 0.00 0.00 0.00 0.00 0.00 0.00 0.00 0.00 0.00 0.00 0.00 0.00 0.00 0.00 0.00 0.00 0.00 0.00 0.00 0.00 0.00 0.00 0.00 0.00 0.00 0.00 0.00 0.00 0.00 0.00 0.00 0.00 0.00 0.00 0.00 0.00 0.00 0.00 0.00 0.00 0.00
0.02 0.02 0.01 0.00 0.00 0.00 0.00 0.00 0.00 0.00 0.00 0.00 0.00 0.00 0.00 0.00 0.00 0.00 0.00 0.00 0.00 0.00 0.00 0.00 0.00 0.00 0.00 0.00 0.00 0.00 0.00 0.00 0.00 0.00 0.00 0.00 0.00 0.00 0.00 0.00 0.00 0.00 0.00 0.00 0.00 0.00 0.00
0.01 0.01 0.01 0.01 0.00 0.00 0.00 0.00 0.00 0.00 0.00 0.00 0.00 0.00 0.00 0.00 0.00 0.00 0.00 0.00 0.00 0.00 0.00 0.00 0.00 0.00 0.00 0.00 0.00 0.00 0.00 0.00 0.00 0.00 0.00 0.00 0.00 0.00 0.00 0.00 0.00 0.00 0.00 0.00 0.00 0.00 0.00
0.01 0.01 0.01 0.01 0.01 0.00 0.00 0.00 0.00 0.00 0.00 0.00 0.00 0.00 0.00 0.00 0.00 0.00 0.00 0.00 0.00 0.00 0.00 0.00 0.00 0.00 0.00 0.00 0.00 0.00 0.00 0.00 0.00 0.00 0.00 0.00 0.00 0.00 0.00 0.00 0.00 0.00 0.00 0.00 0.00 0.00 0.00
0.01 0.01 0.01 0.01 0.01 0.00 0.00 0.00 0.00 0.00 0.00 0.00 0.00 0.00 0.00 0.00 0.00 0.00 0.00 0.00 0.00 0.00 0.00 0.00 0.00 0.00 0.00 0.00 0.00 0.00 0.00 0.00 0.00 0.00 0.00 0.00 0.00 0.00 0.00 0.00 0.00 0.00 0.00 0.00 0.00 0.00 0.00
0.01 0.01 0.01 0.01 0.01 0.01 0.00 0.00 0.00 0.00 0.00 0.00 0.00 0.00 0.00 0.00 0.00 0.00 0.00 0.00 0.00 0.00 0.00 0.00 0.00 0.00 0.00 0.00 0.00 0.00 0.00 0.00 0.00 0.00 0.00 0.00 0.00 0.00 0.00 0.00 0.00 0.00 0.00 0.00 0.00 0.00 0.00
0.01 0.01 0.02 0.01 0.01 0.00 0.00 0.00 0.00 0.00 0.00 0.00 0.00 0.00 0.00 0.00 0.00 0.00 0.00 0.00 0.00 0.00 0.00 0.00 0.00 0.00 0.00 0.00 0.00 0.00 0.00 0.00 0.00 0.00 0.00 0.00 0.00 0.00 0.00 0.00 0.00 0.00 0.00 0.00 0.00 0.00 0.00
0.02 0.02 0.03 0.03 0.01 0.01 0.00 0.00 0.00 0.00 0.00 0.00 0.00 0.00 0.00 0.00 0.00 0.00 0.00 0.00 0.00 0.00 0.00 0.00 0.00 0.00 0.00 0.00 0.00 0.00 0.00 0.00 0.00 0.00 0.00 0.00 0.00 0.00 0.00 0.00 0.00 0.00 0.00 0.00 0.00 0.00 0.00
0.03 0.03 0.02 0.02 0.02 0.01 0.00 0.00 0.00 0.00 0.00 0.00 0.00 0.00 0.00 0.00 0.00 0.00 0.00 0.00 0.00 0.00 0.00 0.00 0.00 0.00 0.00 0.00 0.00 0.00 0.00 0.00 0.00 0.00 0.00 0.00 0.00 0.00 0.00 0.00 0.00 0.00 0.00 0.00 0.00 0.00 0.00
0.02 0.02 0.02 0.01 0.01 0.01 0.00 0.00 0.01 0.01 0.00 0.00 0.00 0.00 0.00 0.00 0.00 0.00 0.00 0.00 0.00 0.00 0.00 0.00 0.00 0.00 0.00 0.00 0.00 0.00 0.00 0.00 0.00 0.00 0.00 0.00 0.00 0.00 0.00 0.00 0.00 0.00 0.00 0.00 0.00 0.00 0.00
0.01 0.01 0.00 0.00 0.00 0.01 0.00 0.00 0.00 0.01 0.02 0.00 0.00 0.00 0.00 0.00 0.00 0.00 0.00 0.00 0.00 0.00 0.00 0.00 0.00 0.00 0.00 0.00 0.00 0.00 0.00 0.00 0.00 0.00 0.00 0.00 0.00 0.00 0.00 0.00 0.00 0.00 0.00 0.00 0.00 0.00 0.00

GFSGBSN_prec_precacc24_150.txt.gz
Total_Precipitation_Accumulation
0.02 0.03 0.03 0.03 0.04 0.03 0.01 0.00 0.00 0.01 0.01 0.03 0.04 0.04 0.07 0.09 0.26 0.65 0.94 0.94 0.99 0.73 0.56 0.60 0.51 0.72 0.79 1.22 0.86 0.27 0.30 0.17 0.14 0.35 0.06 0.00 0.00 0.00 0.00 0.00 0.00 0.00 0.00 0.00 0.00 0.00 0.00
0.02 0.02 0.02 0.03 0.03 0.03 0.01 0.00 0.00 0.00 0.00 0.00 0.01 0.02 0.02 0.06 0.13 0.48 0.96 0.94 0.72 0.58 0.37 0.28 0.22 0.49 0.50 0.92 0.47 0.13 0.10 0.08 0.19 0.29 0.04 0.00 0.00 0.00 0.00 0.00 0.00 0.00 0.00 0.00 0.00 0.00 0.00
0.02 0.02 0.02 0.02 0.03 0.03 0.02 0.00 0.00 0.00 0.00 0.00 0.00 0.00 0.00 0.02 0.08 0.15 0.26 0.43 0.45 0.40 0.29 0.22 0.20 0.31 0.40 0.62 0.12 0.00 0.03 0.02 0.10 0.09 0.00 0.00 0.00 0.00 0.00 0.00 0.00 0.00 0.00 0.00 0.00 0.00 0.00
0.03 0.02 0.02 0.03 0.02 0.03 0.02 0.00 0.00 0.00 0.00 0.00 0.00 0.00 0.00 0.00 0.01 0.06 0.12 0.11 0.13 0.16 0.16 0.13 0.15 0.15 0.27 0.10 0.00 0.00 0.00 0.00 0.01 0.00 0.00 0.00 0.00 0.00 0.00 0.00 0.00 0.00 0.00 0.00 0.00 0.00 0.00
0.03 0.03 0.02 0.03 0.03 0.02 0.02 0.01 0.00 0.00 0.00 0.00 0.00 0.00 0.00 0.00 0.00 0.00 0.02 0.03 0.03 0.04 0.06 0.08 0.09 0.05 0.18 0.06 0.02 0.00 0.00 0.00 0.00 0.00 0.00 0.00 0.00 0.00 0.00 0.00 0.00 0.00 0.00 0.00 0.00 0.00 0.00
0.04 0.02 0.02 0.03 0.03 0.02 0.02 0.01 0.00 0.00 0.00 0.00 0.00 0.00 0.00 0.00 0.00 0.00 0.00 0.00 0.00 0.01 0.02 0.05 0.03 0.05 0.14 0.05 0.00 0.00 0.00 0.00 0.00 0.00 0.00 0.00 0.00 0.00 0.00 0.00 0.00 0.00 0.00 0.00 0.00 0.00 0.00
0.05 0.02 0.02 0.03 0.03 0.02 0.02 0.01 0.00 0.00 0.00 0.00 0.00 0.00 0.00 0.00 0.00 0.00 0.00 0.00 0.00 0.00 0.00 0.01 0.02 0.01 0.03 0.00 0.00 0.00 0.00 0.00 0.00 0.00 0.00 0.00 0.00 0.00 0.00 0.00 0.00 0.00 0.00 0.00 0.00 0.00 0.00
0.04 0.02 0.02 0.02 0.02 0.02 0.02 0.01 0.01 0.00 0.00 0.00 0.00 0.00 0.00 0.00 0.00 0.00 0.00 0.00 0.00 0.00 0.00 0.00 0.00 0.00 0.00 0.00 0.00 0.00 0.00 0.00 0.00 0.00 0.00 0.00 0.00 0.00 0.00 0.00 0.00 0.00 0.00 0.00 0.00 0.00 0.00
0.04 0.03 0.01 0.01 0.01 0.01 0.01 0.01 0.01 0.00 0.00 0.00 0.00 0.00 0.00 0.00 0.00 0.00 0.00 0.00 0.00 0.00 0.00 0.00 0.00 0.00 0.00 0.00 0.00 0.00 0.00 0.00 0.00 0.00 0.00 0.00 0.00 0.00 0.00 0.00 0.00 0.00 0.00 0.00 0.00 0.00 0.00
0.04 0.03 0.01 0.00 0.00 0.00 0.00 0.00 0.00 0.00 0.00 0.00 0.00 0.00 0.00 0.00 0.00 0.00 0.00 0.00 0.00 0.00 0.00 0.00 0.00 0.00 0.00 0.00 0.00 0.00 0.00 0.00 0.00 0.00 0.00 0.00 0.00 0.00 0.00 0.00 0.00 0.00 0.00 0.00 0.00 0.00 0.00
0.03 0.03 0.01 0.00 0.00 0.00 0.00 0.00 0.00 0.00 0.00 0.00 0.00 0.00 0.00 0.00 0.00 0.00 0.00 0.00 0.00 0.00 0.00 0.00 0.00 0.00 0.00 0.00 0.00 0.00 0.00 0.00 0.00 0.00 0.00 0.00 0.00 0.00 0.00 0.00 0.00 0.00 0.00 0.00 0.00 0.00 0.00
0.02 0.02 0.01 0.00 0.00 0.00 0.00 0.00 0.00 0.00 0.00 0.00 0.00 0.00 0.00 0.00 0.00 0.00 0.00 0.00 0.00 0.00 0.00 0.00 0.00 0.00 0.00 0.00 0.00 0.00 0.00 0.00 0.00 0.00 0.00 0.00 0.00 0.00 0.00 0.00 0.00 0.00 0.00 0.00 0.00 0.00 0.00
0.01 0.01 0.00 0.00 0.00 0.00 0.00 0.00 0.00 0.00 0.00 0.00 0.00 0.00 0.00 0.00 0.00 0.00 0.00 0.00 0.00 0.00 0.00 0.00 0.00 0.00 0.00 0.00 0.00 0.00 0.00 0.00 0.00 0.00 0.00 0.00 0.00 0.00 0.00 0.00 0.00 0.00 0.00 0.00 0.00 0.00 0.00
0.00 0.01 0.00 0.00 0.00 0.00 0.00 0.00 0.00 0.00 0.00 0.00 0.00 0.00 0.00 0.00 0.00 0.00 0.00 0.00 0.00 0.00 0.00 0.00 0.00 0.00 0.00 0.00 0.00 0.00 0.00 0.00 0.00 0.00 0.00 0.00 0.00 0.00 0.00 0.00 0.00 0.00 0.00 0.00 0.00 0.00 0.00
0.00 0.00 0.00 0.00 0.00 0.00 0.00 0.00 0.00 0.00 0.00 0.00 0.00 0.00 0.00 0.00 0.00 0.00 0.00 0.00 0.00 0.00 0.00 0.00 0.00 0.00 0.00 0.00 0.00 0.00 0.00 0.00 0.00 0.00 0.00 0.00 0.00 0.00 0.00 0.00 0.00 0.00 0.00 0.00 0.00 0.00 0.00
0.01 0.00 0.00 0.00 0.00 0.00 0.00 0.00 0.00 0.00 0.00 0.00 0.00 0.00 0.00 0.00 0.00 0.00 0.00 0.00 0.00 0.00 0.00 0.00 0.00 0.00 0.00 0.00 0.00 0.00 0.00 0.00 0.00 0.00 0.00 0.00 0.00 0.00 0.00 0.00 0.00 0.00 0.00 0.00 0.00 0.00 0.00
0.01 0.00 0.00 0.00 0.00 0.00 0.00 0.00 0.00 0.00 0.00 0.00 0.00 0.00 0.00 0.00 0.00 0.00 0.00 0.00 0.00 0.00 0.00 0.00 0.00 0.00 0.00 0.00 0.00 0.00 0.00 0.00 0.00 0.00 0.00 0.00 0.00 0.00 0.00 0.00 0.00 0.00 0.00 0.00 0.00 0.00 0.00
0.01 0.01 0.00 0.00 0.00 0.00 0.00 0.00 0.00 0.00 0.00 0.00 0.00 0.00 0.00 0.00 0.00 0.00 0.00 0.00 0.00 0.00 0.00 0.00 0.00 0.00 0.00 0.00 0.00 0.00 0.00 0.00 0.00 0.00 0.00 0.00 0.00 0.00 0.00 0.00 0.00 0.00 0.00 0.00 0.00 0.00 0.00
0.01 0.01 0.00 0.00 0.00 0.00 0.00 0.00 0.00 0.00 0.00 0.00 0.00 0.00 0.00 0.00 0.00 0.00 0.00 0.00 0.00 0.00 0.00 0.00 0.00 0.00 0.00 0.00 0.00 0.00 0.00 0.00 0.00 0.00 0.00 0.00 0.00 0.00 0.00 0.00 0.00 0.00 0.00 0.00 0.00 0.00 0.00
0.02 0.02 0.01 0.00 0.00 0.00 0.00 0.00 0.00 0.00 0.00 0.00 0.00 0.00 0.00 0.00 0.00 0.00 0.00 0.00 0.00 0.00 0.00 0.00 0.00 0.00 0.00 0.00 0.00 0.00 0.00 0.00 0.00 0.00 0.00 0.00 0.00 0.00 0.00 0.00 0.00 0.00 0.00 0.00 0.00 0.00 0.00
0.01 0.01 0.01 0.01 0.00 0.00 0.00 0.00 0.00 0.00 0.00 0.00 0.00 0.00 0.00 0.00 0.00 0.00 0.00 0.00 0.00 0.00 0.00 0.00 0.00 0.00 0.00 0.00 0.00 0.00 0.00 0.00 0.00 0.00 0.00 0.00 0.00 0.00 0.00 0.00 0.00 0.00 0.00 0.00 0.00 0.00 0.00
0.01 0.01 0.01 0.01 0.01 0.00 0.00 0.00 0.00 0.00 0.00 0.00 0.00 0.00 0.00 0.00 0.00 0.00 0.00 0.00 0.00 0.00 0.00 0.00 0.00 0.00 0.00 0.00 0.00 0.00 0.00 0.00 0.00 0.00 0.00 0.00 0.00 0.00 0.00 0.00 0.00 0.00 0.00 0.00 0.00 0.00 0.00
0.00 0.01 0.01 0.01 0.01 0.00 0.00 0.00 0.00 0.00 0.00 0.00 0.00 0.00 0.00 0.00 0.00 0.00 0.00 0.00 0.00 0.00 0.00 0.00 0.00 0.00 0.00 0.00 0.00 0.00 0.00 0.00 0.00 0.00 0.00 0.00 0.00 0.00 0.00 0.00 0.00 0.00 0.00 0.00 0.00 0.00 0.00
0.00 0.01 0.01 0.01 0.01 0.01 0.00 0.00 0.00 0.00 0.00 0.00 0.00 0.00 0.00 0.00 0.00 0.00 0.00 0.00 0.00 0.00 0.00 0.00 0.00 0.00 0.00 0.00 0.00 0.00 0.00 0.00 0.00 0.00 0.00 0.00 0.00 0.00 0.00 0.00 0.00 0.00 0.00 0.00 0.00 0.00 0.00
0.01 0.01 0.01 0.01 0.01 0.00 0.00 0.00 0.00 0.00 0.00 0.00 0.00 0.00 0.00 0.00 0.00 0.00 0.00 0.00 0.00 0.00 0.00 0.00 0.00 0.00 0.00 0.00 0.00 0.00 0.00 0.00 0.00 0.00 0.00 0.00 0.00 0.00 0.00 0.00 0.00 0.00 0.00 0.00 0.00 0.00 0.00
0.02 0.01 0.02 0.02 0.01 0.01 0.00 0.00 0.00 0.00 0.00 0.00 0.00 0.00 0.00 0.00 0.00 0.00 0.00 0.00 0.00 0.00 0.00 0.00 0.00 0.00 0.00 0.00 0.00 0.00 0.00 0.00 0.00 0.00 0.00 0.00 0.00 0.00 0.00 0.00 0.00 0.00 0.00 0.00 0.00 0.00 0.00
0.03 0.03 0.02 0.02 0.02 0.01 0.00 0.00 0.00 0.00 0.00 0.00 0.00 0.00 0.00 0.00 0.00 0.00 0.00 0.00 0.00 0.00 0.00 0.00 0.00 0.00 0.00 0.00 0.00 0.00 0.00 0.00 0.00 0.00 0.00 0.00 0.00 0.00 0.00 0.00 0.00 0.00 0.00 0.00 0.00 0.00 0.00
0.03 0.02 0.02 0.01 0.01 0.01 0.00 0.00 0.01 0.01 0.00 0.00 0.00 0.00 0.00 0.00 0.00 0.00 0.00 0.00 0.00 0.00 0.00 0.00 0.00 0.00 0.00 0.00 0.00 0.00 0.00 0.00 0.00 0.00 0.00 0.00 0.00 0.00 0.00 0.00 0.00 0.00 0.00 0.00 0.00 0.00 0.00
0.02 0.01 0.00 0.00 0.00 0.01 0.00 0.00 0.00 0.01 0.02 0.00 0.00 0.00 0.00 0.00 0.00 0.00 0.00 0.00 0.00 0.00 0.00 0.00 0.00 0.00 0.00 0.00 0.00 0.00 0.00 0.00 0.00 0.00 0.00 0.00 0.00 0.00 0.00 0.00 0.00 0.00 0.00 0.00 0.00 0.00 0.00

GFSGBSN_prec_precacc24_153.txt.gz
Total_Precipitation_Accumulation
0.02 0.02 0.02 0.03 0.03 0.02 0.00 0.00 0.00 0.01 0.01 0.01 0.01 0.01 0.03 0.08 0.26 0.65 0.92 0.86 0.79 0.54 0.53 0.55 0.39 0.38 0.44 0.70 0.51 0.23 0.30 0.17 0.14 0.40 0.13 0.03 0.00 0.00 0.00 0.00 0.00 0.00 0.00 0.00 0.00 0.00 0.00
0.02 0.02 0.02 0.02 0.03 0.02 0.01 0.00 0.00 0.00 0.00 0.00 0.00 0.00 0.00 0.03 0.11 0.44 0.91 0.86 0.58 0.47 0.30 0.15 0.08 0.14 0.31 0.61 0.33 0.12 0.10 0.08 0.19 0.32 0.09 0.02 0.00 0.00 0.00 0.00 0.00 0.00 0.00 0.00 0.00 0.00 0.00
0.03 0.02 0.02 0.02 0.02 0.02 0.01 0.00 0.00 0.00 0.00 0.00 0.00 0.00 0.00 0.00 0.04 0.08 0.20 0.37 0.34 0.32 0.23 0.09 0.05 0.11 0.25 0.39 0.07 0.00 0.03 0.02 0.10 0.13 0.06 0.02 0.00 0.00 0.00 0.00 0.00 0.00 0.00 0.00 0.00 0.00 0.00
0.03 0.03 0.03 0.03 0.02 0.02 0.01 0.00 0.00 0.00 0.00 0.00 0.00 0.00 0.00 0.00 0.00 0.02 0.07 0.08 0.12 0.16 0.14 0.07 0.04 0.04 0.13 0.05 0.00 0.00 0.00 0.01 0.04 0.03 0.02 0.01 0.00 0.00 0.00 0.00 0.00 0.00 0.00 0.00 0.00 0.00 0.00
0.04 0.04 0.03 0.03 0.03 0.03 0.02 0.01 0.00 0.00 0.00 0.00 0.00 0.00 0.00 0.00 0.00 0.00 0.01 0.02 0.03 0.04 0.06 0.07 0.07 0.04 0.15 0.06 0.03 0.00 0.00 0.00 0.02 0.01 0.02 0.01 0.00 0.00 0.00 0.00 0.00 0.00 0.00 0.00 0.00 0.00 0.00
0.04 0.03 0.02 0.03 0.03 0.02 0.02 0.01 0.00 0.00 0.00 0.00 0.00 0.00 0.00 0.00 0.00 0.00 0.00 0.00 0.00 0.01 0.02 0.05 0.03 0.05 0.16 0.07 0.01 0.00 0.00 0.00 0.01 0.02 0.00 0.00 0.00 0.00 0.00 0.00 0.00 0.00 0.00 0.00 0.00 0.00 0.00
0.04 0.02 0.02 0.03 0.02 0.02 0.02 0.01 0.01 0.00 0.00 0.00 0.00 0.00 0.00 0.00 0.00 0.00 0.00 0.00 0.00 0.00 0.00 0.01 0.01 0.01 0.03 0.00 0.00 0.00 0.00 0.01 0.03 0.01 0.00 0.00 0.00 0.00 0.00 0.00 0.00 0.00 0.00 0.00 0.00 0.00 0.00
0.03 0.02 0.02 0.01 0.02 0.01 0.01 0.01 0.01 0.00 0.00 0.00 0.00 0.00 0.00 0.00 0.00 0.00 0.00 0.00 0.00 0.00 0.00 0.00 0.00 0.00 0.00 0.00 0.00 0.00 0.00 0.00 0.00 0.00 0.00 0.00 0.00 0.00 0.00 0.00 0.00 0.00 0.00 0.00 0.00 0.00 0.00
0.04 0.02 0.01 0.01 0.01 0.01 0.00 0.01 0.01 0.00 0.00 0.00 0.00 0.00 0.00 0.00 0.00 0.00 0.00 0.00 0.00 0.00 0.00 0.00 0.00 0.00 0.00 0.00 0.00 0.00 0.00 0.00 0.00 0.00 0.00 0.00 0.00 0.00 0.00 0.00 0.00 0.00 0.00 0.00 0.00 0.00 0.00
0.04 0.02 0.01 0.00 0.00 0.00 0.00 0.00 0.01 0.00 0.00 0.00 0.00 0.00 0.00 0.00 0.00 0.00 0.00 0.00 0.00 0.00 0.00 0.00 0.00 0.00 0.00 0.00 0.00 0.00 0.00 0.00 0.00 0.00 0.00 0.00 0.00 0.00 0.00 0.00 0.00 0.00 0.00 0.00 0.00 0.00 0.00
0.03 0.02 0.01 0.00 0.00 0.00 0.00 0.00 0.00 0.00 0.00 0.00 0.00 0.00 0.00 0.00 0.00 0.00 0.00 0.00 0.00 0.00 0.00 0.00 0.00 0.00 0.00 0.00 0.00 0.00 0.00 0.00 0.00 0.00 0.00 0.00 0.00 0.00 0.00 0.00 0.00 0.00 0.00 0.00 0.00 0.00 0.00
0.01 0.02 0.01 0.00 0.00 0.00 0.00 0.00 0.00 0.00 0.00 0.00 0.00 0.00 0.00 0.00 0.00 0.00 0.00 0.00 0.00 0.00 0.00 0.00 0.00 0.00 0.00 0.00 0.00 0.00 0.00 0.00 0.00 0.00 0.00 0.00 0.00 0.00 0.00 0.00 0.00 0.00 0.00 0.00 0.00 0.00 0.00
0.00 0.01 0.00 0.00 0.00 0.00 0.00 0.00 0.00 0.00 0.00 0.00 0.00 0.00 0.00 0.00 0.00 0.00 0.00 0.00 0.00 0.00 0.00 0.00 0.00 0.00 0.00 0.00 0.00 0.00 0.00 0.00 0.00 0.00 0.00 0.00 0.00 0.00 0.00 0.00 0.00 0.00 0.00 0.00 0.00 0.00 0.00
0.00 0.01 0.00 0.00 0.00 0.00 0.00 0.00 0.00 0.00 0.00 0.00 0.00 0.00 0.00 0.00 0.00 0.00 0.00 0.00 0.00 0.00 0.00 0.00 0.00 0.00 0.00 0.00 0.00 0.00 0.00 0.00 0.00 0.00 0.00 0.00 0.00 0.00 0.00 0.00 0.00 0.00 0.00 0.00 0.00 0.00 0.00
0.00 0.00 0.00 0.00 0.00 0.00 0.00 0.00 0.00 0.00 0.00 0.00 0.00 0.00 0.00 0.00 0.00 0.00 0.00 0.00 0.00 0.00 0.00 0.00 0.00 0.00 0.00 0.00 0.00 0.00 0.00 0.00 0.00 0.00 0.00 0.00 0.00 0.00 0.00 0.00 0.00 0.00 0.00 0.00 0.00 0.00 0.00
0.01 0.00 0.00 0.00 0.00 0.00 0.00 0.00 0.00 0.00 0.00 0.00 0.00 0.00 0.00 0.00 0.00 0.00 0.00 0.00 0.00 0.00 0.00 0.00 0.00 0.00 0.00 0.00 0.00 0.00 0.00 0.00 0.00 0.00 0.00 0.00 0.00 0.00 0.00 0.00 0.00 0.00 0.00 0.00 0.00 0.00 0.00
0.01 0.00 0.00 0.00 0.00 0.00 0.00 0.00 0.00 0.00 0.00 0.00 0.00 0.00 0.00 0.00 0.00 0.00 0.00 0.00 0.00 0.00 0.00 0.00 0.00 0.00 0.00 0.00 0.00 0.00 0.00 0.00 0.00 0.00 0.00 0.00 0.00 0.00 0.00 0.00 0.00 0.00 0.00 0.00 0.00 0.00 0.00
0.01 0.01 0.00 0.00 0.00 0.00 0.00 0.00 0.00 0.00 0.00 0.00 0.00 0.00 0.00 0.00 0.00 0.00 0.00 0.00 0.00 0.00 0.00 0.00 0.00 0.00 0.00 0.00 0.00 0.00 0.00 0.00 0.00 0.00 0.00 0.00 0.00 0.00 0.00 0.00 0.00 0.00 0.00 0.00 0.00 0.00 0.00
0.01 0.01 0.00 0.00 0.00 0.00 0.00 0.00 0.00 0.00 0.00 0.00 0.00 0.00 0.00 0.00 0.00 0.00 0.00 0.00 0.00 0.00 0.00 0.00 0.00 0.00 0.00 0.00 0.00 0.00 0.00 0.00 0.00 0.00 0.00 0.00 0.00 0.00 0.00 0.00 0.00 0.00 0.00 0.00 0.00 0.00 0.00
0.01 0.01 0.01 0.00 0.00 0.00 0.00 0.00 0.00 0.00 0.00 0.00 0.00 0.00 0.00 0.00 0.00 0.00 0.00 0.00 0.00 0.00 0.00 0.00 0.00 0.00 0.00 0.00 0.00 0.00 0.00 0.00 0.00 0.00 0.00 0.00 0.00 0.00 0.00 0.00 0.00 0.00 0.00 0.00 0.00 0.00 0.00
0.00 0.01 0.01 0.01 0.00 0.00 0.00 0.00 0.00 0.00 0.00 0.00 0.00 0.00 0.00 0.00 0.00 0.00 0.00 0.00 0.00 0.00 0.00 0.00 0.00 0.00 0.00 0.00 0.00 0.00 0.00 0.00 0.00 0.00 0.00 0.00 0.00 0.00 0.00 0.00 0.00 0.00 0.00 0.00 0.00 0.00 0.00
0.00 0.00 0.01 0.01 0.01 0.00 0.00 0.00 0.00 0.00 0.00 0.00 0.00 0.00 0.00 0.00 0.00 0.00 0.00 0.00 0.00 0.00 0.00 0.00 0.00 0.00 0.00 0.00 0.00 0.00 0.00 0.00 0.00 0.00 0.00 0.00 0.00 0.00 0.00 0.00 0.00 0.00 0.00 0.00 0.00 0.00 0.00
0.00 0.00 0.00 0.01 0.01 0.00 0.00 0.00 0.00 0.00 0.00 0.00 0.00 0.00 0.00 0.00 0.00 0.00 0.00 0.00 0.00 0.00 0.00 0.00 0.00 0.00 0.00 0.00 0.00 0.00 0.00 0.00 0.00 0.00 0.00 0.00 0.00 0.00 0.00 0.00 0.00 0.00 0.00 0.00 0.00 0.00 0.00
0.00 0.00 0.00 0.01 0.01 0.01 0.00 0.00 0.00 0.00 0.00 0.00 0.00 0.00 0.00 0.00 0.00 0.00 0.00 0.00 0.00 0.00 0.00 0.00 0.00 0.00 0.00 0.00 0.00 0.00 0.00 0.00 0.00 0.00 0.00 0.00 0.00 0.00 0.00 0.00 0.00 0.00 0.00 0.00 0.00 0.00 0.00
0.01 0.00 0.00 0.00 0.00 0.00 0.00 0.00 0.00 0.00 0.00 0.00 0.00 0.00 0.00 0.00 0.00 0.00 0.00 0.00 0.00 0.00 0.00 0.00 0.00 0.00 0.00 0.00 0.00 0.00 0.00 0.00 0.00 0.00 0.00 0.00 0.00 0.00 0.00 0.00 0.00 0.00 0.00 0.00 0.00 0.00 0.00
0.02 0.01 0.01 0.01 0.01 0.01 0.00 0.00 0.00 0.00 0.00 0.00 0.00 0.00 0.00 0.00 0.00 0.00 0.00 0.00 0.00 0.00 0.00 0.00 0.00 0.00 0.00 0.00 0.00 0.00 0.00 0.00 0.00 0.00 0.00 0.00 0.00 0.00 0.00 0.00 0.00 0.00 0.00 0.00 0.00 0.00 0.00
0.03 0.03 0.02 0.01 0.01 0.01 0.00 0.00 0.00 0.00 0.00 0.00 0.00 0.00 0.00 0.00 0.00 0.00 0.00 0.00 0.00 0.00 0.00 0.00 0.00 0.00 0.00 0.00 0.00 0.00 0.00 0.00 0.00 0.00 0.00 0.00 0.00 0.00 0.00 0.00 0.00 0.00 0.00 0.00 0.00 0.00 0.00
0.03 0.02 0.01 0.01 0.01 0.01 0.00 0.00 0.01 0.01 0.00 0.00 0.00 0.00 0.00 0.00 0.00 0.00 0.00 0.00 0.00 0.00 0.00 0.00 0.00 0.00 0.00 0.00 0.00 0.00 0.00 0.00 0.00 0.00 0.00 0.00 0.00 0.00 0.00 0.00 0.00 0.00 0.00 0.00 0.00 0.00 0.00
0.02 0.01 0.00 0.00 0.00 0.00 0.00 0.00 0.00 0.01 0.02 0.00 0.00 0.00 0.00 0.00 0.00 0.00 0.00 0.00 0.00 0.00 0.00 0.00 0.00 0.00 0.00 0.00 0.00 0.00 0.00 0.00 0.00 0.00 0.00 0.00 0.00 0.00 0.00 0.00 0.00 0.00 0.00 0.00 0.00 0.00 0.00